<?xml version="1.0" encoding="UTF-8"?>
<gpx version="1.1" creator="https://www.youtrack.es" xsi:schemaLocation="http://www.topografix.com/GPX/1/1 http://www.topografix.com/GPX/1/1/gpx.xsd http://www.garmin.com/xmlschemas/GpxExtensions/v3 http://www.garmin.com/xmlschemas/GpxExtensionsv3.xsd http://www.garmin.com/xmlschemas/TrackPointExtension/v1 http://www.garmin.com/xmlschemas/TrackPointExtensionv1.xsd" xmlns:gpxtpx="http://www.garmin.com/xmlschemas/TrackPointExtension/v1" xmlns:gpxx="http://www.garmin.com/xmlschemas/GpxExtensions/v3" xmlns:xsi="http://www.w3.org/2001/XMLSchema-instance">
  <metadata>
    <link href="https://www.youtrack.es">
      <text>YouTrack.es</text>
    </link>
    <time>2026-05-08T06:17:11Z</time>
  </metadata>
  <trk>
    <src>https://www.youtrack.es</src>
    <link href="https://www.youtrack.es/ruta/3102-ruta-cornellana-tineo">
      <text>YouTrack.es</text>
    </link>
    <trkseg>
      <trkpt lat="43.411389" lon="-6.148939">
        <ele>115.082</ele>
        <time>2018-03-20T14:19:18Z</time>
      </trkpt>
      <trkpt lat="43.412667" lon="-6.150082">
        <ele>115.043</ele>
        <time>2018-03-20T14:19:31Z</time>
      </trkpt>
      <trkpt lat="43.412578" lon="-6.150129">
        <ele>115.017</ele>
        <time>2018-03-20T14:19:54Z</time>
      </trkpt>
      <trkpt lat="43.412631" lon="-6.150174">
        <ele>115.008</ele>
        <time>2018-03-20T14:19:57Z</time>
      </trkpt>
      <trkpt lat="43.412690" lon="-6.150220">
        <ele>115.030</ele>
        <time>2018-03-20T14:19:59Z</time>
      </trkpt>
      <trkpt lat="43.412747" lon="-6.150273">
        <ele>115.031</ele>
        <time>2018-03-20T14:20:01Z</time>
      </trkpt>
      <trkpt lat="43.412797" lon="-6.150304">
        <ele>115.061</ele>
        <time>2018-03-20T14:20:03Z</time>
      </trkpt>
      <trkpt lat="43.412859" lon="-6.150332">
        <ele>115.084</ele>
        <time>2018-03-20T14:20:05Z</time>
      </trkpt>
      <trkpt lat="43.412923" lon="-6.150360">
        <ele>115.065</ele>
        <time>2018-03-20T14:20:08Z</time>
      </trkpt>
      <trkpt lat="43.412976" lon="-6.150371">
        <ele>115.013</ele>
        <time>2018-03-20T14:20:11Z</time>
      </trkpt>
      <trkpt lat="43.413066" lon="-6.150381">
        <ele>115.050</ele>
        <time>2018-03-20T14:20:31Z</time>
      </trkpt>
      <trkpt lat="43.413115" lon="-6.150425">
        <ele>115.035</ele>
        <time>2018-03-20T14:20:34Z</time>
      </trkpt>
      <trkpt lat="43.413176" lon="-6.150473">
        <ele>115.052</ele>
        <time>2018-03-20T14:20:36Z</time>
      </trkpt>
      <trkpt lat="43.413251" lon="-6.150509">
        <ele>115.053</ele>
        <time>2018-03-20T14:20:38Z</time>
      </trkpt>
      <trkpt lat="43.413324" lon="-6.150536">
        <ele>115.008</ele>
        <time>2018-03-20T14:20:40Z</time>
      </trkpt>
      <trkpt lat="43.413372" lon="-6.150564">
        <ele>113.608</ele>
        <time>2018-03-20T14:20:45Z</time>
      </trkpt>
      <trkpt lat="43.413431" lon="-6.150585">
        <ele>112.017</ele>
        <time>2018-03-20T14:20:49Z</time>
      </trkpt>
      <trkpt lat="43.413485" lon="-6.150607">
        <ele>111.848</ele>
        <time>2018-03-20T14:20:52Z</time>
      </trkpt>
      <trkpt lat="43.413540" lon="-6.150652">
        <ele>112.598</ele>
        <time>2018-03-20T14:20:55Z</time>
      </trkpt>
      <trkpt lat="43.413581" lon="-6.150697">
        <ele>113.321</ele>
        <time>2018-03-20T14:20:58Z</time>
      </trkpt>
      <trkpt lat="43.413623" lon="-6.150741">
        <ele>113.422</ele>
        <time>2018-03-20T14:21:02Z</time>
      </trkpt>
      <trkpt lat="43.413663" lon="-6.150787">
        <ele>113.590</ele>
        <time>2018-03-20T14:21:06Z</time>
      </trkpt>
      <trkpt lat="43.413708" lon="-6.150833">
        <ele>112.337</ele>
        <time>2018-03-20T14:21:10Z</time>
      </trkpt>
      <trkpt lat="43.413754" lon="-6.150876">
        <ele>112.872</ele>
        <time>2018-03-20T14:21:14Z</time>
      </trkpt>
      <trkpt lat="43.413796" lon="-6.150921">
        <ele>113.561</ele>
        <time>2018-03-20T14:21:17Z</time>
      </trkpt>
      <trkpt lat="43.413837" lon="-6.150963">
        <ele>113.521</ele>
        <time>2018-03-20T14:21:20Z</time>
      </trkpt>
      <trkpt lat="43.413870" lon="-6.151009">
        <ele>114.313</ele>
        <time>2018-03-20T14:21:23Z</time>
      </trkpt>
      <trkpt lat="43.413897" lon="-6.151069">
        <ele>114.008</ele>
        <time>2018-03-20T14:21:28Z</time>
      </trkpt>
      <trkpt lat="43.413904" lon="-6.151144">
        <ele>112.638</ele>
        <time>2018-03-20T14:21:33Z</time>
      </trkpt>
      <trkpt lat="43.413899" lon="-6.151214">
        <ele>112.299</ele>
        <time>2018-03-20T14:21:36Z</time>
      </trkpt>
      <trkpt lat="43.413889" lon="-6.151280">
        <ele>111.549</ele>
        <time>2018-03-20T14:21:39Z</time>
      </trkpt>
      <trkpt lat="43.413874" lon="-6.151344">
        <ele>110.382</ele>
        <time>2018-03-20T14:21:42Z</time>
      </trkpt>
      <trkpt lat="43.413855" lon="-6.151409">
        <ele>110.073</ele>
        <time>2018-03-20T14:21:46Z</time>
      </trkpt>
      <trkpt lat="43.413839" lon="-6.151468">
        <ele>110.271</ele>
        <time>2018-03-20T14:21:49Z</time>
      </trkpt>
      <trkpt lat="43.413822" lon="-6.151539">
        <ele>110.358</ele>
        <time>2018-03-20T14:21:52Z</time>
      </trkpt>
      <trkpt lat="43.413811" lon="-6.151617">
        <ele>111.263</ele>
        <time>2018-03-20T14:21:55Z</time>
      </trkpt>
      <trkpt lat="43.413811" lon="-6.151694">
        <ele>112.917</ele>
        <time>2018-03-20T14:21:58Z</time>
      </trkpt>
      <trkpt lat="43.413814" lon="-6.151758">
        <ele>113.187</ele>
        <time>2018-03-20T14:22:01Z</time>
      </trkpt>
      <trkpt lat="43.413809" lon="-6.151832">
        <ele>113.215</ele>
        <time>2018-03-20T14:22:05Z</time>
      </trkpt>
      <trkpt lat="43.413788" lon="-6.151943">
        <ele>112.508</ele>
        <time>2018-03-20T14:22:15Z</time>
      </trkpt>
      <trkpt lat="43.413791" lon="-6.152019">
        <ele>112.193</ele>
        <time>2018-03-20T14:22:20Z</time>
      </trkpt>
      <trkpt lat="43.413783" lon="-6.152101">
        <ele>110.624</ele>
        <time>2018-03-20T14:22:24Z</time>
      </trkpt>
      <trkpt lat="43.413767" lon="-6.152182">
        <ele>110.124</ele>
        <time>2018-03-20T14:22:27Z</time>
      </trkpt>
      <trkpt lat="43.413756" lon="-6.152247">
        <ele>110.217</ele>
        <time>2018-03-20T14:22:29Z</time>
      </trkpt>
      <trkpt lat="43.413743" lon="-6.152319">
        <ele>109.978</ele>
        <time>2018-03-20T14:22:32Z</time>
      </trkpt>
      <trkpt lat="43.413732" lon="-6.152386">
        <ele>109.746</ele>
        <time>2018-03-20T14:22:35Z</time>
      </trkpt>
      <trkpt lat="43.413721" lon="-6.152450">
        <ele>109.263</ele>
        <time>2018-03-20T14:22:38Z</time>
      </trkpt>
      <trkpt lat="43.413713" lon="-6.152514">
        <ele>109.318</ele>
        <time>2018-03-20T14:22:41Z</time>
      </trkpt>
      <trkpt lat="43.413702" lon="-6.152578">
        <ele>110.245</ele>
        <time>2018-03-20T14:22:44Z</time>
      </trkpt>
      <trkpt lat="43.413690" lon="-6.152645">
        <ele>110.347</ele>
        <time>2018-03-20T14:22:47Z</time>
      </trkpt>
      <trkpt lat="43.413666" lon="-6.152763">
        <ele>110.811</ele>
        <time>2018-03-20T14:22:55Z</time>
      </trkpt>
      <trkpt lat="43.413660" lon="-6.152832">
        <ele>111.108</ele>
        <time>2018-03-20T14:22:58Z</time>
      </trkpt>
      <trkpt lat="43.413656" lon="-6.152904">
        <ele>111.336</ele>
        <time>2018-03-20T14:23:01Z</time>
      </trkpt>
      <trkpt lat="43.413649" lon="-6.152966">
        <ele>111.497</ele>
        <time>2018-03-20T14:23:04Z</time>
      </trkpt>
      <trkpt lat="43.413643" lon="-6.153040">
        <ele>112.387</ele>
        <time>2018-03-20T14:23:07Z</time>
      </trkpt>
      <trkpt lat="43.413635" lon="-6.153123">
        <ele>112.810</ele>
        <time>2018-03-20T14:23:10Z</time>
      </trkpt>
      <trkpt lat="43.413621" lon="-6.153184">
        <ele>113.151</ele>
        <time>2018-03-20T14:23:12Z</time>
      </trkpt>
      <trkpt lat="43.413602" lon="-6.153244">
        <ele>112.939</ele>
        <time>2018-03-20T14:23:14Z</time>
      </trkpt>
      <trkpt lat="43.413588" lon="-6.153306">
        <ele>113.296</ele>
        <time>2018-03-20T14:23:16Z</time>
      </trkpt>
      <trkpt lat="43.413583" lon="-6.153368">
        <ele>113.091</ele>
        <time>2018-03-20T14:23:18Z</time>
      </trkpt>
      <trkpt lat="43.413586" lon="-6.153441">
        <ele>112.558</ele>
        <time>2018-03-20T14:23:21Z</time>
      </trkpt>
      <trkpt lat="43.413575" lon="-6.153514">
        <ele>111.452</ele>
        <time>2018-03-20T14:23:26Z</time>
      </trkpt>
      <trkpt lat="43.413568" lon="-6.153576">
        <ele>109.917</ele>
        <time>2018-03-20T14:23:30Z</time>
      </trkpt>
      <trkpt lat="43.413569" lon="-6.153639">
        <ele>110.208</ele>
        <time>2018-03-20T14:23:34Z</time>
      </trkpt>
      <trkpt lat="43.413570" lon="-6.153709">
        <ele>110.497</ele>
        <time>2018-03-20T14:23:38Z</time>
      </trkpt>
      <trkpt lat="43.413555" lon="-6.153789">
        <ele>110.568</ele>
        <time>2018-03-20T14:23:42Z</time>
      </trkpt>
      <trkpt lat="43.413541" lon="-6.153855">
        <ele>109.858</ele>
        <time>2018-03-20T14:23:45Z</time>
      </trkpt>
      <trkpt lat="43.413524" lon="-6.153923">
        <ele>109.411</ele>
        <time>2018-03-20T14:23:48Z</time>
      </trkpt>
      <trkpt lat="43.413500" lon="-6.154005">
        <ele>109.582</ele>
        <time>2018-03-20T14:23:51Z</time>
      </trkpt>
      <trkpt lat="43.413484" lon="-6.154073">
        <ele>109.240</ele>
        <time>2018-03-20T14:23:53Z</time>
      </trkpt>
      <trkpt lat="43.413477" lon="-6.154146">
        <ele>109.047</ele>
        <time>2018-03-20T14:23:56Z</time>
      </trkpt>
      <trkpt lat="43.413496" lon="-6.154433">
        <ele>107.792</ele>
        <time>2018-03-20T14:24:12Z</time>
      </trkpt>
      <trkpt lat="43.413449" lon="-6.154472">
        <ele>107.337</ele>
        <time>2018-03-20T14:24:15Z</time>
      </trkpt>
      <trkpt lat="43.413424" lon="-6.154783">
        <ele>108.349</ele>
        <time>2018-03-20T14:24:23Z</time>
      </trkpt>
      <trkpt lat="43.413388" lon="-6.154743">
        <ele>108.513</ele>
        <time>2018-03-20T14:24:25Z</time>
      </trkpt>
      <trkpt lat="43.413379" lon="-6.154815">
        <ele>109.808</ele>
        <time>2018-03-20T14:24:34Z</time>
      </trkpt>
      <trkpt lat="43.413357" lon="-6.154879">
        <ele>110.675</ele>
        <time>2018-03-20T14:24:38Z</time>
      </trkpt>
      <trkpt lat="43.413340" lon="-6.154938">
        <ele>112.776</ele>
        <time>2018-03-20T14:24:40Z</time>
      </trkpt>
      <trkpt lat="43.413326" lon="-6.155008">
        <ele>114.776</ele>
        <time>2018-03-20T14:24:43Z</time>
      </trkpt>
      <trkpt lat="43.413334" lon="-6.155077">
        <ele>116.329</ele>
        <time>2018-03-20T14:24:47Z</time>
      </trkpt>
      <trkpt lat="43.413339" lon="-6.155141">
        <ele>118.160</ele>
        <time>2018-03-20T14:24:50Z</time>
      </trkpt>
      <trkpt lat="43.413323" lon="-6.155203">
        <ele>117.668</ele>
        <time>2018-03-20T14:24:53Z</time>
      </trkpt>
      <trkpt lat="43.413293" lon="-6.155261">
        <ele>117.755</ele>
        <time>2018-03-20T14:24:56Z</time>
      </trkpt>
      <trkpt lat="43.413266" lon="-6.155318">
        <ele>118.120</ele>
        <time>2018-03-20T14:24:59Z</time>
      </trkpt>
      <trkpt lat="43.413249" lon="-6.155393">
        <ele>117.671</ele>
        <time>2018-03-20T14:25:02Z</time>
      </trkpt>
      <trkpt lat="43.413171" lon="-6.155585">
        <ele>117.341</ele>
        <time>2018-03-20T14:25:08Z</time>
      </trkpt>
      <trkpt lat="43.413188" lon="-6.155643">
        <ele>117.115</ele>
        <time>2018-03-20T14:25:11Z</time>
      </trkpt>
      <trkpt lat="43.413173" lon="-6.155706">
        <ele>117.008</ele>
        <time>2018-03-20T14:25:14Z</time>
      </trkpt>
      <trkpt lat="43.413162" lon="-6.155770">
        <ele>117.399</ele>
        <time>2018-03-20T14:25:17Z</time>
      </trkpt>
      <trkpt lat="43.413148" lon="-6.155839">
        <ele>116.790</ele>
        <time>2018-03-20T14:25:19Z</time>
      </trkpt>
      <trkpt lat="43.413123" lon="-6.155905">
        <ele>115.120</ele>
        <time>2018-03-20T14:25:22Z</time>
      </trkpt>
      <trkpt lat="43.413096" lon="-6.155960">
        <ele>114.233</ele>
        <time>2018-03-20T14:25:25Z</time>
      </trkpt>
      <trkpt lat="43.413077" lon="-6.156036">
        <ele>113.644</ele>
        <time>2018-03-20T14:25:29Z</time>
      </trkpt>
      <trkpt lat="43.413048" lon="-6.156344">
        <ele>114.522</ele>
        <time>2018-03-20T14:25:39Z</time>
      </trkpt>
      <trkpt lat="43.413024" lon="-6.156418">
        <ele>116.219</ele>
        <time>2018-03-20T14:25:48Z</time>
      </trkpt>
      <trkpt lat="43.412994" lon="-6.156473">
        <ele>118.024</ele>
        <time>2018-03-20T14:25:50Z</time>
      </trkpt>
      <trkpt lat="43.412974" lon="-6.156532">
        <ele>117.925</ele>
        <time>2018-03-20T14:25:53Z</time>
      </trkpt>
      <trkpt lat="43.412945" lon="-6.156593">
        <ele>117.426</ele>
        <time>2018-03-20T14:25:57Z</time>
      </trkpt>
      <trkpt lat="43.412914" lon="-6.156665">
        <ele>117.508</ele>
        <time>2018-03-20T14:26:01Z</time>
      </trkpt>
      <trkpt lat="43.412892" lon="-6.156736">
        <ele>117.208</ele>
        <time>2018-03-20T14:26:04Z</time>
      </trkpt>
      <trkpt lat="43.412857" lon="-6.156788">
        <ele>117.064</ele>
        <time>2018-03-20T14:26:07Z</time>
      </trkpt>
      <trkpt lat="43.412812" lon="-6.156832">
        <ele>117.385</ele>
        <time>2018-03-20T14:26:11Z</time>
      </trkpt>
      <trkpt lat="43.412777" lon="-6.156879">
        <ele>116.365</ele>
        <time>2018-03-20T14:26:14Z</time>
      </trkpt>
      <trkpt lat="43.412745" lon="-6.156929">
        <ele>115.758</ele>
        <time>2018-03-20T14:26:17Z</time>
      </trkpt>
      <trkpt lat="43.412712" lon="-6.156975">
        <ele>114.999</ele>
        <time>2018-03-20T14:26:20Z</time>
      </trkpt>
      <trkpt lat="43.412675" lon="-6.157029">
        <ele>114.487</ele>
        <time>2018-03-20T14:26:23Z</time>
      </trkpt>
      <trkpt lat="43.412639" lon="-6.157088">
        <ele>114.964</ele>
        <time>2018-03-20T14:26:26Z</time>
      </trkpt>
      <trkpt lat="43.412607" lon="-6.157147">
        <ele>115.279</ele>
        <time>2018-03-20T14:26:29Z</time>
      </trkpt>
      <trkpt lat="43.412572" lon="-6.157198">
        <ele>115.068</ele>
        <time>2018-03-20T14:26:32Z</time>
      </trkpt>
      <trkpt lat="43.412557" lon="-6.157257">
        <ele>118.542</ele>
        <time>2018-03-20T14:26:33Z</time>
      </trkpt>
      <trkpt lat="43.412532" lon="-6.157332">
        <ele>120.626</ele>
        <time>2018-03-20T14:26:36Z</time>
      </trkpt>
      <trkpt lat="43.412481" lon="-6.157377">
        <ele>121.508</ele>
        <time>2018-03-20T14:26:39Z</time>
      </trkpt>
      <trkpt lat="43.412425" lon="-6.157397">
        <ele>120.428</ele>
        <time>2018-03-20T14:26:42Z</time>
      </trkpt>
      <trkpt lat="43.412382" lon="-6.157432">
        <ele>118.959</ele>
        <time>2018-03-20T14:26:47Z</time>
      </trkpt>
      <trkpt lat="43.412339" lon="-6.157461">
        <ele>117.689</ele>
        <time>2018-03-20T14:26:51Z</time>
      </trkpt>
      <trkpt lat="43.412290" lon="-6.157487">
        <ele>115.632</ele>
        <time>2018-03-20T14:26:56Z</time>
      </trkpt>
      <trkpt lat="43.412247" lon="-6.157508">
        <ele>114.053</ele>
        <time>2018-03-20T14:27:00Z</time>
      </trkpt>
      <trkpt lat="43.412208" lon="-6.157550">
        <ele>113.191</ele>
        <time>2018-03-20T14:27:04Z</time>
      </trkpt>
      <trkpt lat="43.412178" lon="-6.157609">
        <ele>112.928</ele>
        <time>2018-03-20T14:27:07Z</time>
      </trkpt>
      <trkpt lat="43.412155" lon="-6.157682">
        <ele>113.233</ele>
        <time>2018-03-20T14:27:10Z</time>
      </trkpt>
      <trkpt lat="43.412136" lon="-6.157746">
        <ele>113.017</ele>
        <time>2018-03-20T14:27:13Z</time>
      </trkpt>
      <trkpt lat="43.412115" lon="-6.157812">
        <ele>113.387</ele>
        <time>2018-03-20T14:27:17Z</time>
      </trkpt>
      <trkpt lat="43.412108" lon="-6.157875">
        <ele>112.315</ele>
        <time>2018-03-20T14:27:20Z</time>
      </trkpt>
      <trkpt lat="43.412105" lon="-6.157950">
        <ele>111.708</ele>
        <time>2018-03-20T14:27:23Z</time>
      </trkpt>
      <trkpt lat="43.412089" lon="-6.158013">
        <ele>111.723</ele>
        <time>2018-03-20T14:27:26Z</time>
      </trkpt>
      <trkpt lat="43.412087" lon="-6.158094">
        <ele>110.514</ele>
        <time>2018-03-20T14:27:30Z</time>
      </trkpt>
      <trkpt lat="43.412101" lon="-6.158157">
        <ele>108.634</ele>
        <time>2018-03-20T14:27:33Z</time>
      </trkpt>
      <trkpt lat="43.412103" lon="-6.158230">
        <ele>105.597</ele>
        <time>2018-03-20T14:27:37Z</time>
      </trkpt>
      <trkpt lat="43.412069" lon="-6.158289">
        <ele>103.618</ele>
        <time>2018-03-20T14:27:41Z</time>
      </trkpt>
      <trkpt lat="43.412031" lon="-6.158348">
        <ele>102.926</ele>
        <time>2018-03-20T14:27:45Z</time>
      </trkpt>
      <trkpt lat="43.411987" lon="-6.158395">
        <ele>102.153</ele>
        <time>2018-03-20T14:27:48Z</time>
      </trkpt>
      <trkpt lat="43.411933" lon="-6.158433">
        <ele>102.038</ele>
        <time>2018-03-20T14:27:51Z</time>
      </trkpt>
      <trkpt lat="43.411889" lon="-6.158464">
        <ele>102.392</ele>
        <time>2018-03-20T14:27:54Z</time>
      </trkpt>
      <trkpt lat="43.411836" lon="-6.158500">
        <ele>103.773</ele>
        <time>2018-03-20T14:27:57Z</time>
      </trkpt>
      <trkpt lat="43.411770" lon="-6.158510">
        <ele>104.520</ele>
        <time>2018-03-20T14:28:00Z</time>
      </trkpt>
      <trkpt lat="43.411726" lon="-6.158493">
        <ele>105.408</ele>
        <time>2018-03-20T14:28:02Z</time>
      </trkpt>
      <trkpt lat="43.411685" lon="-6.158466">
        <ele>106.331</ele>
        <time>2018-03-20T14:28:04Z</time>
      </trkpt>
      <trkpt lat="43.411638" lon="-6.158426">
        <ele>106.532</ele>
        <time>2018-03-20T14:28:07Z</time>
      </trkpt>
      <trkpt lat="43.411593" lon="-6.158399">
        <ele>106.242</ele>
        <time>2018-03-20T14:28:10Z</time>
      </trkpt>
      <trkpt lat="43.411532" lon="-6.158375">
        <ele>106.465</ele>
        <time>2018-03-20T14:28:13Z</time>
      </trkpt>
      <trkpt lat="43.411477" lon="-6.158350">
        <ele>106.586</ele>
        <time>2018-03-20T14:28:16Z</time>
      </trkpt>
      <trkpt lat="43.411438" lon="-6.158314">
        <ele>107.044</ele>
        <time>2018-03-20T14:28:19Z</time>
      </trkpt>
      <trkpt lat="43.411412" lon="-6.158263">
        <ele>107.381</ele>
        <time>2018-03-20T14:28:22Z</time>
      </trkpt>
      <trkpt lat="43.411379" lon="-6.158204">
        <ele>107.946</ele>
        <time>2018-03-20T14:28:26Z</time>
      </trkpt>
      <trkpt lat="43.411347" lon="-6.158153">
        <ele>108.681</ele>
        <time>2018-03-20T14:28:28Z</time>
      </trkpt>
      <trkpt lat="43.411316" lon="-6.158097">
        <ele>108.261</ele>
        <time>2018-03-20T14:28:30Z</time>
      </trkpt>
      <trkpt lat="43.411278" lon="-6.158030">
        <ele>108.417</ele>
        <time>2018-03-20T14:28:33Z</time>
      </trkpt>
      <trkpt lat="43.411232" lon="-6.157990">
        <ele>108.908</ele>
        <time>2018-03-20T14:28:36Z</time>
      </trkpt>
      <trkpt lat="43.411178" lon="-6.157975">
        <ele>110.080</ele>
        <time>2018-03-20T14:28:39Z</time>
      </trkpt>
      <trkpt lat="43.411113" lon="-6.157972">
        <ele>111.151</ele>
        <time>2018-03-20T14:28:42Z</time>
      </trkpt>
      <trkpt lat="43.411056" lon="-6.157994">
        <ele>112.571</ele>
        <time>2018-03-20T14:28:45Z</time>
      </trkpt>
      <trkpt lat="43.410993" lon="-6.158004">
        <ele>113.874</ele>
        <time>2018-03-20T14:28:48Z</time>
      </trkpt>
      <trkpt lat="43.410946" lon="-6.158007">
        <ele>114.645</ele>
        <time>2018-03-20T14:28:51Z</time>
      </trkpt>
      <trkpt lat="43.410894" lon="-6.157985">
        <ele>114.373</ele>
        <time>2018-03-20T14:28:54Z</time>
      </trkpt>
      <trkpt lat="43.410850" lon="-6.157949">
        <ele>113.770</ele>
        <time>2018-03-20T14:28:58Z</time>
      </trkpt>
      <trkpt lat="43.410808" lon="-6.157906">
        <ele>113.745</ele>
        <time>2018-03-20T14:29:02Z</time>
      </trkpt>
      <trkpt lat="43.410769" lon="-6.157872">
        <ele>113.333</ele>
        <time>2018-03-20T14:29:05Z</time>
      </trkpt>
      <trkpt lat="43.410724" lon="-6.157825">
        <ele>113.123</ele>
        <time>2018-03-20T14:29:10Z</time>
      </trkpt>
      <trkpt lat="43.410681" lon="-6.157790">
        <ele>113.015</ele>
        <time>2018-03-20T14:29:13Z</time>
      </trkpt>
      <trkpt lat="43.410630" lon="-6.157750">
        <ele>112.908</ele>
        <time>2018-03-20T14:29:17Z</time>
      </trkpt>
      <trkpt lat="43.410584" lon="-6.157713">
        <ele>112.185</ele>
        <time>2018-03-20T14:29:22Z</time>
      </trkpt>
      <trkpt lat="43.410546" lon="-6.157667">
        <ele>111.656</ele>
        <time>2018-03-20T14:29:26Z</time>
      </trkpt>
      <trkpt lat="43.410508" lon="-6.157634">
        <ele>111.376</ele>
        <time>2018-03-20T14:29:29Z</time>
      </trkpt>
      <trkpt lat="43.410470" lon="-6.157600">
        <ele>111.119</ele>
        <time>2018-03-20T14:29:32Z</time>
      </trkpt>
      <trkpt lat="43.410429" lon="-6.157569">
        <ele>110.610</ele>
        <time>2018-03-20T14:29:35Z</time>
      </trkpt>
      <trkpt lat="43.410379" lon="-6.157546">
        <ele>109.928</ele>
        <time>2018-03-20T14:29:38Z</time>
      </trkpt>
      <trkpt lat="43.410334" lon="-6.157525">
        <ele>109.915</ele>
        <time>2018-03-20T14:29:41Z</time>
      </trkpt>
      <trkpt lat="43.410287" lon="-6.157502">
        <ele>110.350</ele>
        <time>2018-03-20T14:29:44Z</time>
      </trkpt>
      <trkpt lat="43.410235" lon="-6.157477">
        <ele>110.962</ele>
        <time>2018-03-20T14:29:47Z</time>
      </trkpt>
      <trkpt lat="43.410191" lon="-6.157438">
        <ele>110.983</ele>
        <time>2018-03-20T14:29:51Z</time>
      </trkpt>
      <trkpt lat="43.410140" lon="-6.157405">
        <ele>111.711</ele>
        <time>2018-03-20T14:29:55Z</time>
      </trkpt>
      <trkpt lat="43.410090" lon="-6.157379">
        <ele>112.208</ele>
        <time>2018-03-20T14:29:59Z</time>
      </trkpt>
      <trkpt lat="43.410041" lon="-6.157337">
        <ele>112.928</ele>
        <time>2018-03-20T14:30:03Z</time>
      </trkpt>
      <trkpt lat="43.409998" lon="-6.157306">
        <ele>112.939</ele>
        <time>2018-03-20T14:30:07Z</time>
      </trkpt>
      <trkpt lat="43.409945" lon="-6.157302">
        <ele>112.559</ele>
        <time>2018-03-20T14:30:10Z</time>
      </trkpt>
      <trkpt lat="43.409891" lon="-6.157294">
        <ele>112.332</ele>
        <time>2018-03-20T14:30:13Z</time>
      </trkpt>
      <trkpt lat="43.409839" lon="-6.157279">
        <ele>111.843</ele>
        <time>2018-03-20T14:30:16Z</time>
      </trkpt>
      <trkpt lat="43.409789" lon="-6.157266">
        <ele>111.171</ele>
        <time>2018-03-20T14:30:19Z</time>
      </trkpt>
      <trkpt lat="43.409743" lon="-6.157259">
        <ele>111.148</ele>
        <time>2018-03-20T14:30:22Z</time>
      </trkpt>
      <trkpt lat="43.409697" lon="-6.157248">
        <ele>110.363</ele>
        <time>2018-03-20T14:30:25Z</time>
      </trkpt>
      <trkpt lat="43.409668" lon="-6.157201">
        <ele>109.854</ele>
        <time>2018-03-20T14:30:28Z</time>
      </trkpt>
      <trkpt lat="43.409654" lon="-6.157137">
        <ele>109.156</ele>
        <time>2018-03-20T14:30:31Z</time>
      </trkpt>
      <trkpt lat="43.409628" lon="-6.157076">
        <ele>109.111</ele>
        <time>2018-03-20T14:30:35Z</time>
      </trkpt>
      <trkpt lat="43.409593" lon="-6.157019">
        <ele>109.508</ele>
        <time>2018-03-20T14:30:39Z</time>
      </trkpt>
      <trkpt lat="43.409558" lon="-6.156967">
        <ele>109.327</ele>
        <time>2018-03-20T14:30:43Z</time>
      </trkpt>
      <trkpt lat="43.409523" lon="-6.156921">
        <ele>109.688</ele>
        <time>2018-03-20T14:30:48Z</time>
      </trkpt>
      <trkpt lat="43.409490" lon="-6.156876">
        <ele>109.878</ele>
        <time>2018-03-20T14:30:52Z</time>
      </trkpt>
      <trkpt lat="43.409458" lon="-6.156818">
        <ele>109.951</ele>
        <time>2018-03-20T14:30:57Z</time>
      </trkpt>
      <trkpt lat="43.409453" lon="-6.156750">
        <ele>109.232</ele>
        <time>2018-03-20T14:31:01Z</time>
      </trkpt>
      <trkpt lat="43.409444" lon="-6.156685">
        <ele>108.820</ele>
        <time>2018-03-20T14:31:04Z</time>
      </trkpt>
      <trkpt lat="43.409429" lon="-6.156623">
        <ele>108.537</ele>
        <time>2018-03-20T14:31:07Z</time>
      </trkpt>
      <trkpt lat="43.409424" lon="-6.156555">
        <ele>108.722</ele>
        <time>2018-03-20T14:31:11Z</time>
      </trkpt>
      <trkpt lat="43.409410" lon="-6.156484">
        <ele>108.463</ele>
        <time>2018-03-20T14:31:16Z</time>
      </trkpt>
      <trkpt lat="43.409387" lon="-6.156429">
        <ele>108.244</ele>
        <time>2018-03-20T14:31:19Z</time>
      </trkpt>
      <trkpt lat="43.409356" lon="-6.156376">
        <ele>107.718</ele>
        <time>2018-03-20T14:31:22Z</time>
      </trkpt>
      <trkpt lat="43.409317" lon="-6.156318">
        <ele>107.808</ele>
        <time>2018-03-20T14:31:25Z</time>
      </trkpt>
      <trkpt lat="43.409285" lon="-6.156265">
        <ele>107.158</ele>
        <time>2018-03-20T14:31:28Z</time>
      </trkpt>
      <trkpt lat="43.409253" lon="-6.156215">
        <ele>106.789</ele>
        <time>2018-03-20T14:31:31Z</time>
      </trkpt>
      <trkpt lat="43.409223" lon="-6.156164">
        <ele>106.839</ele>
        <time>2018-03-20T14:31:34Z</time>
      </trkpt>
      <trkpt lat="43.409183" lon="-6.156105">
        <ele>107.792</ele>
        <time>2018-03-20T14:31:38Z</time>
      </trkpt>
      <trkpt lat="43.409149" lon="-6.156056">
        <ele>108.213</ele>
        <time>2018-03-20T14:31:41Z</time>
      </trkpt>
      <trkpt lat="43.409109" lon="-6.156008">
        <ele>107.711</ele>
        <time>2018-03-20T14:31:44Z</time>
      </trkpt>
      <trkpt lat="43.409069" lon="-6.155976">
        <ele>107.448</ele>
        <time>2018-03-20T14:31:48Z</time>
      </trkpt>
      <trkpt lat="43.409027" lon="-6.155950">
        <ele>106.413</ele>
        <time>2018-03-20T14:31:52Z</time>
      </trkpt>
      <trkpt lat="43.408979" lon="-6.155926">
        <ele>105.465</ele>
        <time>2018-03-20T14:31:55Z</time>
      </trkpt>
      <trkpt lat="43.408933" lon="-6.155915">
        <ele>103.268</ele>
        <time>2018-03-20T14:31:58Z</time>
      </trkpt>
      <trkpt lat="43.408884" lon="-6.155922">
        <ele>100.714</ele>
        <time>2018-03-20T14:32:02Z</time>
      </trkpt>
      <trkpt lat="43.408829" lon="-6.155912">
        <ele>100.008</ele>
        <time>2018-03-20T14:32:06Z</time>
      </trkpt>
      <trkpt lat="43.408779" lon="-6.155881">
        <ele>99.278</ele>
        <time>2018-03-20T14:32:09Z</time>
      </trkpt>
      <trkpt lat="43.408733" lon="-6.155836">
        <ele>98.779</ele>
        <time>2018-03-20T14:32:12Z</time>
      </trkpt>
      <trkpt lat="43.408697" lon="-6.155790">
        <ele>98.089</ele>
        <time>2018-03-20T14:32:15Z</time>
      </trkpt>
      <trkpt lat="43.408661" lon="-6.155733">
        <ele>97.622</ele>
        <time>2018-03-20T14:32:18Z</time>
      </trkpt>
      <trkpt lat="43.408624" lon="-6.155677">
        <ele>97.393</ele>
        <time>2018-03-20T14:32:21Z</time>
      </trkpt>
      <trkpt lat="43.408588" lon="-6.155634">
        <ele>96.731</ele>
        <time>2018-03-20T14:32:24Z</time>
      </trkpt>
      <trkpt lat="43.408552" lon="-6.155592">
        <ele>99.278</ele>
        <time>2018-03-20T14:32:27Z</time>
      </trkpt>
      <trkpt lat="43.408508" lon="-6.155540">
        <ele>100.773</ele>
        <time>2018-03-20T14:32:30Z</time>
      </trkpt>
      <trkpt lat="43.408463" lon="-6.155499">
        <ele>101.685</ele>
        <time>2018-03-20T14:32:33Z</time>
      </trkpt>
      <trkpt lat="43.408418" lon="-6.155460">
        <ele>102.589</ele>
        <time>2018-03-20T14:32:37Z</time>
      </trkpt>
      <trkpt lat="43.408379" lon="-6.155426">
        <ele>103.517</ele>
        <time>2018-03-20T14:32:40Z</time>
      </trkpt>
      <trkpt lat="43.408333" lon="-6.155414">
        <ele>104.508</ele>
        <time>2018-03-20T14:32:43Z</time>
      </trkpt>
      <trkpt lat="43.408287" lon="-6.155432">
        <ele>105.560</ele>
        <time>2018-03-20T14:32:47Z</time>
      </trkpt>
      <trkpt lat="43.408246" lon="-6.155467">
        <ele>106.571</ele>
        <time>2018-03-20T14:32:51Z</time>
      </trkpt>
      <trkpt lat="43.408216" lon="-6.155528">
        <ele>107.111</ele>
        <time>2018-03-20T14:32:55Z</time>
      </trkpt>
      <trkpt lat="43.408182" lon="-6.155596">
        <ele>107.974</ele>
        <time>2018-03-20T14:32:59Z</time>
      </trkpt>
      <trkpt lat="43.408148" lon="-6.155664">
        <ele>108.825</ele>
        <time>2018-03-20T14:33:03Z</time>
      </trkpt>
      <trkpt lat="43.408125" lon="-6.155719">
        <ele>109.353</ele>
        <time>2018-03-20T14:33:06Z</time>
      </trkpt>
      <trkpt lat="43.408088" lon="-6.155764">
        <ele>109.690</ele>
        <time>2018-03-20T14:33:10Z</time>
      </trkpt>
      <trkpt lat="43.408058" lon="-6.155828">
        <ele>111.085</ele>
        <time>2018-03-20T14:33:14Z</time>
      </trkpt>
      <trkpt lat="43.408038" lon="-6.155897">
        <ele>111.867</ele>
        <time>2018-03-20T14:33:19Z</time>
      </trkpt>
      <trkpt lat="43.408011" lon="-6.155954">
        <ele>111.581</ele>
        <time>2018-03-20T14:33:24Z</time>
      </trkpt>
      <trkpt lat="43.407968" lon="-6.156006">
        <ele>111.719</ele>
        <time>2018-03-20T14:33:30Z</time>
      </trkpt>
      <trkpt lat="43.407933" lon="-6.156051">
        <ele>111.408</ele>
        <time>2018-03-20T14:33:35Z</time>
      </trkpt>
      <trkpt lat="43.407897" lon="-6.156109">
        <ele>111.258</ele>
        <time>2018-03-20T14:33:40Z</time>
      </trkpt>
      <trkpt lat="43.407872" lon="-6.156173">
        <ele>112.769</ele>
        <time>2018-03-20T14:33:45Z</time>
      </trkpt>
      <trkpt lat="43.407841" lon="-6.156242">
        <ele>114.439</ele>
        <time>2018-03-20T14:33:49Z</time>
      </trkpt>
      <trkpt lat="43.407817" lon="-6.156307">
        <ele>114.222</ele>
        <time>2018-03-20T14:33:52Z</time>
      </trkpt>
      <trkpt lat="43.407794" lon="-6.156361">
        <ele>114.193</ele>
        <time>2018-03-20T14:33:55Z</time>
      </trkpt>
      <trkpt lat="43.407764" lon="-6.156430">
        <ele>114.451</ele>
        <time>2018-03-20T14:33:59Z</time>
      </trkpt>
      <trkpt lat="43.407741" lon="-6.156487">
        <ele>115.478</ele>
        <time>2018-03-20T14:34:02Z</time>
      </trkpt>
      <trkpt lat="43.407718" lon="-6.156547">
        <ele>116.493</ele>
        <time>2018-03-20T14:34:05Z</time>
      </trkpt>
      <trkpt lat="43.407695" lon="-6.156602">
        <ele>117.091</ele>
        <time>2018-03-20T14:34:08Z</time>
      </trkpt>
      <trkpt lat="43.407662" lon="-6.156664">
        <ele>117.081</ele>
        <time>2018-03-20T14:34:12Z</time>
      </trkpt>
      <trkpt lat="43.407639" lon="-6.156718">
        <ele>118.619</ele>
        <time>2018-03-20T14:34:16Z</time>
      </trkpt>
      <trkpt lat="43.407623" lon="-6.156777">
        <ele>119.508</ele>
        <time>2018-03-20T14:34:20Z</time>
      </trkpt>
      <trkpt lat="43.407609" lon="-6.156848">
        <ele>120.991</ele>
        <time>2018-03-20T14:34:24Z</time>
      </trkpt>
      <trkpt lat="43.407608" lon="-6.156926">
        <ele>121.712</ele>
        <time>2018-03-20T14:34:28Z</time>
      </trkpt>
      <trkpt lat="43.407592" lon="-6.157003">
        <ele>122.632</ele>
        <time>2018-03-20T14:34:32Z</time>
      </trkpt>
      <trkpt lat="43.407584" lon="-6.157067">
        <ele>124.345</ele>
        <time>2018-03-20T14:34:35Z</time>
      </trkpt>
      <trkpt lat="43.407571" lon="-6.157131">
        <ele>125.766</ele>
        <time>2018-03-20T14:34:38Z</time>
      </trkpt>
      <trkpt lat="43.407555" lon="-6.157198">
        <ele>126.694</ele>
        <time>2018-03-20T14:34:42Z</time>
      </trkpt>
      <trkpt lat="43.407533" lon="-6.157254">
        <ele>127.911</ele>
        <time>2018-03-20T14:34:45Z</time>
      </trkpt>
      <trkpt lat="43.407511" lon="-6.157310">
        <ele>130.336</ele>
        <time>2018-03-20T14:34:48Z</time>
      </trkpt>
      <trkpt lat="43.407482" lon="-6.157378">
        <ele>132.187</ele>
        <time>2018-03-20T14:34:52Z</time>
      </trkpt>
      <trkpt lat="43.407451" lon="-6.157444">
        <ele>134.042</ele>
        <time>2018-03-20T14:34:56Z</time>
      </trkpt>
      <trkpt lat="43.407418" lon="-6.157495">
        <ele>134.726</ele>
        <time>2018-03-20T14:35:00Z</time>
      </trkpt>
      <trkpt lat="43.407377" lon="-6.157452">
        <ele>133.508</ele>
        <time>2018-03-20T14:35:06Z</time>
      </trkpt>
      <trkpt lat="43.407366" lon="-6.157390">
        <ele>131.620</ele>
        <time>2018-03-20T14:35:09Z</time>
      </trkpt>
      <trkpt lat="43.407352" lon="-6.157311">
        <ele>129.741</ele>
        <time>2018-03-20T14:35:13Z</time>
      </trkpt>
      <trkpt lat="43.407347" lon="-6.157248">
        <ele>128.151</ele>
        <time>2018-03-20T14:35:16Z</time>
      </trkpt>
      <trkpt lat="43.407346" lon="-6.157170">
        <ele>127.254</ele>
        <time>2018-03-20T14:35:21Z</time>
      </trkpt>
      <trkpt lat="43.407351" lon="-6.157090">
        <ele>128.215</ele>
        <time>2018-03-20T14:35:25Z</time>
      </trkpt>
      <trkpt lat="43.407345" lon="-6.157016">
        <ele>129.643</ele>
        <time>2018-03-20T14:35:29Z</time>
      </trkpt>
      <trkpt lat="43.407322" lon="-6.156956">
        <ele>130.170</ele>
        <time>2018-03-20T14:35:33Z</time>
      </trkpt>
      <trkpt lat="43.407288" lon="-6.156914">
        <ele>130.495</ele>
        <time>2018-03-20T14:35:37Z</time>
      </trkpt>
      <trkpt lat="43.407254" lon="-6.156864">
        <ele>131.012</ele>
        <time>2018-03-20T14:35:42Z</time>
      </trkpt>
      <trkpt lat="43.407219" lon="-6.156819">
        <ele>130.532</ele>
        <time>2018-03-20T14:35:46Z</time>
      </trkpt>
      <trkpt lat="43.407181" lon="-6.156770">
        <ele>131.405</ele>
        <time>2018-03-20T14:35:50Z</time>
      </trkpt>
      <trkpt lat="43.407129" lon="-6.156748">
        <ele>132.808</ele>
        <time>2018-03-20T14:35:54Z</time>
      </trkpt>
      <trkpt lat="43.407082" lon="-6.156744">
        <ele>134.053</ele>
        <time>2018-03-20T14:35:57Z</time>
      </trkpt>
      <trkpt lat="43.407035" lon="-6.156741">
        <ele>135.154</ele>
        <time>2018-03-20T14:36:00Z</time>
      </trkpt>
      <trkpt lat="43.406978" lon="-6.156733">
        <ele>135.434</ele>
        <time>2018-03-20T14:36:04Z</time>
      </trkpt>
      <trkpt lat="43.406924" lon="-6.156731">
        <ele>136.027</ele>
        <time>2018-03-20T14:36:08Z</time>
      </trkpt>
      <trkpt lat="43.406877" lon="-6.156745">
        <ele>136.388</ele>
        <time>2018-03-20T14:36:11Z</time>
      </trkpt>
      <trkpt lat="43.406834" lon="-6.156768">
        <ele>136.526</ele>
        <time>2018-03-20T14:36:14Z</time>
      </trkpt>
      <trkpt lat="43.406791" lon="-6.156792">
        <ele>137.073</ele>
        <time>2018-03-20T14:36:18Z</time>
      </trkpt>
      <trkpt lat="43.406748" lon="-6.156813">
        <ele>138.578</ele>
        <time>2018-03-20T14:36:22Z</time>
      </trkpt>
      <trkpt lat="43.406694" lon="-6.156790">
        <ele>139.445</ele>
        <time>2018-03-20T14:36:26Z</time>
      </trkpt>
      <trkpt lat="43.406655" lon="-6.156755">
        <ele>139.947</ele>
        <time>2018-03-20T14:36:33Z</time>
      </trkpt>
      <trkpt lat="43.406593" lon="-6.156754">
        <ele>140.611</ele>
        <time>2018-03-20T14:36:45Z</time>
      </trkpt>
      <trkpt lat="43.406514" lon="-6.156800">
        <ele>139.808</ele>
        <time>2018-03-20T14:36:46Z</time>
      </trkpt>
      <trkpt lat="43.406469" lon="-6.156874">
        <ele>140.956</ele>
        <time>2018-03-20T14:36:48Z</time>
      </trkpt>
      <trkpt lat="43.406443" lon="-6.157025">
        <ele>142.067</ele>
        <time>2018-03-20T14:36:49Z</time>
      </trkpt>
      <trkpt lat="43.406429" lon="-6.157100">
        <ele>141.977</ele>
        <time>2018-03-20T14:36:51Z</time>
      </trkpt>
      <trkpt lat="43.406401" lon="-6.157149">
        <ele>143.440</ele>
        <time>2018-03-20T14:36:54Z</time>
      </trkpt>
      <trkpt lat="43.406354" lon="-6.157194">
        <ele>144.361</ele>
        <time>2018-03-20T14:36:57Z</time>
      </trkpt>
      <trkpt lat="43.406299" lon="-6.157192">
        <ele>145.259</ele>
        <time>2018-03-20T14:37:01Z</time>
      </trkpt>
      <trkpt lat="43.406252" lon="-6.157189">
        <ele>147.056</ele>
        <time>2018-03-20T14:37:05Z</time>
      </trkpt>
      <trkpt lat="43.406205" lon="-6.157190">
        <ele>148.151</ele>
        <time>2018-03-20T14:37:08Z</time>
      </trkpt>
      <trkpt lat="43.406153" lon="-6.157193">
        <ele>149.137</ele>
        <time>2018-03-20T14:37:11Z</time>
      </trkpt>
      <trkpt lat="43.406094" lon="-6.157189">
        <ele>149.749</ele>
        <time>2018-03-20T14:37:15Z</time>
      </trkpt>
      <trkpt lat="43.406046" lon="-6.157181">
        <ele>150.513</ele>
        <time>2018-03-20T14:37:18Z</time>
      </trkpt>
      <trkpt lat="43.406000" lon="-6.157174">
        <ele>150.608</ele>
        <time>2018-03-20T14:37:22Z</time>
      </trkpt>
      <trkpt lat="43.405953" lon="-6.157149">
        <ele>151.065</ele>
        <time>2018-03-20T14:37:26Z</time>
      </trkpt>
      <trkpt lat="43.405903" lon="-6.157115">
        <ele>151.336</ele>
        <time>2018-03-20T14:37:30Z</time>
      </trkpt>
      <trkpt lat="43.405851" lon="-6.157074">
        <ele>151.576</ele>
        <time>2018-03-20T14:37:34Z</time>
      </trkpt>
      <trkpt lat="43.405806" lon="-6.157034">
        <ele>152.029</ele>
        <time>2018-03-20T14:37:38Z</time>
      </trkpt>
      <trkpt lat="43.405758" lon="-6.157047">
        <ele>151.190</ele>
        <time>2018-03-20T14:38:54Z</time>
      </trkpt>
      <trkpt lat="43.405716" lon="-6.157013">
        <ele>150.698</ele>
        <time>2018-03-20T14:39:11Z</time>
      </trkpt>
      <trkpt lat="43.405681" lon="-6.156966">
        <ele>150.785</ele>
        <time>2018-03-20T14:39:15Z</time>
      </trkpt>
      <trkpt lat="43.405646" lon="-6.156913">
        <ele>151.160</ele>
        <time>2018-03-20T14:39:19Z</time>
      </trkpt>
      <trkpt lat="43.405605" lon="-6.156877">
        <ele>151.897</ele>
        <time>2018-03-20T14:39:22Z</time>
      </trkpt>
      <trkpt lat="43.405561" lon="-6.156851">
        <ele>151.823</ele>
        <time>2018-03-20T14:39:25Z</time>
      </trkpt>
      <trkpt lat="43.405518" lon="-6.156824">
        <ele>151.025</ele>
        <time>2018-03-20T14:39:29Z</time>
      </trkpt>
      <trkpt lat="43.405471" lon="-6.156832">
        <ele>150.108</ele>
        <time>2018-03-20T14:39:33Z</time>
      </trkpt>
      <trkpt lat="43.405422" lon="-6.156855">
        <ele>150.431</ele>
        <time>2018-03-20T14:39:37Z</time>
      </trkpt>
      <trkpt lat="43.405374" lon="-6.156869">
        <ele>151.052</ele>
        <time>2018-03-20T14:39:40Z</time>
      </trkpt>
      <trkpt lat="43.405316" lon="-6.156877">
        <ele>150.982</ele>
        <time>2018-03-20T14:39:43Z</time>
      </trkpt>
      <trkpt lat="43.405258" lon="-6.156879">
        <ele>150.575</ele>
        <time>2018-03-20T14:39:46Z</time>
      </trkpt>
      <trkpt lat="43.405205" lon="-6.156877">
        <ele>149.886</ele>
        <time>2018-03-20T14:39:49Z</time>
      </trkpt>
      <trkpt lat="43.405158" lon="-6.156868">
        <ele>149.854</ele>
        <time>2018-03-20T14:39:52Z</time>
      </trkpt>
      <trkpt lat="43.405113" lon="-6.156858">
        <ele>149.881</ele>
        <time>2018-03-20T14:39:55Z</time>
      </trkpt>
      <trkpt lat="43.405056" lon="-6.156856">
        <ele>150.216</ele>
        <time>2018-03-20T14:39:59Z</time>
      </trkpt>
      <trkpt lat="43.405007" lon="-6.156876">
        <ele>150.867</ele>
        <time>2018-03-20T14:40:03Z</time>
      </trkpt>
      <trkpt lat="43.404962" lon="-6.156900">
        <ele>151.281</ele>
        <time>2018-03-20T14:40:06Z</time>
      </trkpt>
      <trkpt lat="43.404907" lon="-6.156930">
        <ele>151.419</ele>
        <time>2018-03-20T14:40:09Z</time>
      </trkpt>
      <trkpt lat="43.404851" lon="-6.156966">
        <ele>151.908</ele>
        <time>2018-03-20T14:40:12Z</time>
      </trkpt>
      <trkpt lat="43.404811" lon="-6.156995">
        <ele>152.288</ele>
        <time>2018-03-20T14:40:14Z</time>
      </trkpt>
      <trkpt lat="43.404762" lon="-6.157039">
        <ele>152.479</ele>
        <time>2018-03-20T14:40:17Z</time>
      </trkpt>
      <trkpt lat="43.404719" lon="-6.157087">
        <ele>152.189</ele>
        <time>2018-03-20T14:40:20Z</time>
      </trkpt>
      <trkpt lat="43.404683" lon="-6.157132">
        <ele>151.962</ele>
        <time>2018-03-20T14:40:23Z</time>
      </trkpt>
      <trkpt lat="43.404650" lon="-6.157176">
        <ele>153.033</ele>
        <time>2018-03-20T14:40:26Z</time>
      </trkpt>
      <trkpt lat="43.404619" lon="-6.157222">
        <ele>153.741</ele>
        <time>2018-03-20T14:40:29Z</time>
      </trkpt>
      <trkpt lat="43.404593" lon="-6.157277">
        <ele>154.578</ele>
        <time>2018-03-20T14:40:33Z</time>
      </trkpt>
      <trkpt lat="43.404579" lon="-6.157352">
        <ele>155.423</ele>
        <time>2018-03-20T14:40:37Z</time>
      </trkpt>
      <trkpt lat="43.404576" lon="-6.157431">
        <ele>155.954</ele>
        <time>2018-03-20T14:40:41Z</time>
      </trkpt>
      <trkpt lat="43.404573" lon="-6.157503">
        <ele>156.256</ele>
        <time>2018-03-20T14:40:44Z</time>
      </trkpt>
      <trkpt lat="43.404570" lon="-6.157578">
        <ele>156.011</ele>
        <time>2018-03-20T14:40:47Z</time>
      </trkpt>
      <trkpt lat="43.404564" lon="-6.157644">
        <ele>155.108</ele>
        <time>2018-03-20T14:40:50Z</time>
      </trkpt>
      <trkpt lat="43.404548" lon="-6.157703">
        <ele>154.517</ele>
        <time>2018-03-20T14:40:53Z</time>
      </trkpt>
      <trkpt lat="43.404520" lon="-6.157765">
        <ele>154.268</ele>
        <time>2018-03-20T14:40:56Z</time>
      </trkpt>
      <trkpt lat="43.404502" lon="-6.157825">
        <ele>154.468</ele>
        <time>2018-03-20T14:41:00Z</time>
      </trkpt>
      <trkpt lat="43.404485" lon="-6.157905">
        <ele>154.561</ele>
        <time>2018-03-20T14:41:04Z</time>
      </trkpt>
      <trkpt lat="43.404468" lon="-6.157969">
        <ele>154.612</ele>
        <time>2018-03-20T14:41:07Z</time>
      </trkpt>
      <trkpt lat="43.404458" lon="-6.158043">
        <ele>153.810</ele>
        <time>2018-03-20T14:41:11Z</time>
      </trkpt>
      <trkpt lat="43.404472" lon="-6.158120">
        <ele>153.727</ele>
        <time>2018-03-20T14:41:15Z</time>
      </trkpt>
      <trkpt lat="43.404477" lon="-6.158202">
        <ele>154.132</ele>
        <time>2018-03-20T14:41:19Z</time>
      </trkpt>
      <trkpt lat="43.404473" lon="-6.158281">
        <ele>154.782</ele>
        <time>2018-03-20T14:41:22Z</time>
      </trkpt>
      <trkpt lat="43.404463" lon="-6.158359">
        <ele>154.743</ele>
        <time>2018-03-20T14:41:25Z</time>
      </trkpt>
      <trkpt lat="43.404450" lon="-6.158419">
        <ele>154.717</ele>
        <time>2018-03-20T14:41:28Z</time>
      </trkpt>
      <trkpt lat="43.404430" lon="-6.158489">
        <ele>155.108</ele>
        <time>2018-03-20T14:41:32Z</time>
      </trkpt>
      <trkpt lat="43.404412" lon="-6.158556">
        <ele>155.750</ele>
        <time>2018-03-20T14:41:35Z</time>
      </trkpt>
      <trkpt lat="43.404390" lon="-6.158627">
        <ele>156.171</ele>
        <time>2018-03-20T14:41:38Z</time>
      </trkpt>
      <trkpt lat="43.404366" lon="-6.158694">
        <ele>156.311</ele>
        <time>2018-03-20T14:41:41Z</time>
      </trkpt>
      <trkpt lat="43.404346" lon="-6.158756">
        <ele>157.274</ele>
        <time>2018-03-20T14:41:44Z</time>
      </trkpt>
      <trkpt lat="43.404321" lon="-6.158821">
        <ele>157.445</ele>
        <time>2018-03-20T14:41:49Z</time>
      </trkpt>
      <trkpt lat="43.404313" lon="-6.158899">
        <ele>158.323</ele>
        <time>2018-03-20T14:41:53Z</time>
      </trkpt>
      <trkpt lat="43.404295" lon="-6.158967">
        <ele>159.290</ele>
        <time>2018-03-20T14:41:56Z</time>
      </trkpt>
      <trkpt lat="43.404281" lon="-6.159044">
        <ele>159.865</ele>
        <time>2018-03-20T14:42:00Z</time>
      </trkpt>
      <trkpt lat="43.404262" lon="-6.159117">
        <ele>160.544</ele>
        <time>2018-03-20T14:42:04Z</time>
      </trkpt>
      <trkpt lat="43.404252" lon="-6.159189">
        <ele>160.905</ele>
        <time>2018-03-20T14:42:07Z</time>
      </trkpt>
      <trkpt lat="43.404243" lon="-6.159260">
        <ele>162.015</ele>
        <time>2018-03-20T14:42:11Z</time>
      </trkpt>
      <trkpt lat="43.404244" lon="-6.159324">
        <ele>162.208</ele>
        <time>2018-03-20T14:42:14Z</time>
      </trkpt>
      <trkpt lat="43.404232" lon="-6.159388">
        <ele>162.756</ele>
        <time>2018-03-20T14:42:17Z</time>
      </trkpt>
      <trkpt lat="43.404235" lon="-6.159450">
        <ele>163.427</ele>
        <time>2018-03-20T14:42:20Z</time>
      </trkpt>
      <trkpt lat="43.404246" lon="-6.159513">
        <ele>163.897</ele>
        <time>2018-03-20T14:42:23Z</time>
      </trkpt>
      <trkpt lat="43.404259" lon="-6.159573">
        <ele>163.710</ele>
        <time>2018-03-20T14:42:26Z</time>
      </trkpt>
      <trkpt lat="43.404258" lon="-6.159641">
        <ele>163.641</ele>
        <time>2018-03-20T14:42:29Z</time>
      </trkpt>
      <trkpt lat="43.404257" lon="-6.159720">
        <ele>163.659</ele>
        <time>2018-03-20T14:42:34Z</time>
      </trkpt>
      <trkpt lat="43.404267" lon="-6.159799">
        <ele>163.686</ele>
        <time>2018-03-20T14:42:38Z</time>
      </trkpt>
      <trkpt lat="43.404271" lon="-6.159877">
        <ele>164.041</ele>
        <time>2018-03-20T14:42:42Z</time>
      </trkpt>
      <trkpt lat="43.404274" lon="-6.159957">
        <ele>164.282</ele>
        <time>2018-03-20T14:42:46Z</time>
      </trkpt>
      <trkpt lat="43.404280" lon="-6.160028">
        <ele>164.743</ele>
        <time>2018-03-20T14:42:50Z</time>
      </trkpt>
      <trkpt lat="43.404290" lon="-6.160090">
        <ele>165.417</ele>
        <time>2018-03-20T14:42:53Z</time>
      </trkpt>
      <trkpt lat="43.404302" lon="-6.160153">
        <ele>165.408</ele>
        <time>2018-03-20T14:42:56Z</time>
      </trkpt>
      <trkpt lat="43.404308" lon="-6.160227">
        <ele>165.490</ele>
        <time>2018-03-20T14:43:01Z</time>
      </trkpt>
      <trkpt lat="43.404309" lon="-6.160290">
        <ele>165.451</ele>
        <time>2018-03-20T14:43:04Z</time>
      </trkpt>
      <trkpt lat="43.404316" lon="-6.160365">
        <ele>165.461</ele>
        <time>2018-03-20T14:43:08Z</time>
      </trkpt>
      <trkpt lat="43.404330" lon="-6.160434">
        <ele>163.084</ele>
        <time>2018-03-20T14:43:12Z</time>
      </trkpt>
      <trkpt lat="43.404344" lon="-6.160499">
        <ele>162.085</ele>
        <time>2018-03-20T14:43:16Z</time>
      </trkpt>
      <trkpt lat="43.404352" lon="-6.160573">
        <ele>161.873</ele>
        <time>2018-03-20T14:43:20Z</time>
      </trkpt>
      <trkpt lat="43.404363" lon="-6.160634">
        <ele>162.170</ele>
        <time>2018-03-20T14:43:23Z</time>
      </trkpt>
      <trkpt lat="43.404374" lon="-6.160708">
        <ele>163.175</ele>
        <time>2018-03-20T14:43:27Z</time>
      </trkpt>
      <trkpt lat="43.404385" lon="-6.160774">
        <ele>163.753</ele>
        <time>2018-03-20T14:43:31Z</time>
      </trkpt>
      <trkpt lat="43.404401" lon="-6.160834">
        <ele>163.204</ele>
        <time>2018-03-20T14:43:36Z</time>
      </trkpt>
      <trkpt lat="43.404413" lon="-6.160898">
        <ele>159.714</ele>
        <time>2018-03-20T14:43:40Z</time>
      </trkpt>
      <trkpt lat="43.404431" lon="-6.160959">
        <ele>159.208</ele>
        <time>2018-03-20T14:43:44Z</time>
      </trkpt>
      <trkpt lat="43.404450" lon="-6.161027">
        <ele>159.367</ele>
        <time>2018-03-20T14:43:48Z</time>
      </trkpt>
      <trkpt lat="43.404465" lon="-6.161094">
        <ele>161.018</ele>
        <time>2018-03-20T14:43:51Z</time>
      </trkpt>
      <trkpt lat="43.404481" lon="-6.161162">
        <ele>163.288</ele>
        <time>2018-03-20T14:43:54Z</time>
      </trkpt>
      <trkpt lat="43.404500" lon="-6.161233">
        <ele>164.191</ele>
        <time>2018-03-20T14:43:57Z</time>
      </trkpt>
      <trkpt lat="43.404520" lon="-6.161302">
        <ele>165.962</ele>
        <time>2018-03-20T14:44:00Z</time>
      </trkpt>
      <trkpt lat="43.404542" lon="-6.161379">
        <ele>167.480</ele>
        <time>2018-03-20T14:44:03Z</time>
      </trkpt>
      <trkpt lat="43.404563" lon="-6.161444">
        <ele>169.137</ele>
        <time>2018-03-20T14:44:06Z</time>
      </trkpt>
      <trkpt lat="43.404593" lon="-6.161510">
        <ele>169.712</ele>
        <time>2018-03-20T14:44:10Z</time>
      </trkpt>
      <trkpt lat="43.404617" lon="-6.161570">
        <ele>171.367</ele>
        <time>2018-03-20T14:44:13Z</time>
      </trkpt>
      <trkpt lat="43.404640" lon="-6.161626">
        <ele>172.681</ele>
        <time>2018-03-20T14:44:16Z</time>
      </trkpt>
      <trkpt lat="43.404668" lon="-6.161685">
        <ele>173.419</ele>
        <time>2018-03-20T14:44:20Z</time>
      </trkpt>
      <trkpt lat="43.404696" lon="-6.161734">
        <ele>174.308</ele>
        <time>2018-03-20T14:44:24Z</time>
      </trkpt>
      <trkpt lat="43.404717" lon="-6.161799">
        <ele>174.018</ele>
        <time>2018-03-20T14:44:28Z</time>
      </trkpt>
      <trkpt lat="43.404736" lon="-6.161870">
        <ele>174.229</ele>
        <time>2018-03-20T14:44:32Z</time>
      </trkpt>
      <trkpt lat="43.404751" lon="-6.161931">
        <ele>174.379</ele>
        <time>2018-03-20T14:44:35Z</time>
      </trkpt>
      <trkpt lat="43.404762" lon="-6.162009">
        <ele>174.442</ele>
        <time>2018-03-20T14:44:39Z</time>
      </trkpt>
      <trkpt lat="43.404760" lon="-6.162082">
        <ele>174.123</ele>
        <time>2018-03-20T14:44:43Z</time>
      </trkpt>
      <trkpt lat="43.404754" lon="-6.162151">
        <ele>174.311</ele>
        <time>2018-03-20T14:44:47Z</time>
      </trkpt>
      <trkpt lat="43.404746" lon="-6.162224">
        <ele>175.628</ele>
        <time>2018-03-20T14:44:51Z</time>
      </trkpt>
      <trkpt lat="43.404740" lon="-6.162307">
        <ele>176.053</ele>
        <time>2018-03-20T14:44:54Z</time>
      </trkpt>
      <trkpt lat="43.404739" lon="-6.162379">
        <ele>175.441</ele>
        <time>2018-03-20T14:44:57Z</time>
      </trkpt>
      <trkpt lat="43.404735" lon="-6.162447">
        <ele>175.581</ele>
        <time>2018-03-20T14:45:00Z</time>
      </trkpt>
      <trkpt lat="43.404727" lon="-6.162510">
        <ele>175.109</ele>
        <time>2018-03-20T14:45:03Z</time>
      </trkpt>
      <trkpt lat="43.404721" lon="-6.162573">
        <ele>175.708</ele>
        <time>2018-03-20T14:45:06Z</time>
      </trkpt>
      <trkpt lat="43.404715" lon="-6.162650">
        <ele>175.286</ele>
        <time>2018-03-20T14:45:10Z</time>
      </trkpt>
      <trkpt lat="43.404719" lon="-6.162714">
        <ele>174.147</ele>
        <time>2018-03-20T14:45:14Z</time>
      </trkpt>
      <trkpt lat="43.404725" lon="-6.162788">
        <ele>173.957</ele>
        <time>2018-03-20T14:45:19Z</time>
      </trkpt>
      <trkpt lat="43.404731" lon="-6.162851">
        <ele>174.680</ele>
        <time>2018-03-20T14:45:22Z</time>
      </trkpt>
      <trkpt lat="43.404745" lon="-6.162912">
        <ele>175.031</ele>
        <time>2018-03-20T14:45:25Z</time>
      </trkpt>
      <trkpt lat="43.404764" lon="-6.162975">
        <ele>175.299</ele>
        <time>2018-03-20T14:45:28Z</time>
      </trkpt>
      <trkpt lat="43.404787" lon="-6.163038">
        <ele>175.776</ele>
        <time>2018-03-20T14:45:31Z</time>
      </trkpt>
      <trkpt lat="43.404812" lon="-6.163108">
        <ele>176.811</ele>
        <time>2018-03-20T14:45:34Z</time>
      </trkpt>
      <trkpt lat="43.404834" lon="-6.163177">
        <ele>177.592</ele>
        <time>2018-03-20T14:45:37Z</time>
      </trkpt>
      <trkpt lat="43.404856" lon="-6.163247">
        <ele>177.973</ele>
        <time>2018-03-20T14:45:41Z</time>
      </trkpt>
      <trkpt lat="43.404879" lon="-6.163327">
        <ele>178.920</ele>
        <time>2018-03-20T14:45:45Z</time>
      </trkpt>
      <trkpt lat="43.404899" lon="-6.163402">
        <ele>179.908</ele>
        <time>2018-03-20T14:45:48Z</time>
      </trkpt>
      <trkpt lat="43.404915" lon="-6.163462">
        <ele>180.121</ele>
        <time>2018-03-20T14:45:51Z</time>
      </trkpt>
      <trkpt lat="43.404931" lon="-6.163524">
        <ele>179.892</ele>
        <time>2018-03-20T14:45:55Z</time>
      </trkpt>
      <trkpt lat="43.404937" lon="-6.163589">
        <ele>180.452</ele>
        <time>2018-03-20T14:46:00Z</time>
      </trkpt>
      <trkpt lat="43.404938" lon="-6.163670">
        <ele>181.265</ele>
        <time>2018-03-20T14:46:04Z</time>
      </trkpt>
      <trkpt lat="43.404950" lon="-6.163747">
        <ele>181.766</ele>
        <time>2018-03-20T14:46:08Z</time>
      </trkpt>
      <trkpt lat="43.404966" lon="-6.163814">
        <ele>181.274</ele>
        <time>2018-03-20T14:46:12Z</time>
      </trkpt>
      <trkpt lat="43.404979" lon="-6.163877">
        <ele>180.961</ele>
        <time>2018-03-20T14:46:15Z</time>
      </trkpt>
      <trkpt lat="43.404991" lon="-6.163948">
        <ele>180.726</ele>
        <time>2018-03-20T14:46:18Z</time>
      </trkpt>
      <trkpt lat="43.404995" lon="-6.164031">
        <ele>181.058</ele>
        <time>2018-03-20T14:46:22Z</time>
      </trkpt>
      <trkpt lat="43.404997" lon="-6.164102">
        <ele>181.252</ele>
        <time>2018-03-20T14:46:25Z</time>
      </trkpt>
      <trkpt lat="43.405004" lon="-6.164164">
        <ele>181.317</ele>
        <time>2018-03-20T14:46:28Z</time>
      </trkpt>
      <trkpt lat="43.405019" lon="-6.164244">
        <ele>179.408</ele>
        <time>2018-03-20T14:46:32Z</time>
      </trkpt>
      <trkpt lat="43.405038" lon="-6.164302">
        <ele>179.417</ele>
        <time>2018-03-20T14:46:35Z</time>
      </trkpt>
      <trkpt lat="43.405055" lon="-6.164362">
        <ele>179.438</ele>
        <time>2018-03-20T14:46:38Z</time>
      </trkpt>
      <trkpt lat="43.405075" lon="-6.164431">
        <ele>180.258</ele>
        <time>2018-03-20T14:46:41Z</time>
      </trkpt>
      <trkpt lat="43.405099" lon="-6.164486">
        <ele>181.561</ele>
        <time>2018-03-20T14:46:45Z</time>
      </trkpt>
      <trkpt lat="43.405135" lon="-6.164528">
        <ele>181.962</ele>
        <time>2018-03-20T14:46:49Z</time>
      </trkpt>
      <trkpt lat="43.405155" lon="-6.164593">
        <ele>182.180</ele>
        <time>2018-03-20T14:46:53Z</time>
      </trkpt>
      <trkpt lat="43.405161" lon="-6.164660">
        <ele>182.217</ele>
        <time>2018-03-20T14:46:57Z</time>
      </trkpt>
      <trkpt lat="43.405148" lon="-6.164731">
        <ele>182.342</ele>
        <time>2018-03-20T14:47:02Z</time>
      </trkpt>
      <trkpt lat="43.405135" lon="-6.164796">
        <ele>183.181</ele>
        <time>2018-03-20T14:47:06Z</time>
      </trkpt>
      <trkpt lat="43.405114" lon="-6.164866">
        <ele>183.661</ele>
        <time>2018-03-20T14:47:09Z</time>
      </trkpt>
      <trkpt lat="43.405086" lon="-6.164919">
        <ele>183.917</ele>
        <time>2018-03-20T14:47:12Z</time>
      </trkpt>
      <trkpt lat="43.405051" lon="-6.164966">
        <ele>184.908</ele>
        <time>2018-03-20T14:47:15Z</time>
      </trkpt>
      <trkpt lat="43.405010" lon="-6.165054">
        <ele>186.780</ele>
        <time>2018-03-20T14:47:22Z</time>
      </trkpt>
      <trkpt lat="43.405010" lon="-6.165121">
        <ele>187.411</ele>
        <time>2018-03-20T14:47:25Z</time>
      </trkpt>
      <trkpt lat="43.405031" lon="-6.165178">
        <ele>188.671</ele>
        <time>2018-03-20T14:47:28Z</time>
      </trkpt>
      <trkpt lat="43.405051" lon="-6.165234">
        <ele>189.774</ele>
        <time>2018-03-20T14:47:31Z</time>
      </trkpt>
      <trkpt lat="43.405064" lon="-6.165315">
        <ele>190.485</ele>
        <time>2018-03-20T14:47:35Z</time>
      </trkpt>
      <trkpt lat="43.405059" lon="-6.165381">
        <ele>191.663</ele>
        <time>2018-03-20T14:47:38Z</time>
      </trkpt>
      <trkpt lat="43.405049" lon="-6.165457">
        <ele>192.310</ele>
        <time>2018-03-20T14:47:42Z</time>
      </trkpt>
      <trkpt lat="43.405036" lon="-6.165529">
        <ele>192.775</ele>
        <time>2018-03-20T14:47:46Z</time>
      </trkpt>
      <trkpt lat="43.405032" lon="-6.165594">
        <ele>192.619</ele>
        <time>2018-03-20T14:47:51Z</time>
      </trkpt>
      <trkpt lat="43.405022" lon="-6.165658">
        <ele>192.909</ele>
        <time>2018-03-20T14:47:54Z</time>
      </trkpt>
      <trkpt lat="43.405014" lon="-6.165721">
        <ele>193.919</ele>
        <time>2018-03-20T14:47:58Z</time>
      </trkpt>
      <trkpt lat="43.405005" lon="-6.165789">
        <ele>195.308</ele>
        <time>2018-03-20T14:48:03Z</time>
      </trkpt>
      <trkpt lat="43.404998" lon="-6.165864">
        <ele>196.173</ele>
        <time>2018-03-20T14:48:06Z</time>
      </trkpt>
      <trkpt lat="43.404995" lon="-6.165933">
        <ele>196.244</ele>
        <time>2018-03-20T14:48:09Z</time>
      </trkpt>
      <trkpt lat="43.405001" lon="-6.166005">
        <ele>197.164</ele>
        <time>2018-03-20T14:48:13Z</time>
      </trkpt>
      <trkpt lat="43.405012" lon="-6.166070">
        <ele>199.217</ele>
        <time>2018-03-20T14:48:17Z</time>
      </trkpt>
      <trkpt lat="43.405043" lon="-6.166124">
        <ele>201.318</ele>
        <time>2018-03-20T14:48:21Z</time>
      </trkpt>
      <trkpt lat="43.405072" lon="-6.166179">
        <ele>202.596</ele>
        <time>2018-03-20T14:48:25Z</time>
      </trkpt>
      <trkpt lat="43.405092" lon="-6.166252">
        <ele>202.023</ele>
        <time>2018-03-20T14:48:30Z</time>
      </trkpt>
      <trkpt lat="43.405116" lon="-6.166305">
        <ele>201.368</ele>
        <time>2018-03-20T14:48:36Z</time>
      </trkpt>
      <trkpt lat="43.405158" lon="-6.166353">
        <ele>202.177</ele>
        <time>2018-03-20T14:48:41Z</time>
      </trkpt>
      <trkpt lat="43.405205" lon="-6.166397">
        <ele>202.661</ele>
        <time>2018-03-20T14:48:45Z</time>
      </trkpt>
      <trkpt lat="43.405243" lon="-6.166449">
        <ele>202.527</ele>
        <time>2018-03-20T14:48:50Z</time>
      </trkpt>
      <trkpt lat="43.405288" lon="-6.166479">
        <ele>202.408</ele>
        <time>2018-03-20T14:48:57Z</time>
      </trkpt>
      <trkpt lat="43.405329" lon="-6.166513">
        <ele>202.069</ele>
        <time>2018-03-20T14:49:02Z</time>
      </trkpt>
      <trkpt lat="43.405373" lon="-6.166544">
        <ele>202.510</ele>
        <time>2018-03-20T14:49:06Z</time>
      </trkpt>
      <trkpt lat="43.405419" lon="-6.166573">
        <ele>203.640</ele>
        <time>2018-03-20T14:49:09Z</time>
      </trkpt>
      <trkpt lat="43.405464" lon="-6.166597">
        <ele>204.363</ele>
        <time>2018-03-20T14:49:12Z</time>
      </trkpt>
      <trkpt lat="43.405512" lon="-6.166638">
        <ele>205.584</ele>
        <time>2018-03-20T14:49:16Z</time>
      </trkpt>
      <trkpt lat="43.405556" lon="-6.166673">
        <ele>207.012</ele>
        <time>2018-03-20T14:49:19Z</time>
      </trkpt>
      <trkpt lat="43.405598" lon="-6.166696">
        <ele>207.529</ele>
        <time>2018-03-20T14:49:22Z</time>
      </trkpt>
      <trkpt lat="43.405652" lon="-6.166720">
        <ele>208.214</ele>
        <time>2018-03-20T14:49:27Z</time>
      </trkpt>
      <trkpt lat="43.405707" lon="-6.166733">
        <ele>208.619</ele>
        <time>2018-03-20T14:49:31Z</time>
      </trkpt>
      <trkpt lat="43.405756" lon="-6.166756">
        <ele>208.909</ele>
        <time>2018-03-20T14:49:35Z</time>
      </trkpt>
      <trkpt lat="43.405801" lon="-6.166785">
        <ele>208.719</ele>
        <time>2018-03-20T14:49:39Z</time>
      </trkpt>
      <trkpt lat="43.405861" lon="-6.166803">
        <ele>208.208</ele>
        <time>2018-03-20T14:49:46Z</time>
      </trkpt>
      <trkpt lat="43.405916" lon="-6.166858">
        <ele>209.943</ele>
        <time>2018-03-20T14:49:53Z</time>
      </trkpt>
      <trkpt lat="43.405958" lon="-6.166909">
        <ele>212.144</ele>
        <time>2018-03-20T14:49:56Z</time>
      </trkpt>
      <trkpt lat="43.405999" lon="-6.166953">
        <ele>208.164</ele>
        <time>2018-03-20T14:49:59Z</time>
      </trkpt>
      <trkpt lat="43.406037" lon="-6.167002">
        <ele>204.137</ele>
        <time>2018-03-20T14:50:02Z</time>
      </trkpt>
      <trkpt lat="43.406078" lon="-6.167052">
        <ele>201.418</ele>
        <time>2018-03-20T14:50:06Z</time>
      </trkpt>
      <trkpt lat="43.406110" lon="-6.167107">
        <ele>203.466</ele>
        <time>2018-03-20T14:50:11Z</time>
      </trkpt>
      <trkpt lat="43.406152" lon="-6.167150">
        <ele>205.423</ele>
        <time>2018-03-20T14:50:15Z</time>
      </trkpt>
      <trkpt lat="43.406196" lon="-6.167178">
        <ele>207.488</ele>
        <time>2018-03-20T14:50:18Z</time>
      </trkpt>
      <trkpt lat="43.406246" lon="-6.167209">
        <ele>210.636</ele>
        <time>2018-03-20T14:50:21Z</time>
      </trkpt>
      <trkpt lat="43.406294" lon="-6.167215">
        <ele>214.117</ele>
        <time>2018-03-20T14:50:25Z</time>
      </trkpt>
      <trkpt lat="43.406337" lon="-6.167236">
        <ele>217.418</ele>
        <time>2018-03-20T14:50:31Z</time>
      </trkpt>
      <trkpt lat="43.406378" lon="-6.167280">
        <ele>220.208</ele>
        <time>2018-03-20T14:50:35Z</time>
      </trkpt>
      <trkpt lat="43.406413" lon="-6.167323">
        <ele>220.775</ele>
        <time>2018-03-20T14:50:40Z</time>
      </trkpt>
      <trkpt lat="43.406445" lon="-6.167371">
        <ele>221.856</ele>
        <time>2018-03-20T14:50:47Z</time>
      </trkpt>
      <trkpt lat="43.406498" lon="-6.167390">
        <ele>223.266</ele>
        <time>2018-03-20T14:50:55Z</time>
      </trkpt>
      <trkpt lat="43.406535" lon="-6.167446">
        <ele>224.189</ele>
        <time>2018-03-20T14:51:00Z</time>
      </trkpt>
      <trkpt lat="43.406571" lon="-6.167485">
        <ele>224.610</ele>
        <time>2018-03-20T14:51:03Z</time>
      </trkpt>
      <trkpt lat="43.406669" lon="-6.167550">
        <ele>225.798</ele>
        <time>2018-03-20T14:51:10Z</time>
      </trkpt>
      <trkpt lat="43.406707" lon="-6.167587">
        <ele>226.845</ele>
        <time>2018-03-20T14:51:15Z</time>
      </trkpt>
      <trkpt lat="43.406718" lon="-6.167650">
        <ele>226.270</ele>
        <time>2018-03-20T14:51:19Z</time>
      </trkpt>
      <trkpt lat="43.406749" lon="-6.167702">
        <ele>226.377</ele>
        <time>2018-03-20T14:51:24Z</time>
      </trkpt>
      <trkpt lat="43.406781" lon="-6.167749">
        <ele>227.161</ele>
        <time>2018-03-20T14:51:28Z</time>
      </trkpt>
      <trkpt lat="43.406823" lon="-6.167776">
        <ele>228.427</ele>
        <time>2018-03-20T14:51:31Z</time>
      </trkpt>
      <trkpt lat="43.406868" lon="-6.167807">
        <ele>229.208</ele>
        <time>2018-03-20T14:51:34Z</time>
      </trkpt>
      <trkpt lat="43.406911" lon="-6.167852">
        <ele>231.389</ele>
        <time>2018-03-20T14:51:38Z</time>
      </trkpt>
      <trkpt lat="43.406962" lon="-6.167898">
        <ele>232.160</ele>
        <time>2018-03-20T14:51:42Z</time>
      </trkpt>
      <trkpt lat="43.407003" lon="-6.167937">
        <ele>232.250</ele>
        <time>2018-03-20T14:51:47Z</time>
      </trkpt>
      <trkpt lat="43.407043" lon="-6.167972">
        <ele>231.993</ele>
        <time>2018-03-20T14:51:50Z</time>
      </trkpt>
      <trkpt lat="43.407092" lon="-6.168013">
        <ele>230.124</ele>
        <time>2018-03-20T14:51:54Z</time>
      </trkpt>
      <trkpt lat="43.407131" lon="-6.168075">
        <ele>229.462</ele>
        <time>2018-03-20T14:51:59Z</time>
      </trkpt>
      <trkpt lat="43.407183" lon="-6.168112">
        <ele>230.229</ele>
        <time>2018-03-20T14:52:03Z</time>
      </trkpt>
      <trkpt lat="43.407226" lon="-6.168143">
        <ele>229.554</ele>
        <time>2018-03-20T14:52:08Z</time>
      </trkpt>
      <trkpt lat="43.407274" lon="-6.168181">
        <ele>230.392</ele>
        <time>2018-03-20T14:52:14Z</time>
      </trkpt>
      <trkpt lat="43.407323" lon="-6.168175">
        <ele>230.873</ele>
        <time>2018-03-20T14:52:17Z</time>
      </trkpt>
      <trkpt lat="43.407371" lon="-6.168159">
        <ele>231.520</ele>
        <time>2018-03-20T14:52:21Z</time>
      </trkpt>
      <trkpt lat="43.407425" lon="-6.168163">
        <ele>232.708</ele>
        <time>2018-03-20T14:52:25Z</time>
      </trkpt>
      <trkpt lat="43.407478" lon="-6.168172">
        <ele>234.291</ele>
        <time>2018-03-20T14:52:30Z</time>
      </trkpt>
      <trkpt lat="43.407523" lon="-6.168179">
        <ele>235.112</ele>
        <time>2018-03-20T14:52:34Z</time>
      </trkpt>
      <trkpt lat="43.407576" lon="-6.168182">
        <ele>235.662</ele>
        <time>2018-03-20T14:52:38Z</time>
      </trkpt>
      <trkpt lat="43.407630" lon="-6.168193">
        <ele>234.785</ele>
        <time>2018-03-20T14:52:42Z</time>
      </trkpt>
      <trkpt lat="43.407682" lon="-6.168223">
        <ele>234.646</ele>
        <time>2018-03-20T14:52:47Z</time>
      </trkpt>
      <trkpt lat="43.407719" lon="-6.168262">
        <ele>234.554</ele>
        <time>2018-03-20T14:52:52Z</time>
      </trkpt>
      <trkpt lat="43.407743" lon="-6.168316">
        <ele>234.131</ele>
        <time>2018-03-20T14:52:58Z</time>
      </trkpt>
      <trkpt lat="43.407775" lon="-6.168365">
        <ele>233.876</ele>
        <time>2018-03-20T14:53:03Z</time>
      </trkpt>
      <trkpt lat="43.407809" lon="-6.168413">
        <ele>232.046</ele>
        <time>2018-03-20T14:53:09Z</time>
      </trkpt>
      <trkpt lat="43.407849" lon="-6.168448">
        <ele>231.388</ele>
        <time>2018-03-20T14:53:13Z</time>
      </trkpt>
      <trkpt lat="43.407891" lon="-6.168481">
        <ele>227.316</ele>
        <time>2018-03-20T14:53:18Z</time>
      </trkpt>
      <trkpt lat="43.407928" lon="-6.168524">
        <ele>224.908</ele>
        <time>2018-03-20T14:53:23Z</time>
      </trkpt>
      <trkpt lat="43.407967" lon="-6.168575">
        <ele>225.966</ele>
        <time>2018-03-20T14:53:28Z</time>
      </trkpt>
      <trkpt lat="43.408010" lon="-6.168595">
        <ele>227.747</ele>
        <time>2018-03-20T14:53:33Z</time>
      </trkpt>
      <trkpt lat="43.408053" lon="-6.168615">
        <ele>228.417</ele>
        <time>2018-03-20T14:53:37Z</time>
      </trkpt>
      <trkpt lat="43.408101" lon="-6.168652">
        <ele>228.830</ele>
        <time>2018-03-20T14:53:41Z</time>
      </trkpt>
      <trkpt lat="43.408138" lon="-6.168689">
        <ele>230.621</ele>
        <time>2018-03-20T14:53:44Z</time>
      </trkpt>
      <trkpt lat="43.408172" lon="-6.168736">
        <ele>232.189</ele>
        <time>2018-03-20T14:53:47Z</time>
      </trkpt>
      <trkpt lat="43.408212" lon="-6.168784">
        <ele>233.896</ele>
        <time>2018-03-20T14:53:50Z</time>
      </trkpt>
      <trkpt lat="43.408248" lon="-6.168829">
        <ele>234.881</ele>
        <time>2018-03-20T14:53:53Z</time>
      </trkpt>
      <trkpt lat="43.408283" lon="-6.168895">
        <ele>236.244</ele>
        <time>2018-03-20T14:53:58Z</time>
      </trkpt>
      <trkpt lat="43.408329" lon="-6.168957">
        <ele>236.205</ele>
        <time>2018-03-20T14:54:08Z</time>
      </trkpt>
      <trkpt lat="43.408356" lon="-6.169020">
        <ele>235.815</ele>
        <time>2018-03-20T14:54:15Z</time>
      </trkpt>
      <trkpt lat="43.408350" lon="-6.169082">
        <ele>234.808</ele>
        <time>2018-03-20T14:54:43Z</time>
      </trkpt>
      <trkpt lat="43.408341" lon="-6.169158">
        <ele>231.816</ele>
        <time>2018-03-20T14:54:53Z</time>
      </trkpt>
      <trkpt lat="43.408345" lon="-6.169220">
        <ele>229.697</ele>
        <time>2018-03-20T14:55:00Z</time>
      </trkpt>
      <trkpt lat="43.408359" lon="-6.169296">
        <ele>230.397</ele>
        <time>2018-03-20T14:55:11Z</time>
      </trkpt>
      <trkpt lat="43.408351" lon="-6.169361">
        <ele>229.540</ele>
        <time>2018-03-20T14:55:17Z</time>
      </trkpt>
      <trkpt lat="43.408371" lon="-6.169450">
        <ele>227.041</ele>
        <time>2018-03-20T14:55:27Z</time>
      </trkpt>
      <trkpt lat="43.408380" lon="-6.169527">
        <ele>227.919</ele>
        <time>2018-03-20T14:55:35Z</time>
      </trkpt>
      <trkpt lat="43.408395" lon="-6.169691">
        <ele>229.696</ele>
        <time>2018-03-20T14:55:40Z</time>
      </trkpt>
      <trkpt lat="43.408411" lon="-6.169771">
        <ele>231.411</ele>
        <time>2018-03-20T14:55:43Z</time>
      </trkpt>
      <trkpt lat="43.408439" lon="-6.169836">
        <ele>231.777</ele>
        <time>2018-03-20T14:55:46Z</time>
      </trkpt>
      <trkpt lat="43.408463" lon="-6.169918">
        <ele>230.761</ele>
        <time>2018-03-20T14:55:51Z</time>
      </trkpt>
      <trkpt lat="43.408473" lon="-6.169983">
        <ele>227.327</ele>
        <time>2018-03-20T14:55:59Z</time>
      </trkpt>
      <trkpt lat="43.408463" lon="-6.170061">
        <ele>225.708</ele>
        <time>2018-03-20T14:56:07Z</time>
      </trkpt>
      <trkpt lat="43.408467" lon="-6.170123">
        <ele>221.789</ele>
        <time>2018-03-20T14:56:11Z</time>
      </trkpt>
      <trkpt lat="43.408467" lon="-6.170191">
        <ele>217.790</ele>
        <time>2018-03-20T14:56:15Z</time>
      </trkpt>
      <trkpt lat="43.408473" lon="-6.170263">
        <ele>216.350</ele>
        <time>2018-03-20T14:56:20Z</time>
      </trkpt>
      <trkpt lat="43.408479" lon="-6.170332">
        <ele>216.793</ele>
        <time>2018-03-20T14:56:24Z</time>
      </trkpt>
      <trkpt lat="43.408447" lon="-6.170389">
        <ele>219.324</ele>
        <time>2018-03-20T14:56:29Z</time>
      </trkpt>
      <trkpt lat="43.408422" lon="-6.170461">
        <ele>215.392</ele>
        <time>2018-03-20T14:56:34Z</time>
      </trkpt>
      <trkpt lat="43.408389" lon="-6.170512">
        <ele>213.789</ele>
        <time>2018-03-20T14:56:38Z</time>
      </trkpt>
      <trkpt lat="43.408344" lon="-6.170554">
        <ele>212.314</ele>
        <time>2018-03-20T14:56:43Z</time>
      </trkpt>
      <trkpt lat="43.408332" lon="-6.170639">
        <ele>211.584</ele>
        <time>2018-03-20T14:56:52Z</time>
      </trkpt>
      <trkpt lat="43.408329" lon="-6.170702">
        <ele>211.807</ele>
        <time>2018-03-20T14:56:58Z</time>
      </trkpt>
      <trkpt lat="43.408296" lon="-6.170757">
        <ele>212.817</ele>
        <time>2018-03-20T14:57:04Z</time>
      </trkpt>
      <trkpt lat="43.408280" lon="-6.170818">
        <ele>213.808</ele>
        <time>2018-03-20T14:57:08Z</time>
      </trkpt>
      <trkpt lat="43.408251" lon="-6.170869">
        <ele>214.880</ele>
        <time>2018-03-20T14:57:11Z</time>
      </trkpt>
      <trkpt lat="43.408207" lon="-6.170915">
        <ele>216.241</ele>
        <time>2018-03-20T14:57:14Z</time>
      </trkpt>
      <trkpt lat="43.408163" lon="-6.170949">
        <ele>215.091</ele>
        <time>2018-03-20T14:57:17Z</time>
      </trkpt>
      <trkpt lat="43.408098" lon="-6.171043">
        <ele>219.084</ele>
        <time>2018-03-20T14:57:31Z</time>
      </trkpt>
      <trkpt lat="43.408044" lon="-6.171114">
        <ele>223.015</ele>
        <time>2018-03-20T14:57:33Z</time>
      </trkpt>
      <trkpt lat="43.408008" lon="-6.171153">
        <ele>227.093</ele>
        <time>2018-03-20T14:57:35Z</time>
      </trkpt>
      <trkpt lat="43.407880" lon="-6.171420">
        <ele>231.010</ele>
        <time>2018-03-20T14:57:53Z</time>
      </trkpt>
      <trkpt lat="43.407847" lon="-6.171470">
        <ele>235.085</ele>
        <time>2018-03-20T14:58:02Z</time>
      </trkpt>
      <trkpt lat="43.407830" lon="-6.171534">
        <ele>239.024</ele>
        <time>2018-03-20T14:58:09Z</time>
      </trkpt>
      <trkpt lat="43.407826" lon="-6.171596">
        <ele>243.004</ele>
        <time>2018-03-20T14:58:13Z</time>
      </trkpt>
      <trkpt lat="43.407791" lon="-6.171659">
        <ele>247.014</ele>
        <time>2018-03-20T14:58:18Z</time>
      </trkpt>
      <trkpt lat="43.407749" lon="-6.171692">
        <ele>251.008</ele>
        <time>2018-03-20T14:58:21Z</time>
      </trkpt>
      <trkpt lat="43.407711" lon="-6.171730">
        <ele>247.054</ele>
        <time>2018-03-20T14:58:24Z</time>
      </trkpt>
      <trkpt lat="43.407662" lon="-6.171771">
        <ele>243.065</ele>
        <time>2018-03-20T14:58:28Z</time>
      </trkpt>
      <trkpt lat="43.407622" lon="-6.171807">
        <ele>239.045</ele>
        <time>2018-03-20T14:58:33Z</time>
      </trkpt>
      <trkpt lat="43.407575" lon="-6.171827">
        <ele>235.088</ele>
        <time>2018-03-20T14:58:39Z</time>
      </trkpt>
      <trkpt lat="43.407518" lon="-6.171858">
        <ele>231.069</ele>
        <time>2018-03-20T14:58:42Z</time>
      </trkpt>
      <trkpt lat="43.407469" lon="-6.171907">
        <ele>227.017</ele>
        <time>2018-03-20T14:58:45Z</time>
      </trkpt>
      <trkpt lat="43.407433" lon="-6.171956">
        <ele>223.044</ele>
        <time>2018-03-20T14:58:48Z</time>
      </trkpt>
      <trkpt lat="43.407402" lon="-6.172005">
        <ele>219.029</ele>
        <time>2018-03-20T14:58:51Z</time>
      </trkpt>
      <trkpt lat="43.407365" lon="-6.172066">
        <ele>215.062</ele>
        <time>2018-03-20T14:58:54Z</time>
      </trkpt>
      <trkpt lat="43.407335" lon="-6.172123">
        <ele>211.083</ele>
        <time>2018-03-20T14:58:57Z</time>
      </trkpt>
      <trkpt lat="43.407305" lon="-6.172200">
        <ele>207.111</ele>
        <time>2018-03-20T14:59:00Z</time>
      </trkpt>
      <trkpt lat="43.407243" lon="-6.172306">
        <ele>205.208</ele>
        <time>2018-03-20T14:59:05Z</time>
      </trkpt>
      <trkpt lat="43.407201" lon="-6.172381">
        <ele>204.488</ele>
        <time>2018-03-20T14:59:11Z</time>
      </trkpt>
      <trkpt lat="43.407171" lon="-6.172433">
        <ele>203.939</ele>
        <time>2018-03-20T14:59:15Z</time>
      </trkpt>
      <trkpt lat="43.407130" lon="-6.172470">
        <ele>204.849</ele>
        <time>2018-03-20T14:59:19Z</time>
      </trkpt>
      <trkpt lat="43.407092" lon="-6.172515">
        <ele>204.232</ele>
        <time>2018-03-20T14:59:24Z</time>
      </trkpt>
      <trkpt lat="43.407055" lon="-6.172565">
        <ele>204.263</ele>
        <time>2018-03-20T14:59:29Z</time>
      </trkpt>
      <trkpt lat="43.407029" lon="-6.172623">
        <ele>203.481</ele>
        <time>2018-03-20T14:59:33Z</time>
      </trkpt>
      <trkpt lat="43.407004" lon="-6.172685">
        <ele>203.398</ele>
        <time>2018-03-20T14:59:38Z</time>
      </trkpt>
      <trkpt lat="43.406981" lon="-6.172751">
        <ele>203.343</ele>
        <time>2018-03-20T14:59:41Z</time>
      </trkpt>
      <trkpt lat="43.406939" lon="-6.172826">
        <ele>202.574</ele>
        <time>2018-03-20T14:59:45Z</time>
      </trkpt>
      <trkpt lat="43.406854" lon="-6.172936">
        <ele>201.656</ele>
        <time>2018-03-20T14:59:51Z</time>
      </trkpt>
      <trkpt lat="43.406809" lon="-6.172984">
        <ele>199.521</ele>
        <time>2018-03-20T14:59:55Z</time>
      </trkpt>
      <trkpt lat="43.406771" lon="-6.173039">
        <ele>198.208</ele>
        <time>2018-03-20T14:59:59Z</time>
      </trkpt>
      <trkpt lat="43.406707" lon="-6.173119">
        <ele>197.069</ele>
        <time>2018-03-20T15:00:06Z</time>
      </trkpt>
      <trkpt lat="43.406660" lon="-6.173166">
        <ele>197.180</ele>
        <time>2018-03-20T15:00:10Z</time>
      </trkpt>
      <trkpt lat="43.406625" lon="-6.173218">
        <ele>198.090</ele>
        <time>2018-03-20T15:00:13Z</time>
      </trkpt>
      <trkpt lat="43.406591" lon="-6.173281">
        <ele>198.193</ele>
        <time>2018-03-20T15:00:16Z</time>
      </trkpt>
      <trkpt lat="43.406527" lon="-6.173438">
        <ele>201.444</ele>
        <time>2018-03-20T15:00:22Z</time>
      </trkpt>
      <trkpt lat="43.406454" lon="-6.173584">
        <ele>205.082</ele>
        <time>2018-03-20T15:00:32Z</time>
      </trkpt>
      <trkpt lat="43.406407" lon="-6.173620">
        <ele>205.199</ele>
        <time>2018-03-20T15:00:36Z</time>
      </trkpt>
      <trkpt lat="43.406370" lon="-6.173661">
        <ele>202.444</ele>
        <time>2018-03-20T15:00:39Z</time>
      </trkpt>
      <trkpt lat="43.406329" lon="-6.173713">
        <ele>200.852</ele>
        <time>2018-03-20T15:00:43Z</time>
      </trkpt>
      <trkpt lat="43.406295" lon="-6.173782">
        <ele>198.653</ele>
        <time>2018-03-20T15:00:46Z</time>
      </trkpt>
      <trkpt lat="43.406273" lon="-6.173852">
        <ele>196.508</ele>
        <time>2018-03-20T15:00:49Z</time>
      </trkpt>
      <trkpt lat="43.406255" lon="-6.173916">
        <ele>196.808</ele>
        <time>2018-03-20T15:00:53Z</time>
      </trkpt>
      <trkpt lat="43.406220" lon="-6.173968">
        <ele>195.827</ele>
        <time>2018-03-20T15:00:58Z</time>
      </trkpt>
      <trkpt lat="43.406215" lon="-6.174047">
        <ele>195.668</ele>
        <time>2018-03-20T15:01:02Z</time>
      </trkpt>
      <trkpt lat="43.406212" lon="-6.174122">
        <ele>194.738</ele>
        <time>2018-03-20T15:01:05Z</time>
      </trkpt>
      <trkpt lat="43.406221" lon="-6.174203">
        <ele>194.551</ele>
        <time>2018-03-20T15:01:08Z</time>
      </trkpt>
      <trkpt lat="43.406231" lon="-6.174271">
        <ele>194.432</ele>
        <time>2018-03-20T15:01:11Z</time>
      </trkpt>
      <trkpt lat="43.406228" lon="-6.174334">
        <ele>190.430</ele>
        <time>2018-03-20T15:01:14Z</time>
      </trkpt>
      <trkpt lat="43.406202" lon="-6.174389">
        <ele>186.497</ele>
        <time>2018-03-20T15:01:17Z</time>
      </trkpt>
      <trkpt lat="43.406175" lon="-6.174459">
        <ele>185.152</ele>
        <time>2018-03-20T15:01:22Z</time>
      </trkpt>
      <trkpt lat="43.406135" lon="-6.174500">
        <ele>183.598</ele>
        <time>2018-03-20T15:01:28Z</time>
      </trkpt>
      <trkpt lat="43.406100" lon="-6.174670">
        <ele>184.215</ele>
        <time>2018-03-20T15:01:39Z</time>
      </trkpt>
      <trkpt lat="43.406102" lon="-6.174734">
        <ele>185.826</ele>
        <time>2018-03-20T15:01:42Z</time>
      </trkpt>
      <trkpt lat="43.406100" lon="-6.174801">
        <ele>186.808</ele>
        <time>2018-03-20T15:01:46Z</time>
      </trkpt>
      <trkpt lat="43.406085" lon="-6.174861">
        <ele>186.221</ele>
        <time>2018-03-20T15:01:51Z</time>
      </trkpt>
      <trkpt lat="43.406062" lon="-6.174925">
        <ele>185.092</ele>
        <time>2018-03-20T15:01:56Z</time>
      </trkpt>
      <trkpt lat="43.406058" lon="-6.174998">
        <ele>183.152</ele>
        <time>2018-03-20T15:02:01Z</time>
      </trkpt>
      <trkpt lat="43.406063" lon="-6.175084">
        <ele>182.065</ele>
        <time>2018-03-20T15:02:06Z</time>
      </trkpt>
      <trkpt lat="43.406053" lon="-6.175197">
        <ele>180.936</ele>
        <time>2018-03-20T15:02:14Z</time>
      </trkpt>
      <trkpt lat="43.406054" lon="-6.175274">
        <ele>184.924</ele>
        <time>2018-03-20T15:02:19Z</time>
      </trkpt>
      <trkpt lat="43.406058" lon="-6.175347">
        <ele>185.041</ele>
        <time>2018-03-20T15:02:23Z</time>
      </trkpt>
      <trkpt lat="43.406068" lon="-6.175517">
        <ele>181.516</ele>
        <time>2018-03-20T15:02:53Z</time>
      </trkpt>
      <trkpt lat="43.406066" lon="-6.175589">
        <ele>178.649</ele>
        <time>2018-03-20T15:02:59Z</time>
      </trkpt>
      <trkpt lat="43.406051" lon="-6.175649">
        <ele>176.502</ele>
        <time>2018-03-20T15:03:02Z</time>
      </trkpt>
      <trkpt lat="43.406045" lon="-6.175730">
        <ele>175.622</ele>
        <time>2018-03-20T15:03:06Z</time>
      </trkpt>
      <trkpt lat="43.406047" lon="-6.175796">
        <ele>174.308</ele>
        <time>2018-03-20T15:03:11Z</time>
      </trkpt>
      <trkpt lat="43.406060" lon="-6.175858">
        <ele>173.556</ele>
        <time>2018-03-20T15:03:15Z</time>
      </trkpt>
      <trkpt lat="43.406086" lon="-6.175934">
        <ele>173.087</ele>
        <time>2018-03-20T15:03:19Z</time>
      </trkpt>
      <trkpt lat="43.406103" lon="-6.175996">
        <ele>171.557</ele>
        <time>2018-03-20T15:03:24Z</time>
      </trkpt>
      <trkpt lat="43.406114" lon="-6.176058">
        <ele>171.890</ele>
        <time>2018-03-20T15:03:29Z</time>
      </trkpt>
      <trkpt lat="43.406131" lon="-6.176133">
        <ele>171.691</ele>
        <time>2018-03-20T15:03:33Z</time>
      </trkpt>
      <trkpt lat="43.406163" lon="-6.176195">
        <ele>169.989</ele>
        <time>2018-03-20T15:03:37Z</time>
      </trkpt>
      <trkpt lat="43.406164" lon="-6.176264">
        <ele>168.976</ele>
        <time>2018-03-20T15:03:41Z</time>
      </trkpt>
      <trkpt lat="43.406156" lon="-6.176337">
        <ele>168.791</ele>
        <time>2018-03-20T15:03:45Z</time>
      </trkpt>
      <trkpt lat="43.406156" lon="-6.176416">
        <ele>168.644</ele>
        <time>2018-03-20T15:03:49Z</time>
      </trkpt>
      <trkpt lat="43.406165" lon="-6.176485">
        <ele>167.705</ele>
        <time>2018-03-20T15:03:52Z</time>
      </trkpt>
      <trkpt lat="43.406188" lon="-6.176540">
        <ele>166.415</ele>
        <time>2018-03-20T15:03:56Z</time>
      </trkpt>
      <trkpt lat="43.406219" lon="-6.176608">
        <ele>166.008</ele>
        <time>2018-03-20T15:04:00Z</time>
      </trkpt>
      <trkpt lat="43.406249" lon="-6.176685">
        <ele>165.466</ele>
        <time>2018-03-20T15:04:03Z</time>
      </trkpt>
      <trkpt lat="43.406259" lon="-6.176763">
        <ele>165.027</ele>
        <time>2018-03-20T15:04:07Z</time>
      </trkpt>
      <trkpt lat="43.406279" lon="-6.176828">
        <ele>164.477</ele>
        <time>2018-03-20T15:04:11Z</time>
      </trkpt>
      <trkpt lat="43.406303" lon="-6.176897">
        <ele>163.630</ele>
        <time>2018-03-20T15:04:15Z</time>
      </trkpt>
      <trkpt lat="43.406323" lon="-6.176970">
        <ele>163.581</ele>
        <time>2018-03-20T15:04:19Z</time>
      </trkpt>
      <trkpt lat="43.406327" lon="-6.177034">
        <ele>162.329</ele>
        <time>2018-03-20T15:04:23Z</time>
      </trkpt>
      <trkpt lat="43.406334" lon="-6.177104">
        <ele>160.046</ele>
        <time>2018-03-20T15:04:28Z</time>
      </trkpt>
      <trkpt lat="43.406338" lon="-6.177171">
        <ele>158.271</ele>
        <time>2018-03-20T15:04:33Z</time>
      </trkpt>
      <trkpt lat="43.406357" lon="-6.177234">
        <ele>157.518</ele>
        <time>2018-03-20T15:04:40Z</time>
      </trkpt>
      <trkpt lat="43.406376" lon="-6.177293">
        <ele>156.798</ele>
        <time>2018-03-20T15:04:45Z</time>
      </trkpt>
      <trkpt lat="43.406403" lon="-6.177371">
        <ele>157.017</ele>
        <time>2018-03-20T15:04:49Z</time>
      </trkpt>
      <trkpt lat="43.406398" lon="-6.177434">
        <ele>157.208</ele>
        <time>2018-03-20T15:04:54Z</time>
      </trkpt>
      <trkpt lat="43.406437" lon="-6.177468">
        <ele>160.543</ele>
        <time>2018-03-20T15:05:24Z</time>
      </trkpt>
      <trkpt lat="43.406477" lon="-6.177516">
        <ele>160.534</ele>
        <time>2018-03-20T15:05:31Z</time>
      </trkpt>
      <trkpt lat="43.406508" lon="-6.177576">
        <ele>158.544</ele>
        <time>2018-03-20T15:05:36Z</time>
      </trkpt>
      <trkpt lat="43.406528" lon="-6.177652">
        <ele>156.967</ele>
        <time>2018-03-20T15:05:40Z</time>
      </trkpt>
      <trkpt lat="43.406526" lon="-6.177716">
        <ele>155.528</ele>
        <time>2018-03-20T15:05:43Z</time>
      </trkpt>
      <trkpt lat="43.406523" lon="-6.177798">
        <ele>153.586</ele>
        <time>2018-03-20T15:05:50Z</time>
      </trkpt>
      <trkpt lat="43.406521" lon="-6.177878">
        <ele>153.193</ele>
        <time>2018-03-20T15:05:56Z</time>
      </trkpt>
      <trkpt lat="43.406545" lon="-6.177977">
        <ele>157.138</ele>
        <time>2018-03-20T15:06:08Z</time>
      </trkpt>
      <trkpt lat="43.406539" lon="-6.178073">
        <ele>155.361</ele>
        <time>2018-03-20T15:06:32Z</time>
      </trkpt>
      <trkpt lat="43.406539" lon="-6.178158">
        <ele>154.221</ele>
        <time>2018-03-20T15:06:38Z</time>
      </trkpt>
      <trkpt lat="43.406548" lon="-6.178237">
        <ele>153.913</ele>
        <time>2018-03-20T15:06:41Z</time>
      </trkpt>
      <trkpt lat="43.406550" lon="-6.178324">
        <ele>153.308</ele>
        <time>2018-03-20T15:06:46Z</time>
      </trkpt>
      <trkpt lat="43.406542" lon="-6.178393">
        <ele>153.058</ele>
        <time>2018-03-20T15:06:51Z</time>
      </trkpt>
      <trkpt lat="43.406562" lon="-6.178461">
        <ele>150.089</ele>
        <time>2018-03-20T15:06:57Z</time>
      </trkpt>
      <trkpt lat="43.406587" lon="-6.178523">
        <ele>147.459</ele>
        <time>2018-03-20T15:07:02Z</time>
      </trkpt>
      <trkpt lat="43.406616" lon="-6.178595">
        <ele>145.882</ele>
        <time>2018-03-20T15:07:07Z</time>
      </trkpt>
      <trkpt lat="43.406618" lon="-6.178670">
        <ele>143.753</ele>
        <time>2018-03-20T15:07:13Z</time>
      </trkpt>
      <trkpt lat="43.406628" lon="-6.178738">
        <ele>147.761</ele>
        <time>2018-03-20T15:07:20Z</time>
      </trkpt>
      <trkpt lat="43.406641" lon="-6.178806">
        <ele>151.778</ele>
        <time>2018-03-20T15:07:24Z</time>
      </trkpt>
      <trkpt lat="43.406664" lon="-6.178878">
        <ele>154.433</ele>
        <time>2018-03-20T15:07:27Z</time>
      </trkpt>
      <trkpt lat="43.406689" lon="-6.178946">
        <ele>155.614</ele>
        <time>2018-03-20T15:07:30Z</time>
      </trkpt>
      <trkpt lat="43.406702" lon="-6.179013">
        <ele>154.754</ele>
        <time>2018-03-20T15:07:34Z</time>
      </trkpt>
      <trkpt lat="43.406702" lon="-6.179084">
        <ele>152.609</ele>
        <time>2018-03-20T15:07:39Z</time>
      </trkpt>
      <trkpt lat="43.406709" lon="-6.179160">
        <ele>149.708</ele>
        <time>2018-03-20T15:07:47Z</time>
      </trkpt>
      <trkpt lat="43.406725" lon="-6.179225">
        <ele>153.773</ele>
        <time>2018-03-20T15:07:50Z</time>
      </trkpt>
      <trkpt lat="43.406738" lon="-6.179294">
        <ele>157.764</ele>
        <time>2018-03-20T15:07:53Z</time>
      </trkpt>
      <trkpt lat="43.406760" lon="-6.179405">
        <ele>159.684</ele>
        <time>2018-03-20T15:07:56Z</time>
      </trkpt>
      <trkpt lat="43.406781" lon="-6.179488">
        <ele>159.517</ele>
        <time>2018-03-20T15:07:58Z</time>
      </trkpt>
      <trkpt lat="43.406798" lon="-6.179572">
        <ele>158.788</ele>
        <time>2018-03-20T15:08:00Z</time>
      </trkpt>
      <trkpt lat="43.406827" lon="-6.179634">
        <ele>159.066</ele>
        <time>2018-03-20T15:08:03Z</time>
      </trkpt>
      <trkpt lat="43.406873" lon="-6.179661">
        <ele>158.033</ele>
        <time>2018-03-20T15:08:06Z</time>
      </trkpt>
      <trkpt lat="43.406922" lon="-6.179689">
        <ele>156.298</ele>
        <time>2018-03-20T15:08:09Z</time>
      </trkpt>
      <trkpt lat="43.406964" lon="-6.179716">
        <ele>155.119</ele>
        <time>2018-03-20T15:08:12Z</time>
      </trkpt>
      <trkpt lat="43.407006" lon="-6.179755">
        <ele>154.809</ele>
        <time>2018-03-20T15:08:16Z</time>
      </trkpt>
      <trkpt lat="43.407033" lon="-6.179812">
        <ele>155.819</ele>
        <time>2018-03-20T15:08:20Z</time>
      </trkpt>
      <trkpt lat="43.407053" lon="-6.179871">
        <ele>151.808</ele>
        <time>2018-03-20T15:08:24Z</time>
      </trkpt>
      <trkpt lat="43.407078" lon="-6.179923">
        <ele>149.233</ele>
        <time>2018-03-20T15:08:35Z</time>
      </trkpt>
      <trkpt lat="43.407070" lon="-6.180040">
        <ele>149.774</ele>
        <time>2018-03-20T15:08:46Z</time>
      </trkpt>
      <trkpt lat="43.407065" lon="-6.180130">
        <ele>150.884</ele>
        <time>2018-03-20T15:08:53Z</time>
      </trkpt>
      <trkpt lat="43.407087" lon="-6.180191">
        <ele>152.287</ele>
        <time>2018-03-20T15:08:55Z</time>
      </trkpt>
      <trkpt lat="43.407112" lon="-6.180260">
        <ele>154.368</ele>
        <time>2018-03-20T15:08:57Z</time>
      </trkpt>
      <trkpt lat="43.407125" lon="-6.180330">
        <ele>156.796</ele>
        <time>2018-03-20T15:08:59Z</time>
      </trkpt>
      <trkpt lat="43.407144" lon="-6.180420">
        <ele>158.673</ele>
        <time>2018-03-20T15:09:02Z</time>
      </trkpt>
      <trkpt lat="43.407136" lon="-6.180503">
        <ele>159.738</ele>
        <time>2018-03-20T15:09:05Z</time>
      </trkpt>
      <trkpt lat="43.407125" lon="-6.180579">
        <ele>160.438</ele>
        <time>2018-03-20T15:09:08Z</time>
      </trkpt>
      <trkpt lat="43.407116" lon="-6.180646">
        <ele>160.070</ele>
        <time>2018-03-20T15:09:11Z</time>
      </trkpt>
      <trkpt lat="43.407117" lon="-6.180723">
        <ele>160.217</ele>
        <time>2018-03-20T15:09:27Z</time>
      </trkpt>
      <trkpt lat="43.407122" lon="-6.180790">
        <ele>158.708</ele>
        <time>2018-03-20T15:09:32Z</time>
      </trkpt>
      <trkpt lat="43.407096" lon="-6.180847">
        <ele>155.855</ele>
        <time>2018-03-20T15:09:39Z</time>
      </trkpt>
      <trkpt lat="43.407100" lon="-6.180929">
        <ele>154.996</ele>
        <time>2018-03-20T15:09:46Z</time>
      </trkpt>
      <trkpt lat="43.407090" lon="-6.180997">
        <ele>153.156</ele>
        <time>2018-03-20T15:09:51Z</time>
      </trkpt>
      <trkpt lat="43.407084" lon="-6.181062">
        <ele>152.459</ele>
        <time>2018-03-20T15:09:55Z</time>
      </trkpt>
      <trkpt lat="43.407095" lon="-6.181126">
        <ele>152.840</ele>
        <time>2018-03-20T15:09:59Z</time>
      </trkpt>
      <trkpt lat="43.407098" lon="-6.181202">
        <ele>152.288</ele>
        <time>2018-03-20T15:10:07Z</time>
      </trkpt>
      <trkpt lat="43.407103" lon="-6.181266">
        <ele>151.185</ele>
        <time>2018-03-20T15:10:11Z</time>
      </trkpt>
      <trkpt lat="43.407103" lon="-6.181334">
        <ele>151.280</ele>
        <time>2018-03-20T15:10:16Z</time>
      </trkpt>
      <trkpt lat="43.407106" lon="-6.181406">
        <ele>150.552</ele>
        <time>2018-03-20T15:10:20Z</time>
      </trkpt>
      <trkpt lat="43.407118" lon="-6.181472">
        <ele>149.753</ele>
        <time>2018-03-20T15:10:26Z</time>
      </trkpt>
      <trkpt lat="43.407104" lon="-6.181537">
        <ele>148.808</ele>
        <time>2018-03-20T15:10:30Z</time>
      </trkpt>
      <trkpt lat="43.407106" lon="-6.181606">
        <ele>147.908</ele>
        <time>2018-03-20T15:10:34Z</time>
      </trkpt>
      <trkpt lat="43.407118" lon="-6.181672">
        <ele>147.397</ele>
        <time>2018-03-20T15:10:37Z</time>
      </trkpt>
      <trkpt lat="43.407136" lon="-6.181742">
        <ele>147.088</ele>
        <time>2018-03-20T15:10:41Z</time>
      </trkpt>
      <trkpt lat="43.407151" lon="-6.181807">
        <ele>147.628</ele>
        <time>2018-03-20T15:10:45Z</time>
      </trkpt>
      <trkpt lat="43.407164" lon="-6.181875">
        <ele>148.491</ele>
        <time>2018-03-20T15:10:50Z</time>
      </trkpt>
      <trkpt lat="43.407183" lon="-6.181939">
        <ele>148.942</ele>
        <time>2018-03-20T15:10:54Z</time>
      </trkpt>
      <trkpt lat="43.407210" lon="-6.182001">
        <ele>148.450</ele>
        <time>2018-03-20T15:10:59Z</time>
      </trkpt>
      <trkpt lat="43.407224" lon="-6.182100">
        <ele>147.337</ele>
        <time>2018-03-20T15:11:10Z</time>
      </trkpt>
      <trkpt lat="43.407173" lon="-6.182125">
        <ele>146.672</ele>
        <time>2018-03-20T15:11:17Z</time>
      </trkpt>
      <trkpt lat="43.407119" lon="-6.182141">
        <ele>149.098</ele>
        <time>2018-03-20T15:11:23Z</time>
      </trkpt>
      <trkpt lat="43.407075" lon="-6.182188">
        <ele>149.615</ele>
        <time>2018-03-20T15:11:28Z</time>
      </trkpt>
      <trkpt lat="43.407059" lon="-6.182252">
        <ele>150.026</ele>
        <time>2018-03-20T15:11:32Z</time>
      </trkpt>
      <trkpt lat="43.407051" lon="-6.182314">
        <ele>148.608</ele>
        <time>2018-03-20T15:11:36Z</time>
      </trkpt>
      <trkpt lat="43.407061" lon="-6.182379">
        <ele>148.291</ele>
        <time>2018-03-20T15:11:40Z</time>
      </trkpt>
      <trkpt lat="43.407074" lon="-6.182445">
        <ele>149.112</ele>
        <time>2018-03-20T15:11:45Z</time>
      </trkpt>
      <trkpt lat="43.407087" lon="-6.182509">
        <ele>150.112</ele>
        <time>2018-03-20T15:11:50Z</time>
      </trkpt>
      <trkpt lat="43.407078" lon="-6.182582">
        <ele>150.795</ele>
        <time>2018-03-20T15:11:56Z</time>
      </trkpt>
      <trkpt lat="43.407068" lon="-6.182654">
        <ele>151.096</ele>
        <time>2018-03-20T15:12:01Z</time>
      </trkpt>
      <trkpt lat="43.407044" lon="-6.182722">
        <ele>151.214</ele>
        <time>2018-03-20T15:12:07Z</time>
      </trkpt>
      <trkpt lat="43.407024" lon="-6.182783">
        <ele>152.181</ele>
        <time>2018-03-20T15:12:12Z</time>
      </trkpt>
      <trkpt lat="43.407002" lon="-6.182845">
        <ele>151.946</ele>
        <time>2018-03-20T15:12:19Z</time>
      </trkpt>
      <trkpt lat="43.406979" lon="-6.182908">
        <ele>152.655</ele>
        <time>2018-03-20T15:12:24Z</time>
      </trkpt>
      <trkpt lat="43.406953" lon="-6.182974">
        <ele>153.407</ele>
        <time>2018-03-20T15:12:28Z</time>
      </trkpt>
      <trkpt lat="43.406933" lon="-6.183049">
        <ele>154.317</ele>
        <time>2018-03-20T15:12:32Z</time>
      </trkpt>
      <trkpt lat="43.406904" lon="-6.183104">
        <ele>155.208</ele>
        <time>2018-03-20T15:12:35Z</time>
      </trkpt>
      <trkpt lat="43.406872" lon="-6.183157">
        <ele>155.057</ele>
        <time>2018-03-20T15:12:38Z</time>
      </trkpt>
      <trkpt lat="43.406822" lon="-6.183190">
        <ele>156.178</ele>
        <time>2018-03-20T15:12:43Z</time>
      </trkpt>
      <trkpt lat="43.406791" lon="-6.183249">
        <ele>156.778</ele>
        <time>2018-03-20T15:12:48Z</time>
      </trkpt>
      <trkpt lat="43.406771" lon="-6.183310">
        <ele>156.331</ele>
        <time>2018-03-20T15:12:53Z</time>
      </trkpt>
      <trkpt lat="43.406764" lon="-6.183454">
        <ele>157.622</ele>
        <time>2018-03-20T15:13:00Z</time>
      </trkpt>
      <trkpt lat="43.406758" lon="-6.183537">
        <ele>158.880</ele>
        <time>2018-03-20T15:13:04Z</time>
      </trkpt>
      <trkpt lat="43.406755" lon="-6.183610">
        <ele>159.557</ele>
        <time>2018-03-20T15:13:07Z</time>
      </trkpt>
      <trkpt lat="43.406756" lon="-6.183694">
        <ele>159.522</ele>
        <time>2018-03-20T15:13:10Z</time>
      </trkpt>
      <trkpt lat="43.406755" lon="-6.183772">
        <ele>159.565</ele>
        <time>2018-03-20T15:13:13Z</time>
      </trkpt>
      <trkpt lat="43.406731" lon="-6.183842">
        <ele>159.968</ele>
        <time>2018-03-20T15:13:17Z</time>
      </trkpt>
      <trkpt lat="43.406693" lon="-6.183889">
        <ele>160.114</ele>
        <time>2018-03-20T15:13:21Z</time>
      </trkpt>
      <trkpt lat="43.406652" lon="-6.183917">
        <ele>161.408</ele>
        <time>2018-03-20T15:13:26Z</time>
      </trkpt>
      <trkpt lat="43.406638" lon="-6.183986">
        <ele>162.648</ele>
        <time>2018-03-20T15:13:30Z</time>
      </trkpt>
      <trkpt lat="43.406627" lon="-6.184058">
        <ele>162.559</ele>
        <time>2018-03-20T15:13:33Z</time>
      </trkpt>
      <trkpt lat="43.406608" lon="-6.184130">
        <ele>162.119</ele>
        <time>2018-03-20T15:13:36Z</time>
      </trkpt>
      <trkpt lat="43.406580" lon="-6.184198">
        <ele>161.892</ele>
        <time>2018-03-20T15:13:39Z</time>
      </trkpt>
      <trkpt lat="43.406538" lon="-6.184239">
        <ele>160.083</ele>
        <time>2018-03-20T15:13:42Z</time>
      </trkpt>
      <trkpt lat="43.406495" lon="-6.184275">
        <ele>158.991</ele>
        <time>2018-03-20T15:13:46Z</time>
      </trkpt>
      <trkpt lat="43.406465" lon="-6.184334">
        <ele>157.178</ele>
        <time>2018-03-20T15:13:51Z</time>
      </trkpt>
      <trkpt lat="43.406433" lon="-6.184390">
        <ele>155.683</ele>
        <time>2018-03-20T15:13:55Z</time>
      </trkpt>
      <trkpt lat="43.406395" lon="-6.184429">
        <ele>154.348</ele>
        <time>2018-03-20T15:14:01Z</time>
      </trkpt>
      <trkpt lat="43.406353" lon="-6.184467">
        <ele>152.361</ele>
        <time>2018-03-20T15:14:06Z</time>
      </trkpt>
      <trkpt lat="43.406307" lon="-6.184512">
        <ele>151.517</ele>
        <time>2018-03-20T15:14:10Z</time>
      </trkpt>
      <trkpt lat="43.406280" lon="-6.184574">
        <ele>150.608</ele>
        <time>2018-03-20T15:14:13Z</time>
      </trkpt>
      <trkpt lat="43.406245" lon="-6.184619">
        <ele>150.516</ele>
        <time>2018-03-20T15:14:17Z</time>
      </trkpt>
      <trkpt lat="43.406202" lon="-6.184676">
        <ele>151.217</ele>
        <time>2018-03-20T15:14:23Z</time>
      </trkpt>
      <trkpt lat="43.406170" lon="-6.184726">
        <ele>151.687</ele>
        <time>2018-03-20T15:14:27Z</time>
      </trkpt>
      <trkpt lat="43.406122" lon="-6.184761">
        <ele>152.790</ele>
        <time>2018-03-20T15:14:31Z</time>
      </trkpt>
      <trkpt lat="43.406078" lon="-6.184789">
        <ele>154.111</ele>
        <time>2018-03-20T15:14:34Z</time>
      </trkpt>
      <trkpt lat="43.406025" lon="-6.184824">
        <ele>155.069</ele>
        <time>2018-03-20T15:14:38Z</time>
      </trkpt>
      <trkpt lat="43.405971" lon="-6.184861">
        <ele>155.966</ele>
        <time>2018-03-20T15:14:42Z</time>
      </trkpt>
      <trkpt lat="43.405925" lon="-6.184899">
        <ele>156.941</ele>
        <time>2018-03-20T15:14:46Z</time>
      </trkpt>
      <trkpt lat="43.405882" lon="-6.184927">
        <ele>157.544</ele>
        <time>2018-03-20T15:14:49Z</time>
      </trkpt>
      <trkpt lat="43.405831" lon="-6.184953">
        <ele>157.805</ele>
        <time>2018-03-20T15:14:53Z</time>
      </trkpt>
      <trkpt lat="43.405785" lon="-6.184981">
        <ele>158.015</ele>
        <time>2018-03-20T15:14:57Z</time>
      </trkpt>
      <trkpt lat="43.405738" lon="-6.184986">
        <ele>157.708</ele>
        <time>2018-03-20T15:15:01Z</time>
      </trkpt>
      <trkpt lat="43.405685" lon="-6.184992">
        <ele>157.516</ele>
        <time>2018-03-20T15:15:06Z</time>
      </trkpt>
      <trkpt lat="43.405635" lon="-6.185015">
        <ele>157.037</ele>
        <time>2018-03-20T15:15:10Z</time>
      </trkpt>
      <trkpt lat="43.405583" lon="-6.185045">
        <ele>157.557</ele>
        <time>2018-03-20T15:15:14Z</time>
      </trkpt>
      <trkpt lat="43.405539" lon="-6.185089">
        <ele>157.820</ele>
        <time>2018-03-20T15:15:19Z</time>
      </trkpt>
      <trkpt lat="43.405498" lon="-6.185124">
        <ele>158.891</ele>
        <time>2018-03-20T15:15:23Z</time>
      </trkpt>
      <trkpt lat="43.405454" lon="-6.185178">
        <ele>160.219</ele>
        <time>2018-03-20T15:15:27Z</time>
      </trkpt>
      <trkpt lat="43.405420" lon="-6.185232">
        <ele>161.896</ele>
        <time>2018-03-20T15:15:30Z</time>
      </trkpt>
      <trkpt lat="43.405390" lon="-6.185280">
        <ele>162.821</ele>
        <time>2018-03-20T15:15:33Z</time>
      </trkpt>
      <trkpt lat="43.405352" lon="-6.185323">
        <ele>163.066</ele>
        <time>2018-03-20T15:15:37Z</time>
      </trkpt>
      <trkpt lat="43.405309" lon="-6.185367">
        <ele>163.529</ele>
        <time>2018-03-20T15:15:41Z</time>
      </trkpt>
      <trkpt lat="43.405262" lon="-6.185409">
        <ele>164.221</ele>
        <time>2018-03-20T15:15:45Z</time>
      </trkpt>
      <trkpt lat="43.405215" lon="-6.185450">
        <ele>165.008</ele>
        <time>2018-03-20T15:15:49Z</time>
      </trkpt>
      <trkpt lat="43.405173" lon="-6.185476">
        <ele>164.378</ele>
        <time>2018-03-20T15:15:52Z</time>
      </trkpt>
      <trkpt lat="43.405132" lon="-6.185507">
        <ele>164.329</ele>
        <time>2018-03-20T15:15:55Z</time>
      </trkpt>
      <trkpt lat="43.405092" lon="-6.185560">
        <ele>164.339</ele>
        <time>2018-03-20T15:15:59Z</time>
      </trkpt>
      <trkpt lat="43.405054" lon="-6.185610">
        <ele>164.712</ele>
        <time>2018-03-20T15:16:02Z</time>
      </trkpt>
      <trkpt lat="43.405018" lon="-6.185667">
        <ele>164.973</ele>
        <time>2018-03-20T15:16:05Z</time>
      </trkpt>
      <trkpt lat="43.404986" lon="-6.185723">
        <ele>165.061</ele>
        <time>2018-03-20T15:16:08Z</time>
      </trkpt>
      <trkpt lat="43.404965" lon="-6.185792">
        <ele>165.158</ele>
        <time>2018-03-20T15:16:12Z</time>
      </trkpt>
      <trkpt lat="43.404947" lon="-6.185861">
        <ele>165.683</ele>
        <time>2018-03-20T15:16:17Z</time>
      </trkpt>
      <trkpt lat="43.404914" lon="-6.185927">
        <ele>166.382</ele>
        <time>2018-03-20T15:16:21Z</time>
      </trkpt>
      <trkpt lat="43.404885" lon="-6.185987">
        <ele>165.943</ele>
        <time>2018-03-20T15:16:25Z</time>
      </trkpt>
      <trkpt lat="43.404857" lon="-6.186046">
        <ele>165.317</ele>
        <time>2018-03-20T15:16:29Z</time>
      </trkpt>
      <trkpt lat="43.404826" lon="-6.186099">
        <ele>164.908</ele>
        <time>2018-03-20T15:16:33Z</time>
      </trkpt>
      <trkpt lat="43.404798" lon="-6.186152">
        <ele>164.770</ele>
        <time>2018-03-20T15:16:37Z</time>
      </trkpt>
      <trkpt lat="43.404778" lon="-6.186222">
        <ele>164.241</ele>
        <time>2018-03-20T15:16:41Z</time>
      </trkpt>
      <trkpt lat="43.404746" lon="-6.186291">
        <ele>163.971</ele>
        <time>2018-03-20T15:16:46Z</time>
      </trkpt>
      <trkpt lat="43.404736" lon="-6.186355">
        <ele>162.994</ele>
        <time>2018-03-20T15:16:49Z</time>
      </trkpt>
      <trkpt lat="43.404730" lon="-6.186423">
        <ele>162.395</ele>
        <time>2018-03-20T15:16:53Z</time>
      </trkpt>
      <trkpt lat="43.404723" lon="-6.186502">
        <ele>162.383</ele>
        <time>2018-03-20T15:16:57Z</time>
      </trkpt>
      <trkpt lat="43.404714" lon="-6.186563">
        <ele>162.720</ele>
        <time>2018-03-20T15:17:00Z</time>
      </trkpt>
      <trkpt lat="43.404718" lon="-6.186638">
        <ele>164.495</ele>
        <time>2018-03-20T15:17:04Z</time>
      </trkpt>
      <trkpt lat="43.404718" lon="-6.186638">
        <ele>164.418</ele>
        <time>2018-03-20T15:17:04Z</time>
      </trkpt>
      <trkpt lat="43.404713" lon="-6.186709">
        <ele>165.298</ele>
        <time>2018-03-20T15:17:07Z</time>
      </trkpt>
      <trkpt lat="43.404708" lon="-6.186786">
        <ele>164.917</ele>
        <time>2018-03-20T15:17:10Z</time>
      </trkpt>
      <trkpt lat="43.404696" lon="-6.186862">
        <ele>165.108</ele>
        <time>2018-03-20T15:17:13Z</time>
      </trkpt>
      <trkpt lat="43.404680" lon="-6.186936">
        <ele>164.863</ele>
        <time>2018-03-20T15:17:17Z</time>
      </trkpt>
      <trkpt lat="43.404663" lon="-6.186997">
        <ele>164.224</ele>
        <time>2018-03-20T15:17:21Z</time>
      </trkpt>
      <trkpt lat="43.404645" lon="-6.187055">
        <ele>162.784</ele>
        <time>2018-03-20T15:17:28Z</time>
      </trkpt>
      <trkpt lat="43.404631" lon="-6.187120">
        <ele>162.277</ele>
        <time>2018-03-20T15:17:31Z</time>
      </trkpt>
      <trkpt lat="43.404609" lon="-6.187193">
        <ele>161.568</ele>
        <time>2018-03-20T15:17:34Z</time>
      </trkpt>
      <trkpt lat="43.404563" lon="-6.187251">
        <ele>161.586</ele>
        <time>2018-03-20T15:17:37Z</time>
      </trkpt>
      <trkpt lat="43.404512" lon="-6.187293">
        <ele>161.523</ele>
        <time>2018-03-20T15:17:40Z</time>
      </trkpt>
      <trkpt lat="43.404456" lon="-6.187323">
        <ele>161.128</ele>
        <time>2018-03-20T15:17:43Z</time>
      </trkpt>
      <trkpt lat="43.404408" lon="-6.187348">
        <ele>161.382</ele>
        <time>2018-03-20T15:17:46Z</time>
      </trkpt>
      <trkpt lat="43.404362" lon="-6.187386">
        <ele>161.043</ele>
        <time>2018-03-20T15:17:50Z</time>
      </trkpt>
      <trkpt lat="43.404328" lon="-6.187438">
        <ele>162.017</ele>
        <time>2018-03-20T15:17:54Z</time>
      </trkpt>
      <trkpt lat="43.404297" lon="-6.187499">
        <ele>162.208</ele>
        <time>2018-03-20T15:17:58Z</time>
      </trkpt>
      <trkpt lat="43.404255" lon="-6.187558">
        <ele>161.940</ele>
        <time>2018-03-20T15:18:02Z</time>
      </trkpt>
      <trkpt lat="43.404234" lon="-6.187615">
        <ele>161.791</ele>
        <time>2018-03-20T15:18:05Z</time>
      </trkpt>
      <trkpt lat="43.404213" lon="-6.187679">
        <ele>160.461</ele>
        <time>2018-03-20T15:18:09Z</time>
      </trkpt>
      <trkpt lat="43.404199" lon="-6.187750">
        <ele>160.434</ele>
        <time>2018-03-20T15:18:13Z</time>
      </trkpt>
      <trkpt lat="43.404183" lon="-6.187810">
        <ele>160.415</ele>
        <time>2018-03-20T15:18:16Z</time>
      </trkpt>
      <trkpt lat="43.404173" lon="-6.187873">
        <ele>160.883</ele>
        <time>2018-03-20T15:18:20Z</time>
      </trkpt>
      <trkpt lat="43.404156" lon="-6.187952">
        <ele>161.460</ele>
        <time>2018-03-20T15:18:24Z</time>
      </trkpt>
      <trkpt lat="43.404148" lon="-6.188014">
        <ele>162.245</ele>
        <time>2018-03-20T15:18:27Z</time>
      </trkpt>
      <trkpt lat="43.404128" lon="-6.188076">
        <ele>163.584</ele>
        <time>2018-03-20T15:18:30Z</time>
      </trkpt>
      <trkpt lat="43.404099" lon="-6.188134">
        <ele>164.707</ele>
        <time>2018-03-20T15:18:33Z</time>
      </trkpt>
      <trkpt lat="43.404072" lon="-6.188191">
        <ele>164.617</ele>
        <time>2018-03-20T15:18:36Z</time>
      </trkpt>
      <trkpt lat="43.404040" lon="-6.188254">
        <ele>164.108</ele>
        <time>2018-03-20T15:18:40Z</time>
      </trkpt>
      <trkpt lat="43.404009" lon="-6.188326">
        <ele>164.640</ele>
        <time>2018-03-20T15:18:45Z</time>
      </trkpt>
      <trkpt lat="43.403981" lon="-6.188381">
        <ele>164.971</ele>
        <time>2018-03-20T15:18:48Z</time>
      </trkpt>
      <trkpt lat="43.403950" lon="-6.188438">
        <ele>165.531</ele>
        <time>2018-03-20T15:18:52Z</time>
      </trkpt>
      <trkpt lat="43.403944" lon="-6.188509">
        <ele>166.344</ele>
        <time>2018-03-20T15:19:21Z</time>
      </trkpt>
      <trkpt lat="43.403905" lon="-6.188561">
        <ele>166.815</ele>
        <time>2018-03-20T15:19:24Z</time>
      </trkpt>
      <trkpt lat="43.403866" lon="-6.188619">
        <ele>167.193</ele>
        <time>2018-03-20T15:19:27Z</time>
      </trkpt>
      <trkpt lat="43.403829" lon="-6.188668">
        <ele>167.340</ele>
        <time>2018-03-20T15:19:30Z</time>
      </trkpt>
      <trkpt lat="43.403790" lon="-6.188717">
        <ele>167.895</ele>
        <time>2018-03-20T15:19:33Z</time>
      </trkpt>
      <trkpt lat="43.403743" lon="-6.188762">
        <ele>168.131</ele>
        <time>2018-03-20T15:19:38Z</time>
      </trkpt>
      <trkpt lat="43.403707" lon="-6.188807">
        <ele>169.161</ele>
        <time>2018-03-20T15:19:42Z</time>
      </trkpt>
      <trkpt lat="43.403667" lon="-6.188860">
        <ele>170.107</ele>
        <time>2018-03-20T15:19:51Z</time>
      </trkpt>
      <trkpt lat="43.403656" lon="-6.188962">
        <ele>169.508</ele>
        <time>2018-03-20T15:19:54Z</time>
      </trkpt>
      <trkpt lat="43.403651" lon="-6.189046">
        <ele>169.965</ele>
        <time>2018-03-20T15:19:56Z</time>
      </trkpt>
      <trkpt lat="43.403650" lon="-6.189122">
        <ele>171.096</ele>
        <time>2018-03-20T15:19:58Z</time>
      </trkpt>
      <trkpt lat="43.403651" lon="-6.189195">
        <ele>171.686</ele>
        <time>2018-03-20T15:20:00Z</time>
      </trkpt>
      <trkpt lat="43.403652" lon="-6.189264">
        <ele>172.029</ele>
        <time>2018-03-20T15:20:02Z</time>
      </trkpt>
      <trkpt lat="43.403652" lon="-6.189332">
        <ele>172.620</ele>
        <time>2018-03-20T15:20:04Z</time>
      </trkpt>
      <trkpt lat="43.403654" lon="-6.189398">
        <ele>173.488</ele>
        <time>2018-03-20T15:20:06Z</time>
      </trkpt>
      <trkpt lat="43.403658" lon="-6.189463">
        <ele>173.985</ele>
        <time>2018-03-20T15:20:08Z</time>
      </trkpt>
      <trkpt lat="43.403663" lon="-6.189547">
        <ele>174.240</ele>
        <time>2018-03-20T15:20:11Z</time>
      </trkpt>
      <trkpt lat="43.403663" lon="-6.189622">
        <ele>174.436</ele>
        <time>2018-03-20T15:20:14Z</time>
      </trkpt>
      <trkpt lat="43.403665" lon="-6.189693">
        <ele>174.917</ele>
        <time>2018-03-20T15:20:17Z</time>
      </trkpt>
      <trkpt lat="43.403665" lon="-6.189757">
        <ele>174.418</ele>
        <time>2018-03-20T15:20:20Z</time>
      </trkpt>
      <trkpt lat="43.403668" lon="-6.189833">
        <ele>173.708</ele>
        <time>2018-03-20T15:20:24Z</time>
      </trkpt>
      <trkpt lat="43.403672" lon="-6.189909">
        <ele>172.975</ele>
        <time>2018-03-20T15:20:31Z</time>
      </trkpt>
      <trkpt lat="43.403668" lon="-6.189972">
        <ele>171.646</ele>
        <time>2018-03-20T15:20:34Z</time>
      </trkpt>
      <trkpt lat="43.403672" lon="-6.190043">
        <ele>171.256</ele>
        <time>2018-03-20T15:20:38Z</time>
      </trkpt>
      <trkpt lat="43.403673" lon="-6.190129">
        <ele>171.839</ele>
        <time>2018-03-20T15:20:42Z</time>
      </trkpt>
      <trkpt lat="43.403673" lon="-6.190201">
        <ele>172.520</ele>
        <time>2018-03-20T15:20:45Z</time>
      </trkpt>
      <trkpt lat="43.403667" lon="-6.190271">
        <ele>173.358</ele>
        <time>2018-03-20T15:20:48Z</time>
      </trkpt>
      <trkpt lat="43.403661" lon="-6.190355">
        <ele>173.055</ele>
        <time>2018-03-20T15:20:52Z</time>
      </trkpt>
      <trkpt lat="43.403650" lon="-6.190438">
        <ele>173.230</ele>
        <time>2018-03-20T15:20:55Z</time>
      </trkpt>
      <trkpt lat="43.403644" lon="-6.190502">
        <ele>173.771</ele>
        <time>2018-03-20T15:20:57Z</time>
      </trkpt>
      <trkpt lat="43.403636" lon="-6.190598">
        <ele>174.441</ele>
        <time>2018-03-20T15:21:03Z</time>
      </trkpt>
      <trkpt lat="43.403625" lon="-6.190664">
        <ele>174.415</ele>
        <time>2018-03-20T15:21:07Z</time>
      </trkpt>
      <trkpt lat="43.403603" lon="-6.190726">
        <ele>174.408</ele>
        <time>2018-03-20T15:21:11Z</time>
      </trkpt>
      <trkpt lat="43.403590" lon="-6.190798">
        <ele>174.889</ele>
        <time>2018-03-20T15:21:14Z</time>
      </trkpt>
      <trkpt lat="43.403585" lon="-6.190872">
        <ele>175.830</ele>
        <time>2018-03-20T15:21:17Z</time>
      </trkpt>
      <trkpt lat="43.403594" lon="-6.190934">
        <ele>175.280</ele>
        <time>2018-03-20T15:21:21Z</time>
      </trkpt>
      <trkpt lat="43.403599" lon="-6.191006">
        <ele>174.583</ele>
        <time>2018-03-20T15:21:24Z</time>
      </trkpt>
      <trkpt lat="43.403623" lon="-6.191080">
        <ele>173.324</ele>
        <time>2018-03-20T15:21:29Z</time>
      </trkpt>
      <trkpt lat="43.403646" lon="-6.191142">
        <ele>172.282</ele>
        <time>2018-03-20T15:21:32Z</time>
      </trkpt>
      <trkpt lat="43.403674" lon="-6.191206">
        <ele>171.159</ele>
        <time>2018-03-20T15:21:35Z</time>
      </trkpt>
      <trkpt lat="43.403699" lon="-6.191266">
        <ele>170.844</ele>
        <time>2018-03-20T15:21:39Z</time>
      </trkpt>
      <trkpt lat="43.403727" lon="-6.191325">
        <ele>170.237</ele>
        <time>2018-03-20T15:21:43Z</time>
      </trkpt>
      <trkpt lat="43.403756" lon="-6.191398">
        <ele>170.749</ele>
        <time>2018-03-20T15:21:47Z</time>
      </trkpt>
      <trkpt lat="43.403778" lon="-6.191453">
        <ele>171.413</ele>
        <time>2018-03-20T15:21:50Z</time>
      </trkpt>
      <trkpt lat="43.403806" lon="-6.191506">
        <ele>171.808</ele>
        <time>2018-03-20T15:21:53Z</time>
      </trkpt>
      <trkpt lat="43.403839" lon="-6.191567">
        <ele>172.485</ele>
        <time>2018-03-20T15:21:57Z</time>
      </trkpt>
      <trkpt lat="43.403872" lon="-6.191633">
        <ele>172.486</ele>
        <time>2018-03-20T15:22:01Z</time>
      </trkpt>
      <trkpt lat="43.403889" lon="-6.191696">
        <ele>172.046</ele>
        <time>2018-03-20T15:22:05Z</time>
      </trkpt>
      <trkpt lat="43.403909" lon="-6.191758">
        <ele>170.629</ele>
        <time>2018-03-20T15:22:09Z</time>
      </trkpt>
      <trkpt lat="43.403930" lon="-6.191817">
        <ele>168.990</ele>
        <time>2018-03-20T15:22:12Z</time>
      </trkpt>
      <trkpt lat="43.403963" lon="-6.191886">
        <ele>167.988</ele>
        <time>2018-03-20T15:22:17Z</time>
      </trkpt>
      <trkpt lat="43.403989" lon="-6.191938">
        <ele>167.315</ele>
        <time>2018-03-20T15:22:20Z</time>
      </trkpt>
      <trkpt lat="43.404006" lon="-6.191995">
        <ele>166.920</ele>
        <time>2018-03-20T15:22:23Z</time>
      </trkpt>
      <trkpt lat="43.404026" lon="-6.192064">
        <ele>167.585</ele>
        <time>2018-03-20T15:22:27Z</time>
      </trkpt>
      <trkpt lat="43.404053" lon="-6.192117">
        <ele>167.989</ele>
        <time>2018-03-20T15:22:30Z</time>
      </trkpt>
      <trkpt lat="43.404089" lon="-6.192158">
        <ele>167.717</ele>
        <time>2018-03-20T15:22:33Z</time>
      </trkpt>
      <trkpt lat="43.404126" lon="-6.192217">
        <ele>167.608</ele>
        <time>2018-03-20T15:22:37Z</time>
      </trkpt>
      <trkpt lat="43.404164" lon="-6.192259">
        <ele>167.550</ele>
        <time>2018-03-20T15:22:41Z</time>
      </trkpt>
      <trkpt lat="43.404192" lon="-6.192320">
        <ele>168.331</ele>
        <time>2018-03-20T15:22:44Z</time>
      </trkpt>
      <trkpt lat="43.404207" lon="-6.192390">
        <ele>168.831</ele>
        <time>2018-03-20T15:22:47Z</time>
      </trkpt>
      <trkpt lat="43.404218" lon="-6.192457">
        <ele>168.724</ele>
        <time>2018-03-20T15:22:50Z</time>
      </trkpt>
      <trkpt lat="43.404222" lon="-6.192523">
        <ele>168.645</ele>
        <time>2018-03-20T15:22:53Z</time>
      </trkpt>
      <trkpt lat="43.404231" lon="-6.192591">
        <ele>169.013</ele>
        <time>2018-03-20T15:22:56Z</time>
      </trkpt>
      <trkpt lat="43.404240" lon="-6.192672">
        <ele>169.260</ele>
        <time>2018-03-20T15:23:00Z</time>
      </trkpt>
      <trkpt lat="43.404241" lon="-6.192740">
        <ele>170.115</ele>
        <time>2018-03-20T15:23:03Z</time>
      </trkpt>
      <trkpt lat="43.404235" lon="-6.192803">
        <ele>171.127</ele>
        <time>2018-03-20T15:23:06Z</time>
      </trkpt>
      <trkpt lat="43.404235" lon="-6.192872">
        <ele>170.968</ele>
        <time>2018-03-20T15:23:09Z</time>
      </trkpt>
      <trkpt lat="43.404229" lon="-6.192944">
        <ele>170.814</ele>
        <time>2018-03-20T15:23:13Z</time>
      </trkpt>
      <trkpt lat="43.404218" lon="-6.193005">
        <ele>170.708</ele>
        <time>2018-03-20T15:23:16Z</time>
      </trkpt>
      <trkpt lat="43.404197" lon="-6.193079">
        <ele>171.194</ele>
        <time>2018-03-20T15:23:20Z</time>
      </trkpt>
      <trkpt lat="43.404172" lon="-6.193138">
        <ele>171.735</ele>
        <time>2018-03-20T15:23:24Z</time>
      </trkpt>
      <trkpt lat="43.404149" lon="-6.193206">
        <ele>172.525</ele>
        <time>2018-03-20T15:23:30Z</time>
      </trkpt>
      <trkpt lat="43.404160" lon="-6.193286">
        <ele>171.898</ele>
        <time>2018-03-20T15:23:41Z</time>
      </trkpt>
      <trkpt lat="43.404158" lon="-6.193381">
        <ele>172.259</ele>
        <time>2018-03-20T15:23:44Z</time>
      </trkpt>
      <trkpt lat="43.404152" lon="-6.193467">
        <ele>172.457</ele>
        <time>2018-03-20T15:23:46Z</time>
      </trkpt>
      <trkpt lat="43.404147" lon="-6.193548">
        <ele>172.114</ele>
        <time>2018-03-20T15:23:48Z</time>
      </trkpt>
      <trkpt lat="43.404146" lon="-6.193612">
        <ele>171.999</ele>
        <time>2018-03-20T15:23:50Z</time>
      </trkpt>
      <trkpt lat="43.404154" lon="-6.193684">
        <ele>172.642</ele>
        <time>2018-03-20T15:23:53Z</time>
      </trkpt>
      <trkpt lat="43.404174" lon="-6.193744">
        <ele>172.222</ele>
        <time>2018-03-20T15:23:56Z</time>
      </trkpt>
      <trkpt lat="43.404197" lon="-6.193812">
        <ele>172.414</ele>
        <time>2018-03-20T15:24:00Z</time>
      </trkpt>
      <trkpt lat="43.404220" lon="-6.193867">
        <ele>172.508</ele>
        <time>2018-03-20T15:24:05Z</time>
      </trkpt>
      <trkpt lat="43.404243" lon="-6.193936">
        <ele>172.256</ele>
        <time>2018-03-20T15:24:09Z</time>
      </trkpt>
      <trkpt lat="43.404269" lon="-6.193991">
        <ele>172.857</ele>
        <time>2018-03-20T15:24:13Z</time>
      </trkpt>
      <trkpt lat="43.404299" lon="-6.194043">
        <ele>174.027</ele>
        <time>2018-03-20T15:24:40Z</time>
      </trkpt>
      <trkpt lat="43.404331" lon="-6.194100">
        <ele>175.180</ele>
        <time>2018-03-20T15:24:45Z</time>
      </trkpt>
      <trkpt lat="43.404372" lon="-6.194127">
        <ele>175.861</ele>
        <time>2018-03-20T15:24:50Z</time>
      </trkpt>
      <trkpt lat="43.404384" lon="-6.194205">
        <ele>176.299</ele>
        <time>2018-03-20T15:24:55Z</time>
      </trkpt>
      <trkpt lat="43.404395" lon="-6.194274">
        <ele>176.896</ele>
        <time>2018-03-20T15:24:58Z</time>
      </trkpt>
      <trkpt lat="43.404417" lon="-6.194348">
        <ele>176.021</ele>
        <time>2018-03-20T15:25:02Z</time>
      </trkpt>
      <trkpt lat="43.404435" lon="-6.194421">
        <ele>175.176</ele>
        <time>2018-03-20T15:25:06Z</time>
      </trkpt>
      <trkpt lat="43.404453" lon="-6.194495">
        <ele>173.090</ele>
        <time>2018-03-20T15:25:10Z</time>
      </trkpt>
      <trkpt lat="43.404476" lon="-6.194559">
        <ele>172.119</ele>
        <time>2018-03-20T15:25:14Z</time>
      </trkpt>
      <trkpt lat="43.404497" lon="-6.194615">
        <ele>172.408</ele>
        <time>2018-03-20T15:25:17Z</time>
      </trkpt>
      <trkpt lat="43.404519" lon="-6.194673">
        <ele>172.669</ele>
        <time>2018-03-20T15:25:20Z</time>
      </trkpt>
      <trkpt lat="43.404542" lon="-6.194729">
        <ele>172.370</ele>
        <time>2018-03-20T15:25:23Z</time>
      </trkpt>
      <trkpt lat="43.404575" lon="-6.194790">
        <ele>171.710</ele>
        <time>2018-03-20T15:25:27Z</time>
      </trkpt>
      <trkpt lat="43.404604" lon="-6.194846">
        <ele>171.423</ele>
        <time>2018-03-20T15:25:31Z</time>
      </trkpt>
      <trkpt lat="43.404616" lon="-6.194907">
        <ele>171.284</ele>
        <time>2018-03-20T15:25:34Z</time>
      </trkpt>
      <trkpt lat="43.404622" lon="-6.194973">
        <ele>170.722</ele>
        <time>2018-03-20T15:25:37Z</time>
      </trkpt>
      <trkpt lat="43.404622" lon="-6.195045">
        <ele>170.419</ele>
        <time>2018-03-20T15:25:40Z</time>
      </trkpt>
      <trkpt lat="43.404615" lon="-6.195119">
        <ele>170.254</ele>
        <time>2018-03-20T15:25:43Z</time>
      </trkpt>
      <trkpt lat="43.404594" lon="-6.195186">
        <ele>169.747</ele>
        <time>2018-03-20T15:25:46Z</time>
      </trkpt>
      <trkpt lat="43.404575" lon="-6.195267">
        <ele>169.829</ele>
        <time>2018-03-20T15:25:49Z</time>
      </trkpt>
      <trkpt lat="43.404556" lon="-6.195342">
        <ele>169.921</ele>
        <time>2018-03-20T15:25:52Z</time>
      </trkpt>
      <trkpt lat="43.404545" lon="-6.195417">
        <ele>171.108</ele>
        <time>2018-03-20T15:25:56Z</time>
      </trkpt>
      <trkpt lat="43.404529" lon="-6.195477">
        <ele>172.226</ele>
        <time>2018-03-20T15:25:59Z</time>
      </trkpt>
      <trkpt lat="43.404515" lon="-6.195540">
        <ele>172.967</ele>
        <time>2018-03-20T15:26:02Z</time>
      </trkpt>
      <trkpt lat="43.404497" lon="-6.195604">
        <ele>173.367</ele>
        <time>2018-03-20T15:26:05Z</time>
      </trkpt>
      <trkpt lat="43.404485" lon="-6.195676">
        <ele>173.560</ele>
        <time>2018-03-20T15:26:09Z</time>
      </trkpt>
      <trkpt lat="43.404494" lon="-6.195751">
        <ele>173.611</ele>
        <time>2018-03-20T15:26:13Z</time>
      </trkpt>
      <trkpt lat="43.404508" lon="-6.195831">
        <ele>173.789</ele>
        <time>2018-03-20T15:26:18Z</time>
      </trkpt>
      <trkpt lat="43.404528" lon="-6.195906">
        <ele>174.236</ele>
        <time>2018-03-20T15:26:22Z</time>
      </trkpt>
      <trkpt lat="43.404543" lon="-6.195979">
        <ele>174.581</ele>
        <time>2018-03-20T15:26:26Z</time>
      </trkpt>
      <trkpt lat="43.404565" lon="-6.196037">
        <ele>173.915</ele>
        <time>2018-03-20T15:26:29Z</time>
      </trkpt>
      <trkpt lat="43.404581" lon="-6.196112">
        <ele>173.965</ele>
        <time>2018-03-20T15:26:34Z</time>
      </trkpt>
      <trkpt lat="43.404605" lon="-6.196173">
        <ele>173.911</ele>
        <time>2018-03-20T15:26:37Z</time>
      </trkpt>
      <trkpt lat="43.404629" lon="-6.196241">
        <ele>172.708</ele>
        <time>2018-03-20T15:26:40Z</time>
      </trkpt>
      <trkpt lat="43.404654" lon="-6.196318">
        <ele>172.443</ele>
        <time>2018-03-20T15:26:43Z</time>
      </trkpt>
      <trkpt lat="43.404669" lon="-6.196394">
        <ele>172.634</ele>
        <time>2018-03-20T15:26:46Z</time>
      </trkpt>
      <trkpt lat="43.404683" lon="-6.196467">
        <ele>172.774</ele>
        <time>2018-03-20T15:26:49Z</time>
      </trkpt>
      <trkpt lat="43.404691" lon="-6.196533">
        <ele>172.467</ele>
        <time>2018-03-20T15:26:52Z</time>
      </trkpt>
      <trkpt lat="43.404702" lon="-6.196596">
        <ele>172.658</ele>
        <time>2018-03-20T15:26:56Z</time>
      </trkpt>
      <trkpt lat="43.404708" lon="-6.196668">
        <ele>172.376</ele>
        <time>2018-03-20T15:27:00Z</time>
      </trkpt>
      <trkpt lat="43.404706" lon="-6.196744">
        <ele>172.583</ele>
        <time>2018-03-20T15:27:04Z</time>
      </trkpt>
      <trkpt lat="43.404691" lon="-6.196821">
        <ele>172.688</ele>
        <time>2018-03-20T15:27:08Z</time>
      </trkpt>
      <trkpt lat="43.404671" lon="-6.196897">
        <ele>172.713</ele>
        <time>2018-03-20T15:27:12Z</time>
      </trkpt>
      <trkpt lat="43.404655" lon="-6.196969">
        <ele>173.243</ele>
        <time>2018-03-20T15:27:16Z</time>
      </trkpt>
      <trkpt lat="43.404647" lon="-6.197031">
        <ele>173.507</ele>
        <time>2018-03-20T15:27:20Z</time>
      </trkpt>
      <trkpt lat="43.404634" lon="-6.197091">
        <ele>174.108</ele>
        <time>2018-03-20T15:27:24Z</time>
      </trkpt>
      <trkpt lat="43.404616" lon="-6.197165">
        <ele>175.693</ele>
        <time>2018-03-20T15:27:29Z</time>
      </trkpt>
      <trkpt lat="43.404613" lon="-6.197238">
        <ele>175.754</ele>
        <time>2018-03-20T15:27:32Z</time>
      </trkpt>
      <trkpt lat="43.404602" lon="-6.197300">
        <ele>175.854</ele>
        <time>2018-03-20T15:27:35Z</time>
      </trkpt>
      <trkpt lat="43.404582" lon="-6.197371">
        <ele>175.857</ele>
        <time>2018-03-20T15:27:39Z</time>
      </trkpt>
      <trkpt lat="43.404570" lon="-6.197436">
        <ele>175.498</ele>
        <time>2018-03-20T15:27:42Z</time>
      </trkpt>
      <trkpt lat="43.404562" lon="-6.197508">
        <ele>175.266</ele>
        <time>2018-03-20T15:27:46Z</time>
      </trkpt>
      <trkpt lat="43.404562" lon="-6.197576">
        <ele>175.193</ele>
        <time>2018-03-20T15:27:49Z</time>
      </trkpt>
      <trkpt lat="43.404557" lon="-6.197663">
        <ele>175.468</ele>
        <time>2018-03-20T15:27:53Z</time>
      </trkpt>
      <trkpt lat="43.404580" lon="-6.197727">
        <ele>176.098</ele>
        <time>2018-03-20T15:27:57Z</time>
      </trkpt>
      <trkpt lat="43.404610" lon="-6.197773">
        <ele>176.415</ele>
        <time>2018-03-20T15:28:01Z</time>
      </trkpt>
      <trkpt lat="43.404646" lon="-6.197818">
        <ele>177.426</ele>
        <time>2018-03-20T15:28:06Z</time>
      </trkpt>
      <trkpt lat="43.404683" lon="-6.197866">
        <ele>177.608</ele>
        <time>2018-03-20T15:28:10Z</time>
      </trkpt>
      <trkpt lat="43.404727" lon="-6.197923">
        <ele>177.361</ele>
        <time>2018-03-20T15:28:15Z</time>
      </trkpt>
      <trkpt lat="43.404753" lon="-6.197976">
        <ele>177.192</ele>
        <time>2018-03-20T15:28:20Z</time>
      </trkpt>
      <trkpt lat="43.404789" lon="-6.198031">
        <ele>176.672</ele>
        <time>2018-03-20T15:28:24Z</time>
      </trkpt>
      <trkpt lat="43.404820" lon="-6.198086">
        <ele>176.315</ele>
        <time>2018-03-20T15:28:27Z</time>
      </trkpt>
      <trkpt lat="43.404839" lon="-6.198146">
        <ele>175.746</ele>
        <time>2018-03-20T15:28:30Z</time>
      </trkpt>
      <trkpt lat="43.404863" lon="-6.198214">
        <ele>175.054</ele>
        <time>2018-03-20T15:28:33Z</time>
      </trkpt>
      <trkpt lat="43.404880" lon="-6.198274">
        <ele>174.631</ele>
        <time>2018-03-20T15:28:36Z</time>
      </trkpt>
      <trkpt lat="43.404892" lon="-6.198349">
        <ele>173.536</ele>
        <time>2018-03-20T15:28:40Z</time>
      </trkpt>
      <trkpt lat="43.404897" lon="-6.198421">
        <ele>173.353</ele>
        <time>2018-03-20T15:28:44Z</time>
      </trkpt>
      <trkpt lat="43.404916" lon="-6.198481">
        <ele>173.204</ele>
        <time>2018-03-20T15:28:48Z</time>
      </trkpt>
      <trkpt lat="43.404928" lon="-6.198546">
        <ele>173.114</ele>
        <time>2018-03-20T15:28:53Z</time>
      </trkpt>
      <trkpt lat="43.404955" lon="-6.198602">
        <ele>173.408</ele>
        <time>2018-03-20T15:29:05Z</time>
      </trkpt>
      <trkpt lat="43.404954" lon="-6.198672">
        <ele>173.297</ele>
        <time>2018-03-20T15:29:10Z</time>
      </trkpt>
      <trkpt lat="43.404958" lon="-6.198735">
        <ele>173.548</ele>
        <time>2018-03-20T15:29:13Z</time>
      </trkpt>
      <trkpt lat="43.404970" lon="-6.198814">
        <ele>173.328</ele>
        <time>2018-03-20T15:29:16Z</time>
      </trkpt>
      <trkpt lat="43.404997" lon="-6.198881">
        <ele>173.271</ele>
        <time>2018-03-20T15:29:20Z</time>
      </trkpt>
      <trkpt lat="43.405024" lon="-6.198945">
        <ele>171.572</ele>
        <time>2018-03-20T15:29:26Z</time>
      </trkpt>
      <trkpt lat="43.405038" lon="-6.199006">
        <ele>170.920</ele>
        <time>2018-03-20T15:29:29Z</time>
      </trkpt>
      <trkpt lat="43.405055" lon="-6.199086">
        <ele>171.397</ele>
        <time>2018-03-20T15:29:33Z</time>
      </trkpt>
      <trkpt lat="43.405086" lon="-6.199146">
        <ele>171.642</ele>
        <time>2018-03-20T15:29:36Z</time>
      </trkpt>
      <trkpt lat="43.405124" lon="-6.199194">
        <ele>171.827</ele>
        <time>2018-03-20T15:29:39Z</time>
      </trkpt>
      <trkpt lat="43.405164" lon="-6.199247">
        <ele>173.168</ele>
        <time>2018-03-20T15:29:42Z</time>
      </trkpt>
      <trkpt lat="43.405198" lon="-6.199300">
        <ele>173.514</ele>
        <time>2018-03-20T15:29:45Z</time>
      </trkpt>
      <trkpt lat="43.405218" lon="-6.199364">
        <ele>175.308</ele>
        <time>2018-03-20T15:29:49Z</time>
      </trkpt>
      <trkpt lat="43.405237" lon="-6.199429">
        <ele>177.264</ele>
        <time>2018-03-20T15:29:52Z</time>
      </trkpt>
      <trkpt lat="43.405248" lon="-6.199503">
        <ele>178.335</ele>
        <time>2018-03-20T15:29:56Z</time>
      </trkpt>
      <trkpt lat="43.405253" lon="-6.199571">
        <ele>179.055</ele>
        <time>2018-03-20T15:30:00Z</time>
      </trkpt>
      <trkpt lat="43.405268" lon="-6.199641">
        <ele>179.448</ele>
        <time>2018-03-20T15:30:07Z</time>
      </trkpt>
      <trkpt lat="43.405291" lon="-6.199700">
        <ele>179.629</ele>
        <time>2018-03-20T15:30:10Z</time>
      </trkpt>
      <trkpt lat="43.405304" lon="-6.199764">
        <ele>179.347</ele>
        <time>2018-03-20T15:30:13Z</time>
      </trkpt>
      <trkpt lat="43.405323" lon="-6.199824">
        <ele>179.184</ele>
        <time>2018-03-20T15:30:16Z</time>
      </trkpt>
      <trkpt lat="43.405331" lon="-6.199886">
        <ele>179.089</ele>
        <time>2018-03-20T15:30:19Z</time>
      </trkpt>
      <trkpt lat="43.405355" lon="-6.199948">
        <ele>179.787</ele>
        <time>2018-03-20T15:30:23Z</time>
      </trkpt>
      <trkpt lat="43.405391" lon="-6.199987">
        <ele>179.742</ele>
        <time>2018-03-20T15:30:26Z</time>
      </trkpt>
      <trkpt lat="43.405434" lon="-6.200019">
        <ele>179.726</ele>
        <time>2018-03-20T15:30:30Z</time>
      </trkpt>
      <trkpt lat="43.405486" lon="-6.200032">
        <ele>179.308</ele>
        <time>2018-03-20T15:30:34Z</time>
      </trkpt>
      <trkpt lat="43.405536" lon="-6.200040">
        <ele>179.140</ele>
        <time>2018-03-20T15:30:38Z</time>
      </trkpt>
      <trkpt lat="43.405592" lon="-6.200059">
        <ele>178.641</ele>
        <time>2018-03-20T15:30:42Z</time>
      </trkpt>
      <trkpt lat="43.405648" lon="-6.200081">
        <ele>177.921</ele>
        <time>2018-03-20T15:30:47Z</time>
      </trkpt>
      <trkpt lat="43.405703" lon="-6.200103">
        <ele>177.114</ele>
        <time>2018-03-20T15:30:52Z</time>
      </trkpt>
      <trkpt lat="43.405747" lon="-6.200118">
        <ele>176.225</ele>
        <time>2018-03-20T15:30:55Z</time>
      </trkpt>
      <trkpt lat="43.405790" lon="-6.200143">
        <ele>176.173</ele>
        <time>2018-03-20T15:30:59Z</time>
      </trkpt>
      <trkpt lat="43.405843" lon="-6.200173">
        <ele>175.690</ele>
        <time>2018-03-20T15:31:04Z</time>
      </trkpt>
      <trkpt lat="43.405888" lon="-6.200201">
        <ele>175.375</ele>
        <time>2018-03-20T15:31:07Z</time>
      </trkpt>
      <trkpt lat="43.405935" lon="-6.200227">
        <ele>174.754</ele>
        <time>2018-03-20T15:31:10Z</time>
      </trkpt>
      <trkpt lat="43.405990" lon="-6.200216">
        <ele>172.856</ele>
        <time>2018-03-20T15:31:16Z</time>
      </trkpt>
      <trkpt lat="43.406038" lon="-6.200203">
        <ele>169.611</ele>
        <time>2018-03-20T15:31:19Z</time>
      </trkpt>
      <trkpt lat="43.406091" lon="-6.200183">
        <ele>168.908</ele>
        <time>2018-03-20T15:31:24Z</time>
      </trkpt>
      <trkpt lat="43.406145" lon="-6.200158">
        <ele>168.587</ele>
        <time>2018-03-20T15:31:26Z</time>
      </trkpt>
      <trkpt lat="43.406201" lon="-6.200150">
        <ele>168.658</ele>
        <time>2018-03-20T15:31:28Z</time>
      </trkpt>
      <trkpt lat="43.406261" lon="-6.200137">
        <ele>169.968</ele>
        <time>2018-03-20T15:31:32Z</time>
      </trkpt>
      <trkpt lat="43.406363" lon="-6.200119">
        <ele>170.781</ele>
        <time>2018-03-20T15:31:34Z</time>
      </trkpt>
      <trkpt lat="43.406412" lon="-6.200091">
        <ele>171.212</ele>
        <time>2018-03-20T15:31:37Z</time>
      </trkpt>
      <trkpt lat="43.406463" lon="-6.200053">
        <ele>170.710</ele>
        <time>2018-03-20T15:31:43Z</time>
      </trkpt>
      <trkpt lat="43.406515" lon="-6.200026">
        <ele>169.647</ele>
        <time>2018-03-20T15:31:48Z</time>
      </trkpt>
      <trkpt lat="43.406555" lon="-6.199987">
        <ele>168.992</ele>
        <time>2018-03-20T15:31:53Z</time>
      </trkpt>
      <trkpt lat="43.406591" lon="-6.199947">
        <ele>168.592</ele>
        <time>2018-03-20T15:31:56Z</time>
      </trkpt>
      <trkpt lat="43.406626" lon="-6.199889">
        <ele>167.973</ele>
        <time>2018-03-20T15:32:00Z</time>
      </trkpt>
      <trkpt lat="43.406651" lon="-6.199821">
        <ele>167.920</ele>
        <time>2018-03-20T15:32:04Z</time>
      </trkpt>
      <trkpt lat="43.406659" lon="-6.199736">
        <ele>167.108</ele>
        <time>2018-03-20T15:32:07Z</time>
      </trkpt>
      <trkpt lat="43.406665" lon="-6.199659">
        <ele>166.631</ele>
        <time>2018-03-20T15:32:10Z</time>
      </trkpt>
      <trkpt lat="43.406672" lon="-6.199583">
        <ele>166.762</ele>
        <time>2018-03-20T15:32:14Z</time>
      </trkpt>
      <trkpt lat="43.406672" lon="-6.199504">
        <ele>166.492</ele>
        <time>2018-03-20T15:32:18Z</time>
      </trkpt>
      <trkpt lat="43.406690" lon="-6.199444">
        <ele>165.845</ele>
        <time>2018-03-20T15:32:22Z</time>
      </trkpt>
      <trkpt lat="43.406715" lon="-6.199392">
        <ele>165.066</ele>
        <time>2018-03-20T15:32:25Z</time>
      </trkpt>
      <trkpt lat="43.406752" lon="-6.199356">
        <ele>164.584</ele>
        <time>2018-03-20T15:32:28Z</time>
      </trkpt>
      <trkpt lat="43.406797" lon="-6.199334">
        <ele>163.851</ele>
        <time>2018-03-20T15:32:32Z</time>
      </trkpt>
      <trkpt lat="43.406842" lon="-6.199327">
        <ele>163.816</ele>
        <time>2018-03-20T15:32:36Z</time>
      </trkpt>
      <trkpt lat="43.406898" lon="-6.199310">
        <ele>163.452</ele>
        <time>2018-03-20T15:32:40Z</time>
      </trkpt>
      <trkpt lat="43.406954" lon="-6.199290">
        <ele>163.253</ele>
        <time>2018-03-20T15:32:44Z</time>
      </trkpt>
      <trkpt lat="43.406997" lon="-6.199265">
        <ele>162.708</ele>
        <time>2018-03-20T15:32:47Z</time>
      </trkpt>
      <trkpt lat="43.407043" lon="-6.199245">
        <ele>162.008</ele>
        <time>2018-03-20T15:32:51Z</time>
      </trkpt>
      <trkpt lat="43.407101" lon="-6.199222">
        <ele>161.257</ele>
        <time>2018-03-20T15:32:55Z</time>
      </trkpt>
      <trkpt lat="43.407160" lon="-6.199202">
        <ele>159.968</ele>
        <time>2018-03-20T15:32:58Z</time>
      </trkpt>
      <trkpt lat="43.407209" lon="-6.199186">
        <ele>158.798</ele>
        <time>2018-03-20T15:33:01Z</time>
      </trkpt>
      <trkpt lat="43.407258" lon="-6.199165">
        <ele>158.041</ele>
        <time>2018-03-20T15:33:05Z</time>
      </trkpt>
      <trkpt lat="43.407302" lon="-6.199144">
        <ele>158.022</ele>
        <time>2018-03-20T15:33:08Z</time>
      </trkpt>
      <trkpt lat="43.407349" lon="-6.199116">
        <ele>158.080</ele>
        <time>2018-03-20T15:33:11Z</time>
      </trkpt>
      <trkpt lat="43.407404" lon="-6.199077">
        <ele>158.047</ele>
        <time>2018-03-20T15:33:14Z</time>
      </trkpt>
      <trkpt lat="43.407464" lon="-6.199036">
        <ele>157.652</ele>
        <time>2018-03-20T15:33:17Z</time>
      </trkpt>
      <trkpt lat="43.407522" lon="-6.199010">
        <ele>157.431</ele>
        <time>2018-03-20T15:33:21Z</time>
      </trkpt>
      <trkpt lat="43.407573" lon="-6.198995">
        <ele>157.761</ele>
        <time>2018-03-20T15:33:24Z</time>
      </trkpt>
      <trkpt lat="43.407623" lon="-6.198978">
        <ele>157.907</ele>
        <time>2018-03-20T15:33:27Z</time>
      </trkpt>
      <trkpt lat="43.407667" lon="-6.198944">
        <ele>158.008</ele>
        <time>2018-03-20T15:33:30Z</time>
      </trkpt>
      <trkpt lat="43.407722" lon="-6.198917">
        <ele>157.795</ele>
        <time>2018-03-20T15:33:35Z</time>
      </trkpt>
      <trkpt lat="43.407768" lon="-6.198897">
        <ele>157.986</ele>
        <time>2018-03-20T15:33:38Z</time>
      </trkpt>
      <trkpt lat="43.407812" lon="-6.198912">
        <ele>158.026</ele>
        <time>2018-03-20T15:33:41Z</time>
      </trkpt>
      <trkpt lat="43.407840" lon="-6.198980">
        <ele>158.589</ele>
        <time>2018-03-20T15:33:45Z</time>
      </trkpt>
      <trkpt lat="43.407847" lon="-6.199063">
        <ele>158.890</ele>
        <time>2018-03-20T15:33:49Z</time>
      </trkpt>
      <trkpt lat="43.407850" lon="-6.199140">
        <ele>159.098</ele>
        <time>2018-03-20T15:33:52Z</time>
      </trkpt>
      <trkpt lat="43.407852" lon="-6.199217">
        <ele>159.575</ele>
        <time>2018-03-20T15:33:56Z</time>
      </trkpt>
      <trkpt lat="43.407849" lon="-6.199295">
        <ele>159.830</ele>
        <time>2018-03-20T15:34:00Z</time>
      </trkpt>
      <trkpt lat="43.407844" lon="-6.199365">
        <ele>160.097</ele>
        <time>2018-03-20T15:34:04Z</time>
      </trkpt>
      <trkpt lat="43.407849" lon="-6.199443">
        <ele>160.123</ele>
        <time>2018-03-20T15:34:09Z</time>
      </trkpt>
      <trkpt lat="43.407831" lon="-6.199504">
        <ele>160.225</ele>
        <time>2018-03-20T15:34:12Z</time>
      </trkpt>
      <trkpt lat="43.407810" lon="-6.199581">
        <ele>160.208</ele>
        <time>2018-03-20T15:34:15Z</time>
      </trkpt>
      <trkpt lat="43.407784" lon="-6.199643">
        <ele>159.471</ele>
        <time>2018-03-20T15:34:18Z</time>
      </trkpt>
      <trkpt lat="43.407773" lon="-6.199722">
        <ele>159.712</ele>
        <time>2018-03-20T15:34:22Z</time>
      </trkpt>
      <trkpt lat="43.407766" lon="-6.199808">
        <ele>160.352</ele>
        <time>2018-03-20T15:34:25Z</time>
      </trkpt>
      <trkpt lat="43.407756" lon="-6.199895">
        <ele>161.175</ele>
        <time>2018-03-20T15:34:28Z</time>
      </trkpt>
      <trkpt lat="43.407750" lon="-6.199966">
        <ele>161.646</ele>
        <time>2018-03-20T15:34:31Z</time>
      </trkpt>
      <trkpt lat="43.407747" lon="-6.200035">
        <ele>161.994</ele>
        <time>2018-03-20T15:34:34Z</time>
      </trkpt>
      <trkpt lat="43.407744" lon="-6.200104">
        <ele>162.511</ele>
        <time>2018-03-20T15:34:37Z</time>
      </trkpt>
      <trkpt lat="43.407736" lon="-6.200169">
        <ele>163.226</ele>
        <time>2018-03-20T15:34:40Z</time>
      </trkpt>
      <trkpt lat="43.407727" lon="-6.200232">
        <ele>163.698</ele>
        <time>2018-03-20T15:34:43Z</time>
      </trkpt>
      <trkpt lat="43.407731" lon="-6.200311">
        <ele>163.915</ele>
        <time>2018-03-20T15:34:48Z</time>
      </trkpt>
      <trkpt lat="43.407729" lon="-6.200375">
        <ele>164.126</ele>
        <time>2018-03-20T15:34:53Z</time>
      </trkpt>
      <trkpt lat="43.407720" lon="-6.200449">
        <ele>164.608</ele>
        <time>2018-03-20T15:34:57Z</time>
      </trkpt>
      <trkpt lat="43.407714" lon="-6.200526">
        <ele>164.991</ele>
        <time>2018-03-20T15:35:01Z</time>
      </trkpt>
      <trkpt lat="43.407717" lon="-6.200599">
        <ele>165.132</ele>
        <time>2018-03-20T15:35:05Z</time>
      </trkpt>
      <trkpt lat="43.407717" lon="-6.200676">
        <ele>164.862</ele>
        <time>2018-03-20T15:35:09Z</time>
      </trkpt>
      <trkpt lat="43.407715" lon="-6.200748">
        <ele>164.695</ele>
        <time>2018-03-20T15:35:13Z</time>
      </trkpt>
      <trkpt lat="43.407708" lon="-6.200819">
        <ele>164.526</ele>
        <time>2018-03-20T15:35:17Z</time>
      </trkpt>
      <trkpt lat="43.407706" lon="-6.200888">
        <ele>163.624</ele>
        <time>2018-03-20T15:35:21Z</time>
      </trkpt>
      <trkpt lat="43.407698" lon="-6.200956">
        <ele>163.511</ele>
        <time>2018-03-20T15:35:25Z</time>
      </trkpt>
      <trkpt lat="43.407687" lon="-6.201036">
        <ele>163.486</ele>
        <time>2018-03-20T15:35:29Z</time>
      </trkpt>
      <trkpt lat="43.407678" lon="-6.201111">
        <ele>163.811</ele>
        <time>2018-03-20T15:35:33Z</time>
      </trkpt>
      <trkpt lat="43.407672" lon="-6.201175">
        <ele>163.621</ele>
        <time>2018-03-20T15:35:36Z</time>
      </trkpt>
      <trkpt lat="43.407666" lon="-6.201248">
        <ele>163.103</ele>
        <time>2018-03-20T15:35:40Z</time>
      </trkpt>
      <trkpt lat="43.407657" lon="-6.201312">
        <ele>163.608</ele>
        <time>2018-03-20T15:35:43Z</time>
      </trkpt>
      <trkpt lat="43.407644" lon="-6.201394">
        <ele>163.973</ele>
        <time>2018-03-20T15:35:46Z</time>
      </trkpt>
      <trkpt lat="43.407633" lon="-6.201484">
        <ele>163.794</ele>
        <time>2018-03-20T15:35:50Z</time>
      </trkpt>
      <trkpt lat="43.407621" lon="-6.201561">
        <ele>164.074</ele>
        <time>2018-03-20T15:35:53Z</time>
      </trkpt>
      <trkpt lat="43.407613" lon="-6.201628">
        <ele>164.257</ele>
        <time>2018-03-20T15:35:56Z</time>
      </trkpt>
      <trkpt lat="43.407610" lon="-6.201694">
        <ele>164.358</ele>
        <time>2018-03-20T15:35:59Z</time>
      </trkpt>
      <trkpt lat="43.407603" lon="-6.201774">
        <ele>164.076</ele>
        <time>2018-03-20T15:36:03Z</time>
      </trkpt>
      <trkpt lat="43.407595" lon="-6.201843">
        <ele>163.853</ele>
        <time>2018-03-20T15:36:07Z</time>
      </trkpt>
      <trkpt lat="43.407595" lon="-6.201909">
        <ele>163.728</ele>
        <time>2018-03-20T15:36:11Z</time>
      </trkpt>
      <trkpt lat="43.407592" lon="-6.201987">
        <ele>163.666</ele>
        <time>2018-03-20T15:36:15Z</time>
      </trkpt>
      <trkpt lat="43.407587" lon="-6.202063">
        <ele>164.029</ele>
        <time>2018-03-20T15:36:19Z</time>
      </trkpt>
      <trkpt lat="43.407585" lon="-6.202148">
        <ele>164.621</ele>
        <time>2018-03-20T15:36:23Z</time>
      </trkpt>
      <trkpt lat="43.407579" lon="-6.202225">
        <ele>165.008</ele>
        <time>2018-03-20T15:36:26Z</time>
      </trkpt>
      <trkpt lat="43.407569" lon="-6.202294">
        <ele>165.668</ele>
        <time>2018-03-20T15:36:29Z</time>
      </trkpt>
      <trkpt lat="43.407562" lon="-6.202370">
        <ele>166.059</ele>
        <time>2018-03-20T15:36:32Z</time>
      </trkpt>
      <trkpt lat="43.407551" lon="-6.202455">
        <ele>165.859</ele>
        <time>2018-03-20T15:36:35Z</time>
      </trkpt>
      <trkpt lat="43.407546" lon="-6.202518">
        <ele>166.592</ele>
        <time>2018-03-20T15:36:38Z</time>
      </trkpt>
      <trkpt lat="43.407559" lon="-6.202580">
        <ele>166.993</ele>
        <time>2018-03-20T15:36:45Z</time>
      </trkpt>
      <trkpt lat="43.407562" lon="-6.202651">
        <ele>167.561</ele>
        <time>2018-03-20T15:36:49Z</time>
      </trkpt>
      <trkpt lat="43.407562" lon="-6.202717">
        <ele>167.958</ele>
        <time>2018-03-20T15:36:53Z</time>
      </trkpt>
      <trkpt lat="43.407558" lon="-6.202796">
        <ele>168.533</ele>
        <time>2018-03-20T15:36:57Z</time>
      </trkpt>
      <trkpt lat="43.407552" lon="-6.202866">
        <ele>168.576</ele>
        <time>2018-03-20T15:37:00Z</time>
      </trkpt>
      <trkpt lat="43.407544" lon="-6.202938">
        <ele>168.590</ele>
        <time>2018-03-20T15:37:03Z</time>
      </trkpt>
      <trkpt lat="43.407538" lon="-6.203001">
        <ele>167.719</ele>
        <time>2018-03-20T15:37:06Z</time>
      </trkpt>
      <trkpt lat="43.407531" lon="-6.203063">
        <ele>166.808</ele>
        <time>2018-03-20T15:37:10Z</time>
      </trkpt>
      <trkpt lat="43.407523" lon="-6.203127">
        <ele>166.319</ele>
        <time>2018-03-20T15:37:14Z</time>
      </trkpt>
      <trkpt lat="43.407512" lon="-6.203195">
        <ele>166.090</ele>
        <time>2018-03-20T15:37:17Z</time>
      </trkpt>
      <trkpt lat="43.407503" lon="-6.203264">
        <ele>165.080</ele>
        <time>2018-03-20T15:37:21Z</time>
      </trkpt>
      <trkpt lat="43.407504" lon="-6.203343">
        <ele>165.223</ele>
        <time>2018-03-20T15:37:26Z</time>
      </trkpt>
      <trkpt lat="43.407507" lon="-6.203414">
        <ele>165.334</ele>
        <time>2018-03-20T15:37:29Z</time>
      </trkpt>
      <trkpt lat="43.407501" lon="-6.203509">
        <ele>165.052</ele>
        <time>2018-03-20T15:37:32Z</time>
      </trkpt>
      <trkpt lat="43.407491" lon="-6.203580">
        <ele>165.229</ele>
        <time>2018-03-20T15:37:34Z</time>
      </trkpt>
      <trkpt lat="43.407480" lon="-6.203642">
        <ele>164.534</ele>
        <time>2018-03-20T15:37:36Z</time>
      </trkpt>
      <trkpt lat="43.407470" lon="-6.203713">
        <ele>164.554</ele>
        <time>2018-03-20T15:37:39Z</time>
      </trkpt>
      <trkpt lat="43.407463" lon="-6.203797">
        <ele>164.556</ele>
        <time>2018-03-20T15:37:43Z</time>
      </trkpt>
      <trkpt lat="43.407456" lon="-6.203879">
        <ele>164.111</ele>
        <time>2018-03-20T15:37:46Z</time>
      </trkpt>
      <trkpt lat="43.407447" lon="-6.203940">
        <ele>164.308</ele>
        <time>2018-03-20T15:37:48Z</time>
      </trkpt>
      <trkpt lat="43.407436" lon="-6.204012">
        <ele>164.897</ele>
        <time>2018-03-20T15:37:54Z</time>
      </trkpt>
      <trkpt lat="43.407435" lon="-6.204094">
        <ele>164.718</ele>
        <time>2018-03-20T15:37:58Z</time>
      </trkpt>
      <trkpt lat="43.407431" lon="-6.204171">
        <ele>164.658</ele>
        <time>2018-03-20T15:38:01Z</time>
      </trkpt>
      <trkpt lat="43.407430" lon="-6.204247">
        <ele>164.231</ele>
        <time>2018-03-20T15:38:06Z</time>
      </trkpt>
      <trkpt lat="43.407425" lon="-6.204310">
        <ele>163.922</ele>
        <time>2018-03-20T15:38:09Z</time>
      </trkpt>
      <trkpt lat="43.407414" lon="-6.204396">
        <ele>164.170</ele>
        <time>2018-03-20T15:38:12Z</time>
      </trkpt>
      <trkpt lat="43.407402" lon="-6.204475">
        <ele>164.657</ele>
        <time>2018-03-20T15:38:15Z</time>
      </trkpt>
      <trkpt lat="43.407394" lon="-6.204553">
        <ele>164.522</ele>
        <time>2018-03-20T15:38:18Z</time>
      </trkpt>
      <trkpt lat="43.407385" lon="-6.204615">
        <ele>164.146</ele>
        <time>2018-03-20T15:38:20Z</time>
      </trkpt>
      <trkpt lat="43.407372" lon="-6.204690">
        <ele>163.488</ele>
        <time>2018-03-20T15:38:22Z</time>
      </trkpt>
      <trkpt lat="43.407393" lon="-6.204746">
        <ele>163.816</ele>
        <time>2018-03-20T15:38:34Z</time>
      </trkpt>
      <trkpt lat="43.407385" lon="-6.204830">
        <ele>163.608</ele>
        <time>2018-03-20T15:38:38Z</time>
      </trkpt>
      <trkpt lat="43.407371" lon="-6.204898">
        <ele>163.946</ele>
        <time>2018-03-20T15:38:40Z</time>
      </trkpt>
      <trkpt lat="43.407352" lon="-6.204984">
        <ele>164.127</ele>
        <time>2018-03-20T15:38:42Z</time>
      </trkpt>
      <trkpt lat="43.407336" lon="-6.205071">
        <ele>163.817</ele>
        <time>2018-03-20T15:38:44Z</time>
      </trkpt>
      <trkpt lat="43.407324" lon="-6.205153">
        <ele>163.250</ele>
        <time>2018-03-20T15:38:46Z</time>
      </trkpt>
      <trkpt lat="43.407316" lon="-6.205230">
        <ele>162.941</ele>
        <time>2018-03-20T15:38:49Z</time>
      </trkpt>
      <trkpt lat="43.407317" lon="-6.205303">
        <ele>163.159</ele>
        <time>2018-03-20T15:38:53Z</time>
      </trkpt>
      <trkpt lat="43.407315" lon="-6.205382">
        <ele>163.276</ele>
        <time>2018-03-20T15:38:56Z</time>
      </trkpt>
      <trkpt lat="43.407313" lon="-6.205447">
        <ele>164.541</ele>
        <time>2018-03-20T15:39:00Z</time>
      </trkpt>
      <trkpt lat="43.407307" lon="-6.205529">
        <ele>164.952</ele>
        <time>2018-03-20T15:39:04Z</time>
      </trkpt>
      <trkpt lat="43.407302" lon="-6.205612">
        <ele>165.553</ele>
        <time>2018-03-20T15:39:07Z</time>
      </trkpt>
      <trkpt lat="43.407309" lon="-6.205681">
        <ele>166.708</ele>
        <time>2018-03-20T15:39:11Z</time>
      </trkpt>
      <trkpt lat="43.407308" lon="-6.205767">
        <ele>167.408</ele>
        <time>2018-03-20T15:39:15Z</time>
      </trkpt>
      <trkpt lat="43.407299" lon="-6.205832">
        <ele>167.447</ele>
        <time>2018-03-20T15:39:17Z</time>
      </trkpt>
      <trkpt lat="43.407291" lon="-6.205903">
        <ele>169.068</ele>
        <time>2018-03-20T15:39:21Z</time>
      </trkpt>
      <trkpt lat="43.407298" lon="-6.205983">
        <ele>169.698</ele>
        <time>2018-03-20T15:39:26Z</time>
      </trkpt>
      <trkpt lat="43.407299" lon="-6.206055">
        <ele>169.521</ele>
        <time>2018-03-20T15:39:30Z</time>
      </trkpt>
      <trkpt lat="43.407303" lon="-6.206121">
        <ele>169.922</ele>
        <time>2018-03-20T15:39:35Z</time>
      </trkpt>
      <trkpt lat="43.407292" lon="-6.206195">
        <ele>170.530</ele>
        <time>2018-03-20T15:39:37Z</time>
      </trkpt>
      <trkpt lat="43.407277" lon="-6.206269">
        <ele>170.957</ele>
        <time>2018-03-20T15:39:39Z</time>
      </trkpt>
      <trkpt lat="43.407260" lon="-6.206349">
        <ele>171.542</ele>
        <time>2018-03-20T15:39:42Z</time>
      </trkpt>
      <trkpt lat="43.407249" lon="-6.206433">
        <ele>171.915</ele>
        <time>2018-03-20T15:39:45Z</time>
      </trkpt>
      <trkpt lat="43.407241" lon="-6.206520">
        <ele>171.765</ele>
        <time>2018-03-20T15:39:48Z</time>
      </trkpt>
      <trkpt lat="43.407234" lon="-6.206585">
        <ele>172.011</ele>
        <time>2018-03-20T15:39:50Z</time>
      </trkpt>
      <trkpt lat="43.407226" lon="-6.206647">
        <ele>172.208</ele>
        <time>2018-03-20T15:39:52Z</time>
      </trkpt>
      <trkpt lat="43.407221" lon="-6.206713">
        <ele>171.533</ele>
        <time>2018-03-20T15:39:56Z</time>
      </trkpt>
      <trkpt lat="43.407219" lon="-6.206784">
        <ele>169.964</ele>
        <time>2018-03-20T15:40:01Z</time>
      </trkpt>
      <trkpt lat="43.407208" lon="-6.206854">
        <ele>170.564</ele>
        <time>2018-03-20T15:40:03Z</time>
      </trkpt>
      <trkpt lat="43.407198" lon="-6.206915">
        <ele>171.327</ele>
        <time>2018-03-20T15:40:05Z</time>
      </trkpt>
      <trkpt lat="43.407206" lon="-6.206982">
        <ele>172.678</ele>
        <time>2018-03-20T15:40:10Z</time>
      </trkpt>
      <trkpt lat="43.407209" lon="-6.207052">
        <ele>172.646</ele>
        <time>2018-03-20T15:40:14Z</time>
      </trkpt>
      <trkpt lat="43.407207" lon="-6.207117">
        <ele>172.693</ele>
        <time>2018-03-20T15:40:19Z</time>
      </trkpt>
      <trkpt lat="43.407217" lon="-6.207181">
        <ele>173.028</ele>
        <time>2018-03-20T15:40:27Z</time>
      </trkpt>
      <trkpt lat="43.407219" lon="-6.207253">
        <ele>173.255</ele>
        <time>2018-03-20T15:40:31Z</time>
      </trkpt>
      <trkpt lat="43.407240" lon="-6.207335">
        <ele>172.907</ele>
        <time>2018-03-20T15:40:37Z</time>
      </trkpt>
      <trkpt lat="43.407247" lon="-6.207397">
        <ele>172.317</ele>
        <time>2018-03-20T15:40:40Z</time>
      </trkpt>
      <trkpt lat="43.407246" lon="-6.207471">
        <ele>172.408</ele>
        <time>2018-03-20T15:40:43Z</time>
      </trkpt>
      <trkpt lat="43.407233" lon="-6.207552">
        <ele>172.477</ele>
        <time>2018-03-20T15:40:46Z</time>
      </trkpt>
      <trkpt lat="43.407229" lon="-6.207628">
        <ele>172.848</ele>
        <time>2018-03-20T15:40:49Z</time>
      </trkpt>
      <trkpt lat="43.407223" lon="-6.207712">
        <ele>173.168</ele>
        <time>2018-03-20T15:40:53Z</time>
      </trkpt>
      <trkpt lat="43.407213" lon="-6.207786">
        <ele>173.321</ele>
        <time>2018-03-20T15:40:56Z</time>
      </trkpt>
      <trkpt lat="43.407201" lon="-6.207852">
        <ele>173.052</ele>
        <time>2018-03-20T15:40:59Z</time>
      </trkpt>
      <trkpt lat="43.407190" lon="-6.207916">
        <ele>172.080</ele>
        <time>2018-03-20T15:41:03Z</time>
      </trkpt>
      <trkpt lat="43.407186" lon="-6.207985">
        <ele>171.897</ele>
        <time>2018-03-20T15:41:08Z</time>
      </trkpt>
      <trkpt lat="43.407178" lon="-6.208062">
        <ele>172.512</ele>
        <time>2018-03-20T15:41:11Z</time>
      </trkpt>
      <trkpt lat="43.407175" lon="-6.208133">
        <ele>172.173</ele>
        <time>2018-03-20T15:41:14Z</time>
      </trkpt>
      <trkpt lat="43.407185" lon="-6.208202">
        <ele>171.985</ele>
        <time>2018-03-20T15:41:17Z</time>
      </trkpt>
      <trkpt lat="43.407184" lon="-6.208281">
        <ele>172.613</ele>
        <time>2018-03-20T15:41:21Z</time>
      </trkpt>
      <trkpt lat="43.407168" lon="-6.208344">
        <ele>173.408</ele>
        <time>2018-03-20T15:41:24Z</time>
      </trkpt>
      <trkpt lat="43.407166" lon="-6.208410">
        <ele>173.599</ele>
        <time>2018-03-20T15:41:27Z</time>
      </trkpt>
      <trkpt lat="43.407163" lon="-6.208473">
        <ele>174.370</ele>
        <time>2018-03-20T15:41:30Z</time>
      </trkpt>
      <trkpt lat="43.407157" lon="-6.208539">
        <ele>174.810</ele>
        <time>2018-03-20T15:41:33Z</time>
      </trkpt>
      <trkpt lat="43.407144" lon="-6.208619">
        <ele>175.163</ele>
        <time>2018-03-20T15:41:37Z</time>
      </trkpt>
      <trkpt lat="43.407132" lon="-6.208691">
        <ele>175.374</ele>
        <time>2018-03-20T15:41:41Z</time>
      </trkpt>
      <trkpt lat="43.407127" lon="-6.208756">
        <ele>175.452</ele>
        <time>2018-03-20T15:41:44Z</time>
      </trkpt>
      <trkpt lat="43.407121" lon="-6.208819">
        <ele>175.179</ele>
        <time>2018-03-20T15:41:47Z</time>
      </trkpt>
      <trkpt lat="43.407115" lon="-6.208898">
        <ele>175.714</ele>
        <time>2018-03-20T15:41:51Z</time>
      </trkpt>
      <trkpt lat="43.407111" lon="-6.208975">
        <ele>175.316</ele>
        <time>2018-03-20T15:41:55Z</time>
      </trkpt>
      <trkpt lat="43.407107" lon="-6.209054">
        <ele>175.476</ele>
        <time>2018-03-20T15:41:59Z</time>
      </trkpt>
      <trkpt lat="43.407102" lon="-6.209116">
        <ele>175.913</ele>
        <time>2018-03-20T15:42:02Z</time>
      </trkpt>
      <trkpt lat="43.407099" lon="-6.209181">
        <ele>176.208</ele>
        <time>2018-03-20T15:42:05Z</time>
      </trkpt>
      <trkpt lat="43.407094" lon="-6.209249">
        <ele>176.493</ele>
        <time>2018-03-20T15:42:08Z</time>
      </trkpt>
      <trkpt lat="43.407089" lon="-6.209316">
        <ele>176.524</ele>
        <time>2018-03-20T15:42:11Z</time>
      </trkpt>
      <trkpt lat="43.407070" lon="-6.209389">
        <ele>176.654</ele>
        <time>2018-03-20T15:42:14Z</time>
      </trkpt>
      <trkpt lat="43.407061" lon="-6.209454">
        <ele>177.427</ele>
        <time>2018-03-20T15:42:17Z</time>
      </trkpt>
      <trkpt lat="43.407051" lon="-6.209515">
        <ele>178.388</ele>
        <time>2018-03-20T15:42:20Z</time>
      </trkpt>
      <trkpt lat="43.407040" lon="-6.209590">
        <ele>178.886</ele>
        <time>2018-03-20T15:42:23Z</time>
      </trkpt>
      <trkpt lat="43.407019" lon="-6.209667">
        <ele>179.163</ele>
        <time>2018-03-20T15:42:27Z</time>
      </trkpt>
      <trkpt lat="43.407008" lon="-6.209735">
        <ele>179.358</ele>
        <time>2018-03-20T15:42:30Z</time>
      </trkpt>
      <trkpt lat="43.406998" lon="-6.209807">
        <ele>179.017</ele>
        <time>2018-03-20T15:42:33Z</time>
      </trkpt>
      <trkpt lat="43.406983" lon="-6.209880">
        <ele>178.887</ele>
        <time>2018-03-20T15:42:36Z</time>
      </trkpt>
      <trkpt lat="43.406969" lon="-6.209947">
        <ele>178.315</ele>
        <time>2018-03-20T15:42:39Z</time>
      </trkpt>
      <trkpt lat="43.406959" lon="-6.210033">
        <ele>177.608</ele>
        <time>2018-03-20T15:42:43Z</time>
      </trkpt>
      <trkpt lat="43.406956" lon="-6.210106">
        <ele>176.883</ele>
        <time>2018-03-20T15:42:47Z</time>
      </trkpt>
      <trkpt lat="43.406949" lon="-6.210173">
        <ele>176.794</ele>
        <time>2018-03-20T15:42:50Z</time>
      </trkpt>
      <trkpt lat="43.406932" lon="-6.210238">
        <ele>177.414</ele>
        <time>2018-03-20T15:42:53Z</time>
      </trkpt>
      <trkpt lat="43.406922" lon="-6.210303">
        <ele>177.447</ele>
        <time>2018-03-20T15:42:56Z</time>
      </trkpt>
      <trkpt lat="43.406899" lon="-6.210378">
        <ele>177.098</ele>
        <time>2018-03-20T15:43:00Z</time>
      </trkpt>
      <trkpt lat="43.406886" lon="-6.210453">
        <ele>177.286</ele>
        <time>2018-03-20T15:43:29Z</time>
      </trkpt>
      <trkpt lat="43.406877" lon="-6.210514">
        <ele>177.313</ele>
        <time>2018-03-20T15:43:33Z</time>
      </trkpt>
      <trkpt lat="43.406877" lon="-6.210594">
        <ele>177.078</ele>
        <time>2018-03-20T15:43:38Z</time>
      </trkpt>
      <trkpt lat="43.406874" lon="-6.210665">
        <ele>177.661</ele>
        <time>2018-03-20T15:43:42Z</time>
      </trkpt>
      <trkpt lat="43.406873" lon="-6.210729">
        <ele>177.621</ele>
        <time>2018-03-20T15:43:46Z</time>
      </trkpt>
      <trkpt lat="43.406866" lon="-6.210796">
        <ele>177.213</ele>
        <time>2018-03-20T15:43:49Z</time>
      </trkpt>
      <trkpt lat="43.406849" lon="-6.210860">
        <ele>177.308</ele>
        <time>2018-03-20T15:43:52Z</time>
      </trkpt>
      <trkpt lat="43.406835" lon="-6.210919">
        <ele>177.858</ele>
        <time>2018-03-20T15:43:55Z</time>
      </trkpt>
      <trkpt lat="43.406835" lon="-6.210989">
        <ele>178.149</ele>
        <time>2018-03-20T15:43:58Z</time>
      </trkpt>
      <trkpt lat="43.406825" lon="-6.211068">
        <ele>177.569</ele>
        <time>2018-03-20T15:44:02Z</time>
      </trkpt>
      <trkpt lat="43.406793" lon="-6.211136">
        <ele>177.962</ele>
        <time>2018-03-20T15:44:06Z</time>
      </trkpt>
      <trkpt lat="43.406760" lon="-6.211203">
        <ele>178.293</ele>
        <time>2018-03-20T15:44:10Z</time>
      </trkpt>
      <trkpt lat="43.406728" lon="-6.211274">
        <ele>177.631</ele>
        <time>2018-03-20T15:44:14Z</time>
      </trkpt>
      <trkpt lat="43.406687" lon="-6.211326">
        <ele>177.268</ele>
        <time>2018-03-20T15:44:18Z</time>
      </trkpt>
      <trkpt lat="43.406649" lon="-6.211386">
        <ele>177.063</ele>
        <time>2018-03-20T15:44:21Z</time>
      </trkpt>
      <trkpt lat="43.406614" lon="-6.211437">
        <ele>176.599</ele>
        <time>2018-03-20T15:44:24Z</time>
      </trkpt>
      <trkpt lat="43.406564" lon="-6.211490">
        <ele>176.607</ele>
        <time>2018-03-20T15:44:28Z</time>
      </trkpt>
      <trkpt lat="43.406528" lon="-6.211538">
        <ele>177.027</ele>
        <time>2018-03-20T15:44:31Z</time>
      </trkpt>
      <trkpt lat="43.406495" lon="-6.211581">
        <ele>177.308</ele>
        <time>2018-03-20T15:44:34Z</time>
      </trkpt>
      <trkpt lat="43.406451" lon="-6.211597">
        <ele>177.141</ele>
        <time>2018-03-20T15:44:38Z</time>
      </trkpt>
      <trkpt lat="43.406410" lon="-6.211632">
        <ele>177.462</ele>
        <time>2018-03-20T15:44:41Z</time>
      </trkpt>
      <trkpt lat="43.406376" lon="-6.211680">
        <ele>178.492</ele>
        <time>2018-03-20T15:44:44Z</time>
      </trkpt>
      <trkpt lat="43.406349" lon="-6.211734">
        <ele>178.645</ele>
        <time>2018-03-20T15:44:47Z</time>
      </trkpt>
      <trkpt lat="43.406331" lon="-6.211795">
        <ele>178.326</ele>
        <time>2018-03-20T15:44:50Z</time>
      </trkpt>
      <trkpt lat="43.406310" lon="-6.211860">
        <ele>178.954</ele>
        <time>2018-03-20T15:44:53Z</time>
      </trkpt>
      <trkpt lat="43.406285" lon="-6.211922">
        <ele>179.331</ele>
        <time>2018-03-20T15:44:56Z</time>
      </trkpt>
      <trkpt lat="43.406263" lon="-6.211982">
        <ele>178.746</ele>
        <time>2018-03-20T15:44:59Z</time>
      </trkpt>
      <trkpt lat="43.406218" lon="-6.212006">
        <ele>174.768</ele>
        <time>2018-03-20T15:45:03Z</time>
      </trkpt>
      <trkpt lat="43.406168" lon="-6.212051">
        <ele>173.242</ele>
        <time>2018-03-20T15:45:08Z</time>
      </trkpt>
      <trkpt lat="43.406109" lon="-6.212099">
        <ele>172.726</ele>
        <time>2018-03-20T15:45:12Z</time>
      </trkpt>
      <trkpt lat="43.406063" lon="-6.212145">
        <ele>172.008</ele>
        <time>2018-03-20T15:45:15Z</time>
      </trkpt>
      <trkpt lat="43.406027" lon="-6.212197">
        <ele>172.888</ele>
        <time>2018-03-20T15:45:18Z</time>
      </trkpt>
      <trkpt lat="43.405983" lon="-6.212242">
        <ele>172.929</ele>
        <time>2018-03-20T15:45:23Z</time>
      </trkpt>
      <trkpt lat="43.405939" lon="-6.212296">
        <ele>172.519</ele>
        <time>2018-03-20T15:45:27Z</time>
      </trkpt>
      <trkpt lat="43.405912" lon="-6.212366">
        <ele>173.552</ele>
        <time>2018-03-20T15:45:30Z</time>
      </trkpt>
      <trkpt lat="43.405902" lon="-6.212462">
        <ele>174.513</ele>
        <time>2018-03-20T15:45:34Z</time>
      </trkpt>
      <trkpt lat="43.405900" lon="-6.212526">
        <ele>176.391</ele>
        <time>2018-03-20T15:45:44Z</time>
      </trkpt>
      <trkpt lat="43.405879" lon="-6.212594">
        <ele>178.278</ele>
        <time>2018-03-20T15:45:48Z</time>
      </trkpt>
      <trkpt lat="43.405863" lon="-6.212669">
        <ele>178.113</ele>
        <time>2018-03-20T15:45:52Z</time>
      </trkpt>
      <trkpt lat="43.405839" lon="-6.212747">
        <ele>177.747</ele>
        <time>2018-03-20T15:45:55Z</time>
      </trkpt>
      <trkpt lat="43.405804" lon="-6.212819">
        <ele>177.429</ele>
        <time>2018-03-20T15:45:58Z</time>
      </trkpt>
      <trkpt lat="43.405771" lon="-6.212875">
        <ele>176.821</ele>
        <time>2018-03-20T15:46:01Z</time>
      </trkpt>
      <trkpt lat="43.405740" lon="-6.212924">
        <ele>176.508</ele>
        <time>2018-03-20T15:46:04Z</time>
      </trkpt>
      <trkpt lat="43.405698" lon="-6.212978">
        <ele>177.536</ele>
        <time>2018-03-20T15:46:08Z</time>
      </trkpt>
      <trkpt lat="43.405652" lon="-6.213022">
        <ele>178.557</ele>
        <time>2018-03-20T15:46:12Z</time>
      </trkpt>
      <trkpt lat="43.405620" lon="-6.213081">
        <ele>179.557</ele>
        <time>2018-03-20T15:46:16Z</time>
      </trkpt>
      <trkpt lat="43.405576" lon="-6.213128">
        <ele>180.970</ele>
        <time>2018-03-20T15:46:20Z</time>
      </trkpt>
      <trkpt lat="43.405534" lon="-6.213176">
        <ele>180.921</ele>
        <time>2018-03-20T15:46:23Z</time>
      </trkpt>
      <trkpt lat="43.405502" lon="-6.213238">
        <ele>181.399</ele>
        <time>2018-03-20T15:46:26Z</time>
      </trkpt>
      <trkpt lat="43.405468" lon="-6.213296">
        <ele>182.066</ele>
        <time>2018-03-20T15:46:30Z</time>
      </trkpt>
      <trkpt lat="43.405440" lon="-6.213349">
        <ele>181.671</ele>
        <time>2018-03-20T15:46:33Z</time>
      </trkpt>
      <trkpt lat="43.405400" lon="-6.213409">
        <ele>181.465</ele>
        <time>2018-03-20T15:46:37Z</time>
      </trkpt>
      <trkpt lat="43.405355" lon="-6.213461">
        <ele>181.768</ele>
        <time>2018-03-20T15:46:41Z</time>
      </trkpt>
      <trkpt lat="43.405314" lon="-6.213492">
        <ele>181.514</ele>
        <time>2018-03-20T15:46:44Z</time>
      </trkpt>
      <trkpt lat="43.405273" lon="-6.213542">
        <ele>181.408</ele>
        <time>2018-03-20T15:46:48Z</time>
      </trkpt>
      <trkpt lat="43.405237" lon="-6.213581">
        <ele>181.378</ele>
        <time>2018-03-20T15:46:52Z</time>
      </trkpt>
      <trkpt lat="43.405204" lon="-6.213634">
        <ele>181.619</ele>
        <time>2018-03-20T15:46:56Z</time>
      </trkpt>
      <trkpt lat="43.405175" lon="-6.213691">
        <ele>181.419</ele>
        <time>2018-03-20T15:46:59Z</time>
      </trkpt>
      <trkpt lat="43.405143" lon="-6.213737">
        <ele>181.712</ele>
        <time>2018-03-20T15:47:03Z</time>
      </trkpt>
      <trkpt lat="43.405115" lon="-6.213803">
        <ele>181.553</ele>
        <time>2018-03-20T15:47:06Z</time>
      </trkpt>
      <trkpt lat="43.405101" lon="-6.213875">
        <ele>181.871</ele>
        <time>2018-03-20T15:47:09Z</time>
      </trkpt>
      <trkpt lat="43.405085" lon="-6.213935">
        <ele>182.018</ele>
        <time>2018-03-20T15:47:12Z</time>
      </trkpt>
      <trkpt lat="43.405054" lon="-6.214010">
        <ele>182.543</ele>
        <time>2018-03-20T15:47:16Z</time>
      </trkpt>
      <trkpt lat="43.405028" lon="-6.214077">
        <ele>182.085</ele>
        <time>2018-03-20T15:47:20Z</time>
      </trkpt>
      <trkpt lat="43.405000" lon="-6.214132">
        <ele>181.789</ele>
        <time>2018-03-20T15:47:23Z</time>
      </trkpt>
      <trkpt lat="43.404978" lon="-6.214208">
        <ele>182.317</ele>
        <time>2018-03-20T15:47:27Z</time>
      </trkpt>
      <trkpt lat="43.404955" lon="-6.214272">
        <ele>183.108</ele>
        <time>2018-03-20T15:47:31Z</time>
      </trkpt>
      <trkpt lat="43.404950" lon="-6.214339">
        <ele>182.470</ele>
        <time>2018-03-20T15:47:34Z</time>
      </trkpt>
      <trkpt lat="43.404958" lon="-6.214421">
        <ele>182.071</ele>
        <time>2018-03-20T15:47:38Z</time>
      </trkpt>
      <trkpt lat="43.404960" lon="-6.214496">
        <ele>182.911</ele>
        <time>2018-03-20T15:47:42Z</time>
      </trkpt>
      <trkpt lat="43.404961" lon="-6.214564">
        <ele>183.934</ele>
        <time>2018-03-20T15:47:45Z</time>
      </trkpt>
      <trkpt lat="43.404963" lon="-6.214635">
        <ele>183.745</ele>
        <time>2018-03-20T15:47:51Z</time>
      </trkpt>
      <trkpt lat="43.404970" lon="-6.214701">
        <ele>183.693</ele>
        <time>2018-03-20T15:47:55Z</time>
      </trkpt>
      <trkpt lat="43.404953" lon="-6.214761">
        <ele>183.990</ele>
        <time>2018-03-20T15:47:58Z</time>
      </trkpt>
      <trkpt lat="43.404926" lon="-6.214819">
        <ele>183.785</ele>
        <time>2018-03-20T15:48:01Z</time>
      </trkpt>
      <trkpt lat="43.404903" lon="-6.214891">
        <ele>184.011</ele>
        <time>2018-03-20T15:48:04Z</time>
      </trkpt>
      <trkpt lat="43.404900" lon="-6.214962">
        <ele>183.421</ele>
        <time>2018-03-20T15:48:07Z</time>
      </trkpt>
      <trkpt lat="43.404903" lon="-6.215035">
        <ele>183.003</ele>
        <time>2018-03-20T15:48:10Z</time>
      </trkpt>
      <trkpt lat="43.404910" lon="-6.215105">
        <ele>183.208</ele>
        <time>2018-03-20T15:48:14Z</time>
      </trkpt>
      <trkpt lat="43.404907" lon="-6.215175">
        <ele>182.513</ele>
        <time>2018-03-20T15:48:17Z</time>
      </trkpt>
      <trkpt lat="43.404896" lon="-6.215268">
        <ele>182.974</ele>
        <time>2018-03-20T15:48:20Z</time>
      </trkpt>
      <trkpt lat="43.404876" lon="-6.215369">
        <ele>181.934</ele>
        <time>2018-03-20T15:48:26Z</time>
      </trkpt>
      <trkpt lat="43.404874" lon="-6.215446">
        <ele>181.727</ele>
        <time>2018-03-20T15:48:30Z</time>
      </trkpt>
      <trkpt lat="43.404870" lon="-6.215521">
        <ele>182.028</ele>
        <time>2018-03-20T15:48:34Z</time>
      </trkpt>
      <trkpt lat="43.404871" lon="-6.215604">
        <ele>182.296</ele>
        <time>2018-03-20T15:48:38Z</time>
      </trkpt>
      <trkpt lat="43.404871" lon="-6.215668">
        <ele>182.783</ele>
        <time>2018-03-20T15:48:41Z</time>
      </trkpt>
      <trkpt lat="43.404867" lon="-6.215732">
        <ele>183.438</ele>
        <time>2018-03-20T15:48:44Z</time>
      </trkpt>
      <trkpt lat="43.404863" lon="-6.215795">
        <ele>183.839</ele>
        <time>2018-03-20T15:48:47Z</time>
      </trkpt>
      <trkpt lat="43.404846" lon="-6.215870">
        <ele>184.501</ele>
        <time>2018-03-20T15:48:51Z</time>
      </trkpt>
      <trkpt lat="43.404824" lon="-6.215926">
        <ele>184.921</ele>
        <time>2018-03-20T15:48:54Z</time>
      </trkpt>
      <trkpt lat="43.404834" lon="-6.216004">
        <ele>180.908</ele>
        <time>2018-03-20T15:48:58Z</time>
      </trkpt>
      <trkpt lat="43.404824" lon="-6.216079">
        <ele>180.365</ele>
        <time>2018-03-20T15:49:02Z</time>
      </trkpt>
      <trkpt lat="43.404807" lon="-6.216143">
        <ele>180.826</ele>
        <time>2018-03-20T15:49:05Z</time>
      </trkpt>
      <trkpt lat="43.404792" lon="-6.216255">
        <ele>182.386</ele>
        <time>2018-03-20T15:49:14Z</time>
      </trkpt>
      <trkpt lat="43.404756" lon="-6.216300">
        <ele>183.279</ele>
        <time>2018-03-20T15:49:17Z</time>
      </trkpt>
      <trkpt lat="43.404739" lon="-6.216370">
        <ele>185.380</ele>
        <time>2018-03-20T15:49:21Z</time>
      </trkpt>
      <trkpt lat="43.404749" lon="-6.216453">
        <ele>181.378</ele>
        <time>2018-03-20T15:49:47Z</time>
      </trkpt>
      <trkpt lat="43.404729" lon="-6.216521">
        <ele>181.885</ele>
        <time>2018-03-20T15:49:52Z</time>
      </trkpt>
      <trkpt lat="43.404725" lon="-6.216591">
        <ele>182.550</ele>
        <time>2018-03-20T15:49:55Z</time>
      </trkpt>
      <trkpt lat="43.404721" lon="-6.216688">
        <ele>184.173</ele>
        <time>2018-03-20T15:49:58Z</time>
      </trkpt>
      <trkpt lat="43.404710" lon="-6.216753">
        <ele>185.185</ele>
        <time>2018-03-20T15:50:01Z</time>
      </trkpt>
      <trkpt lat="43.404697" lon="-6.216837">
        <ele>186.513</ele>
        <time>2018-03-20T15:50:04Z</time>
      </trkpt>
      <trkpt lat="43.404689" lon="-6.216909">
        <ele>187.308</ele>
        <time>2018-03-20T15:50:07Z</time>
      </trkpt>
      <trkpt lat="43.404678" lon="-6.216982">
        <ele>189.089</ele>
        <time>2018-03-20T15:50:10Z</time>
      </trkpt>
      <trkpt lat="43.404665" lon="-6.217103">
        <ele>187.260</ele>
        <time>2018-03-20T15:50:31Z</time>
      </trkpt>
      <trkpt lat="43.404665" lon="-6.217185">
        <ele>187.390</ele>
        <time>2018-03-20T15:50:36Z</time>
      </trkpt>
      <trkpt lat="43.404654" lon="-6.217258">
        <ele>187.843</ele>
        <time>2018-03-20T15:50:40Z</time>
      </trkpt>
      <trkpt lat="43.404647" lon="-6.217332">
        <ele>188.974</ele>
        <time>2018-03-20T15:50:44Z</time>
      </trkpt>
      <trkpt lat="43.404654" lon="-6.217409">
        <ele>190.492</ele>
        <time>2018-03-20T15:50:48Z</time>
      </trkpt>
      <trkpt lat="43.404672" lon="-6.217482">
        <ele>190.929</ele>
        <time>2018-03-20T15:50:51Z</time>
      </trkpt>
      <trkpt lat="43.404679" lon="-6.217554">
        <ele>191.654</ele>
        <time>2018-03-20T15:50:55Z</time>
      </trkpt>
      <trkpt lat="43.404674" lon="-6.217635">
        <ele>192.436</ele>
        <time>2018-03-20T15:50:59Z</time>
      </trkpt>
      <trkpt lat="43.404656" lon="-6.217703">
        <ele>194.117</ele>
        <time>2018-03-20T15:51:03Z</time>
      </trkpt>
      <trkpt lat="43.404642" lon="-6.217764">
        <ele>190.118</ele>
        <time>2018-03-20T15:51:06Z</time>
      </trkpt>
      <trkpt lat="43.404606" lon="-6.217824">
        <ele>191.908</ele>
        <time>2018-03-20T15:51:11Z</time>
      </trkpt>
      <trkpt lat="43.404576" lon="-6.217879">
        <ele>192.655</ele>
        <time>2018-03-20T15:51:15Z</time>
      </trkpt>
      <trkpt lat="43.404547" lon="-6.217928">
        <ele>193.846</ele>
        <time>2018-03-20T15:51:19Z</time>
      </trkpt>
      <trkpt lat="43.404537" lon="-6.217994">
        <ele>194.196</ele>
        <time>2018-03-20T15:51:27Z</time>
      </trkpt>
      <trkpt lat="43.404549" lon="-6.218054">
        <ele>193.149</ele>
        <time>2018-03-20T15:51:34Z</time>
      </trkpt>
      <trkpt lat="43.404563" lon="-6.218126">
        <ele>193.710</ele>
        <time>2018-03-20T15:51:39Z</time>
      </trkpt>
      <trkpt lat="43.404547" lon="-6.218208">
        <ele>194.968</ele>
        <time>2018-03-20T15:51:51Z</time>
      </trkpt>
      <trkpt lat="43.404527" lon="-6.218281">
        <ele>196.075</ele>
        <time>2018-03-20T15:51:57Z</time>
      </trkpt>
      <trkpt lat="43.404497" lon="-6.218340">
        <ele>197.560</ele>
        <time>2018-03-20T15:52:02Z</time>
      </trkpt>
      <trkpt lat="43.404472" lon="-6.218398">
        <ele>199.227</ele>
        <time>2018-03-20T15:52:06Z</time>
      </trkpt>
      <trkpt lat="43.404454" lon="-6.218460">
        <ele>200.268</ele>
        <time>2018-03-20T15:52:10Z</time>
      </trkpt>
      <trkpt lat="43.404430" lon="-6.218521">
        <ele>200.814</ele>
        <time>2018-03-20T15:52:14Z</time>
      </trkpt>
      <trkpt lat="43.404412" lon="-6.218579">
        <ele>201.208</ele>
        <time>2018-03-20T15:52:21Z</time>
      </trkpt>
      <trkpt lat="43.404376" lon="-6.218627">
        <ele>202.664</ele>
        <time>2018-03-20T15:52:27Z</time>
      </trkpt>
      <trkpt lat="43.404343" lon="-6.218671">
        <ele>204.395</ele>
        <time>2018-03-20T15:52:36Z</time>
      </trkpt>
      <trkpt lat="43.404291" lon="-6.218699">
        <ele>205.345</ele>
        <time>2018-03-20T15:52:44Z</time>
      </trkpt>
      <trkpt lat="43.404247" lon="-6.218717">
        <ele>206.718</ele>
        <time>2018-03-20T15:52:48Z</time>
      </trkpt>
      <trkpt lat="43.404205" lon="-6.218749">
        <ele>207.939</ele>
        <time>2018-03-20T15:52:57Z</time>
      </trkpt>
      <trkpt lat="43.404150" lon="-6.218766">
        <ele>210.267</ele>
        <time>2018-03-20T15:53:01Z</time>
      </trkpt>
      <trkpt lat="43.404118" lon="-6.218849">
        <ele>206.834</ele>
        <time>2018-03-20T15:53:11Z</time>
      </trkpt>
      <trkpt lat="43.404081" lon="-6.218889">
        <ele>208.049</ele>
        <time>2018-03-20T15:53:21Z</time>
      </trkpt>
      <trkpt lat="43.404098" lon="-6.218960">
        <ele>208.394</ele>
        <time>2018-03-20T15:53:26Z</time>
      </trkpt>
      <trkpt lat="43.404109" lon="-6.219035">
        <ele>208.557</ele>
        <time>2018-03-20T15:53:31Z</time>
      </trkpt>
      <trkpt lat="43.404122" lon="-6.219103">
        <ele>209.822</ele>
        <time>2018-03-20T15:53:35Z</time>
      </trkpt>
      <trkpt lat="43.404116" lon="-6.219172">
        <ele>211.808</ele>
        <time>2018-03-20T15:53:41Z</time>
      </trkpt>
      <trkpt lat="43.404072" lon="-6.219220">
        <ele>211.431</ele>
        <time>2018-03-20T15:53:46Z</time>
      </trkpt>
      <trkpt lat="43.404037" lon="-6.219290">
        <ele>211.622</ele>
        <time>2018-03-20T15:53:51Z</time>
      </trkpt>
      <trkpt lat="43.404052" lon="-6.219355">
        <ele>212.162</ele>
        <time>2018-03-20T15:53:57Z</time>
      </trkpt>
      <trkpt lat="43.404054" lon="-6.219418">
        <ele>210.465</ele>
        <time>2018-03-20T15:54:30Z</time>
      </trkpt>
      <trkpt lat="43.404085" lon="-6.219476">
        <ele>209.886</ele>
        <time>2018-03-20T15:54:37Z</time>
      </trkpt>
      <trkpt lat="43.404121" lon="-6.219533">
        <ele>208.664</ele>
        <time>2018-03-20T15:54:42Z</time>
      </trkpt>
      <trkpt lat="43.404164" lon="-6.219582">
        <ele>207.541</ele>
        <time>2018-03-20T15:54:46Z</time>
      </trkpt>
      <trkpt lat="43.404159" lon="-6.219656">
        <ele>206.896</ele>
        <time>2018-03-20T15:54:53Z</time>
      </trkpt>
      <trkpt lat="43.404111" lon="-6.219684">
        <ele>207.645</ele>
        <time>2018-03-20T15:54:57Z</time>
      </trkpt>
      <trkpt lat="43.404094" lon="-6.219798">
        <ele>208.547</ele>
        <time>2018-03-20T15:55:08Z</time>
      </trkpt>
      <trkpt lat="43.404108" lon="-6.219857">
        <ele>207.011</ele>
        <time>2018-03-20T15:55:17Z</time>
      </trkpt>
      <trkpt lat="43.404118" lon="-6.219927">
        <ele>203.008</ele>
        <time>2018-03-20T15:55:22Z</time>
      </trkpt>
      <trkpt lat="43.404124" lon="-6.220004">
        <ele>202.546</ele>
        <time>2018-03-20T15:55:32Z</time>
      </trkpt>
      <trkpt lat="43.404144" lon="-6.220071">
        <ele>202.637</ele>
        <time>2018-03-20T15:55:37Z</time>
      </trkpt>
      <trkpt lat="43.404181" lon="-6.220125">
        <ele>201.597</ele>
        <time>2018-03-20T15:55:43Z</time>
      </trkpt>
      <trkpt lat="43.404197" lon="-6.220204">
        <ele>201.620</ele>
        <time>2018-03-20T15:55:47Z</time>
      </trkpt>
      <trkpt lat="43.404219" lon="-6.220271">
        <ele>197.651</ele>
        <time>2018-03-20T15:55:51Z</time>
      </trkpt>
      <trkpt lat="43.404241" lon="-6.220338">
        <ele>197.729</ele>
        <time>2018-03-20T15:55:54Z</time>
      </trkpt>
      <trkpt lat="43.404246" lon="-6.220402">
        <ele>198.526</ele>
        <time>2018-03-20T15:55:56Z</time>
      </trkpt>
      <trkpt lat="43.404250" lon="-6.220492">
        <ele>199.091</ele>
        <time>2018-03-20T15:55:59Z</time>
      </trkpt>
      <trkpt lat="43.404258" lon="-6.220567">
        <ele>200.131</ele>
        <time>2018-03-20T15:56:02Z</time>
      </trkpt>
      <trkpt lat="43.404268" lon="-6.220641">
        <ele>200.861</ele>
        <time>2018-03-20T15:56:06Z</time>
      </trkpt>
      <trkpt lat="43.404251" lon="-6.220734">
        <ele>201.607</ele>
        <time>2018-03-20T15:56:12Z</time>
      </trkpt>
      <trkpt lat="43.404225" lon="-6.220792">
        <ele>202.908</ele>
        <time>2018-03-20T15:56:17Z</time>
      </trkpt>
      <trkpt lat="43.404217" lon="-6.220879">
        <ele>204.575</ele>
        <time>2018-03-20T15:56:21Z</time>
      </trkpt>
      <trkpt lat="43.404212" lon="-6.220962">
        <ele>204.626</ele>
        <time>2018-03-20T15:56:24Z</time>
      </trkpt>
      <trkpt lat="43.404203" lon="-6.221032">
        <ele>205.196</ele>
        <time>2018-03-20T15:56:27Z</time>
      </trkpt>
      <trkpt lat="43.404191" lon="-6.221099">
        <ele>206.649</ele>
        <time>2018-03-20T15:56:30Z</time>
      </trkpt>
      <trkpt lat="43.404195" lon="-6.221164">
        <ele>205.970</ele>
        <time>2018-03-20T15:56:33Z</time>
      </trkpt>
      <trkpt lat="43.404197" lon="-6.221235">
        <ele>204.718</ele>
        <time>2018-03-20T15:56:37Z</time>
      </trkpt>
      <trkpt lat="43.404200" lon="-6.221304">
        <ele>204.895</ele>
        <time>2018-03-20T15:56:43Z</time>
      </trkpt>
      <trkpt lat="43.404217" lon="-6.221368">
        <ele>204.830</ele>
        <time>2018-03-20T15:56:48Z</time>
      </trkpt>
      <trkpt lat="43.404260" lon="-6.221430">
        <ele>206.815</ele>
        <time>2018-03-20T15:56:51Z</time>
      </trkpt>
      <trkpt lat="43.404288" lon="-6.221480">
        <ele>207.665</ele>
        <time>2018-03-20T15:56:53Z</time>
      </trkpt>
      <trkpt lat="43.404312" lon="-6.221540">
        <ele>207.711</ele>
        <time>2018-03-20T15:56:55Z</time>
      </trkpt>
      <trkpt lat="43.404330" lon="-6.221604">
        <ele>207.808</ele>
        <time>2018-03-20T15:56:57Z</time>
      </trkpt>
      <trkpt lat="43.404334" lon="-6.221684">
        <ele>208.253</ele>
        <time>2018-03-20T15:57:00Z</time>
      </trkpt>
      <trkpt lat="43.404343" lon="-6.221759">
        <ele>206.594</ele>
        <time>2018-03-20T15:57:05Z</time>
      </trkpt>
      <trkpt lat="43.404343" lon="-6.221822">
        <ele>205.544</ele>
        <time>2018-03-20T15:57:09Z</time>
      </trkpt>
      <trkpt lat="43.404339" lon="-6.221894">
        <ele>204.937</ele>
        <time>2018-03-20T15:57:13Z</time>
      </trkpt>
      <trkpt lat="43.404334" lon="-6.221962">
        <ele>206.528</ele>
        <time>2018-03-20T15:57:16Z</time>
      </trkpt>
      <trkpt lat="43.404338" lon="-6.222040">
        <ele>202.586</ele>
        <time>2018-03-20T15:57:19Z</time>
      </trkpt>
      <trkpt lat="43.404339" lon="-6.222106">
        <ele>198.753</ele>
        <time>2018-03-20T15:57:21Z</time>
      </trkpt>
      <trkpt lat="43.404336" lon="-6.222180">
        <ele>198.028</ele>
        <time>2018-03-20T15:57:23Z</time>
      </trkpt>
      <trkpt lat="43.404332" lon="-6.222247">
        <ele>198.488</ele>
        <time>2018-03-20T15:57:25Z</time>
      </trkpt>
      <trkpt lat="43.404324" lon="-6.222324">
        <ele>199.824</ele>
        <time>2018-03-20T15:57:28Z</time>
      </trkpt>
      <trkpt lat="43.404322" lon="-6.222387">
        <ele>201.126</ele>
        <time>2018-03-20T15:57:31Z</time>
      </trkpt>
      <trkpt lat="43.404344" lon="-6.222451">
        <ele>201.108</ele>
        <time>2018-03-20T15:57:37Z</time>
      </trkpt>
      <trkpt lat="43.404347" lon="-6.222523">
        <ele>204.340</ele>
        <time>2018-03-20T15:57:42Z</time>
      </trkpt>
      <trkpt lat="43.404378" lon="-6.222589">
        <ele>207.051</ele>
        <time>2018-03-20T15:57:45Z</time>
      </trkpt>
      <trkpt lat="43.404421" lon="-6.222672">
        <ele>209.041</ele>
        <time>2018-03-20T15:57:49Z</time>
      </trkpt>
      <trkpt lat="43.404444" lon="-6.222731">
        <ele>210.234</ele>
        <time>2018-03-20T15:57:53Z</time>
      </trkpt>
      <trkpt lat="43.404433" lon="-6.222804">
        <ele>210.165</ele>
        <time>2018-03-20T15:57:58Z</time>
      </trkpt>
      <trkpt lat="43.404424" lon="-6.222881">
        <ele>210.923</ele>
        <time>2018-03-20T15:58:02Z</time>
      </trkpt>
      <trkpt lat="43.404467" lon="-6.222946">
        <ele>212.640</ele>
        <time>2018-03-20T15:58:25Z</time>
      </trkpt>
      <trkpt lat="43.404419" lon="-6.222957">
        <ele>213.225</ele>
        <time>2018-03-20T15:58:38Z</time>
      </trkpt>
      <trkpt lat="43.404417" lon="-6.222949">
        <ele>209.728</ele>
        <time>2018-03-20T16:01:50Z</time>
      </trkpt>
      <trkpt lat="43.404407" lon="-6.223023">
        <ele>204.989</ele>
        <time>2018-03-20T16:01:59Z</time>
      </trkpt>
      <trkpt lat="43.404423" lon="-6.223087">
        <ele>206.217</ele>
        <time>2018-03-20T16:02:03Z</time>
      </trkpt>
      <trkpt lat="43.404420" lon="-6.223157">
        <ele>207.808</ele>
        <time>2018-03-20T16:02:08Z</time>
      </trkpt>
      <trkpt lat="43.404436" lon="-6.223230">
        <ele>208.764</ele>
        <time>2018-03-20T16:02:12Z</time>
      </trkpt>
      <trkpt lat="43.404447" lon="-6.223295">
        <ele>209.375</ele>
        <time>2018-03-20T16:02:16Z</time>
      </trkpt>
      <trkpt lat="43.404450" lon="-6.223357">
        <ele>209.225</ele>
        <time>2018-03-20T16:02:20Z</time>
      </trkpt>
      <trkpt lat="43.404469" lon="-6.223420">
        <ele>209.228</ele>
        <time>2018-03-20T16:02:26Z</time>
      </trkpt>
      <trkpt lat="43.404489" lon="-6.223479">
        <ele>208.419</ele>
        <time>2018-03-20T16:02:31Z</time>
      </trkpt>
      <trkpt lat="43.404514" lon="-6.223534">
        <ele>208.357</ele>
        <time>2018-03-20T16:02:37Z</time>
      </trkpt>
      <trkpt lat="43.404563" lon="-6.223583">
        <ele>209.434</ele>
        <time>2018-03-20T16:02:44Z</time>
      </trkpt>
      <trkpt lat="43.404577" lon="-6.223661">
        <ele>210.559</ele>
        <time>2018-03-20T16:02:50Z</time>
      </trkpt>
      <trkpt lat="43.404588" lon="-6.223725">
        <ele>210.852</ele>
        <time>2018-03-20T16:02:55Z</time>
      </trkpt>
      <trkpt lat="43.404579" lon="-6.223793">
        <ele>211.053</ele>
        <time>2018-03-20T16:02:58Z</time>
      </trkpt>
      <trkpt lat="43.404571" lon="-6.223861">
        <ele>210.708</ele>
        <time>2018-03-20T16:03:02Z</time>
      </trkpt>
      <trkpt lat="43.404577" lon="-6.223923">
        <ele>211.708</ele>
        <time>2018-03-20T16:03:05Z</time>
      </trkpt>
      <trkpt lat="43.404572" lon="-6.223985">
        <ele>212.357</ele>
        <time>2018-03-20T16:03:08Z</time>
      </trkpt>
      <trkpt lat="43.404574" lon="-6.224051">
        <ele>212.398</ele>
        <time>2018-03-20T16:03:11Z</time>
      </trkpt>
      <trkpt lat="43.404585" lon="-6.224111">
        <ele>212.338</ele>
        <time>2018-03-20T16:03:14Z</time>
      </trkpt>
      <trkpt lat="43.404582" lon="-6.224175">
        <ele>212.331</ele>
        <time>2018-03-20T16:03:17Z</time>
      </trkpt>
      <trkpt lat="43.404580" lon="-6.224239">
        <ele>211.552</ele>
        <time>2018-03-20T16:03:20Z</time>
      </trkpt>
      <trkpt lat="43.404583" lon="-6.224314">
        <ele>211.850</ele>
        <time>2018-03-20T16:03:25Z</time>
      </trkpt>
      <trkpt lat="43.404589" lon="-6.224376">
        <ele>211.677</ele>
        <time>2018-03-20T16:03:29Z</time>
      </trkpt>
      <trkpt lat="43.404570" lon="-6.224434">
        <ele>210.362</ele>
        <time>2018-03-20T16:03:34Z</time>
      </trkpt>
      <trkpt lat="43.404551" lon="-6.224527">
        <ele>209.944</ele>
        <time>2018-03-20T16:03:42Z</time>
      </trkpt>
      <trkpt lat="43.404569" lon="-6.224586">
        <ele>206.905</ele>
        <time>2018-03-20T16:03:52Z</time>
      </trkpt>
      <trkpt lat="43.404608" lon="-6.224675">
        <ele>210.315</ele>
        <time>2018-03-20T16:04:08Z</time>
      </trkpt>
      <trkpt lat="43.404646" lon="-6.224727">
        <ele>212.708</ele>
        <time>2018-03-20T16:04:14Z</time>
      </trkpt>
      <trkpt lat="43.404688" lon="-6.224776">
        <ele>213.486</ele>
        <time>2018-03-20T16:04:19Z</time>
      </trkpt>
      <trkpt lat="43.404723" lon="-6.224818">
        <ele>213.057</ele>
        <time>2018-03-20T16:04:23Z</time>
      </trkpt>
      <trkpt lat="43.404756" lon="-6.224868">
        <ele>212.887</ele>
        <time>2018-03-20T16:04:27Z</time>
      </trkpt>
      <trkpt lat="43.404785" lon="-6.224929">
        <ele>211.910</ele>
        <time>2018-03-20T16:04:31Z</time>
      </trkpt>
      <trkpt lat="43.404809" lon="-6.224986">
        <ele>210.131</ele>
        <time>2018-03-20T16:04:34Z</time>
      </trkpt>
      <trkpt lat="43.404837" lon="-6.225048">
        <ele>209.059</ele>
        <time>2018-03-20T16:04:38Z</time>
      </trkpt>
      <trkpt lat="43.404851" lon="-6.225110">
        <ele>207.656</ele>
        <time>2018-03-20T16:04:41Z</time>
      </trkpt>
      <trkpt lat="43.404863" lon="-6.225183">
        <ele>205.911</ele>
        <time>2018-03-20T16:04:45Z</time>
      </trkpt>
      <trkpt lat="43.404866" lon="-6.225247">
        <ele>205.316</ele>
        <time>2018-03-20T16:04:48Z</time>
      </trkpt>
      <trkpt lat="43.404867" lon="-6.225330">
        <ele>205.376</ele>
        <time>2018-03-20T16:04:51Z</time>
      </trkpt>
      <trkpt lat="43.404868" lon="-6.225401">
        <ele>204.913</ele>
        <time>2018-03-20T16:04:54Z</time>
      </trkpt>
      <trkpt lat="43.404889" lon="-6.225460">
        <ele>203.908</ele>
        <time>2018-03-20T16:04:58Z</time>
      </trkpt>
      <trkpt lat="43.404912" lon="-6.225536">
        <ele>203.783</ele>
        <time>2018-03-20T16:05:02Z</time>
      </trkpt>
      <trkpt lat="43.404937" lon="-6.225617">
        <ele>204.084</ele>
        <time>2018-03-20T16:05:06Z</time>
      </trkpt>
      <trkpt lat="43.404952" lon="-6.225680">
        <ele>204.284</ele>
        <time>2018-03-20T16:05:10Z</time>
      </trkpt>
      <trkpt lat="43.404974" lon="-6.225748">
        <ele>205.127</ele>
        <time>2018-03-20T16:05:15Z</time>
      </trkpt>
      <trkpt lat="43.405012" lon="-6.225782">
        <ele>207.258</ele>
        <time>2018-03-20T16:05:18Z</time>
      </trkpt>
      <trkpt lat="43.405054" lon="-6.225807">
        <ele>209.316</ele>
        <time>2018-03-20T16:05:20Z</time>
      </trkpt>
      <trkpt lat="43.405103" lon="-6.225838">
        <ele>211.343</ele>
        <time>2018-03-20T16:05:23Z</time>
      </trkpt>
      <trkpt lat="43.405142" lon="-6.225879">
        <ele>211.718</ele>
        <time>2018-03-20T16:05:28Z</time>
      </trkpt>
      <trkpt lat="43.405148" lon="-6.225953">
        <ele>212.026</ele>
        <time>2018-03-20T16:05:33Z</time>
      </trkpt>
      <trkpt lat="43.405187" lon="-6.226006">
        <ele>211.847</ele>
        <time>2018-03-20T16:05:37Z</time>
      </trkpt>
      <trkpt lat="43.405215" lon="-6.226059">
        <ele>212.511</ele>
        <time>2018-03-20T16:05:40Z</time>
      </trkpt>
      <trkpt lat="43.405253" lon="-6.226113">
        <ele>211.708</ele>
        <time>2018-03-20T16:05:44Z</time>
      </trkpt>
      <trkpt lat="43.405288" lon="-6.226175">
        <ele>211.644</ele>
        <time>2018-03-20T16:05:49Z</time>
      </trkpt>
      <trkpt lat="43.405315" lon="-6.226225">
        <ele>211.135</ele>
        <time>2018-03-20T16:05:53Z</time>
      </trkpt>
      <trkpt lat="43.405323" lon="-6.226298">
        <ele>209.645</ele>
        <time>2018-03-20T16:05:59Z</time>
      </trkpt>
      <trkpt lat="43.405337" lon="-6.226366">
        <ele>208.728</ele>
        <time>2018-03-20T16:06:06Z</time>
      </trkpt>
      <trkpt lat="43.405367" lon="-6.226416">
        <ele>208.649</ele>
        <time>2018-03-20T16:06:11Z</time>
      </trkpt>
      <trkpt lat="43.405403" lon="-6.226455">
        <ele>209.767</ele>
        <time>2018-03-20T16:06:15Z</time>
      </trkpt>
      <trkpt lat="43.405443" lon="-6.226490">
        <ele>210.844</ele>
        <time>2018-03-20T16:06:18Z</time>
      </trkpt>
      <trkpt lat="43.405471" lon="-6.226547">
        <ele>212.259</ele>
        <time>2018-03-20T16:06:22Z</time>
      </trkpt>
      <trkpt lat="43.405485" lon="-6.226626">
        <ele>215.142</ele>
        <time>2018-03-20T16:06:26Z</time>
      </trkpt>
      <trkpt lat="43.405529" lon="-6.226669">
        <ele>216.822</ele>
        <time>2018-03-20T16:06:29Z</time>
      </trkpt>
      <trkpt lat="43.405573" lon="-6.226715">
        <ele>218.214</ele>
        <time>2018-03-20T16:06:33Z</time>
      </trkpt>
      <trkpt lat="43.405599" lon="-6.226771">
        <ele>219.108</ele>
        <time>2018-03-20T16:06:36Z</time>
      </trkpt>
      <trkpt lat="43.405619" lon="-6.226829">
        <ele>218.096</ele>
        <time>2018-03-20T16:06:40Z</time>
      </trkpt>
      <trkpt lat="43.405658" lon="-6.226875">
        <ele>217.367</ele>
        <time>2018-03-20T16:06:45Z</time>
      </trkpt>
      <trkpt lat="43.405682" lon="-6.226931">
        <ele>216.997</ele>
        <time>2018-03-20T16:06:48Z</time>
      </trkpt>
      <trkpt lat="43.405702" lon="-6.226987">
        <ele>217.180</ele>
        <time>2018-03-20T16:06:51Z</time>
      </trkpt>
      <trkpt lat="43.405726" lon="-6.227050">
        <ele>217.291</ele>
        <time>2018-03-20T16:06:54Z</time>
      </trkpt>
      <trkpt lat="43.405745" lon="-6.227113">
        <ele>216.179</ele>
        <time>2018-03-20T16:06:58Z</time>
      </trkpt>
      <trkpt lat="43.405738" lon="-6.227185">
        <ele>214.216</ele>
        <time>2018-03-20T16:07:02Z</time>
      </trkpt>
      <trkpt lat="43.405723" lon="-6.227253">
        <ele>213.121</ele>
        <time>2018-03-20T16:07:05Z</time>
      </trkpt>
      <trkpt lat="43.405726" lon="-6.227326">
        <ele>212.057</ele>
        <time>2018-03-20T16:07:08Z</time>
      </trkpt>
      <trkpt lat="43.405732" lon="-6.227394">
        <ele>211.400</ele>
        <time>2018-03-20T16:07:11Z</time>
      </trkpt>
      <trkpt lat="43.405746" lon="-6.227459">
        <ele>211.020</ele>
        <time>2018-03-20T16:07:14Z</time>
      </trkpt>
      <trkpt lat="43.405768" lon="-6.227528">
        <ele>211.208</ele>
        <time>2018-03-20T16:07:18Z</time>
      </trkpt>
      <trkpt lat="43.405774" lon="-6.227596">
        <ele>210.927</ele>
        <time>2018-03-20T16:07:21Z</time>
      </trkpt>
      <trkpt lat="43.405771" lon="-6.227675">
        <ele>211.198</ele>
        <time>2018-03-20T16:07:24Z</time>
      </trkpt>
      <trkpt lat="43.405756" lon="-6.227748">
        <ele>211.268</ele>
        <time>2018-03-20T16:07:28Z</time>
      </trkpt>
      <trkpt lat="43.405729" lon="-6.227815">
        <ele>212.131</ele>
        <time>2018-03-20T16:07:33Z</time>
      </trkpt>
      <trkpt lat="43.405726" lon="-6.227881">
        <ele>213.472</ele>
        <time>2018-03-20T16:07:37Z</time>
      </trkpt>
      <trkpt lat="43.405726" lon="-6.227960">
        <ele>212.630</ele>
        <time>2018-03-20T16:07:41Z</time>
      </trkpt>
      <trkpt lat="43.405711" lon="-6.228032">
        <ele>210.987</ele>
        <time>2018-03-20T16:07:46Z</time>
      </trkpt>
      <trkpt lat="43.405714" lon="-6.228099">
        <ele>211.922</ele>
        <time>2018-03-20T16:07:49Z</time>
      </trkpt>
      <trkpt lat="43.405721" lon="-6.228163">
        <ele>211.738</ele>
        <time>2018-03-20T16:07:52Z</time>
      </trkpt>
      <trkpt lat="43.405722" lon="-6.228238">
        <ele>207.770</ele>
        <time>2018-03-20T16:07:55Z</time>
      </trkpt>
      <trkpt lat="43.405712" lon="-6.228309">
        <ele>203.717</ele>
        <time>2018-03-20T16:07:58Z</time>
      </trkpt>
      <trkpt lat="43.405710" lon="-6.228385">
        <ele>202.408</ele>
        <time>2018-03-20T16:08:01Z</time>
      </trkpt>
      <trkpt lat="43.405682" lon="-6.228502">
        <ele>205.645</ele>
        <time>2018-03-20T16:08:10Z</time>
      </trkpt>
      <trkpt lat="43.405706" lon="-6.228570">
        <ele>207.986</ele>
        <time>2018-03-20T16:08:21Z</time>
      </trkpt>
      <trkpt lat="43.405716" lon="-6.228633">
        <ele>208.126</ele>
        <time>2018-03-20T16:08:31Z</time>
      </trkpt>
      <trkpt lat="43.405744" lon="-6.228703">
        <ele>207.859</ele>
        <time>2018-03-20T16:08:37Z</time>
      </trkpt>
      <trkpt lat="43.405742" lon="-6.228781">
        <ele>208.030</ele>
        <time>2018-03-20T16:08:43Z</time>
      </trkpt>
      <trkpt lat="43.405733" lon="-6.228849">
        <ele>207.348</ele>
        <time>2018-03-20T16:08:48Z</time>
      </trkpt>
      <trkpt lat="43.405696" lon="-6.228897">
        <ele>206.525</ele>
        <time>2018-03-20T16:08:53Z</time>
      </trkpt>
      <trkpt lat="43.405670" lon="-6.228948">
        <ele>206.460</ele>
        <time>2018-03-20T16:08:58Z</time>
      </trkpt>
      <trkpt lat="43.405657" lon="-6.229010">
        <ele>206.474</ele>
        <time>2018-03-20T16:09:02Z</time>
      </trkpt>
      <trkpt lat="43.405638" lon="-6.229072">
        <ele>206.456</ele>
        <time>2018-03-20T16:09:08Z</time>
      </trkpt>
      <trkpt lat="43.405633" lon="-6.229151">
        <ele>207.621</ele>
        <time>2018-03-20T16:09:13Z</time>
      </trkpt>
      <trkpt lat="43.405622" lon="-6.229223">
        <ele>207.908</ele>
        <time>2018-03-20T16:09:16Z</time>
      </trkpt>
      <trkpt lat="43.405616" lon="-6.229286">
        <ele>208.139</ele>
        <time>2018-03-20T16:09:19Z</time>
      </trkpt>
      <trkpt lat="43.405616" lon="-6.229366">
        <ele>208.260</ele>
        <time>2018-03-20T16:09:23Z</time>
      </trkpt>
      <trkpt lat="43.405614" lon="-6.229444">
        <ele>209.150</ele>
        <time>2018-03-20T16:09:27Z</time>
      </trkpt>
      <trkpt lat="43.405586" lon="-6.229512">
        <ele>209.263</ele>
        <time>2018-03-20T16:09:31Z</time>
      </trkpt>
      <trkpt lat="43.405552" lon="-6.229572">
        <ele>209.724</ele>
        <time>2018-03-20T16:09:34Z</time>
      </trkpt>
      <trkpt lat="43.405520" lon="-6.229616">
        <ele>210.042</ele>
        <time>2018-03-20T16:09:37Z</time>
      </trkpt>
      <trkpt lat="43.405482" lon="-6.229652">
        <ele>210.239</ele>
        <time>2018-03-20T16:09:40Z</time>
      </trkpt>
      <trkpt lat="43.405429" lon="-6.229669">
        <ele>210.344</ele>
        <time>2018-03-20T16:09:43Z</time>
      </trkpt>
      <trkpt lat="43.405379" lon="-6.229704">
        <ele>210.026</ele>
        <time>2018-03-20T16:09:47Z</time>
      </trkpt>
      <trkpt lat="43.405339" lon="-6.229739">
        <ele>209.447</ele>
        <time>2018-03-20T16:09:50Z</time>
      </trkpt>
      <trkpt lat="43.405300" lon="-6.229774">
        <ele>209.011</ele>
        <time>2018-03-20T16:09:53Z</time>
      </trkpt>
      <trkpt lat="43.405259" lon="-6.229817">
        <ele>208.808</ele>
        <time>2018-03-20T16:09:56Z</time>
      </trkpt>
      <trkpt lat="43.405215" lon="-6.229867">
        <ele>208.724</ele>
        <time>2018-03-20T16:10:00Z</time>
      </trkpt>
      <trkpt lat="43.405181" lon="-6.229926">
        <ele>207.875</ele>
        <time>2018-03-20T16:10:05Z</time>
      </trkpt>
      <trkpt lat="43.405157" lon="-6.229982">
        <ele>207.775</ele>
        <time>2018-03-20T16:10:08Z</time>
      </trkpt>
      <trkpt lat="43.405123" lon="-6.230027">
        <ele>206.898</ele>
        <time>2018-03-20T16:10:11Z</time>
      </trkpt>
      <trkpt lat="43.405086" lon="-6.230063">
        <ele>206.379</ele>
        <time>2018-03-20T16:10:14Z</time>
      </trkpt>
      <trkpt lat="43.405055" lon="-6.230109">
        <ele>206.097</ele>
        <time>2018-03-20T16:10:17Z</time>
      </trkpt>
      <trkpt lat="43.405023" lon="-6.230177">
        <ele>205.854</ele>
        <time>2018-03-20T16:10:20Z</time>
      </trkpt>
      <trkpt lat="43.404992" lon="-6.230236">
        <ele>205.739</ele>
        <time>2018-03-20T16:10:23Z</time>
      </trkpt>
      <trkpt lat="43.404963" lon="-6.230293">
        <ele>205.629</ele>
        <time>2018-03-20T16:10:26Z</time>
      </trkpt>
      <trkpt lat="43.404935" lon="-6.230345">
        <ele>206.000</ele>
        <time>2018-03-20T16:10:29Z</time>
      </trkpt>
      <trkpt lat="43.404914" lon="-6.230407">
        <ele>207.420</ele>
        <time>2018-03-20T16:10:32Z</time>
      </trkpt>
      <trkpt lat="43.404900" lon="-6.230478">
        <ele>209.008</ele>
        <time>2018-03-20T16:10:35Z</time>
      </trkpt>
      <trkpt lat="43.404883" lon="-6.230553">
        <ele>210.064</ele>
        <time>2018-03-20T16:10:38Z</time>
      </trkpt>
      <trkpt lat="43.404861" lon="-6.230622">
        <ele>209.415</ele>
        <time>2018-03-20T16:10:41Z</time>
      </trkpt>
      <trkpt lat="43.404819" lon="-6.230679">
        <ele>208.225</ele>
        <time>2018-03-20T16:10:45Z</time>
      </trkpt>
      <trkpt lat="43.404779" lon="-6.230710">
        <ele>207.938</ele>
        <time>2018-03-20T16:10:48Z</time>
      </trkpt>
      <trkpt lat="43.404736" lon="-6.230730">
        <ele>207.749</ele>
        <time>2018-03-20T16:10:51Z</time>
      </trkpt>
      <trkpt lat="43.404691" lon="-6.230751">
        <ele>208.817</ele>
        <time>2018-03-20T16:10:56Z</time>
      </trkpt>
      <trkpt lat="43.404658" lon="-6.230796">
        <ele>209.594</ele>
        <time>2018-03-20T16:11:00Z</time>
      </trkpt>
      <trkpt lat="43.404622" lon="-6.230855">
        <ele>208.799</ele>
        <time>2018-03-20T16:11:05Z</time>
      </trkpt>
      <trkpt lat="43.404593" lon="-6.230909">
        <ele>208.631</ele>
        <time>2018-03-20T16:11:08Z</time>
      </trkpt>
      <trkpt lat="43.404561" lon="-6.230970">
        <ele>207.761</ele>
        <time>2018-03-20T16:11:11Z</time>
      </trkpt>
      <trkpt lat="43.404535" lon="-6.231034">
        <ele>207.607</ele>
        <time>2018-03-20T16:11:14Z</time>
      </trkpt>
      <trkpt lat="43.404505" lon="-6.231104">
        <ele>207.508</ele>
        <time>2018-03-20T16:11:17Z</time>
      </trkpt>
      <trkpt lat="43.404476" lon="-6.231172">
        <ele>208.395</ele>
        <time>2018-03-20T16:11:20Z</time>
      </trkpt>
      <trkpt lat="43.404460" lon="-6.231232">
        <ele>209.256</ele>
        <time>2018-03-20T16:11:25Z</time>
      </trkpt>
      <trkpt lat="43.404439" lon="-6.231295">
        <ele>209.786</ele>
        <time>2018-03-20T16:11:28Z</time>
      </trkpt>
      <trkpt lat="43.404407" lon="-6.231366">
        <ele>210.029</ele>
        <time>2018-03-20T16:11:31Z</time>
      </trkpt>
      <trkpt lat="43.404370" lon="-6.231433">
        <ele>210.280</ele>
        <time>2018-03-20T16:11:34Z</time>
      </trkpt>
      <trkpt lat="43.404326" lon="-6.231496">
        <ele>210.338</ele>
        <time>2018-03-20T16:11:37Z</time>
      </trkpt>
      <trkpt lat="43.404294" lon="-6.231550">
        <ele>210.885</ele>
        <time>2018-03-20T16:11:40Z</time>
      </trkpt>
      <trkpt lat="43.404269" lon="-6.231617">
        <ele>211.570</ele>
        <time>2018-03-20T16:11:44Z</time>
      </trkpt>
      <trkpt lat="43.404253" lon="-6.231683">
        <ele>211.596</ele>
        <time>2018-03-20T16:11:48Z</time>
      </trkpt>
      <trkpt lat="43.404231" lon="-6.231748">
        <ele>211.531</ele>
        <time>2018-03-20T16:11:52Z</time>
      </trkpt>
      <trkpt lat="43.404206" lon="-6.231800">
        <ele>212.324</ele>
        <time>2018-03-20T16:11:55Z</time>
      </trkpt>
      <trkpt lat="43.404182" lon="-6.231857">
        <ele>214.008</ele>
        <time>2018-03-20T16:11:59Z</time>
      </trkpt>
      <trkpt lat="43.404144" lon="-6.231926">
        <ele>214.661</ele>
        <time>2018-03-20T16:12:04Z</time>
      </trkpt>
      <trkpt lat="43.404122" lon="-6.231986">
        <ele>214.682</ele>
        <time>2018-03-20T16:12:07Z</time>
      </trkpt>
      <trkpt lat="43.404103" lon="-6.232061">
        <ele>214.632</ele>
        <time>2018-03-20T16:12:10Z</time>
      </trkpt>
      <trkpt lat="43.404067" lon="-6.232114">
        <ele>213.815</ele>
        <time>2018-03-20T16:12:14Z</time>
      </trkpt>
      <trkpt lat="43.404012" lon="-6.232141">
        <ele>212.966</ele>
        <time>2018-03-20T16:12:18Z</time>
      </trkpt>
      <trkpt lat="43.403966" lon="-6.232162">
        <ele>212.454</ele>
        <time>2018-03-20T16:12:21Z</time>
      </trkpt>
      <trkpt lat="43.403920" lon="-6.232165">
        <ele>213.771</ele>
        <time>2018-03-20T16:12:24Z</time>
      </trkpt>
      <trkpt lat="43.403866" lon="-6.232154">
        <ele>214.156</ele>
        <time>2018-03-20T16:12:28Z</time>
      </trkpt>
      <trkpt lat="43.403813" lon="-6.232135">
        <ele>215.596</ele>
        <time>2018-03-20T16:12:32Z</time>
      </trkpt>
      <trkpt lat="43.403770" lon="-6.232117">
        <ele>216.831</ele>
        <time>2018-03-20T16:12:35Z</time>
      </trkpt>
      <trkpt lat="43.403721" lon="-6.232067">
        <ele>217.224</ele>
        <time>2018-03-20T16:12:39Z</time>
      </trkpt>
      <trkpt lat="43.403664" lon="-6.232069">
        <ele>217.008</ele>
        <time>2018-03-20T16:12:42Z</time>
      </trkpt>
      <trkpt lat="43.403615" lon="-6.232072">
        <ele>217.371</ele>
        <time>2018-03-20T16:12:45Z</time>
      </trkpt>
      <trkpt lat="43.403561" lon="-6.232086">
        <ele>216.362</ele>
        <time>2018-03-20T16:12:48Z</time>
      </trkpt>
      <trkpt lat="43.403513" lon="-6.232123">
        <ele>215.782</ele>
        <time>2018-03-20T16:12:51Z</time>
      </trkpt>
      <trkpt lat="43.403471" lon="-6.232179">
        <ele>215.345</ele>
        <time>2018-03-20T16:12:55Z</time>
      </trkpt>
      <trkpt lat="43.403429" lon="-6.232235">
        <ele>215.956</ele>
        <time>2018-03-20T16:12:59Z</time>
      </trkpt>
      <trkpt lat="43.403388" lon="-6.232287">
        <ele>216.294</ele>
        <time>2018-03-20T16:13:03Z</time>
      </trkpt>
      <trkpt lat="43.403348" lon="-6.232338">
        <ele>216.031</ele>
        <time>2018-03-20T16:13:07Z</time>
      </trkpt>
      <trkpt lat="43.403299" lon="-6.232387">
        <ele>215.146</ele>
        <time>2018-03-20T16:13:14Z</time>
      </trkpt>
      <trkpt lat="43.403254" lon="-6.232403">
        <ele>215.461</ele>
        <time>2018-03-20T16:13:17Z</time>
      </trkpt>
      <trkpt lat="43.403200" lon="-6.232394">
        <ele>214.421</ele>
        <time>2018-03-20T16:13:21Z</time>
      </trkpt>
      <trkpt lat="43.403148" lon="-6.232400">
        <ele>213.813</ele>
        <time>2018-03-20T16:13:25Z</time>
      </trkpt>
      <trkpt lat="43.403090" lon="-6.232404">
        <ele>213.408</ele>
        <time>2018-03-20T16:13:29Z</time>
      </trkpt>
      <trkpt lat="43.403032" lon="-6.232404">
        <ele>212.438</ele>
        <time>2018-03-20T16:13:33Z</time>
      </trkpt>
      <trkpt lat="43.402975" lon="-6.232398">
        <ele>211.839</ele>
        <time>2018-03-20T16:13:38Z</time>
      </trkpt>
      <trkpt lat="43.402916" lon="-6.232397">
        <ele>211.859</ele>
        <time>2018-03-20T16:13:43Z</time>
      </trkpt>
      <trkpt lat="43.402866" lon="-6.232411">
        <ele>212.232</ele>
        <time>2018-03-20T16:13:47Z</time>
      </trkpt>
      <trkpt lat="43.402813" lon="-6.232410">
        <ele>212.533</ele>
        <time>2018-03-20T16:13:51Z</time>
      </trkpt>
      <trkpt lat="43.402764" lon="-6.232414">
        <ele>213.161</ele>
        <time>2018-03-20T16:13:54Z</time>
      </trkpt>
      <trkpt lat="43.402710" lon="-6.232420">
        <ele>212.638</ele>
        <time>2018-03-20T16:13:58Z</time>
      </trkpt>
      <trkpt lat="43.402664" lon="-6.232411">
        <ele>211.973</ele>
        <time>2018-03-20T16:14:03Z</time>
      </trkpt>
      <trkpt lat="43.402609" lon="-6.232427">
        <ele>211.924</ele>
        <time>2018-03-20T16:14:07Z</time>
      </trkpt>
      <trkpt lat="43.402555" lon="-6.232451">
        <ele>209.904</ele>
        <time>2018-03-20T16:14:11Z</time>
      </trkpt>
      <trkpt lat="43.402509" lon="-6.232467">
        <ele>210.714</ele>
        <time>2018-03-20T16:14:15Z</time>
      </trkpt>
      <trkpt lat="43.402469" lon="-6.232502">
        <ele>211.208</ele>
        <time>2018-03-20T16:14:18Z</time>
      </trkpt>
      <trkpt lat="43.402429" lon="-6.232537">
        <ele>208.324</ele>
        <time>2018-03-20T16:14:21Z</time>
      </trkpt>
      <trkpt lat="43.402383" lon="-6.232572">
        <ele>207.895</ele>
        <time>2018-03-20T16:14:25Z</time>
      </trkpt>
      <trkpt lat="43.402328" lon="-6.232615">
        <ele>207.145</ele>
        <time>2018-03-20T16:14:28Z</time>
      </trkpt>
      <trkpt lat="43.402288" lon="-6.232648">
        <ele>207.158</ele>
        <time>2018-03-20T16:14:30Z</time>
      </trkpt>
      <trkpt lat="43.402240" lon="-6.232679">
        <ele>208.369</ele>
        <time>2018-03-20T16:14:33Z</time>
      </trkpt>
      <trkpt lat="43.402182" lon="-6.232685">
        <ele>209.867</ele>
        <time>2018-03-20T16:14:37Z</time>
      </trkpt>
      <trkpt lat="43.402126" lon="-6.232692">
        <ele>210.764</ele>
        <time>2018-03-20T16:14:41Z</time>
      </trkpt>
      <trkpt lat="43.402075" lon="-6.232700">
        <ele>211.619</ele>
        <time>2018-03-20T16:14:45Z</time>
      </trkpt>
      <trkpt lat="43.402022" lon="-6.232703">
        <ele>211.886</ele>
        <time>2018-03-20T16:14:49Z</time>
      </trkpt>
      <trkpt lat="43.401968" lon="-6.232725">
        <ele>212.760</ele>
        <time>2018-03-20T16:14:53Z</time>
      </trkpt>
      <trkpt lat="43.401921" lon="-6.232726">
        <ele>213.626</ele>
        <time>2018-03-20T16:14:56Z</time>
      </trkpt>
      <trkpt lat="43.401866" lon="-6.232759">
        <ele>213.408</ele>
        <time>2018-03-20T16:15:00Z</time>
      </trkpt>
      <trkpt lat="43.401811" lon="-6.232777">
        <ele>213.770</ele>
        <time>2018-03-20T16:15:04Z</time>
      </trkpt>
      <trkpt lat="43.401756" lon="-6.232789">
        <ele>214.331</ele>
        <time>2018-03-20T16:15:07Z</time>
      </trkpt>
      <trkpt lat="43.401708" lon="-6.232810">
        <ele>214.261</ele>
        <time>2018-03-20T16:15:10Z</time>
      </trkpt>
      <trkpt lat="43.401658" lon="-6.232835">
        <ele>214.264</ele>
        <time>2018-03-20T16:15:14Z</time>
      </trkpt>
      <trkpt lat="43.401619" lon="-6.232872">
        <ele>214.285</ele>
        <time>2018-03-20T16:15:18Z</time>
      </trkpt>
      <trkpt lat="43.401567" lon="-6.232904">
        <ele>214.663</ele>
        <time>2018-03-20T16:15:22Z</time>
      </trkpt>
      <trkpt lat="43.401523" lon="-6.232924">
        <ele>210.630</ele>
        <time>2018-03-20T16:15:25Z</time>
      </trkpt>
      <trkpt lat="43.401478" lon="-6.232953">
        <ele>209.635</ele>
        <time>2018-03-20T16:15:29Z</time>
      </trkpt>
      <trkpt lat="43.401435" lon="-6.232995">
        <ele>211.838</ele>
        <time>2018-03-20T16:15:33Z</time>
      </trkpt>
      <trkpt lat="43.401391" lon="-6.233047">
        <ele>214.770</ele>
        <time>2018-03-20T16:15:37Z</time>
      </trkpt>
      <trkpt lat="43.401341" lon="-6.233103">
        <ele>216.517</ele>
        <time>2018-03-20T16:15:41Z</time>
      </trkpt>
      <trkpt lat="43.401297" lon="-6.233157">
        <ele>216.408</ele>
        <time>2018-03-20T16:15:44Z</time>
      </trkpt>
      <trkpt lat="43.401262" lon="-6.233200">
        <ele>216.735</ele>
        <time>2018-03-20T16:15:47Z</time>
      </trkpt>
      <trkpt lat="43.401213" lon="-6.233225">
        <ele>216.556</ele>
        <time>2018-03-20T16:15:51Z</time>
      </trkpt>
      <trkpt lat="43.401165" lon="-6.233256">
        <ele>216.426</ele>
        <time>2018-03-20T16:15:55Z</time>
      </trkpt>
      <trkpt lat="43.401111" lon="-6.233291">
        <ele>215.989</ele>
        <time>2018-03-20T16:16:00Z</time>
      </trkpt>
      <trkpt lat="43.401066" lon="-6.233334">
        <ele>216.430</ele>
        <time>2018-03-20T16:16:04Z</time>
      </trkpt>
      <trkpt lat="43.401030" lon="-6.233379">
        <ele>215.978</ele>
        <time>2018-03-20T16:16:08Z</time>
      </trkpt>
      <trkpt lat="43.400995" lon="-6.233424">
        <ele>214.835</ele>
        <time>2018-03-20T16:16:11Z</time>
      </trkpt>
      <trkpt lat="43.400956" lon="-6.233469">
        <ele>213.730</ele>
        <time>2018-03-20T16:16:14Z</time>
      </trkpt>
      <trkpt lat="43.400910" lon="-6.233503">
        <ele>213.162</ele>
        <time>2018-03-20T16:16:17Z</time>
      </trkpt>
      <trkpt lat="43.400856" lon="-6.233541">
        <ele>213.583</ele>
        <time>2018-03-20T16:16:21Z</time>
      </trkpt>
      <trkpt lat="43.400808" lon="-6.233573">
        <ele>213.411</ele>
        <time>2018-03-20T16:16:25Z</time>
      </trkpt>
      <trkpt lat="43.400760" lon="-6.233602">
        <ele>212.908</ele>
        <time>2018-03-20T16:16:29Z</time>
      </trkpt>
      <trkpt lat="43.400708" lon="-6.233624">
        <ele>212.668</ele>
        <time>2018-03-20T16:16:32Z</time>
      </trkpt>
      <trkpt lat="43.400664" lon="-6.233651">
        <ele>212.039</ele>
        <time>2018-03-20T16:16:35Z</time>
      </trkpt>
      <trkpt lat="43.400621" lon="-6.233675">
        <ele>212.159</ele>
        <time>2018-03-20T16:16:39Z</time>
      </trkpt>
      <trkpt lat="43.400578" lon="-6.233729">
        <ele>212.532</ele>
        <time>2018-03-20T16:16:44Z</time>
      </trkpt>
      <trkpt lat="43.400533" lon="-6.233753">
        <ele>208.573</ele>
        <time>2018-03-20T16:16:50Z</time>
      </trkpt>
      <trkpt lat="43.400492" lon="-6.233798">
        <ele>206.841</ele>
        <time>2018-03-20T16:16:54Z</time>
      </trkpt>
      <trkpt lat="43.400464" lon="-6.233857">
        <ele>208.228</ele>
        <time>2018-03-20T16:16:57Z</time>
      </trkpt>
      <trkpt lat="43.400432" lon="-6.233925">
        <ele>210.233</ele>
        <time>2018-03-20T16:17:00Z</time>
      </trkpt>
      <trkpt lat="43.400409" lon="-6.233985">
        <ele>210.644</ele>
        <time>2018-03-20T16:17:03Z</time>
      </trkpt>
      <trkpt lat="43.400381" lon="-6.234056">
        <ele>211.605</ele>
        <time>2018-03-20T16:17:07Z</time>
      </trkpt>
      <trkpt lat="43.400361" lon="-6.234127">
        <ele>211.815</ele>
        <time>2018-03-20T16:17:10Z</time>
      </trkpt>
      <trkpt lat="43.400337" lon="-6.234192">
        <ele>211.508</ele>
        <time>2018-03-20T16:17:13Z</time>
      </trkpt>
      <trkpt lat="43.400315" lon="-6.234266">
        <ele>211.756</ele>
        <time>2018-03-20T16:17:17Z</time>
      </trkpt>
      <trkpt lat="43.400316" lon="-6.234336">
        <ele>213.057</ele>
        <time>2018-03-20T16:17:21Z</time>
      </trkpt>
      <trkpt lat="43.400320" lon="-6.234405">
        <ele>213.837</ele>
        <time>2018-03-20T16:17:25Z</time>
      </trkpt>
      <trkpt lat="43.400324" lon="-6.234476">
        <ele>215.130</ele>
        <time>2018-03-20T16:17:29Z</time>
      </trkpt>
      <trkpt lat="43.400337" lon="-6.234541">
        <ele>215.921</ele>
        <time>2018-03-20T16:17:33Z</time>
      </trkpt>
      <trkpt lat="43.400361" lon="-6.234603">
        <ele>216.839</ele>
        <time>2018-03-20T16:17:36Z</time>
      </trkpt>
      <trkpt lat="43.400399" lon="-6.234662">
        <ele>216.946</ele>
        <time>2018-03-20T16:17:39Z</time>
      </trkpt>
      <trkpt lat="43.400406" lon="-6.234746">
        <ele>217.821</ele>
        <time>2018-03-20T16:18:00Z</time>
      </trkpt>
      <trkpt lat="43.400416" lon="-6.234816">
        <ele>218.792</ele>
        <time>2018-03-20T16:18:07Z</time>
      </trkpt>
      <trkpt lat="43.400384" lon="-6.234866">
        <ele>220.173</ele>
        <time>2018-03-20T16:18:14Z</time>
      </trkpt>
      <trkpt lat="43.400351" lon="-6.234913">
        <ele>221.320</ele>
        <time>2018-03-20T16:18:19Z</time>
      </trkpt>
      <trkpt lat="43.400316" lon="-6.234967">
        <ele>221.208</ele>
        <time>2018-03-20T16:18:24Z</time>
      </trkpt>
      <trkpt lat="43.400288" lon="-6.235019">
        <ele>221.291</ele>
        <time>2018-03-20T16:18:29Z</time>
      </trkpt>
      <trkpt lat="43.400261" lon="-6.235093">
        <ele>220.412</ele>
        <time>2018-03-20T16:18:34Z</time>
      </trkpt>
      <trkpt lat="43.400236" lon="-6.235165">
        <ele>221.192</ele>
        <time>2018-03-20T16:18:37Z</time>
      </trkpt>
      <trkpt lat="43.400212" lon="-6.235233">
        <ele>220.715</ele>
        <time>2018-03-20T16:18:41Z</time>
      </trkpt>
      <trkpt lat="43.400192" lon="-6.235298">
        <ele>221.376</ele>
        <time>2018-03-20T16:18:45Z</time>
      </trkpt>
      <trkpt lat="43.400175" lon="-6.235371">
        <ele>222.814</ele>
        <time>2018-03-20T16:18:49Z</time>
      </trkpt>
      <trkpt lat="43.400159" lon="-6.235437">
        <ele>218.851</ele>
        <time>2018-03-20T16:18:52Z</time>
      </trkpt>
      <trkpt lat="43.400151" lon="-6.235504">
        <ele>216.126</ele>
        <time>2018-03-20T16:18:55Z</time>
      </trkpt>
      <trkpt lat="43.400148" lon="-6.235573">
        <ele>217.779</ele>
        <time>2018-03-20T16:18:58Z</time>
      </trkpt>
      <trkpt lat="43.400153" lon="-6.235641">
        <ele>221.505</ele>
        <time>2018-03-20T16:19:01Z</time>
      </trkpt>
      <trkpt lat="43.400159" lon="-6.235720">
        <ele>224.225</ele>
        <time>2018-03-20T16:19:05Z</time>
      </trkpt>
      <trkpt lat="43.400171" lon="-6.235785">
        <ele>225.808</ele>
        <time>2018-03-20T16:19:09Z</time>
      </trkpt>
      <trkpt lat="43.400169" lon="-6.235859">
        <ele>227.629</ele>
        <time>2018-03-20T16:19:13Z</time>
      </trkpt>
      <trkpt lat="43.400173" lon="-6.235929">
        <ele>228.390</ele>
        <time>2018-03-20T16:19:17Z</time>
      </trkpt>
      <trkpt lat="43.400184" lon="-6.236005">
        <ele>228.330</ele>
        <time>2018-03-20T16:19:22Z</time>
      </trkpt>
      <trkpt lat="43.400211" lon="-6.236064">
        <ele>227.923</ele>
        <time>2018-03-20T16:19:27Z</time>
      </trkpt>
      <trkpt lat="43.400245" lon="-6.236118">
        <ele>227.724</ele>
        <time>2018-03-20T16:19:32Z</time>
      </trkpt>
      <trkpt lat="43.400266" lon="-6.236179">
        <ele>227.622</ele>
        <time>2018-03-20T16:19:36Z</time>
      </trkpt>
      <trkpt lat="43.400299" lon="-6.236243">
        <ele>228.329</ele>
        <time>2018-03-20T16:19:40Z</time>
      </trkpt>
      <trkpt lat="43.400308" lon="-6.236305">
        <ele>229.924</ele>
        <time>2018-03-20T16:19:43Z</time>
      </trkpt>
      <trkpt lat="43.400302" lon="-6.236381">
        <ele>230.962</ele>
        <time>2018-03-20T16:19:47Z</time>
      </trkpt>
      <trkpt lat="43.400267" lon="-6.236427">
        <ele>231.583</ele>
        <time>2018-03-20T16:20:04Z</time>
      </trkpt>
      <trkpt lat="43.400250" lon="-6.236485">
        <ele>231.911</ele>
        <time>2018-03-20T16:20:08Z</time>
      </trkpt>
      <trkpt lat="43.400239" lon="-6.236568">
        <ele>232.508</ele>
        <time>2018-03-20T16:20:12Z</time>
      </trkpt>
      <trkpt lat="43.400226" lon="-6.236641">
        <ele>233.328</ele>
        <time>2018-03-20T16:20:15Z</time>
      </trkpt>
      <trkpt lat="43.400222" lon="-6.236705">
        <ele>233.449</ele>
        <time>2018-03-20T16:20:27Z</time>
      </trkpt>
      <trkpt lat="43.400228" lon="-6.236771">
        <ele>233.469</ele>
        <time>2018-03-20T16:20:33Z</time>
      </trkpt>
      <trkpt lat="43.400201" lon="-6.236829">
        <ele>233.462</ele>
        <time>2018-03-20T16:20:50Z</time>
      </trkpt>
      <trkpt lat="43.400222" lon="-6.236890">
        <ele>233.063</ele>
        <time>2018-03-20T16:20:55Z</time>
      </trkpt>
      <trkpt lat="43.400237" lon="-6.236960">
        <ele>231.221</ele>
        <time>2018-03-20T16:20:59Z</time>
      </trkpt>
      <trkpt lat="43.400253" lon="-6.237041">
        <ele>230.118</ele>
        <time>2018-03-20T16:21:03Z</time>
      </trkpt>
      <trkpt lat="43.400270" lon="-6.237101">
        <ele>230.223</ele>
        <time>2018-03-20T16:21:06Z</time>
      </trkpt>
      <trkpt lat="43.400290" lon="-6.237159">
        <ele>230.314</ele>
        <time>2018-03-20T16:21:09Z</time>
      </trkpt>
      <trkpt lat="43.400305" lon="-6.237227">
        <ele>230.054</ele>
        <time>2018-03-20T16:21:13Z</time>
      </trkpt>
      <trkpt lat="43.400318" lon="-6.237301">
        <ele>230.609</ele>
        <time>2018-03-20T16:21:17Z</time>
      </trkpt>
      <trkpt lat="43.400318" lon="-6.237371">
        <ele>230.208</ele>
        <time>2018-03-20T16:21:21Z</time>
      </trkpt>
      <trkpt lat="43.400312" lon="-6.237433">
        <ele>229.913</ele>
        <time>2018-03-20T16:21:25Z</time>
      </trkpt>
      <trkpt lat="43.400315" lon="-6.237500">
        <ele>229.734</ele>
        <time>2018-03-20T16:21:29Z</time>
      </trkpt>
      <trkpt lat="43.400322" lon="-6.237562">
        <ele>229.644</ele>
        <time>2018-03-20T16:21:32Z</time>
      </trkpt>
      <trkpt lat="43.400328" lon="-6.237624">
        <ele>229.567</ele>
        <time>2018-03-20T16:21:35Z</time>
      </trkpt>
      <trkpt lat="43.400335" lon="-6.237696">
        <ele>230.348</ele>
        <time>2018-03-20T16:21:38Z</time>
      </trkpt>
      <trkpt lat="43.400341" lon="-6.237764">
        <ele>231.266</ele>
        <time>2018-03-20T16:21:41Z</time>
      </trkpt>
      <trkpt lat="43.400353" lon="-6.237842">
        <ele>233.323</ele>
        <time>2018-03-20T16:21:45Z</time>
      </trkpt>
      <trkpt lat="43.400366" lon="-6.237915">
        <ele>235.828</ele>
        <time>2018-03-20T16:21:48Z</time>
      </trkpt>
      <trkpt lat="43.400370" lon="-6.237985">
        <ele>236.577</ele>
        <time>2018-03-20T16:21:51Z</time>
      </trkpt>
      <trkpt lat="43.400374" lon="-6.238050">
        <ele>236.961</ele>
        <time>2018-03-20T16:21:54Z</time>
      </trkpt>
      <trkpt lat="43.400379" lon="-6.238119">
        <ele>235.927</ele>
        <time>2018-03-20T16:21:58Z</time>
      </trkpt>
      <trkpt lat="43.400385" lon="-6.238224">
        <ele>238.108</ele>
        <time>2018-03-20T16:22:12Z</time>
      </trkpt>
      <trkpt lat="43.400386" lon="-6.238305">
        <ele>240.299</ele>
        <time>2018-03-20T16:22:17Z</time>
      </trkpt>
      <trkpt lat="43.400384" lon="-6.238368">
        <ele>241.160</ele>
        <time>2018-03-20T16:22:20Z</time>
      </trkpt>
      <trkpt lat="43.400366" lon="-6.238443">
        <ele>237.140</ele>
        <time>2018-03-20T16:22:24Z</time>
      </trkpt>
      <trkpt lat="43.400339" lon="-6.238507">
        <ele>233.183</ele>
        <time>2018-03-20T16:22:28Z</time>
      </trkpt>
      <trkpt lat="43.400308" lon="-6.238571">
        <ele>234.444</ele>
        <time>2018-03-20T16:22:33Z</time>
      </trkpt>
      <trkpt lat="43.400296" lon="-6.238631">
        <ele>236.092</ele>
        <time>2018-03-20T16:22:36Z</time>
      </trkpt>
      <trkpt lat="43.400280" lon="-6.238705">
        <ele>237.829</ele>
        <time>2018-03-20T16:22:40Z</time>
      </trkpt>
      <trkpt lat="43.400260" lon="-6.238780">
        <ele>238.914</ele>
        <time>2018-03-20T16:22:44Z</time>
      </trkpt>
      <trkpt lat="43.400245" lon="-6.238840">
        <ele>239.559</ele>
        <time>2018-03-20T16:22:47Z</time>
      </trkpt>
      <trkpt lat="43.400229" lon="-6.238910">
        <ele>238.703</ele>
        <time>2018-03-20T16:22:50Z</time>
      </trkpt>
      <trkpt lat="43.400206" lon="-6.238972">
        <ele>239.023</ele>
        <time>2018-03-20T16:22:54Z</time>
      </trkpt>
      <trkpt lat="43.400168" lon="-6.239026">
        <ele>238.808</ele>
        <time>2018-03-20T16:22:58Z</time>
      </trkpt>
      <trkpt lat="43.400134" lon="-6.239070">
        <ele>234.817</ele>
        <time>2018-03-20T16:23:03Z</time>
      </trkpt>
      <trkpt lat="43.400108" lon="-6.239121">
        <ele>230.878</ele>
        <time>2018-03-20T16:23:08Z</time>
      </trkpt>
      <trkpt lat="43.400088" lon="-6.239180">
        <ele>229.958</ele>
        <time>2018-03-20T16:23:12Z</time>
      </trkpt>
      <trkpt lat="43.400065" lon="-6.239245">
        <ele>231.781</ele>
        <time>2018-03-20T16:23:16Z</time>
      </trkpt>
      <trkpt lat="43.400040" lon="-6.239298">
        <ele>233.662</ele>
        <time>2018-03-20T16:23:19Z</time>
      </trkpt>
      <trkpt lat="43.400015" lon="-6.239358">
        <ele>235.970</ele>
        <time>2018-03-20T16:23:23Z</time>
      </trkpt>
      <trkpt lat="43.399989" lon="-6.239423">
        <ele>238.127</ele>
        <time>2018-03-20T16:23:28Z</time>
      </trkpt>
      <trkpt lat="43.399968" lon="-6.239489">
        <ele>239.412</ele>
        <time>2018-03-20T16:23:35Z</time>
      </trkpt>
      <trkpt lat="43.399949" lon="-6.239547">
        <ele>239.855</ele>
        <time>2018-03-20T16:23:40Z</time>
      </trkpt>
      <trkpt lat="43.399930" lon="-6.239613">
        <ele>240.407</ele>
        <time>2018-03-20T16:23:46Z</time>
      </trkpt>
      <trkpt lat="43.399911" lon="-6.239683">
        <ele>241.217</ele>
        <time>2018-03-20T16:23:51Z</time>
      </trkpt>
      <trkpt lat="43.399906" lon="-6.239751">
        <ele>243.308</ele>
        <time>2018-03-20T16:23:55Z</time>
      </trkpt>
      <trkpt lat="43.399905" lon="-6.239828">
        <ele>244.167</ele>
        <time>2018-03-20T16:23:59Z</time>
      </trkpt>
      <trkpt lat="43.399904" lon="-6.239893">
        <ele>245.498</ele>
        <time>2018-03-20T16:24:03Z</time>
      </trkpt>
      <trkpt lat="43.399895" lon="-6.239978">
        <ele>245.468</ele>
        <time>2018-03-20T16:24:07Z</time>
      </trkpt>
      <trkpt lat="43.399882" lon="-6.240046">
        <ele>244.231</ele>
        <time>2018-03-20T16:24:11Z</time>
      </trkpt>
      <trkpt lat="43.399894" lon="-6.240112">
        <ele>243.172</ele>
        <time>2018-03-20T16:24:17Z</time>
      </trkpt>
      <trkpt lat="43.399923" lon="-6.240179">
        <ele>242.450</ele>
        <time>2018-03-20T16:24:22Z</time>
      </trkpt>
      <trkpt lat="43.399949" lon="-6.240233">
        <ele>242.457</ele>
        <time>2018-03-20T16:24:25Z</time>
      </trkpt>
      <trkpt lat="43.399974" lon="-6.240301">
        <ele>242.412</ele>
        <time>2018-03-20T16:24:28Z</time>
      </trkpt>
      <trkpt lat="43.400007" lon="-6.240393">
        <ele>238.412</ele>
        <time>2018-03-20T16:24:31Z</time>
      </trkpt>
      <trkpt lat="43.400064" lon="-6.240429">
        <ele>234.432</ele>
        <time>2018-03-20T16:24:36Z</time>
      </trkpt>
      <trkpt lat="43.400109" lon="-6.240448">
        <ele>230.405</ele>
        <time>2018-03-20T16:24:38Z</time>
      </trkpt>
      <trkpt lat="43.400168" lon="-6.240507">
        <ele>226.408</ele>
        <time>2018-03-20T16:24:41Z</time>
      </trkpt>
      <trkpt lat="43.400253" lon="-6.240468">
        <ele>222.453</ele>
        <time>2018-03-20T16:24:44Z</time>
      </trkpt>
      <trkpt lat="43.400245" lon="-6.240542">
        <ele>226.474</ele>
        <time>2018-03-20T16:24:53Z</time>
      </trkpt>
      <trkpt lat="43.400266" lon="-6.240606">
        <ele>230.424</ele>
        <time>2018-03-20T16:24:59Z</time>
      </trkpt>
      <trkpt lat="43.400289" lon="-6.240675">
        <ele>234.427</ele>
        <time>2018-03-20T16:25:03Z</time>
      </trkpt>
      <trkpt lat="43.400307" lon="-6.240747">
        <ele>238.468</ele>
        <time>2018-03-20T16:25:07Z</time>
      </trkpt>
      <trkpt lat="43.400321" lon="-6.240814">
        <ele>242.456</ele>
        <time>2018-03-20T16:25:11Z</time>
      </trkpt>
      <trkpt lat="43.400338" lon="-6.240872">
        <ele>245.263</ele>
        <time>2018-03-20T16:25:14Z</time>
      </trkpt>
      <trkpt lat="43.400361" lon="-6.240941">
        <ele>247.318</ele>
        <time>2018-03-20T16:25:18Z</time>
      </trkpt>
      <trkpt lat="43.400382" lon="-6.241014">
        <ele>248.967</ele>
        <time>2018-03-20T16:25:22Z</time>
      </trkpt>
      <trkpt lat="43.400390" lon="-6.241083">
        <ele>249.981</ele>
        <time>2018-03-20T16:25:26Z</time>
      </trkpt>
      <trkpt lat="43.400386" lon="-6.241153">
        <ele>251.719</ele>
        <time>2018-03-20T16:25:30Z</time>
      </trkpt>
      <trkpt lat="43.400380" lon="-6.241226">
        <ele>252.008</ele>
        <time>2018-03-20T16:25:35Z</time>
      </trkpt>
      <trkpt lat="43.400370" lon="-6.241291">
        <ele>251.848</ele>
        <time>2018-03-20T16:25:39Z</time>
      </trkpt>
      <trkpt lat="43.400357" lon="-6.241371">
        <ele>247.839</ele>
        <time>2018-03-20T16:25:43Z</time>
      </trkpt>
      <trkpt lat="43.400346" lon="-6.241452">
        <ele>248.179</ele>
        <time>2018-03-20T16:25:47Z</time>
      </trkpt>
      <trkpt lat="43.400339" lon="-6.241518">
        <ele>249.132</ele>
        <time>2018-03-20T16:25:50Z</time>
      </trkpt>
      <trkpt lat="43.400326" lon="-6.241585">
        <ele>249.743</ele>
        <time>2018-03-20T16:25:53Z</time>
      </trkpt>
      <trkpt lat="43.400310" lon="-6.241655">
        <ele>250.811</ele>
        <time>2018-03-20T16:25:56Z</time>
      </trkpt>
      <trkpt lat="43.400300" lon="-6.241718">
        <ele>251.178</ele>
        <time>2018-03-20T16:26:01Z</time>
      </trkpt>
      <trkpt lat="43.400305" lon="-6.241783">
        <ele>250.933</ele>
        <time>2018-03-20T16:26:05Z</time>
      </trkpt>
      <trkpt lat="43.400301" lon="-6.241854">
        <ele>250.493</ele>
        <time>2018-03-20T16:26:35Z</time>
      </trkpt>
      <trkpt lat="43.400337" lon="-6.241912">
        <ele>250.165</ele>
        <time>2018-03-20T16:26:40Z</time>
      </trkpt>
      <trkpt lat="43.400369" lon="-6.241982">
        <ele>249.921</ele>
        <time>2018-03-20T16:26:44Z</time>
      </trkpt>
      <trkpt lat="43.400386" lon="-6.242056">
        <ele>249.408</ele>
        <time>2018-03-20T16:26:48Z</time>
      </trkpt>
      <trkpt lat="43.400386" lon="-6.242120">
        <ele>250.391</ele>
        <time>2018-03-20T16:26:51Z</time>
      </trkpt>
      <trkpt lat="43.400393" lon="-6.242234">
        <ele>251.622</ele>
        <time>2018-03-20T16:27:29Z</time>
      </trkpt>
      <trkpt lat="43.400423" lon="-6.242301">
        <ele>250.472</ele>
        <time>2018-03-20T16:27:34Z</time>
      </trkpt>
      <trkpt lat="43.400459" lon="-6.242367">
        <ele>250.555</ele>
        <time>2018-03-20T16:27:37Z</time>
      </trkpt>
      <trkpt lat="43.400504" lon="-6.242452">
        <ele>250.926</ele>
        <time>2018-03-20T16:27:38Z</time>
      </trkpt>
      <trkpt lat="43.400541" lon="-6.242505">
        <ele>251.284</ele>
        <time>2018-03-20T16:27:44Z</time>
      </trkpt>
      <trkpt lat="43.400557" lon="-6.242570">
        <ele>251.021</ele>
        <time>2018-03-20T16:27:49Z</time>
      </trkpt>
      <trkpt lat="43.400580" lon="-6.242627">
        <ele>247.026</ele>
        <time>2018-03-20T16:27:52Z</time>
      </trkpt>
      <trkpt lat="43.400613" lon="-6.242683">
        <ele>244.153</ele>
        <time>2018-03-20T16:27:58Z</time>
      </trkpt>
      <trkpt lat="43.400647" lon="-6.242730">
        <ele>245.504</ele>
        <time>2018-03-20T16:28:03Z</time>
      </trkpt>
      <trkpt lat="43.400678" lon="-6.242792">
        <ele>246.814</ele>
        <time>2018-03-20T16:28:07Z</time>
      </trkpt>
      <trkpt lat="43.400709" lon="-6.242859">
        <ele>248.408</ele>
        <time>2018-03-20T16:28:11Z</time>
      </trkpt>
      <trkpt lat="43.400733" lon="-6.242912">
        <ele>249.727</ele>
        <time>2018-03-20T16:28:14Z</time>
      </trkpt>
      <trkpt lat="43.400756" lon="-6.242966">
        <ele>250.938</ele>
        <time>2018-03-20T16:28:17Z</time>
      </trkpt>
      <trkpt lat="43.400776" lon="-6.243024">
        <ele>251.678</ele>
        <time>2018-03-20T16:28:20Z</time>
      </trkpt>
      <trkpt lat="43.400797" lon="-6.243094">
        <ele>253.211</ele>
        <time>2018-03-20T16:28:24Z</time>
      </trkpt>
      <trkpt lat="43.400822" lon="-6.243154">
        <ele>255.472</ele>
        <time>2018-03-20T16:28:27Z</time>
      </trkpt>
      <trkpt lat="43.400854" lon="-6.243216">
        <ele>257.130</ele>
        <time>2018-03-20T16:28:30Z</time>
      </trkpt>
      <trkpt lat="43.400886" lon="-6.243277">
        <ele>258.547</ele>
        <time>2018-03-20T16:28:33Z</time>
      </trkpt>
      <trkpt lat="43.400910" lon="-6.243332">
        <ele>259.052</ele>
        <time>2018-03-20T16:28:36Z</time>
      </trkpt>
      <trkpt lat="43.400930" lon="-6.243394">
        <ele>258.983</ele>
        <time>2018-03-20T16:28:40Z</time>
      </trkpt>
      <trkpt lat="43.400942" lon="-6.243456">
        <ele>260.425</ele>
        <time>2018-03-20T16:28:45Z</time>
      </trkpt>
      <trkpt lat="43.400968" lon="-6.243524">
        <ele>262.517</ele>
        <time>2018-03-20T16:28:50Z</time>
      </trkpt>
      <trkpt lat="43.401001" lon="-6.243587">
        <ele>263.808</ele>
        <time>2018-03-20T16:28:54Z</time>
      </trkpt>
      <trkpt lat="43.401023" lon="-6.243641">
        <ele>264.220</ele>
        <time>2018-03-20T16:28:57Z</time>
      </trkpt>
      <trkpt lat="43.401051" lon="-6.243706">
        <ele>265.651</ele>
        <time>2018-03-20T16:29:01Z</time>
      </trkpt>
      <trkpt lat="43.401083" lon="-6.243770">
        <ele>265.711</ele>
        <time>2018-03-20T16:29:05Z</time>
      </trkpt>
      <trkpt lat="43.401097" lon="-6.243838">
        <ele>265.784</ele>
        <time>2018-03-20T16:29:09Z</time>
      </trkpt>
      <trkpt lat="43.401102" lon="-6.243900">
        <ele>265.355</ele>
        <time>2018-03-20T16:29:12Z</time>
      </trkpt>
      <trkpt lat="43.401115" lon="-6.243963">
        <ele>265.133</ele>
        <time>2018-03-20T16:29:15Z</time>
      </trkpt>
      <trkpt lat="43.401132" lon="-6.244030">
        <ele>267.010</ele>
        <time>2018-03-20T16:29:19Z</time>
      </trkpt>
      <trkpt lat="43.401152" lon="-6.244085">
        <ele>267.365</ele>
        <time>2018-03-20T16:29:23Z</time>
      </trkpt>
      <trkpt lat="43.401148" lon="-6.244159">
        <ele>267.554</ele>
        <time>2018-03-20T16:29:28Z</time>
      </trkpt>
      <trkpt lat="43.401138" lon="-6.244234">
        <ele>267.656</ele>
        <time>2018-03-20T16:29:33Z</time>
      </trkpt>
      <trkpt lat="43.401126" lon="-6.244301">
        <ele>266.911</ele>
        <time>2018-03-20T16:29:37Z</time>
      </trkpt>
      <trkpt lat="43.401134" lon="-6.244379">
        <ele>266.508</ele>
        <time>2018-03-20T16:29:42Z</time>
      </trkpt>
      <trkpt lat="43.401161" lon="-6.244445">
        <ele>267.477</ele>
        <time>2018-03-20T16:29:46Z</time>
      </trkpt>
      <trkpt lat="43.401187" lon="-6.244506">
        <ele>266.818</ele>
        <time>2018-03-20T16:29:49Z</time>
      </trkpt>
      <trkpt lat="43.401215" lon="-6.244572">
        <ele>266.028</ele>
        <time>2018-03-20T16:29:53Z</time>
      </trkpt>
      <trkpt lat="43.401246" lon="-6.244621">
        <ele>265.171</ele>
        <time>2018-03-20T16:29:57Z</time>
      </trkpt>
      <trkpt lat="43.401290" lon="-6.244674">
        <ele>264.692</ele>
        <time>2018-03-20T16:30:01Z</time>
      </trkpt>
      <trkpt lat="43.401329" lon="-6.244734">
        <ele>264.350</ele>
        <time>2018-03-20T16:30:05Z</time>
      </trkpt>
      <trkpt lat="43.401363" lon="-6.244781">
        <ele>263.767</ele>
        <time>2018-03-20T16:30:08Z</time>
      </trkpt>
      <trkpt lat="43.401393" lon="-6.244830">
        <ele>264.192</ele>
        <time>2018-03-20T16:30:11Z</time>
      </trkpt>
      <trkpt lat="43.401411" lon="-6.244899">
        <ele>263.686</ele>
        <time>2018-03-20T16:30:16Z</time>
      </trkpt>
      <trkpt lat="43.401430" lon="-6.244967">
        <ele>262.560</ele>
        <time>2018-03-20T16:30:21Z</time>
      </trkpt>
      <trkpt lat="43.401438" lon="-6.245038">
        <ele>260.226</ele>
        <time>2018-03-20T16:30:26Z</time>
      </trkpt>
      <trkpt lat="43.401454" lon="-6.245112">
        <ele>258.808</ele>
        <time>2018-03-20T16:30:30Z</time>
      </trkpt>
      <trkpt lat="43.401480" lon="-6.245180">
        <ele>258.840</ele>
        <time>2018-03-20T16:30:34Z</time>
      </trkpt>
      <trkpt lat="43.401511" lon="-6.245232">
        <ele>260.091</ele>
        <time>2018-03-20T16:30:38Z</time>
      </trkpt>
      <trkpt lat="43.401549" lon="-6.245284">
        <ele>261.921</ele>
        <time>2018-03-20T16:30:42Z</time>
      </trkpt>
      <trkpt lat="43.401580" lon="-6.245336">
        <ele>263.464</ele>
        <time>2018-03-20T16:30:45Z</time>
      </trkpt>
      <trkpt lat="43.401610" lon="-6.245388">
        <ele>264.395</ele>
        <time>2018-03-20T16:30:48Z</time>
      </trkpt>
      <trkpt lat="43.401638" lon="-6.245438">
        <ele>264.563</ele>
        <time>2018-03-20T16:30:51Z</time>
      </trkpt>
      <trkpt lat="43.401670" lon="-6.245496">
        <ele>264.270</ele>
        <time>2018-03-20T16:30:55Z</time>
      </trkpt>
      <trkpt lat="43.401707" lon="-6.245554">
        <ele>264.435</ele>
        <time>2018-03-20T16:30:59Z</time>
      </trkpt>
      <trkpt lat="43.401746" lon="-6.245597">
        <ele>264.958</ele>
        <time>2018-03-20T16:31:03Z</time>
      </trkpt>
      <trkpt lat="43.401781" lon="-6.245640">
        <ele>264.852</ele>
        <time>2018-03-20T16:31:07Z</time>
      </trkpt>
      <trkpt lat="43.401808" lon="-6.245693">
        <ele>264.417</ele>
        <time>2018-03-20T16:31:10Z</time>
      </trkpt>
      <trkpt lat="43.401840" lon="-6.245751">
        <ele>264.108</ele>
        <time>2018-03-20T16:31:14Z</time>
      </trkpt>
      <trkpt lat="43.401877" lon="-6.245811">
        <ele>264.397</ele>
        <time>2018-03-20T16:31:18Z</time>
      </trkpt>
      <trkpt lat="43.401909" lon="-6.245875">
        <ele>264.078</ele>
        <time>2018-03-20T16:31:22Z</time>
      </trkpt>
      <trkpt lat="43.401941" lon="-6.245930">
        <ele>264.258</ele>
        <time>2018-03-20T16:31:26Z</time>
      </trkpt>
      <trkpt lat="43.401972" lon="-6.245989">
        <ele>264.331</ele>
        <time>2018-03-20T16:31:30Z</time>
      </trkpt>
      <trkpt lat="43.401993" lon="-6.246051">
        <ele>264.452</ele>
        <time>2018-03-20T16:31:35Z</time>
      </trkpt>
      <trkpt lat="43.402016" lon="-6.246112">
        <ele>264.140</ele>
        <time>2018-03-20T16:31:39Z</time>
      </trkpt>
      <trkpt lat="43.402035" lon="-6.246182">
        <ele>263.967</ele>
        <time>2018-03-20T16:31:43Z</time>
      </trkpt>
      <trkpt lat="43.402031" lon="-6.246245">
        <ele>263.442</ele>
        <time>2018-03-20T16:31:47Z</time>
      </trkpt>
      <trkpt lat="43.402018" lon="-6.246307">
        <ele>263.926</ele>
        <time>2018-03-20T16:31:50Z</time>
      </trkpt>
      <trkpt lat="43.402009" lon="-6.246385">
        <ele>264.647</ele>
        <time>2018-03-20T16:31:54Z</time>
      </trkpt>
      <trkpt lat="43.402002" lon="-6.246456">
        <ele>264.211</ele>
        <time>2018-03-20T16:31:58Z</time>
      </trkpt>
      <trkpt lat="43.401998" lon="-6.246528">
        <ele>265.208</ele>
        <time>2018-03-20T16:32:02Z</time>
      </trkpt>
      <trkpt lat="43.402003" lon="-6.246599">
        <ele>265.484</ele>
        <time>2018-03-20T16:32:06Z</time>
      </trkpt>
      <trkpt lat="43.402016" lon="-6.246682">
        <ele>264.775</ele>
        <time>2018-03-20T16:32:10Z</time>
      </trkpt>
      <trkpt lat="43.402030" lon="-6.246758">
        <ele>265.135</ele>
        <time>2018-03-20T16:32:13Z</time>
      </trkpt>
      <trkpt lat="43.402044" lon="-6.246822">
        <ele>261.188</ele>
        <time>2018-03-20T16:32:16Z</time>
      </trkpt>
      <trkpt lat="43.402050" lon="-6.246888">
        <ele>257.179</ele>
        <time>2018-03-20T16:32:21Z</time>
      </trkpt>
      <trkpt lat="43.402062" lon="-6.246958">
        <ele>258.147</ele>
        <time>2018-03-20T16:32:26Z</time>
      </trkpt>
      <trkpt lat="43.402054" lon="-6.247031">
        <ele>254.114</ele>
        <time>2018-03-20T16:32:31Z</time>
      </trkpt>
      <trkpt lat="43.402058" lon="-6.247094">
        <ele>253.979</ele>
        <time>2018-03-20T16:32:34Z</time>
      </trkpt>
      <trkpt lat="43.402077" lon="-6.247160">
        <ele>257.047</ele>
        <time>2018-03-20T16:32:37Z</time>
      </trkpt>
      <trkpt lat="43.402107" lon="-6.247224">
        <ele>260.529</ele>
        <time>2018-03-20T16:32:41Z</time>
      </trkpt>
      <trkpt lat="43.402131" lon="-6.247278">
        <ele>264.221</ele>
        <time>2018-03-20T16:32:45Z</time>
      </trkpt>
      <trkpt lat="43.402142" lon="-6.247339">
        <ele>266.808</ele>
        <time>2018-03-20T16:32:50Z</time>
      </trkpt>
      <trkpt lat="43.402163" lon="-6.247395">
        <ele>269.226</ele>
        <time>2018-03-20T16:32:56Z</time>
      </trkpt>
      <trkpt lat="43.402187" lon="-6.247449">
        <ele>271.027</ele>
        <time>2018-03-20T16:33:01Z</time>
      </trkpt>
      <trkpt lat="43.402207" lon="-6.247507">
        <ele>270.927</ele>
        <time>2018-03-20T16:33:06Z</time>
      </trkpt>
      <trkpt lat="43.402225" lon="-6.247568">
        <ele>271.610</ele>
        <time>2018-03-20T16:33:11Z</time>
      </trkpt>
      <trkpt lat="43.402268" lon="-6.247621">
        <ele>271.651</ele>
        <time>2018-03-20T16:33:15Z</time>
      </trkpt>
      <trkpt lat="43.402307" lon="-6.247673">
        <ele>272.459</ele>
        <time>2018-03-20T16:33:19Z</time>
      </trkpt>
      <trkpt lat="43.402382" lon="-6.247705">
        <ele>273.716</ele>
        <time>2018-03-20T16:33:39Z</time>
      </trkpt>
      <trkpt lat="43.402413" lon="-6.247753">
        <ele>274.191</ele>
        <time>2018-03-20T16:33:42Z</time>
      </trkpt>
      <trkpt lat="43.402448" lon="-6.247814">
        <ele>274.334</ele>
        <time>2018-03-20T16:33:45Z</time>
      </trkpt>
      <trkpt lat="43.402478" lon="-6.247874">
        <ele>274.855</ele>
        <time>2018-03-20T16:33:48Z</time>
      </trkpt>
      <trkpt lat="43.402496" lon="-6.247932">
        <ele>275.510</ele>
        <time>2018-03-20T16:33:51Z</time>
      </trkpt>
      <trkpt lat="43.402524" lon="-6.248001">
        <ele>276.308</ele>
        <time>2018-03-20T16:33:54Z</time>
      </trkpt>
      <trkpt lat="43.402554" lon="-6.248063">
        <ele>276.895</ele>
        <time>2018-03-20T16:33:58Z</time>
      </trkpt>
      <trkpt lat="43.402583" lon="-6.248122">
        <ele>277.916</ele>
        <time>2018-03-20T16:34:02Z</time>
      </trkpt>
      <trkpt lat="43.402607" lon="-6.248186">
        <ele>277.896</ele>
        <time>2018-03-20T16:34:05Z</time>
      </trkpt>
      <trkpt lat="43.402632" lon="-6.248256">
        <ele>277.339</ele>
        <time>2018-03-20T16:34:09Z</time>
      </trkpt>
      <trkpt lat="43.402657" lon="-6.248320">
        <ele>277.820</ele>
        <time>2018-03-20T16:34:13Z</time>
      </trkpt>
      <trkpt lat="43.402678" lon="-6.248383">
        <ele>278.548</ele>
        <time>2018-03-20T16:34:17Z</time>
      </trkpt>
      <trkpt lat="43.402674" lon="-6.248448">
        <ele>278.995</ele>
        <time>2018-03-20T16:34:23Z</time>
      </trkpt>
      <trkpt lat="43.402645" lon="-6.248512">
        <ele>279.660</ele>
        <time>2018-03-20T16:34:28Z</time>
      </trkpt>
      <trkpt lat="43.402623" lon="-6.248571">
        <ele>279.267</ele>
        <time>2018-03-20T16:34:32Z</time>
      </trkpt>
      <trkpt lat="43.402603" lon="-6.248643">
        <ele>275.281</ele>
        <time>2018-03-20T16:34:35Z</time>
      </trkpt>
      <trkpt lat="43.402569" lon="-6.248689">
        <ele>271.219</ele>
        <time>2018-03-20T16:34:39Z</time>
      </trkpt>
      <trkpt lat="43.402561" lon="-6.248752">
        <ele>267.208</ele>
        <time>2018-03-20T16:34:45Z</time>
      </trkpt>
      <trkpt lat="43.402541" lon="-6.248836">
        <ele>264.688</ele>
        <time>2018-03-20T16:34:49Z</time>
      </trkpt>
      <trkpt lat="43.402540" lon="-6.248907">
        <ele>267.849</ele>
        <time>2018-03-20T16:34:53Z</time>
      </trkpt>
      <trkpt lat="43.402528" lon="-6.248980">
        <ele>271.879</ele>
        <time>2018-03-20T16:34:57Z</time>
      </trkpt>
      <trkpt lat="43.402536" lon="-6.249051">
        <ele>275.832</ele>
        <time>2018-03-20T16:35:02Z</time>
      </trkpt>
      <trkpt lat="43.402562" lon="-6.249112">
        <ele>279.723</ele>
        <time>2018-03-20T16:35:06Z</time>
      </trkpt>
      <trkpt lat="43.402572" lon="-6.249179">
        <ele>282.141</ele>
        <time>2018-03-20T16:35:09Z</time>
      </trkpt>
      <trkpt lat="43.402583" lon="-6.249240">
        <ele>283.198</ele>
        <time>2018-03-20T16:35:12Z</time>
      </trkpt>
      <trkpt lat="43.402613" lon="-6.249334">
        <ele>282.913</ele>
        <time>2018-03-20T16:35:18Z</time>
      </trkpt>
      <trkpt lat="43.402632" lon="-6.249403">
        <ele>282.096</ele>
        <time>2018-03-20T16:35:22Z</time>
      </trkpt>
      <trkpt lat="43.402663" lon="-6.249468">
        <ele>281.531</ele>
        <time>2018-03-20T16:35:27Z</time>
      </trkpt>
      <trkpt lat="43.402700" lon="-6.249506">
        <ele>281.624</ele>
        <time>2018-03-20T16:35:32Z</time>
      </trkpt>
      <trkpt lat="43.402744" lon="-6.249520">
        <ele>283.208</ele>
        <time>2018-03-20T16:35:37Z</time>
      </trkpt>
      <trkpt lat="43.402794" lon="-6.249563">
        <ele>285.051</ele>
        <time>2018-03-20T16:35:42Z</time>
      </trkpt>
      <trkpt lat="43.402849" lon="-6.249585">
        <ele>287.752</ele>
        <time>2018-03-20T16:35:49Z</time>
      </trkpt>
      <trkpt lat="43.402903" lon="-6.249584">
        <ele>290.122</ele>
        <time>2018-03-20T16:35:52Z</time>
      </trkpt>
      <trkpt lat="43.402963" lon="-6.249582">
        <ele>292.745</ele>
        <time>2018-03-20T16:35:57Z</time>
      </trkpt>
      <trkpt lat="43.403012" lon="-6.249580">
        <ele>293.976</ele>
        <time>2018-03-20T16:36:01Z</time>
      </trkpt>
      <trkpt lat="43.403099" lon="-6.249616">
        <ele>293.464</ele>
        <time>2018-03-20T16:36:11Z</time>
      </trkpt>
      <trkpt lat="43.403157" lon="-6.249624">
        <ele>292.771</ele>
        <time>2018-03-20T16:36:15Z</time>
      </trkpt>
      <trkpt lat="43.403213" lon="-6.249640">
        <ele>292.736</ele>
        <time>2018-03-20T16:36:20Z</time>
      </trkpt>
      <trkpt lat="43.403260" lon="-6.249652">
        <ele>293.171</ele>
        <time>2018-03-20T16:36:23Z</time>
      </trkpt>
      <trkpt lat="43.403325" lon="-6.249667">
        <ele>289.141</ele>
        <time>2018-03-20T16:36:26Z</time>
      </trkpt>
      <trkpt lat="43.403383" lon="-6.249680">
        <ele>286.115</ele>
        <time>2018-03-20T16:36:28Z</time>
      </trkpt>
      <trkpt lat="43.403441" lon="-6.249697">
        <ele>287.108</ele>
        <time>2018-03-20T16:36:30Z</time>
      </trkpt>
      <trkpt lat="43.403486" lon="-6.249715">
        <ele>287.739</ele>
        <time>2018-03-20T16:36:32Z</time>
      </trkpt>
      <trkpt lat="43.403529" lon="-6.249738">
        <ele>288.950</ele>
        <time>2018-03-20T16:36:35Z</time>
      </trkpt>
      <trkpt lat="43.403581" lon="-6.249773">
        <ele>290.040</ele>
        <time>2018-03-20T16:36:39Z</time>
      </trkpt>
      <trkpt lat="43.403622" lon="-6.249801">
        <ele>290.313</ele>
        <time>2018-03-20T16:36:42Z</time>
      </trkpt>
      <trkpt lat="43.403664" lon="-6.249826">
        <ele>291.344</ele>
        <time>2018-03-20T16:36:45Z</time>
      </trkpt>
      <trkpt lat="43.403697" lon="-6.249875">
        <ele>291.922</ele>
        <time>2018-03-20T16:36:48Z</time>
      </trkpt>
      <trkpt lat="43.403739" lon="-6.249938">
        <ele>292.239</ele>
        <time>2018-03-20T16:36:51Z</time>
      </trkpt>
      <trkpt lat="43.403768" lon="-6.249989">
        <ele>292.024</ele>
        <time>2018-03-20T16:36:54Z</time>
      </trkpt>
      <trkpt lat="43.403797" lon="-6.250045">
        <ele>291.126</ele>
        <time>2018-03-20T16:37:00Z</time>
      </trkpt>
      <trkpt lat="43.403825" lon="-6.250103">
        <ele>293.047</ele>
        <time>2018-03-20T16:37:04Z</time>
      </trkpt>
      <trkpt lat="43.403853" lon="-6.250165">
        <ele>292.911</ele>
        <time>2018-03-20T16:37:08Z</time>
      </trkpt>
      <trkpt lat="43.403873" lon="-6.250247">
        <ele>293.608</ele>
        <time>2018-03-20T16:37:12Z</time>
      </trkpt>
      <trkpt lat="43.403890" lon="-6.250316">
        <ele>294.444</ele>
        <time>2018-03-20T16:37:15Z</time>
      </trkpt>
      <trkpt lat="43.403912" lon="-6.250375">
        <ele>295.315</ele>
        <time>2018-03-20T16:37:19Z</time>
      </trkpt>
      <trkpt lat="43.403929" lon="-6.250448">
        <ele>297.095</ele>
        <time>2018-03-20T16:37:23Z</time>
      </trkpt>
      <trkpt lat="43.403938" lon="-6.250517">
        <ele>297.268</ele>
        <time>2018-03-20T16:37:26Z</time>
      </trkpt>
      <trkpt lat="43.403951" lon="-6.250576">
        <ele>297.379</ele>
        <time>2018-03-20T16:37:29Z</time>
      </trkpt>
      <trkpt lat="43.403964" lon="-6.250636">
        <ele>297.467</ele>
        <time>2018-03-20T16:37:32Z</time>
      </trkpt>
      <trkpt lat="43.403982" lon="-6.250698">
        <ele>297.534</ele>
        <time>2018-03-20T16:37:35Z</time>
      </trkpt>
      <trkpt lat="43.404020" lon="-6.250757">
        <ele>297.559</ele>
        <time>2018-03-20T16:37:39Z</time>
      </trkpt>
      <trkpt lat="43.404054" lon="-6.250805">
        <ele>298.371</ele>
        <time>2018-03-20T16:37:42Z</time>
      </trkpt>
      <trkpt lat="43.404089" lon="-6.250854">
        <ele>298.441</ele>
        <time>2018-03-20T16:37:45Z</time>
      </trkpt>
      <trkpt lat="43.404126" lon="-6.250907">
        <ele>297.315</ele>
        <time>2018-03-20T16:37:49Z</time>
      </trkpt>
      <trkpt lat="43.404155" lon="-6.250958">
        <ele>296.208</ele>
        <time>2018-03-20T16:37:52Z</time>
      </trkpt>
      <trkpt lat="43.404184" lon="-6.251010">
        <ele>295.119</ele>
        <time>2018-03-20T16:37:55Z</time>
      </trkpt>
      <trkpt lat="43.404215" lon="-6.251066">
        <ele>294.940</ele>
        <time>2018-03-20T16:37:58Z</time>
      </trkpt>
      <trkpt lat="43.404243" lon="-6.251129">
        <ele>295.230</ele>
        <time>2018-03-20T16:38:01Z</time>
      </trkpt>
      <trkpt lat="43.404275" lon="-6.251183">
        <ele>295.493</ele>
        <time>2018-03-20T16:38:05Z</time>
      </trkpt>
      <trkpt lat="43.404300" lon="-6.251246">
        <ele>295.944</ele>
        <time>2018-03-20T16:38:08Z</time>
      </trkpt>
      <trkpt lat="43.404326" lon="-6.251305">
        <ele>296.612</ele>
        <time>2018-03-20T16:38:12Z</time>
      </trkpt>
      <trkpt lat="43.404338" lon="-6.251371">
        <ele>298.289</ele>
        <time>2018-03-20T16:38:16Z</time>
      </trkpt>
      <trkpt lat="43.404347" lon="-6.251433">
        <ele>298.884</ele>
        <time>2018-03-20T16:38:20Z</time>
      </trkpt>
      <trkpt lat="43.404376" lon="-6.251491">
        <ele>299.167</ele>
        <time>2018-03-20T16:38:26Z</time>
      </trkpt>
      <trkpt lat="43.404400" lon="-6.251551">
        <ele>299.381</ele>
        <time>2018-03-20T16:38:34Z</time>
      </trkpt>
      <trkpt lat="43.404439" lon="-6.251585">
        <ele>299.019</ele>
        <time>2018-03-20T16:38:39Z</time>
      </trkpt>
      <trkpt lat="43.404476" lon="-6.251633">
        <ele>298.008</ele>
        <time>2018-03-20T16:38:44Z</time>
      </trkpt>
      <trkpt lat="43.404522" lon="-6.251666">
        <ele>294.098</ele>
        <time>2018-03-20T16:38:50Z</time>
      </trkpt>
      <trkpt lat="43.404569" lon="-6.251681">
        <ele>290.619</ele>
        <time>2018-03-20T16:38:54Z</time>
      </trkpt>
      <trkpt lat="43.404623" lon="-6.251722">
        <ele>290.289</ele>
        <time>2018-03-20T16:38:58Z</time>
      </trkpt>
      <trkpt lat="43.404663" lon="-6.251771">
        <ele>290.762</ele>
        <time>2018-03-20T16:39:01Z</time>
      </trkpt>
      <trkpt lat="43.404697" lon="-6.251815">
        <ele>291.063</ele>
        <time>2018-03-20T16:39:04Z</time>
      </trkpt>
      <trkpt lat="43.404735" lon="-6.251849">
        <ele>290.421</ele>
        <time>2018-03-20T16:39:07Z</time>
      </trkpt>
      <trkpt lat="43.404782" lon="-6.251894">
        <ele>290.858</ele>
        <time>2018-03-20T16:39:10Z</time>
      </trkpt>
      <trkpt lat="43.404819" lon="-6.251939">
        <ele>291.163</ele>
        <time>2018-03-20T16:39:13Z</time>
      </trkpt>
      <trkpt lat="43.404843" lon="-6.251991">
        <ele>291.766</ele>
        <time>2018-03-20T16:39:16Z</time>
      </trkpt>
      <trkpt lat="43.404866" lon="-6.252054">
        <ele>292.029</ele>
        <time>2018-03-20T16:39:19Z</time>
      </trkpt>
      <trkpt lat="43.404890" lon="-6.252114">
        <ele>291.421</ele>
        <time>2018-03-20T16:39:22Z</time>
      </trkpt>
      <trkpt lat="43.404921" lon="-6.252182">
        <ele>289.408</ele>
        <time>2018-03-20T16:39:26Z</time>
      </trkpt>
      <trkpt lat="43.404954" lon="-6.252239">
        <ele>288.278</ele>
        <time>2018-03-20T16:39:30Z</time>
      </trkpt>
      <trkpt lat="43.404988" lon="-6.252286">
        <ele>287.599</ele>
        <time>2018-03-20T16:39:34Z</time>
      </trkpt>
      <trkpt lat="43.405041" lon="-6.252332">
        <ele>287.959</ele>
        <time>2018-03-20T16:39:38Z</time>
      </trkpt>
      <trkpt lat="43.405089" lon="-6.252363">
        <ele>287.782</ele>
        <time>2018-03-20T16:39:41Z</time>
      </trkpt>
      <trkpt lat="43.405131" lon="-6.252395">
        <ele>287.613</ele>
        <time>2018-03-20T16:39:44Z</time>
      </trkpt>
      <trkpt lat="43.405171" lon="-6.252441">
        <ele>286.391</ele>
        <time>2018-03-20T16:39:49Z</time>
      </trkpt>
      <trkpt lat="43.405207" lon="-6.252500">
        <ele>286.378</ele>
        <time>2018-03-20T16:39:53Z</time>
      </trkpt>
      <trkpt lat="43.405248" lon="-6.252551">
        <ele>286.373</ele>
        <time>2018-03-20T16:39:57Z</time>
      </trkpt>
      <trkpt lat="43.405286" lon="-6.252597">
        <ele>286.346</ele>
        <time>2018-03-20T16:40:01Z</time>
      </trkpt>
      <trkpt lat="43.405329" lon="-6.252650">
        <ele>287.188</ele>
        <time>2018-03-20T16:40:06Z</time>
      </trkpt>
      <trkpt lat="43.405360" lon="-6.252700">
        <ele>288.016</ele>
        <time>2018-03-20T16:40:09Z</time>
      </trkpt>
      <trkpt lat="43.405387" lon="-6.252757">
        <ele>288.108</ele>
        <time>2018-03-20T16:40:12Z</time>
      </trkpt>
      <trkpt lat="43.405415" lon="-6.252807">
        <ele>286.926</ele>
        <time>2018-03-20T16:40:15Z</time>
      </trkpt>
      <trkpt lat="43.405415" lon="-6.252807">
        <ele>286.987</ele>
        <time>2018-03-20T16:40:15Z</time>
      </trkpt>
      <trkpt lat="43.408620" lon="-6.260425">
        <ele>246.995</ele>
        <time>2018-05-18T22:17:56Z</time>
      </trkpt>
      <trkpt lat="43.408719" lon="-6.260367">
        <ele>246.249</ele>
        <time>2018-05-18T22:18:16Z</time>
      </trkpt>
      <trkpt lat="43.408805" lon="-6.260298">
        <ele>245.623</ele>
        <time>2018-05-18T22:18:36Z</time>
      </trkpt>
      <trkpt lat="43.408870" lon="-6.260549">
        <ele>245.108</ele>
        <time>2018-05-18T22:18:56Z</time>
      </trkpt>
      <trkpt lat="43.408961" lon="-6.260885">
        <ele>244.721</ele>
        <time>2018-05-18T22:19:16Z</time>
      </trkpt>
      <trkpt lat="43.409046" lon="-6.261112">
        <ele>245.494</ele>
        <time>2018-05-18T22:19:36Z</time>
      </trkpt>
      <trkpt lat="43.409132" lon="-6.261347">
        <ele>246.859</ele>
        <time>2018-05-18T22:19:56Z</time>
      </trkpt>
      <trkpt lat="43.409226" lon="-6.261605">
        <ele>247.719</ele>
        <time>2018-05-18T22:20:16Z</time>
      </trkpt>
      <trkpt lat="43.409317" lon="-6.261821">
        <ele>247.420</ele>
        <time>2018-05-18T22:20:36Z</time>
      </trkpt>
      <trkpt lat="43.409403" lon="-6.261998">
        <ele>247.089</ele>
        <time>2018-05-18T22:20:56Z</time>
      </trkpt>
      <trkpt lat="43.409559" lon="-6.262330">
        <ele>248.163</ele>
        <time>2018-05-18T22:21:16Z</time>
      </trkpt>
      <trkpt lat="43.409649" lon="-6.262484">
        <ele>249.343</ele>
        <time>2018-05-18T22:21:36Z</time>
      </trkpt>
      <trkpt lat="43.409802" lon="-6.262710">
        <ele>252.683</ele>
        <time>2018-05-18T22:21:56Z</time>
      </trkpt>
      <trkpt lat="43.409900" lon="-6.262856">
        <ele>254.225</ele>
        <time>2018-05-18T22:22:16Z</time>
      </trkpt>
      <trkpt lat="43.409968" lon="-6.262959">
        <ele>255.117</ele>
        <time>2018-05-18T22:22:36Z</time>
      </trkpt>
      <trkpt lat="43.410087" lon="-6.263083">
        <ele>255.208</ele>
        <time>2018-05-18T22:22:56Z</time>
      </trkpt>
      <trkpt lat="43.410232" lon="-6.263235">
        <ele>254.220</ele>
        <time>2018-05-18T22:23:16Z</time>
      </trkpt>
      <trkpt lat="43.410285" lon="-6.263402">
        <ele>254.233</ele>
        <time>2018-05-18T22:23:36Z</time>
      </trkpt>
      <trkpt lat="43.410338" lon="-6.263646">
        <ele>254.068</ele>
        <time>2018-05-18T22:23:56Z</time>
      </trkpt>
      <trkpt lat="43.410412" lon="-6.263876">
        <ele>252.638</ele>
        <time>2018-05-18T22:24:16Z</time>
      </trkpt>
      <trkpt lat="43.410470" lon="-6.264101">
        <ele>253.559</ele>
        <time>2018-05-18T22:24:36Z</time>
      </trkpt>
      <trkpt lat="43.410529" lon="-6.264298">
        <ele>255.018</ele>
        <time>2018-05-18T22:24:56Z</time>
      </trkpt>
      <trkpt lat="43.410563" lon="-6.264436">
        <ele>256.882</ele>
        <time>2018-05-18T22:25:16Z</time>
      </trkpt>
      <trkpt lat="43.410599" lon="-6.264582">
        <ele>257.912</ele>
        <time>2018-05-18T22:25:36Z</time>
      </trkpt>
      <trkpt lat="43.410636" lon="-6.264730">
        <ele>258.975</ele>
        <time>2018-05-18T22:25:56Z</time>
      </trkpt>
      <trkpt lat="43.410694" lon="-6.264955">
        <ele>259.728</ele>
        <time>2018-05-18T22:26:16Z</time>
      </trkpt>
      <trkpt lat="43.410721" lon="-6.265070">
        <ele>259.820</ele>
        <time>2018-05-18T22:26:36Z</time>
      </trkpt>
      <trkpt lat="43.410746" lon="-6.265185">
        <ele>260.008</ele>
        <time>2018-05-18T22:26:56Z</time>
      </trkpt>
      <trkpt lat="43.410793" lon="-6.265337">
        <ele>260.519</ele>
        <time>2018-05-18T22:27:16Z</time>
      </trkpt>
      <trkpt lat="43.410865" lon="-6.265621">
        <ele>263.162</ele>
        <time>2018-05-18T22:27:36Z</time>
      </trkpt>
      <trkpt lat="43.410938" lon="-6.265910">
        <ele>263.357</ele>
        <time>2018-05-18T22:27:56Z</time>
      </trkpt>
      <trkpt lat="43.411041" lon="-6.266116">
        <ele>261.857</ele>
        <time>2018-05-18T22:28:16Z</time>
      </trkpt>
      <trkpt lat="43.411130" lon="-6.266292">
        <ele>261.098</ele>
        <time>2018-05-18T22:28:36Z</time>
      </trkpt>
      <trkpt lat="43.411170" lon="-6.266388">
        <ele>261.257</ele>
        <time>2018-05-18T22:28:56Z</time>
      </trkpt>
      <trkpt lat="43.411262" lon="-6.266568">
        <ele>262.871</ele>
        <time>2018-05-18T22:29:16Z</time>
      </trkpt>
      <trkpt lat="43.411368" lon="-6.266779">
        <ele>263.771</ele>
        <time>2018-05-18T22:29:36Z</time>
      </trkpt>
      <trkpt lat="43.411497" lon="-6.267054">
        <ele>265.213</ele>
        <time>2018-05-18T22:29:56Z</time>
      </trkpt>
      <trkpt lat="43.411565" lon="-6.267211">
        <ele>265.143</ele>
        <time>2018-05-18T22:30:16Z</time>
      </trkpt>
      <trkpt lat="43.411698" lon="-6.267434">
        <ele>266.607</ele>
        <time>2018-05-18T22:30:36Z</time>
      </trkpt>
      <trkpt lat="43.411828" lon="-6.267629">
        <ele>271.208</ele>
        <time>2018-05-18T22:30:56Z</time>
      </trkpt>
      <trkpt lat="43.411944" lon="-6.267784">
        <ele>276.323</ele>
        <time>2018-05-18T22:31:16Z</time>
      </trkpt>
      <trkpt lat="43.412052" lon="-6.267878">
        <ele>280.356</ele>
        <time>2018-05-18T22:31:36Z</time>
      </trkpt>
      <trkpt lat="43.412189" lon="-6.268027">
        <ele>283.161</ele>
        <time>2018-05-18T22:31:56Z</time>
      </trkpt>
      <trkpt lat="43.412289" lon="-6.268082">
        <ele>282.971</ele>
        <time>2018-05-18T22:32:16Z</time>
      </trkpt>
      <trkpt lat="43.412415" lon="-6.268209">
        <ele>285.812</ele>
        <time>2018-05-18T22:32:36Z</time>
      </trkpt>
      <trkpt lat="43.412568" lon="-6.268394">
        <ele>290.871</ele>
        <time>2018-05-18T22:32:56Z</time>
      </trkpt>
      <trkpt lat="43.412690" lon="-6.268538">
        <ele>293.435</ele>
        <time>2018-05-18T22:33:16Z</time>
      </trkpt>
      <trkpt lat="43.412782" lon="-6.268644">
        <ele>293.865</ele>
        <time>2018-05-18T22:33:36Z</time>
      </trkpt>
      <trkpt lat="43.412930" lon="-6.268800">
        <ele>294.386</ele>
        <time>2018-05-18T22:33:56Z</time>
      </trkpt>
      <trkpt lat="43.413033" lon="-6.268910">
        <ele>292.860</ele>
        <time>2018-05-18T22:34:16Z</time>
      </trkpt>
      <trkpt lat="43.413173" lon="-6.269131">
        <ele>291.526</ele>
        <time>2018-05-18T22:34:36Z</time>
      </trkpt>
      <trkpt lat="43.413216" lon="-6.269213">
        <ele>290.908</ele>
        <time>2018-05-18T22:34:56Z</time>
      </trkpt>
      <trkpt lat="43.413384" lon="-6.269414">
        <ele>288.790</ele>
        <time>2018-05-18T22:35:16Z</time>
      </trkpt>
      <trkpt lat="43.413502" lon="-6.269569">
        <ele>290.593</ele>
        <time>2018-05-18T22:35:36Z</time>
      </trkpt>
      <trkpt lat="43.413624" lon="-6.269757">
        <ele>291.488</ele>
        <time>2018-05-18T22:35:56Z</time>
      </trkpt>
      <trkpt lat="43.413697" lon="-6.269905">
        <ele>292.588</ele>
        <time>2018-05-18T22:36:16Z</time>
      </trkpt>
      <trkpt lat="43.413742" lon="-6.270034">
        <ele>293.269</ele>
        <time>2018-05-18T22:36:36Z</time>
      </trkpt>
      <trkpt lat="43.413830" lon="-6.270250">
        <ele>294.448</ele>
        <time>2018-05-18T22:36:56Z</time>
      </trkpt>
      <trkpt lat="43.413882" lon="-6.270438">
        <ele>296.132</ele>
        <time>2018-05-18T22:37:16Z</time>
      </trkpt>
      <trkpt lat="43.413940" lon="-6.270635">
        <ele>298.292</ele>
        <time>2018-05-18T22:37:36Z</time>
      </trkpt>
      <trkpt lat="43.413972" lon="-6.270728">
        <ele>299.458</ele>
        <time>2018-05-18T22:37:56Z</time>
      </trkpt>
      <trkpt lat="43.414053" lon="-6.270897">
        <ele>301.552</ele>
        <time>2018-05-18T22:38:16Z</time>
      </trkpt>
      <trkpt lat="43.414109" lon="-6.271038">
        <ele>303.917</ele>
        <time>2018-05-18T22:38:36Z</time>
      </trkpt>
      <trkpt lat="43.414216" lon="-6.271232">
        <ele>303.808</ele>
        <time>2018-05-18T22:38:56Z</time>
      </trkpt>
      <trkpt lat="43.414407" lon="-6.271390">
        <ele>298.727</ele>
        <time>2018-05-18T22:39:16Z</time>
      </trkpt>
      <trkpt lat="43.414495" lon="-6.271462">
        <ele>297.860</ele>
        <time>2018-05-18T22:39:36Z</time>
      </trkpt>
      <trkpt lat="43.414612" lon="-6.271573">
        <ele>296.735</ele>
        <time>2018-05-18T22:39:56Z</time>
      </trkpt>
      <trkpt lat="43.414691" lon="-6.271659">
        <ele>295.125</ele>
        <time>2018-05-18T22:40:16Z</time>
      </trkpt>
      <trkpt lat="43.414777" lon="-6.271774">
        <ele>296.666</ele>
        <time>2018-05-18T22:40:36Z</time>
      </trkpt>
      <trkpt lat="43.414872" lon="-6.271894">
        <ele>297.985</ele>
        <time>2018-05-18T22:40:56Z</time>
      </trkpt>
      <trkpt lat="43.414981" lon="-6.271992">
        <ele>297.719</ele>
        <time>2018-05-18T22:41:16Z</time>
      </trkpt>
      <trkpt lat="43.415092" lon="-6.272082">
        <ele>299.869</ele>
        <time>2018-05-18T22:41:36Z</time>
      </trkpt>
      <trkpt lat="43.415254" lon="-6.272189">
        <ele>301.799</ele>
        <time>2018-05-18T22:41:56Z</time>
      </trkpt>
      <trkpt lat="43.415355" lon="-6.272239">
        <ele>304.507</ele>
        <time>2018-05-18T22:42:16Z</time>
      </trkpt>
      <trkpt lat="43.415372" lon="-6.272244">
        <ele>305.127</ele>
        <time>2018-05-18T22:42:36Z</time>
      </trkpt>
      <trkpt lat="43.415477" lon="-6.272293">
        <ele>309.108</ele>
        <time>2018-05-18T22:42:56Z</time>
      </trkpt>
      <trkpt lat="43.415602" lon="-6.272346">
        <ele>312.041</ele>
        <time>2018-05-18T22:43:16Z</time>
      </trkpt>
      <trkpt lat="43.415766" lon="-6.272417">
        <ele>313.714</ele>
        <time>2018-05-18T22:43:36Z</time>
      </trkpt>
      <trkpt lat="43.415879" lon="-6.272450">
        <ele>314.459</ele>
        <time>2018-05-18T22:43:56Z</time>
      </trkpt>
      <trkpt lat="43.415977" lon="-6.272500">
        <ele>315.549</ele>
        <time>2018-05-18T22:44:16Z</time>
      </trkpt>
      <trkpt lat="43.416126" lon="-6.272584">
        <ele>320.130</ele>
        <time>2018-05-18T22:44:36Z</time>
      </trkpt>
      <trkpt lat="43.416295" lon="-6.272650">
        <ele>321.999</ele>
        <time>2018-05-18T22:44:56Z</time>
      </trkpt>
      <trkpt lat="43.416551" lon="-6.272728">
        <ele>320.723</ele>
        <time>2018-05-18T22:45:16Z</time>
      </trkpt>
      <trkpt lat="43.416673" lon="-6.272804">
        <ele>318.813</ele>
        <time>2018-05-18T22:45:36Z</time>
      </trkpt>
      <trkpt lat="43.416772" lon="-6.272985">
        <ele>322.498</ele>
        <time>2018-05-18T22:45:56Z</time>
      </trkpt>
      <trkpt lat="43.416831" lon="-6.273142">
        <ele>323.115</ele>
        <time>2018-05-18T22:46:16Z</time>
      </trkpt>
      <trkpt lat="43.416840" lon="-6.273421">
        <ele>325.526</ele>
        <time>2018-05-18T22:46:36Z</time>
      </trkpt>
      <trkpt lat="43.416849" lon="-6.273591">
        <ele>327.808</ele>
        <time>2018-05-18T22:46:56Z</time>
      </trkpt>
      <trkpt lat="43.416862" lon="-6.273757">
        <ele>329.511</ele>
        <time>2018-05-18T22:47:16Z</time>
      </trkpt>
      <trkpt lat="43.416878" lon="-6.273943">
        <ele>331.044</ele>
        <time>2018-05-18T22:47:36Z</time>
      </trkpt>
      <trkpt lat="43.416935" lon="-6.274147">
        <ele>330.289</ele>
        <time>2018-05-18T22:47:56Z</time>
      </trkpt>
      <trkpt lat="43.416991" lon="-6.274300">
        <ele>332.179</ele>
        <time>2018-05-18T22:48:16Z</time>
      </trkpt>
      <trkpt lat="43.417037" lon="-6.274514">
        <ele>334.290</ele>
        <time>2018-05-18T22:48:36Z</time>
      </trkpt>
      <trkpt lat="43.417064" lon="-6.274896">
        <ele>335.459</ele>
        <time>2018-05-18T22:48:56Z</time>
      </trkpt>
      <trkpt lat="43.417125" lon="-6.275029">
        <ele>333.513</ele>
        <time>2018-05-18T22:49:16Z</time>
      </trkpt>
      <trkpt lat="43.417192" lon="-6.275203">
        <ele>330.013</ele>
        <time>2018-05-18T22:49:36Z</time>
      </trkpt>
      <trkpt lat="43.417307" lon="-6.275368">
        <ele>327.541</ele>
        <time>2018-05-18T22:49:56Z</time>
      </trkpt>
      <trkpt lat="43.417364" lon="-6.275521">
        <ele>326.281</ele>
        <time>2018-05-18T22:50:16Z</time>
      </trkpt>
      <trkpt lat="43.417398" lon="-6.275764">
        <ele>325.909</ele>
        <time>2018-05-18T22:50:36Z</time>
      </trkpt>
      <trkpt lat="43.417373" lon="-6.275946">
        <ele>326.908</ele>
        <time>2018-05-18T22:50:56Z</time>
      </trkpt>
      <trkpt lat="43.417335" lon="-6.276140">
        <ele>329.416</ele>
        <time>2018-05-18T22:51:16Z</time>
      </trkpt>
      <trkpt lat="43.417262" lon="-6.276322">
        <ele>332.869</ele>
        <time>2018-05-18T22:51:36Z</time>
      </trkpt>
      <trkpt lat="43.417129" lon="-6.276509">
        <ele>339.354</ele>
        <time>2018-05-18T22:51:56Z</time>
      </trkpt>
      <trkpt lat="43.417003" lon="-6.276636">
        <ele>344.844</ele>
        <time>2018-05-18T22:52:16Z</time>
      </trkpt>
      <trkpt lat="43.416926" lon="-6.276821">
        <ele>345.325</ele>
        <time>2018-05-18T22:52:36Z</time>
      </trkpt>
      <trkpt lat="43.416858" lon="-6.277049">
        <ele>347.644</ele>
        <time>2018-05-18T22:52:56Z</time>
      </trkpt>
      <trkpt lat="43.416821" lon="-6.277185">
        <ele>349.088</ele>
        <time>2018-05-18T22:53:16Z</time>
      </trkpt>
      <trkpt lat="43.416783" lon="-6.277326">
        <ele>350.338</ele>
        <time>2018-05-18T22:53:36Z</time>
      </trkpt>
      <trkpt lat="43.416738" lon="-6.277596">
        <ele>352.127</ele>
        <time>2018-05-18T22:53:56Z</time>
      </trkpt>
      <trkpt lat="43.416714" lon="-6.277769">
        <ele>351.768</ele>
        <time>2018-05-18T22:54:16Z</time>
      </trkpt>
      <trkpt lat="43.416675" lon="-6.277980">
        <ele>354.214</ele>
        <time>2018-05-18T22:54:36Z</time>
      </trkpt>
      <trkpt lat="43.416639" lon="-6.278189">
        <ele>356.208</ele>
        <time>2018-05-18T22:54:56Z</time>
      </trkpt>
      <trkpt lat="43.416587" lon="-6.278443">
        <ele>358.194</ele>
        <time>2018-05-18T22:55:16Z</time>
      </trkpt>
      <trkpt lat="43.416571" lon="-6.278671">
        <ele>359.267</ele>
        <time>2018-05-18T22:55:36Z</time>
      </trkpt>
      <trkpt lat="43.416565" lon="-6.278879">
        <ele>359.742</ele>
        <time>2018-05-18T22:55:56Z</time>
      </trkpt>
      <trkpt lat="43.416572" lon="-6.279065">
        <ele>359.642</ele>
        <time>2018-05-18T22:56:16Z</time>
      </trkpt>
      <trkpt lat="43.416597" lon="-6.279364">
        <ele>359.613</ele>
        <time>2018-05-18T22:56:36Z</time>
      </trkpt>
      <trkpt lat="43.416628" lon="-6.279574">
        <ele>360.542</ele>
        <time>2018-05-18T22:56:56Z</time>
      </trkpt>
      <trkpt lat="43.416702" lon="-6.279820">
        <ele>361.626</ele>
        <time>2018-05-18T22:57:16Z</time>
      </trkpt>
      <trkpt lat="43.416748" lon="-6.279970">
        <ele>362.346</ele>
        <time>2018-05-18T22:57:36Z</time>
      </trkpt>
      <trkpt lat="43.416761" lon="-6.280145">
        <ele>363.593</ele>
        <time>2018-05-18T22:57:56Z</time>
      </trkpt>
      <trkpt lat="43.416754" lon="-6.280298">
        <ele>365.065</ele>
        <time>2018-05-18T22:58:16Z</time>
      </trkpt>
      <trkpt lat="43.416745" lon="-6.280428">
        <ele>366.021</ele>
        <time>2018-05-18T22:58:36Z</time>
      </trkpt>
      <trkpt lat="43.416809" lon="-6.280646">
        <ele>365.308</ele>
        <time>2018-05-18T22:58:56Z</time>
      </trkpt>
      <trkpt lat="43.416855" lon="-6.281038">
        <ele>370.651</ele>
        <time>2018-05-18T22:59:16Z</time>
      </trkpt>
      <trkpt lat="43.416886" lon="-6.281263">
        <ele>368.714</ele>
        <time>2018-05-18T22:59:36Z</time>
      </trkpt>
      <trkpt lat="43.416965" lon="-6.281409">
        <ele>362.899</ele>
        <time>2018-05-18T22:59:56Z</time>
      </trkpt>
      <trkpt lat="43.417024" lon="-6.281555">
        <ele>362.749</ele>
        <time>2018-05-18T23:00:16Z</time>
      </trkpt>
      <trkpt lat="43.417022" lon="-6.281934">
        <ele>370.820</ele>
        <time>2018-05-18T23:00:36Z</time>
      </trkpt>
      <trkpt lat="43.417017" lon="-6.282283">
        <ele>376.849</ele>
        <time>2018-05-18T23:00:56Z</time>
      </trkpt>
      <trkpt lat="43.416972" lon="-6.282631">
        <ele>379.743</ele>
        <time>2018-05-18T23:01:16Z</time>
      </trkpt>
      <trkpt lat="43.416945" lon="-6.282894">
        <ele>381.033</ele>
        <time>2018-05-18T23:01:36Z</time>
      </trkpt>
      <trkpt lat="43.416911" lon="-6.283118">
        <ele>383.353</ele>
        <time>2018-05-18T23:01:56Z</time>
      </trkpt>
      <trkpt lat="43.416907" lon="-6.283142">
        <ele>383.404</ele>
        <time>2018-05-18T23:02:16Z</time>
      </trkpt>
      <trkpt lat="43.416881" lon="-6.283401">
        <ele>383.614</ele>
        <time>2018-05-18T23:02:36Z</time>
      </trkpt>
      <trkpt lat="43.416863" lon="-6.283601">
        <ele>383.408</ele>
        <time>2018-05-18T23:02:56Z</time>
      </trkpt>
      <trkpt lat="43.416844" lon="-6.284037">
        <ele>388.747</ele>
        <time>2018-05-18T23:03:16Z</time>
      </trkpt>
      <trkpt lat="43.416829" lon="-6.284110">
        <ele>389.980</ele>
        <time>2018-05-18T23:03:36Z</time>
      </trkpt>
      <trkpt lat="43.416819" lon="-6.284261">
        <ele>390.785</ele>
        <time>2018-05-18T23:03:56Z</time>
      </trkpt>
      <trkpt lat="43.416814" lon="-6.284437">
        <ele>391.085</ele>
        <time>2018-05-18T23:04:16Z</time>
      </trkpt>
      <trkpt lat="43.416803" lon="-6.284660">
        <ele>392.866</ele>
        <time>2018-05-18T23:04:36Z</time>
      </trkpt>
      <trkpt lat="43.416794" lon="-6.284854">
        <ele>394.565</ele>
        <time>2018-05-18T23:04:56Z</time>
      </trkpt>
      <trkpt lat="43.416797" lon="-6.284983">
        <ele>395.379</ele>
        <time>2018-05-18T23:05:16Z</time>
      </trkpt>
      <trkpt lat="43.416810" lon="-6.285305">
        <ele>397.029</ele>
        <time>2018-05-18T23:05:36Z</time>
      </trkpt>
      <trkpt lat="43.416815" lon="-6.285516">
        <ele>394.821</ele>
        <time>2018-05-18T23:05:56Z</time>
      </trkpt>
      <trkpt lat="43.416820" lon="-6.285750">
        <ele>393.941</ele>
        <time>2018-05-18T23:06:16Z</time>
      </trkpt>
      <trkpt lat="43.416838" lon="-6.285976">
        <ele>393.805</ele>
        <time>2018-05-18T23:06:36Z</time>
      </trkpt>
      <trkpt lat="43.416837" lon="-6.286295">
        <ele>397.908</ele>
        <time>2018-05-18T23:06:56Z</time>
      </trkpt>
      <trkpt lat="43.416840" lon="-6.286443">
        <ele>399.944</ele>
        <time>2018-05-18T23:07:16Z</time>
      </trkpt>
      <trkpt lat="43.416847" lon="-6.286609">
        <ele>401.657</ele>
        <time>2018-05-18T23:07:36Z</time>
      </trkpt>
      <trkpt lat="43.416862" lon="-6.286914">
        <ele>405.182</ele>
        <time>2018-05-18T23:07:56Z</time>
      </trkpt>
      <trkpt lat="43.416892" lon="-6.287135">
        <ele>406.622</ele>
        <time>2018-05-18T23:08:16Z</time>
      </trkpt>
      <trkpt lat="43.416917" lon="-6.287315">
        <ele>408.053</ele>
        <time>2018-05-18T23:08:36Z</time>
      </trkpt>
      <trkpt lat="43.416939" lon="-6.287467">
        <ele>408.862</ele>
        <time>2018-05-18T23:08:56Z</time>
      </trkpt>
      <trkpt lat="43.416962" lon="-6.287686">
        <ele>410.566</ele>
        <time>2018-05-18T23:09:16Z</time>
      </trkpt>
      <trkpt lat="43.416995" lon="-6.287915">
        <ele>411.496</ele>
        <time>2018-05-18T23:09:36Z</time>
      </trkpt>
      <trkpt lat="43.417014" lon="-6.288012">
        <ele>411.484</ele>
        <time>2018-05-18T23:09:56Z</time>
      </trkpt>
      <trkpt lat="43.417030" lon="-6.288169">
        <ele>413.207</ele>
        <time>2018-05-18T23:10:16Z</time>
      </trkpt>
      <trkpt lat="43.417050" lon="-6.288377">
        <ele>415.517</ele>
        <time>2018-05-18T23:10:36Z</time>
      </trkpt>
      <trkpt lat="43.417079" lon="-6.288645">
        <ele>416.108</ele>
        <time>2018-05-18T23:10:56Z</time>
      </trkpt>
      <trkpt lat="43.417110" lon="-6.288954">
        <ele>415.520</ele>
        <time>2018-05-18T23:11:16Z</time>
      </trkpt>
      <trkpt lat="43.417135" lon="-6.289168">
        <ele>416.023</ele>
        <time>2018-05-18T23:11:36Z</time>
      </trkpt>
      <trkpt lat="43.417162" lon="-6.289440">
        <ele>415.518</ele>
        <time>2018-05-18T23:11:56Z</time>
      </trkpt>
      <trkpt lat="43.417170" lon="-6.289679">
        <ele>419.438</ele>
        <time>2018-05-18T23:12:16Z</time>
      </trkpt>
      <trkpt lat="43.417184" lon="-6.289897">
        <ele>421.459</ele>
        <time>2018-05-18T23:12:36Z</time>
      </trkpt>
      <trkpt lat="43.417213" lon="-6.290056">
        <ele>421.498</ele>
        <time>2018-05-18T23:12:56Z</time>
      </trkpt>
      <trkpt lat="43.417126" lon="-6.290281">
        <ele>425.542</ele>
        <time>2018-05-18T23:13:16Z</time>
      </trkpt>
      <trkpt lat="43.417103" lon="-6.290502">
        <ele>425.532</ele>
        <time>2018-05-18T23:13:36Z</time>
      </trkpt>
      <trkpt lat="43.417137" lon="-6.290649">
        <ele>421.993</ele>
        <time>2018-05-18T23:13:56Z</time>
      </trkpt>
      <trkpt lat="43.417193" lon="-6.290741">
        <ele>417.665</ele>
        <time>2018-05-18T23:14:16Z</time>
      </trkpt>
      <trkpt lat="43.417234" lon="-6.290821">
        <ele>414.821</ele>
        <time>2018-05-18T23:14:36Z</time>
      </trkpt>
      <trkpt lat="43.417204" lon="-6.291041">
        <ele>418.008</ele>
        <time>2018-05-18T23:14:56Z</time>
      </trkpt>
      <trkpt lat="43.417193" lon="-6.291221">
        <ele>419.071</ele>
        <time>2018-05-18T23:15:16Z</time>
      </trkpt>
      <trkpt lat="43.417173" lon="-6.291341">
        <ele>419.574</ele>
        <time>2018-05-18T23:15:36Z</time>
      </trkpt>
      <trkpt lat="43.417155" lon="-6.291477">
        <ele>418.789</ele>
        <time>2018-05-18T23:15:56Z</time>
      </trkpt>
      <trkpt lat="43.417150" lon="-6.291622">
        <ele>416.719</ele>
        <time>2018-05-18T23:16:16Z</time>
      </trkpt>
      <trkpt lat="43.417160" lon="-6.291723">
        <ele>415.620</ele>
        <time>2018-05-18T23:16:36Z</time>
      </trkpt>
      <trkpt lat="43.417200" lon="-6.291810">
        <ele>414.799</ele>
        <time>2018-05-18T23:16:56Z</time>
      </trkpt>
      <trkpt lat="43.417240" lon="-6.291925">
        <ele>414.423</ele>
        <time>2018-05-18T23:17:16Z</time>
      </trkpt>
      <trkpt lat="43.417286" lon="-6.292019">
        <ele>417.213</ele>
        <time>2018-05-18T23:17:36Z</time>
      </trkpt>
      <trkpt lat="43.417313" lon="-6.292056">
        <ele>418.899</ele>
        <time>2018-05-18T23:17:56Z</time>
      </trkpt>
      <trkpt lat="43.417342" lon="-6.292080">
        <ele>420.107</ele>
        <time>2018-05-18T23:18:16Z</time>
      </trkpt>
      <trkpt lat="43.417355" lon="-6.292026">
        <ele>419.127</ele>
        <time>2018-05-18T23:18:36Z</time>
      </trkpt>
      <trkpt lat="43.417363" lon="-6.291993">
        <ele>418.408</ele>
        <time>2018-05-18T23:18:56Z</time>
      </trkpt>
      <trkpt lat="43.417335" lon="-6.292019">
        <ele>418.441</ele>
        <time>2018-05-18T23:19:16Z</time>
      </trkpt>
      <trkpt lat="43.417290" lon="-6.291953">
        <ele>415.774</ele>
        <time>2018-05-18T23:19:36Z</time>
      </trkpt>
      <trkpt lat="43.417209" lon="-6.291871">
        <ele>414.419</ele>
        <time>2018-05-18T23:19:56Z</time>
      </trkpt>
      <trkpt lat="43.417153" lon="-6.291787">
        <ele>415.379</ele>
        <time>2018-05-18T23:20:16Z</time>
      </trkpt>
      <trkpt lat="43.417137" lon="-6.291709">
        <ele>416.050</ele>
        <time>2018-05-18T23:20:36Z</time>
      </trkpt>
      <trkpt lat="43.417141" lon="-6.291522">
        <ele>418.339</ele>
        <time>2018-05-18T23:20:56Z</time>
      </trkpt>
      <trkpt lat="43.417144" lon="-6.291409">
        <ele>420.063</ele>
        <time>2018-05-18T23:21:16Z</time>
      </trkpt>
      <trkpt lat="43.417175" lon="-6.291240">
        <ele>419.533</ele>
        <time>2018-05-18T23:21:36Z</time>
      </trkpt>
      <trkpt lat="43.417189" lon="-6.291144">
        <ele>419.237</ele>
        <time>2018-05-18T23:21:56Z</time>
      </trkpt>
      <trkpt lat="43.417191" lon="-6.291017">
        <ele>418.349</ele>
        <time>2018-05-18T23:22:16Z</time>
      </trkpt>
      <trkpt lat="43.417216" lon="-6.290893">
        <ele>415.913</ele>
        <time>2018-05-18T23:22:36Z</time>
      </trkpt>
      <trkpt lat="43.417205" lon="-6.290804">
        <ele>416.208</ele>
        <time>2018-05-18T23:22:56Z</time>
      </trkpt>
      <trkpt lat="43.417169" lon="-6.290722">
        <ele>419.115</ele>
        <time>2018-05-18T23:23:16Z</time>
      </trkpt>
      <trkpt lat="43.417130" lon="-6.290666">
        <ele>422.158</ele>
        <time>2018-05-18T23:23:36Z</time>
      </trkpt>
      <trkpt lat="43.417092" lon="-6.290551">
        <ele>426.063</ele>
        <time>2018-05-18T23:23:56Z</time>
      </trkpt>
      <trkpt lat="43.417085" lon="-6.290450">
        <ele>426.883</ele>
        <time>2018-05-18T23:24:16Z</time>
      </trkpt>
      <trkpt lat="43.417107" lon="-6.290323">
        <ele>426.214</ele>
        <time>2018-05-18T23:24:36Z</time>
      </trkpt>
      <trkpt lat="43.417139" lon="-6.290206">
        <ele>424.833</ele>
        <time>2018-05-18T23:24:56Z</time>
      </trkpt>
      <trkpt lat="43.417175" lon="-6.290115">
        <ele>423.167</ele>
        <time>2018-05-18T23:25:16Z</time>
      </trkpt>
      <trkpt lat="43.417198" lon="-6.290047">
        <ele>422.147</ele>
        <time>2018-05-18T23:25:36Z</time>
      </trkpt>
      <trkpt lat="43.417177" lon="-6.289927">
        <ele>422.198</ele>
        <time>2018-05-18T23:25:56Z</time>
      </trkpt>
      <trkpt lat="43.417162" lon="-6.289761">
        <ele>421.115</ele>
        <time>2018-05-18T23:26:16Z</time>
      </trkpt>
      <trkpt lat="43.417137" lon="-6.289777">
        <ele>422.726</ele>
        <time>2018-05-18T23:26:36Z</time>
      </trkpt>
      <trkpt lat="43.417112" lon="-6.289988">
        <ele>425.708</ele>
        <time>2018-05-18T23:26:56Z</time>
      </trkpt>
      <trkpt lat="43.417105" lon="-6.290178">
        <ele>426.371</ele>
        <time>2018-05-18T23:27:16Z</time>
      </trkpt>
      <trkpt lat="43.417081" lon="-6.290267">
        <ele>427.674</ele>
        <time>2018-05-18T23:27:36Z</time>
      </trkpt>
      <trkpt lat="43.417054" lon="-6.290415">
        <ele>428.639</ele>
        <time>2018-05-18T23:27:56Z</time>
      </trkpt>
      <trkpt lat="43.417040" lon="-6.290511">
        <ele>429.229</ele>
        <time>2018-05-18T23:28:16Z</time>
      </trkpt>
      <trkpt lat="43.417020" lon="-6.290631">
        <ele>429.020</ele>
        <time>2018-05-18T23:28:36Z</time>
      </trkpt>
      <trkpt lat="43.416993" lon="-6.290750">
        <ele>428.279</ele>
        <time>2018-05-18T23:28:56Z</time>
      </trkpt>
      <trkpt lat="43.416986" lon="-6.290863">
        <ele>426.973</ele>
        <time>2018-05-18T23:29:16Z</time>
      </trkpt>
      <trkpt lat="43.416977" lon="-6.290961">
        <ele>427.163</ele>
        <time>2018-05-18T23:29:36Z</time>
      </trkpt>
      <trkpt lat="43.416956" lon="-6.291121">
        <ele>427.594</ele>
        <time>2018-05-18T23:29:56Z</time>
      </trkpt>
      <trkpt lat="43.416945" lon="-6.291229">
        <ele>427.157</ele>
        <time>2018-05-18T23:30:16Z</time>
      </trkpt>
      <trkpt lat="43.416920" lon="-6.291367">
        <ele>427.622</ele>
        <time>2018-05-18T23:30:36Z</time>
      </trkpt>
      <trkpt lat="43.416832" lon="-6.291569">
        <ele>427.908</ele>
        <time>2018-05-18T23:30:56Z</time>
      </trkpt>
      <trkpt lat="43.416726" lon="-6.291731">
        <ele>430.041</ele>
        <time>2018-05-18T23:31:16Z</time>
      </trkpt>
      <trkpt lat="43.416640" lon="-6.291811">
        <ele>432.684</ele>
        <time>2018-05-18T23:31:36Z</time>
      </trkpt>
      <trkpt lat="43.416559" lon="-6.291902">
        <ele>435.389</ele>
        <time>2018-05-18T23:31:56Z</time>
      </trkpt>
      <trkpt lat="43.416489" lon="-6.291883">
        <ele>440.499</ele>
        <time>2018-05-18T23:32:16Z</time>
      </trkpt>
      <trkpt lat="43.416449" lon="-6.291583">
        <ele>451.850</ele>
        <time>2018-05-18T23:32:36Z</time>
      </trkpt>
      <trkpt lat="43.416499" lon="-6.291234">
        <ele>454.449</ele>
        <time>2018-05-18T23:32:56Z</time>
      </trkpt>
      <trkpt lat="43.416435" lon="-6.291131">
        <ele>459.213</ele>
        <time>2018-05-18T23:33:16Z</time>
      </trkpt>
      <trkpt lat="43.416388" lon="-6.291079">
        <ele>462.543</ele>
        <time>2018-05-18T23:33:36Z</time>
      </trkpt>
      <trkpt lat="43.416316" lon="-6.291241">
        <ele>463.495</ele>
        <time>2018-05-18T23:33:56Z</time>
      </trkpt>
      <trkpt lat="43.416230" lon="-6.291358">
        <ele>465.449</ele>
        <time>2018-05-18T23:34:16Z</time>
      </trkpt>
      <trkpt lat="43.416154" lon="-6.291508">
        <ele>466.523</ele>
        <time>2018-05-18T23:34:36Z</time>
      </trkpt>
      <trkpt lat="43.416068" lon="-6.291642">
        <ele>467.808</ele>
        <time>2018-05-18T23:34:56Z</time>
      </trkpt>
      <trkpt lat="43.415982" lon="-6.291698">
        <ele>468.731</ele>
        <time>2018-05-18T23:35:16Z</time>
      </trkpt>
      <trkpt lat="43.415865" lon="-6.291731">
        <ele>470.764</ele>
        <time>2018-05-18T23:35:36Z</time>
      </trkpt>
      <trkpt lat="43.415781" lon="-6.291766">
        <ele>472.359</ele>
        <time>2018-05-18T23:35:56Z</time>
      </trkpt>
      <trkpt lat="43.415728" lon="-6.291909">
        <ele>473.829</ele>
        <time>2018-05-18T23:36:16Z</time>
      </trkpt>
      <trkpt lat="43.415599" lon="-6.292008">
        <ele>476.390</ele>
        <time>2018-05-18T23:36:36Z</time>
      </trkpt>
      <trkpt lat="43.415554" lon="-6.292315">
        <ele>478.079</ele>
        <time>2018-05-18T23:36:56Z</time>
      </trkpt>
      <trkpt lat="43.415504" lon="-6.292674">
        <ele>479.913</ele>
        <time>2018-05-18T23:37:16Z</time>
      </trkpt>
      <trkpt lat="43.415463" lon="-6.292913">
        <ele>482.523</ele>
        <time>2018-05-18T23:37:36Z</time>
      </trkpt>
      <trkpt lat="43.415441" lon="-6.293123">
        <ele>484.058</ele>
        <time>2018-05-18T23:37:56Z</time>
      </trkpt>
      <trkpt lat="43.415397" lon="-6.293327">
        <ele>484.352</ele>
        <time>2018-05-18T23:38:16Z</time>
      </trkpt>
      <trkpt lat="43.415326" lon="-6.293661">
        <ele>483.717</ele>
        <time>2018-05-18T23:38:36Z</time>
      </trkpt>
      <trkpt lat="43.415242" lon="-6.294018">
        <ele>484.408</ele>
        <time>2018-05-18T23:38:56Z</time>
      </trkpt>
      <trkpt lat="43.415172" lon="-6.294288">
        <ele>483.427</ele>
        <time>2018-05-18T23:39:16Z</time>
      </trkpt>
      <trkpt lat="43.415127" lon="-6.294440">
        <ele>482.040</ele>
        <time>2018-05-18T23:39:36Z</time>
      </trkpt>
      <trkpt lat="43.415073" lon="-6.294630">
        <ele>480.465</ele>
        <time>2018-05-18T23:39:56Z</time>
      </trkpt>
      <trkpt lat="43.415023" lon="-6.294738">
        <ele>480.845</ele>
        <time>2018-05-18T23:40:16Z</time>
      </trkpt>
      <trkpt lat="43.414917" lon="-6.295012">
        <ele>483.496</ele>
        <time>2018-05-18T23:40:36Z</time>
      </trkpt>
      <trkpt lat="43.414861" lon="-6.295163">
        <ele>486.455</ele>
        <time>2018-05-18T23:40:56Z</time>
      </trkpt>
      <trkpt lat="43.414800" lon="-6.295357">
        <ele>488.899</ele>
        <time>2018-05-18T23:41:16Z</time>
      </trkpt>
      <trkpt lat="43.414716" lon="-6.295588">
        <ele>492.579</ele>
        <time>2018-05-18T23:41:36Z</time>
      </trkpt>
      <trkpt lat="43.414639" lon="-6.295793">
        <ele>490.879</ele>
        <time>2018-05-18T23:41:56Z</time>
      </trkpt>
      <trkpt lat="43.414563" lon="-6.296009">
        <ele>489.105</ele>
        <time>2018-05-18T23:42:16Z</time>
      </trkpt>
      <trkpt lat="43.414494" lon="-6.296182">
        <ele>488.725</ele>
        <time>2018-05-18T23:42:36Z</time>
      </trkpt>
      <trkpt lat="43.414417" lon="-6.296319">
        <ele>489.808</ele>
        <time>2018-05-18T23:42:56Z</time>
      </trkpt>
      <trkpt lat="43.414317" lon="-6.296499">
        <ele>489.469</ele>
        <time>2018-05-18T23:43:16Z</time>
      </trkpt>
      <trkpt lat="43.414227" lon="-6.296621">
        <ele>490.012</ele>
        <time>2018-05-18T23:43:36Z</time>
      </trkpt>
      <trkpt lat="43.414101" lon="-6.296733">
        <ele>491.487</ele>
        <time>2018-05-18T23:43:56Z</time>
      </trkpt>
      <trkpt lat="43.413954" lon="-6.296881">
        <ele>491.987</ele>
        <time>2018-05-18T23:44:16Z</time>
      </trkpt>
      <trkpt lat="43.413798" lon="-6.297027">
        <ele>493.488</ele>
        <time>2018-05-18T23:44:36Z</time>
      </trkpt>
      <trkpt lat="43.413670" lon="-6.297186">
        <ele>492.917</ele>
        <time>2018-05-18T23:44:56Z</time>
      </trkpt>
      <trkpt lat="43.413499" lon="-6.297400">
        <ele>494.531</ele>
        <time>2018-05-18T23:45:16Z</time>
      </trkpt>
      <trkpt lat="43.413420" lon="-6.297487">
        <ele>495.131</ele>
        <time>2018-05-18T23:45:36Z</time>
      </trkpt>
      <trkpt lat="43.413361" lon="-6.297630">
        <ele>496.022</ele>
        <time>2018-05-18T23:45:56Z</time>
      </trkpt>
      <trkpt lat="43.413327" lon="-6.297918">
        <ele>499.262</ele>
        <time>2018-05-18T23:46:16Z</time>
      </trkpt>
      <trkpt lat="43.413404" lon="-6.298080">
        <ele>501.708</ele>
        <time>2018-05-18T23:46:36Z</time>
      </trkpt>
      <trkpt lat="43.413514" lon="-6.298160">
        <ele>503.308</ele>
        <time>2018-05-18T23:46:56Z</time>
      </trkpt>
      <trkpt lat="43.413654" lon="-6.298190">
        <ele>504.384</ele>
        <time>2018-05-18T23:47:16Z</time>
      </trkpt>
      <trkpt lat="43.413830" lon="-6.298161">
        <ele>502.877</ele>
        <time>2018-05-18T23:47:36Z</time>
      </trkpt>
      <trkpt lat="43.413995" lon="-6.298110">
        <ele>499.992</ele>
        <time>2018-05-18T23:47:56Z</time>
      </trkpt>
      <trkpt lat="43.414157" lon="-6.298072">
        <ele>497.842</ele>
        <time>2018-05-18T23:48:16Z</time>
      </trkpt>
      <trkpt lat="43.414364" lon="-6.298024">
        <ele>495.363</ele>
        <time>2018-05-18T23:48:36Z</time>
      </trkpt>
      <trkpt lat="43.414606" lon="-6.298081">
        <ele>493.682</ele>
        <time>2018-05-18T23:48:56Z</time>
      </trkpt>
      <trkpt lat="43.414705" lon="-6.298193">
        <ele>492.576</ele>
        <time>2018-05-18T23:49:16Z</time>
      </trkpt>
      <trkpt lat="43.414762" lon="-6.298527">
        <ele>497.126</ele>
        <time>2018-05-18T23:49:36Z</time>
      </trkpt>
      <trkpt lat="43.414828" lon="-6.299279">
        <ele>510.175</ele>
        <time>2018-05-18T23:49:56Z</time>
      </trkpt>
      <trkpt lat="43.414894" lon="-6.299453">
        <ele>511.428</ele>
        <time>2018-05-18T23:50:16Z</time>
      </trkpt>
      <trkpt lat="43.414912" lon="-6.299538">
        <ele>511.920</ele>
        <time>2018-05-18T23:50:36Z</time>
      </trkpt>
      <trkpt lat="43.414851" lon="-6.299660">
        <ele>514.508</ele>
        <time>2018-05-18T23:50:56Z</time>
      </trkpt>
      <trkpt lat="43.414795" lon="-6.299796">
        <ele>517.179</ele>
        <time>2018-05-18T23:51:16Z</time>
      </trkpt>
      <trkpt lat="43.414806" lon="-6.299880">
        <ele>517.672</ele>
        <time>2018-05-18T23:51:36Z</time>
      </trkpt>
      <trkpt lat="43.414836" lon="-6.300055">
        <ele>518.477</ele>
        <time>2018-05-18T23:51:56Z</time>
      </trkpt>
      <trkpt lat="43.414998" lon="-6.300663">
        <ele>526.097</ele>
        <time>2018-05-18T23:52:16Z</time>
      </trkpt>
      <trkpt lat="43.415088" lon="-6.300827">
        <ele>529.268</ele>
        <time>2018-05-18T23:52:36Z</time>
      </trkpt>
      <trkpt lat="43.415311" lon="-6.300810">
        <ele>528.957</ele>
        <time>2018-05-18T23:52:56Z</time>
      </trkpt>
      <trkpt lat="43.415461" lon="-6.300810">
        <ele>526.841</ele>
        <time>2018-05-18T23:53:16Z</time>
      </trkpt>
      <trkpt lat="43.415554" lon="-6.300842">
        <ele>526.191</ele>
        <time>2018-05-18T23:53:36Z</time>
      </trkpt>
      <trkpt lat="43.415640" lon="-6.300995">
        <ele>524.555</ele>
        <time>2018-05-18T23:53:56Z</time>
      </trkpt>
      <trkpt lat="43.415617" lon="-6.301340">
        <ele>526.707</ele>
        <time>2018-05-18T23:54:16Z</time>
      </trkpt>
      <trkpt lat="43.415570" lon="-6.301546">
        <ele>529.017</ele>
        <time>2018-05-18T23:54:36Z</time>
      </trkpt>
      <trkpt lat="43.415529" lon="-6.301699">
        <ele>530.708</ele>
        <time>2018-05-18T23:54:56Z</time>
      </trkpt>
      <trkpt lat="43.415475" lon="-6.302067">
        <ele>532.837</ele>
        <time>2018-05-18T23:55:16Z</time>
      </trkpt>
      <trkpt lat="43.415399" lon="-6.302351">
        <ele>536.860</ele>
        <time>2018-05-18T23:55:36Z</time>
      </trkpt>
      <trkpt lat="43.415362" lon="-6.302539">
        <ele>539.225</ele>
        <time>2018-05-18T23:55:56Z</time>
      </trkpt>
      <trkpt lat="43.415340" lon="-6.302747">
        <ele>541.335</ele>
        <time>2018-05-18T23:56:16Z</time>
      </trkpt>
      <trkpt lat="43.415320" lon="-6.302916">
        <ele>544.386</ele>
        <time>2018-05-18T23:56:36Z</time>
      </trkpt>
      <trkpt lat="43.415322" lon="-6.303129">
        <ele>547.375</ele>
        <time>2018-05-18T23:56:56Z</time>
      </trkpt>
      <trkpt lat="43.415335" lon="-6.303366">
        <ele>549.699</ele>
        <time>2018-05-18T23:57:16Z</time>
      </trkpt>
      <trkpt lat="43.415365" lon="-6.303547">
        <ele>548.579</ele>
        <time>2018-05-18T23:57:36Z</time>
      </trkpt>
      <trkpt lat="43.415384" lon="-6.303656">
        <ele>547.521</ele>
        <time>2018-05-18T23:57:56Z</time>
      </trkpt>
      <trkpt lat="43.415342" lon="-6.303839">
        <ele>548.041</ele>
        <time>2018-05-18T23:58:16Z</time>
      </trkpt>
      <trkpt lat="43.415303" lon="-6.303951">
        <ele>548.905</ele>
        <time>2018-05-18T23:58:36Z</time>
      </trkpt>
      <trkpt lat="43.415235" lon="-6.304191">
        <ele>549.108</ele>
        <time>2018-05-18T23:58:56Z</time>
      </trkpt>
      <trkpt lat="43.415178" lon="-6.304345">
        <ele>548.564</ele>
        <time>2018-05-18T23:59:16Z</time>
      </trkpt>
      <trkpt lat="43.415120" lon="-6.304545">
        <ele>548.947</ele>
        <time>2018-05-18T23:59:36Z</time>
      </trkpt>
      <trkpt lat="43.415046" lon="-6.304746">
        <ele>551.032</ele>
        <time>2018-05-18T23:59:56Z</time>
      </trkpt>
      <trkpt lat="43.414989" lon="-6.304943">
        <ele>554.722</ele>
        <time>2018-05-19T00:00:16Z</time>
      </trkpt>
      <trkpt lat="43.414908" lon="-6.305173">
        <ele>559.073</ele>
        <time>2018-05-19T00:00:36Z</time>
      </trkpt>
      <trkpt lat="43.414878" lon="-6.305309">
        <ele>561.132</ele>
        <time>2018-05-19T00:00:56Z</time>
      </trkpt>
      <trkpt lat="43.414815" lon="-6.305553">
        <ele>564.056</ele>
        <time>2018-05-19T00:01:16Z</time>
      </trkpt>
      <trkpt lat="43.414736" lon="-6.305795">
        <ele>565.616</ele>
        <time>2018-05-19T00:01:36Z</time>
      </trkpt>
      <trkpt lat="43.414671" lon="-6.306128">
        <ele>562.534</ele>
        <time>2018-05-19T00:01:56Z</time>
      </trkpt>
      <trkpt lat="43.414623" lon="-6.306196">
        <ele>563.155</ele>
        <time>2018-05-19T00:02:16Z</time>
      </trkpt>
      <trkpt lat="43.414558" lon="-6.306273">
        <ele>563.910</ele>
        <time>2018-05-19T00:02:36Z</time>
      </trkpt>
      <trkpt lat="43.414454" lon="-6.306367">
        <ele>565.108</ele>
        <time>2018-05-19T00:02:56Z</time>
      </trkpt>
      <trkpt lat="43.414254" lon="-6.306486">
        <ele>568.375</ele>
        <time>2018-05-19T00:03:16Z</time>
      </trkpt>
      <trkpt lat="43.414030" lon="-6.306486">
        <ele>573.798</ele>
        <time>2018-05-19T00:03:36Z</time>
      </trkpt>
      <trkpt lat="43.413836" lon="-6.306604">
        <ele>576.653</ele>
        <time>2018-05-19T00:03:56Z</time>
      </trkpt>
      <trkpt lat="43.413620" lon="-6.306772">
        <ele>578.713</ele>
        <time>2018-05-19T00:04:16Z</time>
      </trkpt>
      <trkpt lat="43.413577" lon="-6.306867">
        <ele>578.664</ele>
        <time>2018-05-19T00:04:36Z</time>
      </trkpt>
      <trkpt lat="43.413512" lon="-6.306972">
        <ele>578.723</ele>
        <time>2018-05-19T00:04:56Z</time>
      </trkpt>
      <trkpt lat="43.413317" lon="-6.307118">
        <ele>581.067</ele>
        <time>2018-05-19T00:05:16Z</time>
      </trkpt>
      <trkpt lat="43.413141" lon="-6.307235">
        <ele>583.587</ele>
        <time>2018-05-19T00:05:36Z</time>
      </trkpt>
      <trkpt lat="43.413044" lon="-6.307308">
        <ele>584.227</ele>
        <time>2018-05-19T00:05:56Z</time>
      </trkpt>
      <trkpt lat="43.412712" lon="-6.307519">
        <ele>589.468</ele>
        <time>2018-05-19T00:06:16Z</time>
      </trkpt>
      <trkpt lat="43.412602" lon="-6.307569">
        <ele>591.414</ele>
        <time>2018-05-19T00:06:36Z</time>
      </trkpt>
      <trkpt lat="43.412471" lon="-6.307627">
        <ele>593.708</ele>
        <time>2018-05-19T00:06:56Z</time>
      </trkpt>
      <trkpt lat="43.412280" lon="-6.307745">
        <ele>596.164</ele>
        <time>2018-05-19T00:07:16Z</time>
      </trkpt>
      <trkpt lat="43.412104" lon="-6.307789">
        <ele>600.097</ele>
        <time>2018-05-19T00:07:36Z</time>
      </trkpt>
      <trkpt lat="43.411924" lon="-6.307862">
        <ele>604.472</ele>
        <time>2018-05-19T00:07:56Z</time>
      </trkpt>
      <trkpt lat="43.411589" lon="-6.307873">
        <ele>606.342</ele>
        <time>2018-05-19T00:08:16Z</time>
      </trkpt>
      <trkpt lat="43.411119" lon="-6.307778">
        <ele>608.083</ele>
        <time>2018-05-19T00:08:36Z</time>
      </trkpt>
      <trkpt lat="43.410997" lon="-6.307778">
        <ele>611.392</ele>
        <time>2018-05-19T00:08:56Z</time>
      </trkpt>
      <trkpt lat="43.410872" lon="-6.308468">
        <ele>617.356</ele>
        <time>2018-05-19T00:09:16Z</time>
      </trkpt>
      <trkpt lat="43.410793" lon="-6.309159">
        <ele>620.366</ele>
        <time>2018-05-19T00:09:36Z</time>
      </trkpt>
      <trkpt lat="43.410735" lon="-6.309472">
        <ele>624.196</ele>
        <time>2018-05-19T00:09:56Z</time>
      </trkpt>
      <trkpt lat="43.410717" lon="-6.309739">
        <ele>624.231</ele>
        <time>2018-05-19T00:10:16Z</time>
      </trkpt>
      <trkpt lat="43.410646" lon="-6.310108">
        <ele>626.724</ele>
        <time>2018-05-19T00:10:36Z</time>
      </trkpt>
      <trkpt lat="43.410444" lon="-6.310515">
        <ele>631.208</ele>
        <time>2018-05-19T00:10:56Z</time>
      </trkpt>
      <trkpt lat="43.410344" lon="-6.310700">
        <ele>631.661</ele>
        <time>2018-05-19T00:11:16Z</time>
      </trkpt>
      <trkpt lat="43.410234" lon="-6.310820">
        <ele>633.284</ele>
        <time>2018-05-19T00:11:36Z</time>
      </trkpt>
      <trkpt lat="43.410131" lon="-6.310979">
        <ele>633.449</ele>
        <time>2018-05-19T00:11:56Z</time>
      </trkpt>
      <trkpt lat="43.409943" lon="-6.311239">
        <ele>636.429</ele>
        <time>2018-05-19T00:12:16Z</time>
      </trkpt>
      <trkpt lat="43.409826" lon="-6.311474">
        <ele>639.720</ele>
        <time>2018-05-19T00:12:36Z</time>
      </trkpt>
      <trkpt lat="43.409670" lon="-6.311786">
        <ele>642.969</ele>
        <time>2018-05-19T00:12:56Z</time>
      </trkpt>
      <trkpt lat="43.409562" lon="-6.311997">
        <ele>642.263</ele>
        <time>2018-05-19T00:13:16Z</time>
      </trkpt>
      <trkpt lat="43.409327" lon="-6.312308">
        <ele>642.763</ele>
        <time>2018-05-19T00:13:36Z</time>
      </trkpt>
      <trkpt lat="43.409103" lon="-6.312490">
        <ele>645.038</ele>
        <time>2018-05-19T00:13:56Z</time>
      </trkpt>
      <trkpt lat="43.408772" lon="-6.312669">
        <ele>650.970</ele>
        <time>2018-05-19T00:14:16Z</time>
      </trkpt>
      <trkpt lat="43.408692" lon="-6.312723">
        <ele>651.417</ele>
        <time>2018-05-19T00:14:36Z</time>
      </trkpt>
      <trkpt lat="43.408646" lon="-6.312585">
        <ele>653.608</ele>
        <time>2018-05-19T00:14:56Z</time>
      </trkpt>
      <trkpt lat="43.408502" lon="-6.312472">
        <ele>655.935</ele>
        <time>2018-05-19T00:15:16Z</time>
      </trkpt>
      <trkpt lat="43.408391" lon="-6.312510">
        <ele>656.618</ele>
        <time>2018-05-19T00:15:36Z</time>
      </trkpt>
      <trkpt lat="43.408148" lon="-6.312810">
        <ele>658.973</ele>
        <time>2018-05-19T00:15:56Z</time>
      </trkpt>
      <trkpt lat="43.408096" lon="-6.313012">
        <ele>658.793</ele>
        <time>2018-05-19T00:16:16Z</time>
      </trkpt>
      <trkpt lat="43.408057" lon="-6.313296">
        <ele>656.494</ele>
        <time>2018-05-19T00:16:36Z</time>
      </trkpt>
      <trkpt lat="43.407996" lon="-6.313627">
        <ele>654.693</ele>
        <time>2018-05-19T00:16:56Z</time>
      </trkpt>
      <trkpt lat="43.407918" lon="-6.313790">
        <ele>655.587</ele>
        <time>2018-05-19T00:17:16Z</time>
      </trkpt>
      <trkpt lat="43.407599" lon="-6.313971">
        <ele>657.567</ele>
        <time>2018-05-19T00:17:36Z</time>
      </trkpt>
      <trkpt lat="43.407341" lon="-6.314103">
        <ele>657.434</ele>
        <time>2018-05-19T00:17:56Z</time>
      </trkpt>
      <trkpt lat="43.406886" lon="-6.314370">
        <ele>659.255</ele>
        <time>2018-05-19T00:18:16Z</time>
      </trkpt>
      <trkpt lat="43.406749" lon="-6.314445">
        <ele>659.410</ele>
        <time>2018-05-19T00:18:36Z</time>
      </trkpt>
      <trkpt lat="43.406589" lon="-6.314558">
        <ele>658.308</ele>
        <time>2018-05-19T00:18:56Z</time>
      </trkpt>
      <trkpt lat="43.406447" lon="-6.314687">
        <ele>656.585</ele>
        <time>2018-05-19T00:19:16Z</time>
      </trkpt>
      <trkpt lat="43.406244" lon="-6.314844">
        <ele>655.998</ele>
        <time>2018-05-19T00:19:36Z</time>
      </trkpt>
      <trkpt lat="43.406097" lon="-6.314966">
        <ele>655.383</ele>
        <time>2018-05-19T00:19:56Z</time>
      </trkpt>
      <trkpt lat="43.405915" lon="-6.315081">
        <ele>653.853</ele>
        <time>2018-05-19T00:20:16Z</time>
      </trkpt>
      <trkpt lat="43.405773" lon="-6.315276">
        <ele>651.544</ele>
        <time>2018-05-19T00:20:36Z</time>
      </trkpt>
      <trkpt lat="43.405638" lon="-6.315456">
        <ele>650.753</ele>
        <time>2018-05-19T00:20:56Z</time>
      </trkpt>
      <trkpt lat="43.405529" lon="-6.315583">
        <ele>650.167</ele>
        <time>2018-05-19T00:21:16Z</time>
      </trkpt>
      <trkpt lat="43.405396" lon="-6.315759">
        <ele>649.677</ele>
        <time>2018-05-19T00:21:36Z</time>
      </trkpt>
      <trkpt lat="43.405276" lon="-6.315939">
        <ele>649.077</ele>
        <time>2018-05-19T00:21:56Z</time>
      </trkpt>
      <trkpt lat="43.405137" lon="-6.316141">
        <ele>648.561</ele>
        <time>2018-05-19T00:22:16Z</time>
      </trkpt>
      <trkpt lat="43.404748" lon="-6.316528">
        <ele>648.027</ele>
        <time>2018-05-19T00:22:36Z</time>
      </trkpt>
      <trkpt lat="43.404617" lon="-6.316643">
        <ele>647.208</ele>
        <time>2018-05-19T00:22:56Z</time>
      </trkpt>
      <trkpt lat="43.404432" lon="-6.316808">
        <ele>646.519</ele>
        <time>2018-05-19T00:23:16Z</time>
      </trkpt>
      <trkpt lat="43.404304" lon="-6.316845">
        <ele>646.462</ele>
        <time>2018-05-19T00:23:36Z</time>
      </trkpt>
      <trkpt lat="43.404174" lon="-6.316936">
        <ele>646.057</ele>
        <time>2018-05-19T00:23:56Z</time>
      </trkpt>
      <trkpt lat="43.403868" lon="-6.317341">
        <ele>643.617</ele>
        <time>2018-05-19T00:24:16Z</time>
      </trkpt>
      <trkpt lat="43.403692" lon="-6.317559">
        <ele>643.358</ele>
        <time>2018-05-19T00:24:36Z</time>
      </trkpt>
      <trkpt lat="43.403464" lon="-6.317829">
        <ele>644.227</ele>
        <time>2018-05-19T00:24:56Z</time>
      </trkpt>
      <trkpt lat="43.403350" lon="-6.317990">
        <ele>644.581</ele>
        <time>2018-05-19T00:25:16Z</time>
      </trkpt>
      <trkpt lat="43.403230" lon="-6.318136">
        <ele>643.611</ele>
        <time>2018-05-19T00:25:36Z</time>
      </trkpt>
      <trkpt lat="43.403093" lon="-6.318272">
        <ele>642.615</ele>
        <time>2018-05-19T00:25:56Z</time>
      </trkpt>
      <trkpt lat="43.403009" lon="-6.318375">
        <ele>641.865</ele>
        <time>2018-05-19T00:26:16Z</time>
      </trkpt>
      <trkpt lat="43.402817" lon="-6.318594">
        <ele>641.711</ele>
        <time>2018-05-19T00:26:36Z</time>
      </trkpt>
      <trkpt lat="43.402518" lon="-6.318918">
        <ele>640.708</ele>
        <time>2018-05-19T00:26:56Z</time>
      </trkpt>
      <trkpt lat="43.402450" lon="-6.318953">
        <ele>640.663</ele>
        <time>2018-05-19T00:27:16Z</time>
      </trkpt>
      <trkpt lat="43.402339" lon="-6.319030">
        <ele>640.316</ele>
        <time>2018-05-19T00:27:36Z</time>
      </trkpt>
      <trkpt lat="43.402093" lon="-6.319044">
        <ele>640.061</ele>
        <time>2018-05-19T00:27:56Z</time>
      </trkpt>
      <trkpt lat="43.401885" lon="-6.319033">
        <ele>639.491</ele>
        <time>2018-05-19T00:28:16Z</time>
      </trkpt>
      <trkpt lat="43.401644" lon="-6.319093">
        <ele>638.582</ele>
        <time>2018-05-19T00:28:36Z</time>
      </trkpt>
      <trkpt lat="43.401471" lon="-6.319140">
        <ele>638.241</ele>
        <time>2018-05-19T00:28:56Z</time>
      </trkpt>
      <trkpt lat="43.401452" lon="-6.319251">
        <ele>637.075</ele>
        <time>2018-05-19T00:29:16Z</time>
      </trkpt>
      <trkpt lat="43.401458" lon="-6.319724">
        <ele>633.865</ele>
        <time>2018-05-19T00:29:36Z</time>
      </trkpt>
      <trkpt lat="43.401442" lon="-6.319952">
        <ele>633.887</ele>
        <time>2018-05-19T00:29:56Z</time>
      </trkpt>
      <trkpt lat="43.401434" lon="-6.320105">
        <ele>633.842</ele>
        <time>2018-05-19T00:30:16Z</time>
      </trkpt>
      <trkpt lat="43.401282" lon="-6.320156">
        <ele>633.826</ele>
        <time>2018-05-19T00:30:36Z</time>
      </trkpt>
      <trkpt lat="43.401114" lon="-6.320243">
        <ele>633.108</ele>
        <time>2018-05-19T00:30:56Z</time>
      </trkpt>
      <trkpt lat="43.400937" lon="-6.320353">
        <ele>632.130</ele>
        <time>2018-05-19T00:31:16Z</time>
      </trkpt>
      <trkpt lat="43.400775" lon="-6.320424">
        <ele>631.533</ele>
        <time>2018-05-19T00:31:36Z</time>
      </trkpt>
      <trkpt lat="43.400597" lon="-6.320532">
        <ele>631.188</ele>
        <time>2018-05-19T00:31:56Z</time>
      </trkpt>
      <trkpt lat="43.400507" lon="-6.320583">
        <ele>630.768</ele>
        <time>2018-05-19T00:32:16Z</time>
      </trkpt>
      <trkpt lat="43.400381" lon="-6.320664">
        <ele>630.269</ele>
        <time>2018-05-19T00:32:36Z</time>
      </trkpt>
      <trkpt lat="43.400101" lon="-6.320980">
        <ele>629.498</ele>
        <time>2018-05-19T00:32:56Z</time>
      </trkpt>
      <trkpt lat="43.399990" lon="-6.321142">
        <ele>629.042</ele>
        <time>2018-05-19T00:33:16Z</time>
      </trkpt>
      <trkpt lat="43.399879" lon="-6.321165">
        <ele>628.462</ele>
        <time>2018-05-19T00:33:36Z</time>
      </trkpt>
      <trkpt lat="43.399701" lon="-6.321238">
        <ele>627.862</ele>
        <time>2018-05-19T00:33:56Z</time>
      </trkpt>
      <trkpt lat="43.399600" lon="-6.321311">
        <ele>628.083</ele>
        <time>2018-05-19T00:34:16Z</time>
      </trkpt>
      <trkpt lat="43.399493" lon="-6.321376">
        <ele>628.111</ele>
        <time>2018-05-19T00:34:36Z</time>
      </trkpt>
      <trkpt lat="43.399419" lon="-6.321436">
        <ele>628.208</ele>
        <time>2018-05-19T00:34:56Z</time>
      </trkpt>
      <trkpt lat="43.399361" lon="-6.321569">
        <ele>628.638</ele>
        <time>2018-05-19T00:35:16Z</time>
      </trkpt>
      <trkpt lat="43.399352" lon="-6.321724">
        <ele>629.341</ele>
        <time>2018-05-19T00:35:36Z</time>
      </trkpt>
      <trkpt lat="43.399385" lon="-6.321848">
        <ele>630.226</ele>
        <time>2018-05-19T00:35:56Z</time>
      </trkpt>
      <trkpt lat="43.399419" lon="-6.321930">
        <ele>630.866</ele>
        <time>2018-05-19T00:36:16Z</time>
      </trkpt>
      <trkpt lat="43.399565" lon="-6.322052">
        <ele>632.077</ele>
        <time>2018-05-19T00:36:36Z</time>
      </trkpt>
      <trkpt lat="43.399716" lon="-6.322207">
        <ele>632.926</ele>
        <time>2018-05-19T00:36:56Z</time>
      </trkpt>
      <trkpt lat="43.399795" lon="-6.322284">
        <ele>633.080</ele>
        <time>2018-05-19T00:37:16Z</time>
      </trkpt>
      <trkpt lat="43.399865" lon="-6.322385">
        <ele>633.430</ele>
        <time>2018-05-19T00:37:36Z</time>
      </trkpt>
      <trkpt lat="43.399980" lon="-6.322617">
        <ele>634.862</ele>
        <time>2018-05-19T00:37:56Z</time>
      </trkpt>
      <trkpt lat="43.400071" lon="-6.322788">
        <ele>635.883</ele>
        <time>2018-05-19T00:38:16Z</time>
      </trkpt>
      <trkpt lat="43.400149" lon="-6.322981">
        <ele>636.211</ele>
        <time>2018-05-19T00:38:36Z</time>
      </trkpt>
      <trkpt lat="43.400237" lon="-6.323204">
        <ele>637.208</ele>
        <time>2018-05-19T00:38:56Z</time>
      </trkpt>
      <trkpt lat="43.400298" lon="-6.323457">
        <ele>638.268</ele>
        <time>2018-05-19T00:39:16Z</time>
      </trkpt>
      <trkpt lat="43.400354" lon="-6.323750">
        <ele>638.361</ele>
        <time>2018-05-19T00:39:36Z</time>
      </trkpt>
      <trkpt lat="43.400384" lon="-6.323868">
        <ele>638.236</ele>
        <time>2018-05-19T00:39:56Z</time>
      </trkpt>
      <trkpt lat="43.400467" lon="-6.324048">
        <ele>638.496</ele>
        <time>2018-05-19T00:40:16Z</time>
      </trkpt>
      <trkpt lat="43.400494" lon="-6.324208">
        <ele>639.087</ele>
        <time>2018-05-19T00:40:36Z</time>
      </trkpt>
      <trkpt lat="43.400515" lon="-6.324302">
        <ele>639.126</ele>
        <time>2018-05-19T00:40:56Z</time>
      </trkpt>
      <trkpt lat="43.400490" lon="-6.324624">
        <ele>640.580</ele>
        <time>2018-05-19T00:41:16Z</time>
      </trkpt>
      <trkpt lat="43.400429" lon="-6.325011">
        <ele>642.540</ele>
        <time>2018-05-19T00:41:36Z</time>
      </trkpt>
      <trkpt lat="43.400218" lon="-6.325751">
        <ele>646.017</ele>
        <time>2018-05-19T00:41:56Z</time>
      </trkpt>
      <trkpt lat="43.400112" lon="-6.326137">
        <ele>648.387</ele>
        <time>2018-05-19T00:42:16Z</time>
      </trkpt>
      <trkpt lat="43.399903" lon="-6.326540">
        <ele>647.815</ele>
        <time>2018-05-19T00:42:36Z</time>
      </trkpt>
      <trkpt lat="43.399666" lon="-6.327197">
        <ele>651.408</ele>
        <time>2018-05-19T00:42:56Z</time>
      </trkpt>
      <trkpt lat="43.399388" lon="-6.327782">
        <ele>652.043</ele>
        <time>2018-05-19T00:43:16Z</time>
      </trkpt>
      <trkpt lat="43.399271" lon="-6.328115">
        <ele>653.686</ele>
        <time>2018-05-19T00:43:36Z</time>
      </trkpt>
      <trkpt lat="43.399245" lon="-6.328366">
        <ele>654.541</ele>
        <time>2018-05-19T00:43:56Z</time>
      </trkpt>
      <trkpt lat="43.399283" lon="-6.328683">
        <ele>656.821</ele>
        <time>2018-05-19T00:44:16Z</time>
      </trkpt>
      <trkpt lat="43.399133" lon="-6.329109">
        <ele>658.182</ele>
        <time>2018-05-19T00:44:36Z</time>
      </trkpt>
      <trkpt lat="43.399078" lon="-6.329338">
        <ele>659.571</ele>
        <time>2018-05-19T00:44:56Z</time>
      </trkpt>
      <trkpt lat="43.398904" lon="-6.329546">
        <ele>661.645</ele>
        <time>2018-05-19T00:45:16Z</time>
      </trkpt>
      <trkpt lat="43.398694" lon="-6.330004">
        <ele>664.265</ele>
        <time>2018-05-19T00:45:36Z</time>
      </trkpt>
      <trkpt lat="43.398516" lon="-6.330335">
        <ele>664.754</ele>
        <time>2018-05-19T00:45:56Z</time>
      </trkpt>
      <trkpt lat="43.398203" lon="-6.330849">
        <ele>663.156</ele>
        <time>2018-05-19T00:46:16Z</time>
      </trkpt>
      <trkpt lat="43.397927" lon="-6.331068">
        <ele>662.411</ele>
        <time>2018-05-19T00:46:36Z</time>
      </trkpt>
      <trkpt lat="43.397482" lon="-6.331638">
        <ele>663.808</ele>
        <time>2018-05-19T00:46:56Z</time>
      </trkpt>
      <trkpt lat="43.396743" lon="-6.332751">
        <ele>664.777</ele>
        <time>2018-05-19T00:47:16Z</time>
      </trkpt>
      <trkpt lat="43.396660" lon="-6.332889">
        <ele>664.370</ele>
        <time>2018-05-19T00:47:36Z</time>
      </trkpt>
      <trkpt lat="43.396554" lon="-6.333082">
        <ele>663.055</ele>
        <time>2018-05-19T00:47:56Z</time>
      </trkpt>
      <trkpt lat="43.396460" lon="-6.333248">
        <ele>661.885</ele>
        <time>2018-05-19T00:48:16Z</time>
      </trkpt>
      <trkpt lat="43.396351" lon="-6.333473">
        <ele>661.726</ele>
        <time>2018-05-19T00:48:36Z</time>
      </trkpt>
      <trkpt lat="43.396331" lon="-6.333586">
        <ele>662.435</ele>
        <time>2018-05-19T00:48:56Z</time>
      </trkpt>
      <trkpt lat="43.396273" lon="-6.333865">
        <ele>664.589</ele>
        <time>2018-05-19T00:49:16Z</time>
      </trkpt>
      <trkpt lat="43.396227" lon="-6.334052">
        <ele>664.329</ele>
        <time>2018-05-19T00:49:36Z</time>
      </trkpt>
      <trkpt lat="43.396158" lon="-6.334261">
        <ele>663.431</ele>
        <time>2018-05-19T00:49:56Z</time>
      </trkpt>
      <trkpt lat="43.396096" lon="-6.334458">
        <ele>662.961</ele>
        <time>2018-05-19T00:50:16Z</time>
      </trkpt>
      <trkpt lat="43.396018" lon="-6.334653">
        <ele>661.707</ele>
        <time>2018-05-19T00:50:36Z</time>
      </trkpt>
      <trkpt lat="43.395948" lon="-6.334836">
        <ele>660.408</ele>
        <time>2018-05-19T00:50:56Z</time>
      </trkpt>
      <trkpt lat="43.395796" lon="-6.334763">
        <ele>659.695</ele>
        <time>2018-05-19T00:51:16Z</time>
      </trkpt>
      <trkpt lat="43.395681" lon="-6.334681">
        <ele>659.328</ele>
        <time>2018-05-19T00:51:36Z</time>
      </trkpt>
      <trkpt lat="43.395553" lon="-6.334594">
        <ele>659.493</ele>
        <time>2018-05-19T00:51:56Z</time>
      </trkpt>
      <trkpt lat="43.395512" lon="-6.334564">
        <ele>659.273</ele>
        <time>2018-05-19T00:52:16Z</time>
      </trkpt>
      <trkpt lat="43.395366" lon="-6.334864">
        <ele>656.814</ele>
        <time>2018-05-19T00:52:36Z</time>
      </trkpt>
      <trkpt lat="43.395208" lon="-6.335196">
        <ele>657.513</ele>
        <time>2018-05-19T00:52:56Z</time>
      </trkpt>
      <trkpt lat="43.394902" lon="-6.335860">
        <ele>657.677</ele>
        <time>2018-05-19T00:53:16Z</time>
      </trkpt>
      <trkpt lat="43.394601" lon="-6.336441">
        <ele>657.427</ele>
        <time>2018-05-19T00:53:36Z</time>
      </trkpt>
      <trkpt lat="43.394399" lon="-6.336889">
        <ele>656.445</ele>
        <time>2018-05-19T00:53:56Z</time>
      </trkpt>
      <trkpt lat="43.394247" lon="-6.337182">
        <ele>654.947</ele>
        <time>2018-05-19T00:54:16Z</time>
      </trkpt>
      <trkpt lat="43.393729" lon="-6.338496">
        <ele>657.611</ele>
        <time>2018-05-19T00:54:36Z</time>
      </trkpt>
      <trkpt lat="43.393505" lon="-6.338959">
        <ele>657.008</ele>
        <time>2018-05-19T00:54:56Z</time>
      </trkpt>
      <trkpt lat="43.393460" lon="-6.339133">
        <ele>657.016</ele>
        <time>2018-05-19T00:55:16Z</time>
      </trkpt>
      <trkpt lat="43.393519" lon="-6.339384">
        <ele>657.029</ele>
        <time>2018-05-19T00:55:36Z</time>
      </trkpt>
      <trkpt lat="43.393543" lon="-6.339469">
        <ele>657.014</ele>
        <time>2018-05-19T00:55:56Z</time>
      </trkpt>
      <trkpt lat="43.393557" lon="-6.339637">
        <ele>657.024</ele>
        <time>2018-05-19T00:56:16Z</time>
      </trkpt>
      <trkpt lat="43.393525" lon="-6.339898">
        <ele>657.895</ele>
        <time>2018-05-19T00:56:36Z</time>
      </trkpt>
      <trkpt lat="43.393435" lon="-6.340003">
        <ele>658.664</ele>
        <time>2018-05-19T00:56:56Z</time>
      </trkpt>
      <trkpt lat="43.393349" lon="-6.340090">
        <ele>659.368</ele>
        <time>2018-05-19T00:57:16Z</time>
      </trkpt>
      <trkpt lat="43.393310" lon="-6.340146">
        <ele>659.428</ele>
        <time>2018-05-19T00:57:36Z</time>
      </trkpt>
      <trkpt lat="43.393227" lon="-6.340484">
        <ele>660.524</ele>
        <time>2018-05-19T00:57:56Z</time>
      </trkpt>
      <trkpt lat="43.393179" lon="-6.340688">
        <ele>661.504</ele>
        <time>2018-05-19T00:58:16Z</time>
      </trkpt>
      <trkpt lat="43.393036" lon="-6.341196">
        <ele>665.414</ele>
        <time>2018-05-19T00:58:36Z</time>
      </trkpt>
      <trkpt lat="43.392925" lon="-6.341360">
        <ele>665.408</ele>
        <time>2018-05-19T00:58:56Z</time>
      </trkpt>
      <trkpt lat="43.392717" lon="-6.341707">
        <ele>666.944</ele>
        <time>2018-05-19T00:59:16Z</time>
      </trkpt>
      <trkpt lat="43.392578" lon="-6.341932">
        <ele>668.777</ele>
        <time>2018-05-19T00:59:36Z</time>
      </trkpt>
      <trkpt lat="43.392446" lon="-6.342179">
        <ele>669.552</ele>
        <time>2018-05-19T00:59:56Z</time>
      </trkpt>
      <trkpt lat="43.392284" lon="-6.342404">
        <ele>670.762</ele>
        <time>2018-05-19T01:00:16Z</time>
      </trkpt>
      <trkpt lat="43.391984" lon="-6.342834">
        <ele>674.843</ele>
        <time>2018-05-19T01:00:36Z</time>
      </trkpt>
      <trkpt lat="43.391639" lon="-6.343271">
        <ele>676.312</ele>
        <time>2018-05-19T01:00:56Z</time>
      </trkpt>
      <trkpt lat="43.391353" lon="-6.343565">
        <ele>677.056</ele>
        <time>2018-05-19T01:01:16Z</time>
      </trkpt>
      <trkpt lat="43.391293" lon="-6.343628">
        <ele>677.226</ele>
        <time>2018-05-19T01:01:36Z</time>
      </trkpt>
      <trkpt lat="43.391253" lon="-6.343647">
        <ele>677.038</ele>
        <time>2018-05-19T01:01:56Z</time>
      </trkpt>
      <trkpt lat="43.391105" lon="-6.343514">
        <ele>674.370</ele>
        <time>2018-05-19T01:02:16Z</time>
      </trkpt>
      <trkpt lat="43.390710" lon="-6.343039">
        <ele>677.617</ele>
        <time>2018-05-19T01:02:36Z</time>
      </trkpt>
      <trkpt lat="43.390561" lon="-6.342916">
        <ele>679.908</ele>
        <time>2018-05-19T01:02:56Z</time>
      </trkpt>
      <trkpt lat="43.390381" lon="-6.342884">
        <ele>681.485</ele>
        <time>2018-05-19T01:03:16Z</time>
      </trkpt>
      <trkpt lat="43.390230" lon="-6.342898">
        <ele>682.258</ele>
        <time>2018-05-19T01:03:36Z</time>
      </trkpt>
      <trkpt lat="43.390078" lon="-6.343039">
        <ele>682.223</ele>
        <time>2018-05-19T01:03:56Z</time>
      </trkpt>
      <trkpt lat="43.389928" lon="-6.343232">
        <ele>682.193</ele>
        <time>2018-05-19T01:04:16Z</time>
      </trkpt>
      <trkpt lat="43.389917" lon="-6.343383">
        <ele>683.044</ele>
        <time>2018-05-19T01:04:36Z</time>
      </trkpt>
      <trkpt lat="43.389914" lon="-6.343464">
        <ele>683.833</ele>
        <time>2018-05-19T01:04:56Z</time>
      </trkpt>
      <trkpt lat="43.389916" lon="-6.343623">
        <ele>685.887</ele>
        <time>2018-05-19T01:05:16Z</time>
      </trkpt>
      <trkpt lat="43.389910" lon="-6.343783">
        <ele>689.327</ele>
        <time>2018-05-19T01:05:36Z</time>
      </trkpt>
      <trkpt lat="43.389919" lon="-6.344020">
        <ele>694.751</ele>
        <time>2018-05-19T01:05:56Z</time>
      </trkpt>
      <trkpt lat="43.389869" lon="-6.344208">
        <ele>697.501</ele>
        <time>2018-05-19T01:06:16Z</time>
      </trkpt>
      <trkpt lat="43.389783" lon="-6.344431">
        <ele>698.511</ele>
        <time>2018-05-19T01:06:36Z</time>
      </trkpt>
      <trkpt lat="43.389817" lon="-6.344717">
        <ele>702.308</ele>
        <time>2018-05-19T01:06:56Z</time>
      </trkpt>
      <trkpt lat="43.389821" lon="-6.345000">
        <ele>702.167</ele>
        <time>2018-05-19T01:07:16Z</time>
      </trkpt>
      <trkpt lat="43.389803" lon="-6.345226">
        <ele>701.330</ele>
        <time>2018-05-19T01:07:36Z</time>
      </trkpt>
      <trkpt lat="43.389716" lon="-6.345369">
        <ele>700.635</ele>
        <time>2018-05-19T01:07:56Z</time>
      </trkpt>
      <trkpt lat="43.389653" lon="-6.345523">
        <ele>701.015</ele>
        <time>2018-05-19T01:08:16Z</time>
      </trkpt>
      <trkpt lat="43.389527" lon="-6.345734">
        <ele>702.076</ele>
        <time>2018-05-19T01:08:36Z</time>
      </trkpt>
      <trkpt lat="43.389458" lon="-6.345910">
        <ele>703.365</ele>
        <time>2018-05-19T01:08:56Z</time>
      </trkpt>
      <trkpt lat="43.389308" lon="-6.346300">
        <ele>705.139</ele>
        <time>2018-05-19T01:09:16Z</time>
      </trkpt>
      <trkpt lat="43.389269" lon="-6.346488">
        <ele>705.929</ele>
        <time>2018-05-19T01:09:36Z</time>
      </trkpt>
      <trkpt lat="43.389204" lon="-6.346680">
        <ele>705.242</ele>
        <time>2018-05-19T01:09:56Z</time>
      </trkpt>
      <trkpt lat="43.389145" lon="-6.346903">
        <ele>705.322</ele>
        <time>2018-05-19T01:10:16Z</time>
      </trkpt>
      <trkpt lat="43.389091" lon="-6.347182">
        <ele>707.014</ele>
        <time>2018-05-19T01:10:36Z</time>
      </trkpt>
      <trkpt lat="43.389122" lon="-6.347342">
        <ele>708.708</ele>
        <time>2018-05-19T01:10:56Z</time>
      </trkpt>
      <trkpt lat="43.389146" lon="-6.347555">
        <ele>710.296</ele>
        <time>2018-05-19T01:11:16Z</time>
      </trkpt>
      <trkpt lat="43.389105" lon="-6.347701">
        <ele>710.929</ele>
        <time>2018-05-19T01:11:36Z</time>
      </trkpt>
      <trkpt lat="43.388994" lon="-6.347920">
        <ele>712.554</ele>
        <time>2018-05-19T01:11:56Z</time>
      </trkpt>
      <trkpt lat="43.388933" lon="-6.348055">
        <ele>713.564</ele>
        <time>2018-05-19T01:12:16Z</time>
      </trkpt>
      <trkpt lat="43.388780" lon="-6.348250">
        <ele>713.875</ele>
        <time>2018-05-19T01:12:36Z</time>
      </trkpt>
      <trkpt lat="43.388680" lon="-6.348459">
        <ele>714.654</ele>
        <time>2018-05-19T01:12:56Z</time>
      </trkpt>
      <trkpt lat="43.388610" lon="-6.348681">
        <ele>717.078</ele>
        <time>2018-05-19T01:13:16Z</time>
      </trkpt>
      <trkpt lat="43.388597" lon="-6.348850">
        <ele>719.238</ele>
        <time>2018-05-19T01:13:36Z</time>
      </trkpt>
      <trkpt lat="43.388399" lon="-6.348997">
        <ele>718.496</ele>
        <time>2018-05-19T01:13:56Z</time>
      </trkpt>
      <trkpt lat="43.388311" lon="-6.349095">
        <ele>717.631</ele>
        <time>2018-05-19T01:14:16Z</time>
      </trkpt>
      <trkpt lat="43.388204" lon="-6.349225">
        <ele>716.024</ele>
        <time>2018-05-19T01:14:36Z</time>
      </trkpt>
      <trkpt lat="43.388085" lon="-6.349312">
        <ele>713.508</ele>
        <time>2018-05-19T01:14:56Z</time>
      </trkpt>
      <trkpt lat="43.387986" lon="-6.349383">
        <ele>712.591</ele>
        <time>2018-05-19T01:15:16Z</time>
      </trkpt>
      <trkpt lat="43.387844" lon="-6.349475">
        <ele>712.654</ele>
        <time>2018-05-19T01:15:36Z</time>
      </trkpt>
      <trkpt lat="43.387697" lon="-6.349579">
        <ele>714.269</ele>
        <time>2018-05-19T01:15:56Z</time>
      </trkpt>
      <trkpt lat="43.387586" lon="-6.349667">
        <ele>715.119</ele>
        <time>2018-05-19T01:16:16Z</time>
      </trkpt>
      <trkpt lat="43.387539" lon="-6.349696">
        <ele>715.090</ele>
        <time>2018-05-19T01:16:36Z</time>
      </trkpt>
      <trkpt lat="43.387465" lon="-6.349771">
        <ele>715.599</ele>
        <time>2018-05-19T01:16:56Z</time>
      </trkpt>
      <trkpt lat="43.387354" lon="-6.349924">
        <ele>717.253</ele>
        <time>2018-05-19T01:17:16Z</time>
      </trkpt>
      <trkpt lat="43.387224" lon="-6.349984">
        <ele>717.753</ele>
        <time>2018-05-19T01:17:36Z</time>
      </trkpt>
      <trkpt lat="43.387029" lon="-6.349935">
        <ele>719.668</ele>
        <time>2018-05-19T01:17:56Z</time>
      </trkpt>
      <trkpt lat="43.386927" lon="-6.349844">
        <ele>719.542</ele>
        <time>2018-05-19T01:18:16Z</time>
      </trkpt>
      <trkpt lat="43.386840" lon="-6.349766">
        <ele>719.726</ele>
        <time>2018-05-19T01:18:36Z</time>
      </trkpt>
      <trkpt lat="43.386752" lon="-6.349665">
        <ele>719.208</ele>
        <time>2018-05-19T01:18:56Z</time>
      </trkpt>
      <trkpt lat="43.386646" lon="-6.349465">
        <ele>717.438</ele>
        <time>2018-05-19T01:19:16Z</time>
      </trkpt>
      <trkpt lat="43.386544" lon="-6.349507">
        <ele>718.211</ele>
        <time>2018-05-19T01:19:36Z</time>
      </trkpt>
      <trkpt lat="43.386457" lon="-6.349534">
        <ele>718.926</ele>
        <time>2018-05-19T01:19:56Z</time>
      </trkpt>
      <trkpt lat="43.386409" lon="-6.349593">
        <ele>720.246</ele>
        <time>2018-05-19T01:20:16Z</time>
      </trkpt>
      <trkpt lat="43.386352" lon="-6.349651">
        <ele>721.857</ele>
        <time>2018-05-19T01:20:36Z</time>
      </trkpt>
      <trkpt lat="43.386285" lon="-6.349813">
        <ele>726.896</ele>
        <time>2018-05-19T01:20:56Z</time>
      </trkpt>
      <trkpt lat="43.386245" lon="-6.349949">
        <ele>731.160</ele>
        <time>2018-05-19T01:21:16Z</time>
      </trkpt>
      <trkpt lat="43.386137" lon="-6.350043">
        <ele>733.920</ele>
        <time>2018-05-19T01:21:36Z</time>
      </trkpt>
      <trkpt lat="43.386084" lon="-6.350200">
        <ele>736.566</ele>
        <time>2018-05-19T01:21:56Z</time>
      </trkpt>
      <trkpt lat="43.385992" lon="-6.350399">
        <ele>736.429</ele>
        <time>2018-05-19T01:22:16Z</time>
      </trkpt>
      <trkpt lat="43.385950" lon="-6.350526">
        <ele>736.921</ele>
        <time>2018-05-19T01:22:36Z</time>
      </trkpt>
      <trkpt lat="43.385885" lon="-6.350631">
        <ele>737.208</ele>
        <time>2018-05-19T01:22:56Z</time>
      </trkpt>
      <trkpt lat="43.385835" lon="-6.350755">
        <ele>738.418</ele>
        <time>2018-05-19T01:23:16Z</time>
      </trkpt>
      <trkpt lat="43.385576" lon="-6.351480">
        <ele>742.731</ele>
        <time>2018-05-19T01:23:36Z</time>
      </trkpt>
      <trkpt lat="43.385505" lon="-6.351683">
        <ele>744.986</ele>
        <time>2018-05-19T01:23:56Z</time>
      </trkpt>
      <trkpt lat="43.385431" lon="-6.351941">
        <ele>747.686</ele>
        <time>2018-05-19T01:24:16Z</time>
      </trkpt>
      <trkpt lat="43.385433" lon="-6.352215">
        <ele>752.177</ele>
        <time>2018-05-19T01:24:36Z</time>
      </trkpt>
      <trkpt lat="43.385419" lon="-6.352462">
        <ele>755.556</ele>
        <time>2018-05-19T01:24:56Z</time>
      </trkpt>
      <trkpt lat="43.385436" lon="-6.352897">
        <ele>763.540</ele>
        <time>2018-05-19T01:25:16Z</time>
      </trkpt>
      <trkpt lat="43.385431" lon="-6.353049">
        <ele>765.650</ele>
        <time>2018-05-19T01:25:36Z</time>
      </trkpt>
      <trkpt lat="43.385417" lon="-6.353175">
        <ele>766.837</ele>
        <time>2018-05-19T01:25:56Z</time>
      </trkpt>
      <trkpt lat="43.385322" lon="-6.353281">
        <ele>766.449</ele>
        <time>2018-05-19T01:26:16Z</time>
      </trkpt>
      <trkpt lat="43.385133" lon="-6.353523">
        <ele>765.413</ele>
        <time>2018-05-19T01:26:36Z</time>
      </trkpt>
      <trkpt lat="43.384968" lon="-6.353734">
        <ele>763.708</ele>
        <time>2018-05-19T01:26:56Z</time>
      </trkpt>
      <trkpt lat="43.384842" lon="-6.353912">
        <ele>763.555</ele>
        <time>2018-05-19T01:27:16Z</time>
      </trkpt>
      <trkpt lat="43.384718" lon="-6.354092">
        <ele>763.128</ele>
        <time>2018-05-19T01:27:36Z</time>
      </trkpt>
      <trkpt lat="43.384637" lon="-6.354198">
        <ele>763.173</ele>
        <time>2018-05-19T01:27:56Z</time>
      </trkpt>
      <trkpt lat="43.384596" lon="-6.354255">
        <ele>763.593</ele>
        <time>2018-05-19T01:28:16Z</time>
      </trkpt>
      <trkpt lat="43.384515" lon="-6.354372">
        <ele>764.274</ele>
        <time>2018-05-19T01:28:36Z</time>
      </trkpt>
      <trkpt lat="43.384379" lon="-6.354564">
        <ele>763.753</ele>
        <time>2018-05-19T01:28:56Z</time>
      </trkpt>
      <trkpt lat="43.384215" lon="-6.354764">
        <ele>760.527</ele>
        <time>2018-05-19T01:29:16Z</time>
      </trkpt>
      <trkpt lat="43.384073" lon="-6.354972">
        <ele>758.257</ele>
        <time>2018-05-19T01:29:36Z</time>
      </trkpt>
      <trkpt lat="43.383973" lon="-6.355174">
        <ele>758.272</ele>
        <time>2018-05-19T01:29:56Z</time>
      </trkpt>
      <trkpt lat="43.383841" lon="-6.355414">
        <ele>759.213</ele>
        <time>2018-05-19T01:30:16Z</time>
      </trkpt>
      <trkpt lat="43.383680" lon="-6.355625">
        <ele>758.814</ele>
        <time>2018-05-19T01:30:36Z</time>
      </trkpt>
      <trkpt lat="43.383606" lon="-6.355770">
        <ele>760.808</ele>
        <time>2018-05-19T01:30:56Z</time>
      </trkpt>
      <trkpt lat="43.383507" lon="-6.355951">
        <ele>762.769</ele>
        <time>2018-05-19T01:31:16Z</time>
      </trkpt>
      <trkpt lat="43.383405" lon="-6.356063">
        <ele>763.252</ele>
        <time>2018-05-19T01:31:36Z</time>
      </trkpt>
      <trkpt lat="43.383178" lon="-6.356318">
        <ele>762.547</ele>
        <time>2018-05-19T01:31:56Z</time>
      </trkpt>
      <trkpt lat="43.382999" lon="-6.356565">
        <ele>763.217</ele>
        <time>2018-05-19T01:32:16Z</time>
      </trkpt>
      <trkpt lat="43.382785" lon="-6.356610">
        <ele>760.178</ele>
        <time>2018-05-19T01:32:36Z</time>
      </trkpt>
      <trkpt lat="43.382649" lon="-6.356699">
        <ele>760.187</ele>
        <time>2018-05-19T01:32:56Z</time>
      </trkpt>
      <trkpt lat="43.382512" lon="-6.356715">
        <ele>758.641</ele>
        <time>2018-05-19T01:33:16Z</time>
      </trkpt>
      <trkpt lat="43.382440" lon="-6.356678">
        <ele>756.721</ele>
        <time>2018-05-19T01:33:36Z</time>
      </trkpt>
      <trkpt lat="43.382295" lon="-6.356664">
        <ele>754.772</ele>
        <time>2018-05-19T01:33:56Z</time>
      </trkpt>
      <trkpt lat="43.382209" lon="-6.356612">
        <ele>752.013</ele>
        <time>2018-05-19T01:34:16Z</time>
      </trkpt>
      <trkpt lat="43.382058" lon="-6.356650">
        <ele>751.114</ele>
        <time>2018-05-19T01:34:36Z</time>
      </trkpt>
      <trkpt lat="43.381858" lon="-6.356687">
        <ele>747.808</ele>
        <time>2018-05-19T01:34:56Z</time>
      </trkpt>
      <trkpt lat="43.381765" lon="-6.356723">
        <ele>745.819</ele>
        <time>2018-05-19T01:35:16Z</time>
      </trkpt>
      <trkpt lat="43.381655" lon="-6.356840">
        <ele>745.742</ele>
        <time>2018-05-19T01:35:36Z</time>
      </trkpt>
      <trkpt lat="43.381548" lon="-6.356889">
        <ele>744.237</ele>
        <time>2018-05-19T01:35:56Z</time>
      </trkpt>
      <trkpt lat="43.381465" lon="-6.356929">
        <ele>742.847</ele>
        <time>2018-05-19T01:36:16Z</time>
      </trkpt>
      <trkpt lat="43.381284" lon="-6.357131">
        <ele>742.678</ele>
        <time>2018-05-19T01:36:36Z</time>
      </trkpt>
      <trkpt lat="43.380895" lon="-6.357589">
        <ele>740.097</ele>
        <time>2018-05-19T01:36:56Z</time>
      </trkpt>
      <trkpt lat="43.380494" lon="-6.358185">
        <ele>733.511</ele>
        <time>2018-05-19T01:37:16Z</time>
      </trkpt>
      <trkpt lat="43.380217" lon="-6.358453">
        <ele>727.291</ele>
        <time>2018-05-19T01:37:36Z</time>
      </trkpt>
      <trkpt lat="43.380129" lon="-6.358519">
        <ele>725.259</ele>
        <time>2018-05-19T01:37:56Z</time>
      </trkpt>
      <trkpt lat="43.380027" lon="-6.358830">
        <ele>723.603</ele>
        <time>2018-05-19T01:38:16Z</time>
      </trkpt>
      <trkpt lat="43.379917" lon="-6.359201">
        <ele>723.723</ele>
        <time>2018-05-19T01:38:36Z</time>
      </trkpt>
      <trkpt lat="43.379845" lon="-6.359379">
        <ele>724.708</ele>
        <time>2018-05-19T01:38:56Z</time>
      </trkpt>
      <trkpt lat="43.379784" lon="-6.359585">
        <ele>726.477</ele>
        <time>2018-05-19T01:39:16Z</time>
      </trkpt>
      <trkpt lat="43.379682" lon="-6.360022">
        <ele>726.130</ele>
        <time>2018-05-19T01:39:36Z</time>
      </trkpt>
      <trkpt lat="43.379590" lon="-6.360387">
        <ele>727.045</ele>
        <time>2018-05-19T01:39:56Z</time>
      </trkpt>
      <trkpt lat="43.379440" lon="-6.360725">
        <ele>727.435</ele>
        <time>2018-05-19T01:40:16Z</time>
      </trkpt>
      <trkpt lat="43.379303" lon="-6.360940">
        <ele>727.786</ele>
        <time>2018-05-19T01:40:36Z</time>
      </trkpt>
      <trkpt lat="43.379242" lon="-6.360990">
        <ele>727.295</ele>
        <time>2018-05-19T01:40:56Z</time>
      </trkpt>
      <trkpt lat="43.379165" lon="-6.361035">
        <ele>726.429</ele>
        <time>2018-05-19T01:41:16Z</time>
      </trkpt>
      <trkpt lat="43.379014" lon="-6.361127">
        <ele>724.389</ele>
        <time>2018-05-19T01:41:36Z</time>
      </trkpt>
      <trkpt lat="43.378958" lon="-6.361162">
        <ele>723.551</ele>
        <time>2018-05-19T01:41:56Z</time>
      </trkpt>
      <trkpt lat="43.378860" lon="-6.361269">
        <ele>722.201</ele>
        <time>2018-05-19T01:42:16Z</time>
      </trkpt>
      <trkpt lat="43.378791" lon="-6.361383">
        <ele>721.611</ele>
        <time>2018-05-19T01:42:36Z</time>
      </trkpt>
      <trkpt lat="43.378714" lon="-6.361590">
        <ele>723.408</ele>
        <time>2018-05-19T01:42:56Z</time>
      </trkpt>
      <trkpt lat="43.378660" lon="-6.361751">
        <ele>726.367</ele>
        <time>2018-05-19T01:43:16Z</time>
      </trkpt>
      <trkpt lat="43.378600" lon="-6.361847">
        <ele>728.870</ele>
        <time>2018-05-19T01:43:36Z</time>
      </trkpt>
      <trkpt lat="43.378454" lon="-6.361873">
        <ele>728.325</ele>
        <time>2018-05-19T01:43:56Z</time>
      </trkpt>
      <trkpt lat="43.378344" lon="-6.361834">
        <ele>726.345</ele>
        <time>2018-05-19T01:44:16Z</time>
      </trkpt>
      <trkpt lat="43.378210" lon="-6.361799">
        <ele>726.436</ele>
        <time>2018-05-19T01:44:36Z</time>
      </trkpt>
      <trkpt lat="43.378009" lon="-6.361743">
        <ele>726.335</ele>
        <time>2018-05-19T01:44:56Z</time>
      </trkpt>
      <trkpt lat="43.377847" lon="-6.361696">
        <ele>725.019</ele>
        <time>2018-05-19T01:45:16Z</time>
      </trkpt>
      <trkpt lat="43.377615" lon="-6.361622">
        <ele>720.239</ele>
        <time>2018-05-19T01:45:36Z</time>
      </trkpt>
      <trkpt lat="43.377453" lon="-6.361618">
        <ele>717.399</ele>
        <time>2018-05-19T01:45:56Z</time>
      </trkpt>
      <trkpt lat="43.377347" lon="-6.361701">
        <ele>716.307</ele>
        <time>2018-05-19T01:46:16Z</time>
      </trkpt>
      <trkpt lat="43.377255" lon="-6.361803">
        <ele>715.527</ele>
        <time>2018-05-19T01:46:36Z</time>
      </trkpt>
      <trkpt lat="43.377162" lon="-6.361942">
        <ele>715.408</ele>
        <time>2018-05-19T01:46:56Z</time>
      </trkpt>
      <trkpt lat="43.376905" lon="-6.362338">
        <ele>714.951</ele>
        <time>2018-05-19T01:47:16Z</time>
      </trkpt>
      <trkpt lat="43.376799" lon="-6.362491">
        <ele>714.754</ele>
        <time>2018-05-19T01:47:36Z</time>
      </trkpt>
      <trkpt lat="43.376655" lon="-6.362721">
        <ele>714.119</ele>
        <time>2018-05-19T01:47:56Z</time>
      </trkpt>
      <trkpt lat="43.376531" lon="-6.362916">
        <ele>713.399</ele>
        <time>2018-05-19T01:48:16Z</time>
      </trkpt>
      <trkpt lat="43.376451" lon="-6.363026">
        <ele>712.430</ele>
        <time>2018-05-19T01:48:36Z</time>
      </trkpt>
      <trkpt lat="43.376367" lon="-6.363137">
        <ele>712.019</ele>
        <time>2018-05-19T01:48:56Z</time>
      </trkpt>
      <trkpt lat="43.376256" lon="-6.363258">
        <ele>711.883</ele>
        <time>2018-05-19T01:49:16Z</time>
      </trkpt>
      <trkpt lat="43.376155" lon="-6.363363">
        <ele>711.653</ele>
        <time>2018-05-19T01:49:36Z</time>
      </trkpt>
      <trkpt lat="43.376058" lon="-6.363520">
        <ele>713.151</ele>
        <time>2018-05-19T01:49:56Z</time>
      </trkpt>
      <trkpt lat="43.375949" lon="-6.363682">
        <ele>714.001</ele>
        <time>2018-05-19T01:50:16Z</time>
      </trkpt>
      <trkpt lat="43.375805" lon="-6.363856">
        <ele>713.011</ele>
        <time>2018-05-19T01:50:36Z</time>
      </trkpt>
      <trkpt lat="43.375651" lon="-6.364026">
        <ele>710.908</ele>
        <time>2018-05-19T01:50:56Z</time>
      </trkpt>
      <trkpt lat="43.375527" lon="-6.364152">
        <ele>709.427</ele>
        <time>2018-05-19T01:51:16Z</time>
      </trkpt>
      <trkpt lat="43.375374" lon="-6.364261">
        <ele>708.260</ele>
        <time>2018-05-19T01:51:36Z</time>
      </trkpt>
      <trkpt lat="43.375269" lon="-6.364329">
        <ele>707.875</ele>
        <time>2018-05-19T01:51:56Z</time>
      </trkpt>
      <trkpt lat="43.375151" lon="-6.364417">
        <ele>708.585</ele>
        <time>2018-05-19T01:52:16Z</time>
      </trkpt>
      <trkpt lat="43.374961" lon="-6.364546">
        <ele>709.666</ele>
        <time>2018-05-19T01:52:36Z</time>
      </trkpt>
      <trkpt lat="43.374835" lon="-6.364651">
        <ele>710.265</ele>
        <time>2018-05-19T01:52:56Z</time>
      </trkpt>
      <trkpt lat="43.374541" lon="-6.364910">
        <ele>709.679</ele>
        <time>2018-05-19T01:53:16Z</time>
      </trkpt>
      <trkpt lat="43.374391" lon="-6.365015">
        <ele>708.519</ele>
        <time>2018-05-19T01:53:36Z</time>
      </trkpt>
      <trkpt lat="43.374195" lon="-6.365076">
        <ele>707.188</ele>
        <time>2018-05-19T01:53:56Z</time>
      </trkpt>
      <trkpt lat="43.374086" lon="-6.365214">
        <ele>707.724</ele>
        <time>2018-05-19T01:54:16Z</time>
      </trkpt>
      <trkpt lat="43.374012" lon="-6.365222">
        <ele>707.326</ele>
        <time>2018-05-19T01:54:36Z</time>
      </trkpt>
      <trkpt lat="43.373910" lon="-6.365146">
        <ele>705.708</ele>
        <time>2018-05-19T01:54:56Z</time>
      </trkpt>
      <trkpt lat="43.373804" lon="-6.365268">
        <ele>706.360</ele>
        <time>2018-05-19T01:55:16Z</time>
      </trkpt>
      <trkpt lat="43.373685" lon="-6.365345">
        <ele>706.473</ele>
        <time>2018-05-19T01:55:36Z</time>
      </trkpt>
      <trkpt lat="43.373604" lon="-6.365418">
        <ele>706.968</ele>
        <time>2018-05-19T01:55:56Z</time>
      </trkpt>
      <trkpt lat="43.373455" lon="-6.365553">
        <ele>707.388</ele>
        <time>2018-05-19T01:56:16Z</time>
      </trkpt>
      <trkpt lat="43.373319" lon="-6.365657">
        <ele>707.869</ele>
        <time>2018-05-19T01:56:36Z</time>
      </trkpt>
      <trkpt lat="43.373172" lon="-6.365781">
        <ele>709.518</ele>
        <time>2018-05-19T01:56:56Z</time>
      </trkpt>
      <trkpt lat="43.373044" lon="-6.365901">
        <ele>711.512</ele>
        <time>2018-05-19T01:57:16Z</time>
      </trkpt>
      <trkpt lat="43.372918" lon="-6.366020">
        <ele>714.562</ele>
        <time>2018-05-19T01:57:36Z</time>
      </trkpt>
      <trkpt lat="43.372779" lon="-6.366108">
        <ele>716.931</ele>
        <time>2018-05-19T01:57:56Z</time>
      </trkpt>
      <trkpt lat="43.372658" lon="-6.366140">
        <ele>715.161</ele>
        <time>2018-05-19T01:58:16Z</time>
      </trkpt>
      <trkpt lat="43.372447" lon="-6.366137">
        <ele>712.407</ele>
        <time>2018-05-19T01:58:36Z</time>
      </trkpt>
      <trkpt lat="43.372371" lon="-6.366104">
        <ele>712.508</ele>
        <time>2018-05-19T01:58:56Z</time>
      </trkpt>
      <trkpt lat="43.372175" lon="-6.366083">
        <ele>713.295</ele>
        <time>2018-05-19T01:59:16Z</time>
      </trkpt>
      <trkpt lat="43.372036" lon="-6.366088">
        <ele>714.248</ele>
        <time>2018-05-19T01:59:36Z</time>
      </trkpt>
      <trkpt lat="43.371878" lon="-6.366132">
        <ele>714.813</ele>
        <time>2018-05-19T01:59:56Z</time>
      </trkpt>
      <trkpt lat="43.371718" lon="-6.366284">
        <ele>714.813</ele>
        <time>2018-05-19T02:00:16Z</time>
      </trkpt>
      <trkpt lat="43.371589" lon="-6.366451">
        <ele>715.574</ele>
        <time>2018-05-19T02:00:36Z</time>
      </trkpt>
      <trkpt lat="43.371504" lon="-6.366579">
        <ele>716.353</ele>
        <time>2018-05-19T02:00:56Z</time>
      </trkpt>
      <trkpt lat="43.371396" lon="-6.366740">
        <ele>716.857</ele>
        <time>2018-05-19T02:01:16Z</time>
      </trkpt>
      <trkpt lat="43.371296" lon="-6.366897">
        <ele>717.387</ele>
        <time>2018-05-19T02:01:36Z</time>
      </trkpt>
      <trkpt lat="43.371218" lon="-6.367026">
        <ele>717.087</ele>
        <time>2018-05-19T02:01:56Z</time>
      </trkpt>
      <trkpt lat="43.371134" lon="-6.367166">
        <ele>716.942</ele>
        <time>2018-05-19T02:02:16Z</time>
      </trkpt>
      <trkpt lat="43.370996" lon="-6.367389">
        <ele>717.226</ele>
        <time>2018-05-19T02:02:36Z</time>
      </trkpt>
      <trkpt lat="43.370845" lon="-6.367634">
        <ele>718.008</ele>
        <time>2018-05-19T02:02:56Z</time>
      </trkpt>
      <trkpt lat="43.370748" lon="-6.367785">
        <ele>719.150</ele>
        <time>2018-05-19T02:03:16Z</time>
      </trkpt>
      <trkpt lat="43.370671" lon="-6.367922">
        <ele>720.063</ele>
        <time>2018-05-19T02:03:36Z</time>
      </trkpt>
      <trkpt lat="43.370681" lon="-6.367959">
        <ele>720.388</ele>
        <time>2018-05-19T02:03:56Z</time>
      </trkpt>
      <trkpt lat="43.370852" lon="-6.368127">
        <ele>721.528</ele>
        <time>2018-05-19T02:04:16Z</time>
      </trkpt>
      <trkpt lat="43.370976" lon="-6.368203">
        <ele>722.139</ele>
        <time>2018-05-19T02:04:36Z</time>
      </trkpt>
      <trkpt lat="43.371116" lon="-6.368318">
        <ele>723.038</ele>
        <time>2018-05-19T02:04:56Z</time>
      </trkpt>
      <trkpt lat="43.371294" lon="-6.368318">
        <ele>725.562</ele>
        <time>2018-05-19T02:05:16Z</time>
      </trkpt>
      <trkpt lat="43.371465" lon="-6.368292">
        <ele>728.912</ele>
        <time>2018-05-19T02:05:36Z</time>
      </trkpt>
      <trkpt lat="43.371607" lon="-6.368306">
        <ele>733.113</ele>
        <time>2018-05-19T02:05:56Z</time>
      </trkpt>
      <trkpt lat="43.371630" lon="-6.368365">
        <ele>734.143</ele>
        <time>2018-05-19T02:06:16Z</time>
      </trkpt>
      <trkpt lat="43.371625" lon="-6.368503">
        <ele>734.507</ele>
        <time>2018-05-19T02:06:36Z</time>
      </trkpt>
      <trkpt lat="43.371587" lon="-6.368681">
        <ele>734.608</ele>
        <time>2018-05-19T02:06:56Z</time>
      </trkpt>
      <trkpt lat="43.371522" lon="-6.368866">
        <ele>734.763</ele>
        <time>2018-05-19T02:07:16Z</time>
      </trkpt>
      <trkpt lat="43.371447" lon="-6.369125">
        <ele>737.136</ele>
        <time>2018-05-19T02:07:36Z</time>
      </trkpt>
      <trkpt lat="43.371397" lon="-6.369336">
        <ele>740.221</ele>
        <time>2018-05-19T02:07:56Z</time>
      </trkpt>
      <trkpt lat="43.371309" lon="-6.369595">
        <ele>743.431</ele>
        <time>2018-05-19T02:08:16Z</time>
      </trkpt>
      <trkpt lat="43.371224" lon="-6.369816">
        <ele>745.452</ele>
        <time>2018-05-19T02:08:36Z</time>
      </trkpt>
      <trkpt lat="43.371179" lon="-6.370006">
        <ele>747.381</ele>
        <time>2018-05-19T02:08:56Z</time>
      </trkpt>
      <trkpt lat="43.371079" lon="-6.370251">
        <ele>746.025</ele>
        <time>2018-05-19T02:09:16Z</time>
      </trkpt>
      <trkpt lat="43.371018" lon="-6.370446">
        <ele>745.715</ele>
        <time>2018-05-19T02:09:36Z</time>
      </trkpt>
      <trkpt lat="43.370962" lon="-6.370584">
        <ele>745.547</ele>
        <time>2018-05-19T02:09:56Z</time>
      </trkpt>
      <trkpt lat="43.370876" lon="-6.370818">
        <ele>745.129</ele>
        <time>2018-05-19T02:10:16Z</time>
      </trkpt>
      <trkpt lat="43.370795" lon="-6.371088">
        <ele>746.121</ele>
        <time>2018-05-19T02:10:36Z</time>
      </trkpt>
      <trkpt lat="43.370746" lon="-6.371312">
        <ele>747.608</ele>
        <time>2018-05-19T02:10:56Z</time>
      </trkpt>
      <trkpt lat="43.370685" lon="-6.371537">
        <ele>749.716</ele>
        <time>2018-05-19T02:11:16Z</time>
      </trkpt>
      <trkpt lat="43.370619" lon="-6.371752">
        <ele>751.549</ele>
        <time>2018-05-19T02:11:36Z</time>
      </trkpt>
      <trkpt lat="43.370569" lon="-6.371961">
        <ele>753.554</ele>
        <time>2018-05-19T02:11:56Z</time>
      </trkpt>
      <trkpt lat="43.370520" lon="-6.372123">
        <ele>755.194</ele>
        <time>2018-05-19T02:12:16Z</time>
      </trkpt>
      <trkpt lat="43.370389" lon="-6.372423">
        <ele>758.525</ele>
        <time>2018-05-19T02:12:36Z</time>
      </trkpt>
      <trkpt lat="43.370318" lon="-6.372651">
        <ele>759.484</ele>
        <time>2018-05-19T02:12:56Z</time>
      </trkpt>
      <trkpt lat="43.370247" lon="-6.372895">
        <ele>758.758</ele>
        <time>2018-05-19T02:13:16Z</time>
      </trkpt>
      <trkpt lat="43.370175" lon="-6.373087">
        <ele>758.188</ele>
        <time>2018-05-19T02:13:36Z</time>
      </trkpt>
      <trkpt lat="43.370096" lon="-6.373261">
        <ele>757.845</ele>
        <time>2018-05-19T02:13:56Z</time>
      </trkpt>
      <trkpt lat="43.370022" lon="-6.373410">
        <ele>757.147</ele>
        <time>2018-05-19T02:14:16Z</time>
      </trkpt>
      <trkpt lat="43.369969" lon="-6.373561">
        <ele>757.211</ele>
        <time>2018-05-19T02:14:36Z</time>
      </trkpt>
      <trkpt lat="43.369886" lon="-6.373708">
        <ele>757.708</ele>
        <time>2018-05-19T02:14:56Z</time>
      </trkpt>
      <trkpt lat="43.369791" lon="-6.373856">
        <ele>759.036</ele>
        <time>2018-05-19T02:15:16Z</time>
      </trkpt>
      <trkpt lat="43.369686" lon="-6.373985">
        <ele>760.539</ele>
        <time>2018-05-19T02:15:36Z</time>
      </trkpt>
      <trkpt lat="43.369539" lon="-6.374089">
        <ele>761.394</ele>
        <time>2018-05-19T02:15:56Z</time>
      </trkpt>
      <trkpt lat="43.369344" lon="-6.374158">
        <ele>761.874</ele>
        <time>2018-05-19T02:16:16Z</time>
      </trkpt>
      <trkpt lat="43.369161" lon="-6.374233">
        <ele>763.225</ele>
        <time>2018-05-19T02:16:36Z</time>
      </trkpt>
      <trkpt lat="43.368958" lon="-6.374316">
        <ele>765.144</ele>
        <time>2018-05-19T02:16:56Z</time>
      </trkpt>
      <trkpt lat="43.368821" lon="-6.374431">
        <ele>767.538</ele>
        <time>2018-05-19T02:17:16Z</time>
      </trkpt>
      <trkpt lat="43.368703" lon="-6.374537">
        <ele>769.598</ele>
        <time>2018-05-19T02:17:36Z</time>
      </trkpt>
      <trkpt lat="43.368579" lon="-6.374607">
        <ele>770.328</ele>
        <time>2018-05-19T02:17:56Z</time>
      </trkpt>
      <trkpt lat="43.368451" lon="-6.374715">
        <ele>772.389</ele>
        <time>2018-05-19T02:18:16Z</time>
      </trkpt>
      <trkpt lat="43.368383" lon="-6.374799">
        <ele>773.717</ele>
        <time>2018-05-19T02:18:36Z</time>
      </trkpt>
      <trkpt lat="43.368248" lon="-6.375005">
        <ele>776.508</ele>
        <time>2018-05-19T02:18:56Z</time>
      </trkpt>
      <trkpt lat="43.368184" lon="-6.375117">
        <ele>778.074</ele>
        <time>2018-05-19T02:19:16Z</time>
      </trkpt>
      <trkpt lat="43.368055" lon="-6.375321">
        <ele>779.577</ele>
        <time>2018-05-19T02:19:36Z</time>
      </trkpt>
      <trkpt lat="43.367907" lon="-6.375553">
        <ele>779.822</ele>
        <time>2018-05-19T02:19:56Z</time>
      </trkpt>
      <trkpt lat="43.367740" lon="-6.375831">
        <ele>781.332</ele>
        <time>2018-05-19T02:20:16Z</time>
      </trkpt>
      <trkpt lat="43.367548" lon="-6.376244">
        <ele>781.843</ele>
        <time>2018-05-19T02:20:36Z</time>
      </trkpt>
      <trkpt lat="43.367438" lon="-6.376439">
        <ele>779.822</ele>
        <time>2018-05-19T02:20:56Z</time>
      </trkpt>
      <trkpt lat="43.367285" lon="-6.376753">
        <ele>777.126</ele>
        <time>2018-05-19T02:21:16Z</time>
      </trkpt>
      <trkpt lat="43.367169" lon="-6.376981">
        <ele>775.636</ele>
        <time>2018-05-19T02:21:36Z</time>
      </trkpt>
      <trkpt lat="43.367126" lon="-6.377126">
        <ele>776.619</ele>
        <time>2018-05-19T02:21:56Z</time>
      </trkpt>
      <trkpt lat="43.367047" lon="-6.377394">
        <ele>779.409</ele>
        <time>2018-05-19T02:22:16Z</time>
      </trkpt>
      <trkpt lat="43.366917" lon="-6.377678">
        <ele>780.319</ele>
        <time>2018-05-19T02:22:36Z</time>
      </trkpt>
      <trkpt lat="43.366833" lon="-6.377866">
        <ele>780.208</ele>
        <time>2018-05-19T02:22:56Z</time>
      </trkpt>
      <trkpt lat="43.366785" lon="-6.377966">
        <ele>779.923</ele>
        <time>2018-05-19T02:23:16Z</time>
      </trkpt>
      <trkpt lat="43.366693" lon="-6.378157">
        <ele>780.786</ele>
        <time>2018-05-19T02:23:36Z</time>
      </trkpt>
      <trkpt lat="43.366592" lon="-6.378365">
        <ele>783.081</ele>
        <time>2018-05-19T02:23:56Z</time>
      </trkpt>
      <trkpt lat="43.366483" lon="-6.378571">
        <ele>783.321</ele>
        <time>2018-05-19T02:24:16Z</time>
      </trkpt>
      <trkpt lat="43.366395" lon="-6.378740">
        <ele>783.072</ele>
        <time>2018-05-19T02:24:36Z</time>
      </trkpt>
      <trkpt lat="43.366280" lon="-6.378951">
        <ele>783.551</ele>
        <time>2018-05-19T02:24:56Z</time>
      </trkpt>
      <trkpt lat="43.366186" lon="-6.379103">
        <ele>784.995</ele>
        <time>2018-05-19T02:25:16Z</time>
      </trkpt>
      <trkpt lat="43.366081" lon="-6.379242">
        <ele>785.835</ele>
        <time>2018-05-19T02:25:36Z</time>
      </trkpt>
      <trkpt lat="43.366003" lon="-6.379391">
        <ele>786.861</ele>
        <time>2018-05-19T02:25:56Z</time>
      </trkpt>
      <trkpt lat="43.365925" lon="-6.379518">
        <ele>788.121</ele>
        <time>2018-05-19T02:26:16Z</time>
      </trkpt>
      <trkpt lat="43.365839" lon="-6.379585">
        <ele>788.613</ele>
        <time>2018-05-19T02:26:36Z</time>
      </trkpt>
      <trkpt lat="43.365768" lon="-6.379587">
        <ele>788.508</ele>
        <time>2018-05-19T02:26:56Z</time>
      </trkpt>
      <trkpt lat="43.365545" lon="-6.379608">
        <ele>788.328</ele>
        <time>2018-05-19T02:27:16Z</time>
      </trkpt>
      <trkpt lat="43.365325" lon="-6.379607">
        <ele>787.721</ele>
        <time>2018-05-19T02:27:36Z</time>
      </trkpt>
      <trkpt lat="43.365108" lon="-6.379643">
        <ele>786.576</ele>
        <time>2018-05-19T02:27:56Z</time>
      </trkpt>
      <trkpt lat="43.364919" lon="-6.379646">
        <ele>783.796</ele>
        <time>2018-05-19T02:28:16Z</time>
      </trkpt>
      <trkpt lat="43.364725" lon="-6.379667">
        <ele>780.117</ele>
        <time>2018-05-19T02:28:36Z</time>
      </trkpt>
      <trkpt lat="43.364525" lon="-6.379721">
        <ele>777.486</ele>
        <time>2018-05-19T02:28:56Z</time>
      </trkpt>
      <trkpt lat="43.364238" lon="-6.379832">
        <ele>774.770</ele>
        <time>2018-05-19T02:29:16Z</time>
      </trkpt>
      <trkpt lat="43.364067" lon="-6.379889">
        <ele>772.290</ele>
        <time>2018-05-19T02:29:36Z</time>
      </trkpt>
      <trkpt lat="43.363839" lon="-6.379991">
        <ele>768.891</ele>
        <time>2018-05-19T02:29:56Z</time>
      </trkpt>
      <trkpt lat="43.363697" lon="-6.380046">
        <ele>766.481</ele>
        <time>2018-05-19T02:30:16Z</time>
      </trkpt>
      <trkpt lat="43.363612" lon="-6.380079">
        <ele>764.919</ele>
        <time>2018-05-19T02:30:36Z</time>
      </trkpt>
      <trkpt lat="43.363497" lon="-6.380115">
        <ele>763.208</ele>
        <time>2018-05-19T02:30:56Z</time>
      </trkpt>
      <trkpt lat="43.363318" lon="-6.380176">
        <ele>760.611</ele>
        <time>2018-05-19T02:31:16Z</time>
      </trkpt>
      <trkpt lat="43.363037" lon="-6.380210">
        <ele>756.514</ele>
        <time>2018-05-19T02:31:36Z</time>
      </trkpt>
      <trkpt lat="43.362849" lon="-6.380216">
        <ele>753.539</ele>
        <time>2018-05-19T02:31:56Z</time>
      </trkpt>
      <trkpt lat="43.362712" lon="-6.380227">
        <ele>751.379</ele>
        <time>2018-05-19T02:32:16Z</time>
      </trkpt>
      <trkpt lat="43.362491" lon="-6.380227">
        <ele>747.350</ele>
        <time>2018-05-19T02:32:36Z</time>
      </trkpt>
      <trkpt lat="43.362413" lon="-6.380261">
        <ele>746.669</ele>
        <time>2018-05-19T02:32:56Z</time>
      </trkpt>
      <trkpt lat="43.362310" lon="-6.380455">
        <ele>746.383</ele>
        <time>2018-05-19T02:33:16Z</time>
      </trkpt>
      <trkpt lat="43.362211" lon="-6.380697">
        <ele>746.433</ele>
        <time>2018-05-19T02:33:36Z</time>
      </trkpt>
      <trkpt lat="43.362173" lon="-6.381029">
        <ele>747.213</ele>
        <time>2018-05-19T02:33:56Z</time>
      </trkpt>
      <trkpt lat="43.362143" lon="-6.381283">
        <ele>748.443</ele>
        <time>2018-05-19T02:34:16Z</time>
      </trkpt>
      <trkpt lat="43.362037" lon="-6.381513">
        <ele>749.207</ele>
        <time>2018-05-19T02:34:36Z</time>
      </trkpt>
      <trkpt lat="43.361919" lon="-6.381757">
        <ele>749.108</ele>
        <time>2018-05-19T02:34:56Z</time>
      </trkpt>
      <trkpt lat="43.361818" lon="-6.381989">
        <ele>749.443</ele>
        <time>2018-05-19T02:35:16Z</time>
      </trkpt>
      <trkpt lat="43.361710" lon="-6.382228">
        <ele>751.026</ele>
        <time>2018-05-19T02:35:36Z</time>
      </trkpt>
      <trkpt lat="43.361676" lon="-6.382432">
        <ele>751.821</ele>
        <time>2018-05-19T02:35:56Z</time>
      </trkpt>
      <trkpt lat="43.361589" lon="-6.382692">
        <ele>751.351</ele>
        <time>2018-05-19T02:36:16Z</time>
      </trkpt>
      <trkpt lat="43.361514" lon="-6.382880">
        <ele>751.312</ele>
        <time>2018-05-19T02:36:36Z</time>
      </trkpt>
      <trkpt lat="43.361423" lon="-6.383102">
        <ele>751.431</ele>
        <time>2018-05-19T02:36:56Z</time>
      </trkpt>
      <trkpt lat="43.361314" lon="-6.383328">
        <ele>750.655</ele>
        <time>2018-05-19T02:37:16Z</time>
      </trkpt>
      <trkpt lat="43.361206" lon="-6.383536">
        <ele>748.745</ele>
        <time>2018-05-19T02:37:36Z</time>
      </trkpt>
      <trkpt lat="43.361121" lon="-6.383678">
        <ele>747.655</ele>
        <time>2018-05-19T02:37:56Z</time>
      </trkpt>
      <trkpt lat="43.361085" lon="-6.383751">
        <ele>747.907</ele>
        <time>2018-05-19T02:38:16Z</time>
      </trkpt>
      <trkpt lat="43.361012" lon="-6.383883">
        <ele>748.617</ele>
        <time>2018-05-19T02:38:36Z</time>
      </trkpt>
      <trkpt lat="43.360880" lon="-6.384131">
        <ele>749.208</ele>
        <time>2018-05-19T02:38:56Z</time>
      </trkpt>
      <trkpt lat="43.360789" lon="-6.384222">
        <ele>747.737</ele>
        <time>2018-05-19T02:39:16Z</time>
      </trkpt>
      <trkpt lat="43.360593" lon="-6.384352">
        <ele>743.110</ele>
        <time>2018-05-19T02:39:36Z</time>
      </trkpt>
      <trkpt lat="43.360471" lon="-6.384428">
        <ele>742.065</ele>
        <time>2018-05-19T02:39:56Z</time>
      </trkpt>
      <trkpt lat="43.360340" lon="-6.384514">
        <ele>741.845</ele>
        <time>2018-05-19T02:40:16Z</time>
      </trkpt>
      <trkpt lat="43.360237" lon="-6.384581">
        <ele>741.376</ele>
        <time>2018-05-19T02:40:36Z</time>
      </trkpt>
      <trkpt lat="43.360122" lon="-6.384649">
        <ele>740.685</ele>
        <time>2018-05-19T02:40:56Z</time>
      </trkpt>
      <trkpt lat="43.360005" lon="-6.384708">
        <ele>740.079</ele>
        <time>2018-05-19T02:41:16Z</time>
      </trkpt>
      <trkpt lat="43.359844" lon="-6.384799">
        <ele>739.299</ele>
        <time>2018-05-19T02:41:36Z</time>
      </trkpt>
      <trkpt lat="43.359666" lon="-6.384910">
        <ele>738.269</ele>
        <time>2018-05-19T02:41:56Z</time>
      </trkpt>
      <trkpt lat="43.359581" lon="-6.384997">
        <ele>738.004</ele>
        <time>2018-05-19T02:42:16Z</time>
      </trkpt>
      <trkpt lat="43.359421" lon="-6.385151">
        <ele>737.224</ele>
        <time>2018-05-19T02:42:36Z</time>
      </trkpt>
      <trkpt lat="43.359371" lon="-6.385207">
        <ele>736.708</ele>
        <time>2018-05-19T02:42:56Z</time>
      </trkpt>
      <trkpt lat="43.359145" lon="-6.385454">
        <ele>733.968</ele>
        <time>2018-05-19T02:43:16Z</time>
      </trkpt>
      <trkpt lat="43.359053" lon="-6.385616">
        <ele>733.991</ele>
        <time>2018-05-19T02:43:36Z</time>
      </trkpt>
      <trkpt lat="43.358976" lon="-6.385735">
        <ele>734.286</ele>
        <time>2018-05-19T02:43:56Z</time>
      </trkpt>
      <trkpt lat="43.358888" lon="-6.385902">
        <ele>734.596</ele>
        <time>2018-05-19T02:44:16Z</time>
      </trkpt>
      <trkpt lat="43.358800" lon="-6.386040">
        <ele>734.977</ele>
        <time>2018-05-19T02:44:36Z</time>
      </trkpt>
      <trkpt lat="43.358722" lon="-6.386256">
        <ele>734.976</ele>
        <time>2018-05-19T02:44:56Z</time>
      </trkpt>
      <trkpt lat="43.358668" lon="-6.386399">
        <ele>735.040</ele>
        <time>2018-05-19T02:45:16Z</time>
      </trkpt>
      <trkpt lat="43.358577" lon="-6.386613">
        <ele>733.980</ele>
        <time>2018-05-19T02:45:36Z</time>
      </trkpt>
      <trkpt lat="43.358487" lon="-6.386817">
        <ele>731.595</ele>
        <time>2018-05-19T02:45:56Z</time>
      </trkpt>
      <trkpt lat="43.358473" lon="-6.387002">
        <ele>729.449</ele>
        <time>2018-05-19T02:46:16Z</time>
      </trkpt>
      <trkpt lat="43.358438" lon="-6.387185">
        <ele>727.223</ele>
        <time>2018-05-19T02:46:36Z</time>
      </trkpt>
      <trkpt lat="43.358417" lon="-6.387354">
        <ele>725.808</ele>
        <time>2018-05-19T02:46:56Z</time>
      </trkpt>
      <trkpt lat="43.358352" lon="-6.387562">
        <ele>724.681</ele>
        <time>2018-05-19T02:47:16Z</time>
      </trkpt>
      <trkpt lat="43.358253" lon="-6.387691">
        <ele>723.454</ele>
        <time>2018-05-19T02:47:36Z</time>
      </trkpt>
      <trkpt lat="43.358011" lon="-6.387921">
        <ele>721.849</ele>
        <time>2018-05-19T02:47:56Z</time>
      </trkpt>
      <trkpt lat="43.357928" lon="-6.387987">
        <ele>720.649</ele>
        <time>2018-05-19T02:48:16Z</time>
      </trkpt>
      <trkpt lat="43.357812" lon="-6.388043">
        <ele>719.380</ele>
        <time>2018-05-19T02:48:36Z</time>
      </trkpt>
      <trkpt lat="43.357725" lon="-6.388106">
        <ele>718.669</ele>
        <time>2018-05-19T02:48:56Z</time>
      </trkpt>
      <trkpt lat="43.357601" lon="-6.388189">
        <ele>717.773</ele>
        <time>2018-05-19T02:49:16Z</time>
      </trkpt>
      <trkpt lat="43.357494" lon="-6.388280">
        <ele>717.423</ele>
        <time>2018-05-19T02:49:36Z</time>
      </trkpt>
      <trkpt lat="43.357352" lon="-6.388491">
        <ele>718.718</ele>
        <time>2018-05-19T02:49:56Z</time>
      </trkpt>
      <trkpt lat="43.357265" lon="-6.388787">
        <ele>723.198</ele>
        <time>2018-05-19T02:50:16Z</time>
      </trkpt>
      <trkpt lat="43.357212" lon="-6.388998">
        <ele>725.717</ele>
        <time>2018-05-19T02:50:36Z</time>
      </trkpt>
      <trkpt lat="43.357191" lon="-6.389223">
        <ele>727.008</ele>
        <time>2018-05-19T02:50:56Z</time>
      </trkpt>
      <trkpt lat="43.357169" lon="-6.389365">
        <ele>727.353</ele>
        <time>2018-05-19T02:51:16Z</time>
      </trkpt>
      <trkpt lat="43.357062" lon="-6.389523">
        <ele>727.146</ele>
        <time>2018-05-19T02:51:36Z</time>
      </trkpt>
      <trkpt lat="43.356946" lon="-6.389649">
        <ele>726.781</ele>
        <time>2018-05-19T02:51:56Z</time>
      </trkpt>
      <trkpt lat="43.356806" lon="-6.389779">
        <ele>726.981</ele>
        <time>2018-05-19T02:52:16Z</time>
      </trkpt>
      <trkpt lat="43.356671" lon="-6.389914">
        <ele>727.492</ele>
        <time>2018-05-19T02:52:36Z</time>
      </trkpt>
      <trkpt lat="43.356486" lon="-6.390135">
        <ele>728.041</ele>
        <time>2018-05-19T02:52:56Z</time>
      </trkpt>
      <trkpt lat="43.356450" lon="-6.390202">
        <ele>728.145</ele>
        <time>2018-05-19T02:53:16Z</time>
      </trkpt>
      <trkpt lat="43.356430" lon="-6.390213">
        <ele>728.075</ele>
        <time>2018-05-19T02:53:36Z</time>
      </trkpt>
      <trkpt lat="43.356323" lon="-6.390319">
        <ele>727.555</ele>
        <time>2018-05-19T02:53:56Z</time>
      </trkpt>
      <trkpt lat="43.356231" lon="-6.390427">
        <ele>726.507</ele>
        <time>2018-05-19T02:54:16Z</time>
      </trkpt>
      <trkpt lat="43.356096" lon="-6.390553">
        <ele>723.917</ele>
        <time>2018-05-19T02:54:36Z</time>
      </trkpt>
      <trkpt lat="43.355972" lon="-6.390675">
        <ele>723.408</ele>
        <time>2018-05-19T02:54:56Z</time>
      </trkpt>
      <trkpt lat="43.355843" lon="-6.390819">
        <ele>723.087</ele>
        <time>2018-05-19T02:55:16Z</time>
      </trkpt>
      <trkpt lat="43.355776" lon="-6.390875">
        <ele>722.890</ele>
        <time>2018-05-19T02:55:36Z</time>
      </trkpt>
      <trkpt lat="43.355670" lon="-6.390898">
        <ele>722.435</ele>
        <time>2018-05-19T02:55:56Z</time>
      </trkpt>
      <trkpt lat="43.355542" lon="-6.390943">
        <ele>722.125</ele>
        <time>2018-05-19T02:56:16Z</time>
      </trkpt>
      <trkpt lat="43.355325" lon="-6.390926">
        <ele>722.896</ele>
        <time>2018-05-19T02:56:36Z</time>
      </trkpt>
      <trkpt lat="43.355106" lon="-6.390846">
        <ele>723.965</ele>
        <time>2018-05-19T02:56:56Z</time>
      </trkpt>
      <trkpt lat="43.355022" lon="-6.390808">
        <ele>724.579</ele>
        <time>2018-05-19T02:57:16Z</time>
      </trkpt>
      <trkpt lat="43.354813" lon="-6.390807">
        <ele>724.829</ele>
        <time>2018-05-19T02:57:36Z</time>
      </trkpt>
      <trkpt lat="43.354635" lon="-6.390865">
        <ele>724.864</ele>
        <time>2018-05-19T02:57:56Z</time>
      </trkpt>
      <trkpt lat="43.354461" lon="-6.390943">
        <ele>724.506</ele>
        <time>2018-05-19T02:58:16Z</time>
      </trkpt>
      <trkpt lat="43.354350" lon="-6.390971">
        <ele>724.316</ele>
        <time>2018-05-19T02:58:36Z</time>
      </trkpt>
      <trkpt lat="43.354109" lon="-6.391067">
        <ele>724.008</ele>
        <time>2018-05-19T02:58:56Z</time>
      </trkpt>
      <trkpt lat="43.353919" lon="-6.391137">
        <ele>723.968</ele>
        <time>2018-05-19T02:59:16Z</time>
      </trkpt>
      <trkpt lat="43.353721" lon="-6.391266">
        <ele>722.831</ele>
        <time>2018-05-19T02:59:36Z</time>
      </trkpt>
      <trkpt lat="43.353617" lon="-6.391384">
        <ele>722.076</ele>
        <time>2018-05-19T02:59:56Z</time>
      </trkpt>
      <trkpt lat="43.353505" lon="-6.391471">
        <ele>721.896</ele>
        <time>2018-05-19T03:00:16Z</time>
      </trkpt>
      <trkpt lat="43.353310" lon="-6.391615">
        <ele>721.827</ele>
        <time>2018-05-19T03:00:36Z</time>
      </trkpt>
      <trkpt lat="43.353170" lon="-6.391708">
        <ele>720.656</ele>
        <time>2018-05-19T03:00:56Z</time>
      </trkpt>
      <trkpt lat="43.352958" lon="-6.391896">
        <ele>717.480</ele>
        <time>2018-05-19T03:01:16Z</time>
      </trkpt>
      <trkpt lat="43.352803" lon="-6.392040">
        <ele>714.150</ele>
        <time>2018-05-19T03:01:36Z</time>
      </trkpt>
      <trkpt lat="43.352690" lon="-6.392111">
        <ele>712.376</ele>
        <time>2018-05-19T03:01:56Z</time>
      </trkpt>
      <trkpt lat="43.352542" lon="-6.392212">
        <ele>710.590</ele>
        <time>2018-05-19T03:02:16Z</time>
      </trkpt>
      <trkpt lat="43.352449" lon="-6.392279">
        <ele>709.719</ele>
        <time>2018-05-19T03:02:36Z</time>
      </trkpt>
      <trkpt lat="43.352338" lon="-6.392387">
        <ele>709.208</ele>
        <time>2018-05-19T03:02:56Z</time>
      </trkpt>
      <trkpt lat="43.352261" lon="-6.392471">
        <ele>709.079</ele>
        <time>2018-05-19T03:03:16Z</time>
      </trkpt>
      <trkpt lat="43.352142" lon="-6.392697">
        <ele>709.362</ele>
        <time>2018-05-19T03:03:36Z</time>
      </trkpt>
      <trkpt lat="43.352043" lon="-6.392854">
        <ele>709.627</ele>
        <time>2018-05-19T03:03:56Z</time>
      </trkpt>
      <trkpt lat="43.351946" lon="-6.393104">
        <ele>710.297</ele>
        <time>2018-05-19T03:04:16Z</time>
      </trkpt>
      <trkpt lat="43.351812" lon="-6.393217">
        <ele>708.768</ele>
        <time>2018-05-19T03:04:36Z</time>
      </trkpt>
      <trkpt lat="43.351719" lon="-6.393301">
        <ele>707.687</ele>
        <time>2018-05-19T03:04:56Z</time>
      </trkpt>
      <trkpt lat="43.351576" lon="-6.393371">
        <ele>706.641</ele>
        <time>2018-05-19T03:05:16Z</time>
      </trkpt>
      <trkpt lat="43.351394" lon="-6.393451">
        <ele>705.981</ele>
        <time>2018-05-19T03:05:36Z</time>
      </trkpt>
      <trkpt lat="43.351242" lon="-6.393486">
        <ele>706.121</ele>
        <time>2018-05-19T03:05:56Z</time>
      </trkpt>
      <trkpt lat="43.350951" lon="-6.393436">
        <ele>704.741</ele>
        <time>2018-05-19T03:06:16Z</time>
      </trkpt>
      <trkpt lat="43.350793" lon="-6.393386">
        <ele>703.905</ele>
        <time>2018-05-19T03:06:36Z</time>
      </trkpt>
      <trkpt lat="43.350613" lon="-6.393292">
        <ele>702.908</ele>
        <time>2018-05-19T03:06:56Z</time>
      </trkpt>
      <trkpt lat="43.350376" lon="-6.392950">
        <ele>700.564</ele>
        <time>2018-05-19T03:07:16Z</time>
      </trkpt>
      <trkpt lat="43.350381" lon="-6.393034">
        <ele>700.997</ele>
        <time>2018-05-19T03:07:36Z</time>
      </trkpt>
      <trkpt lat="43.350412" lon="-6.393202">
        <ele>701.512</ele>
        <time>2018-05-19T03:07:56Z</time>
      </trkpt>
      <trkpt lat="43.350419" lon="-6.393419">
        <ele>702.232</ele>
        <time>2018-05-19T03:08:16Z</time>
      </trkpt>
      <trkpt lat="43.350437" lon="-6.393552">
        <ele>702.563</ele>
        <time>2018-05-19T03:08:36Z</time>
      </trkpt>
      <trkpt lat="43.350547" lon="-6.393733">
        <ele>703.422</ele>
        <time>2018-05-19T03:08:56Z</time>
      </trkpt>
      <trkpt lat="43.350690" lon="-6.393897">
        <ele>704.046</ele>
        <time>2018-05-19T03:09:16Z</time>
      </trkpt>
      <trkpt lat="43.350787" lon="-6.394064">
        <ele>705.276</ele>
        <time>2018-05-19T03:09:36Z</time>
      </trkpt>
      <trkpt lat="43.350782" lon="-6.394209">
        <ele>706.064</ele>
        <time>2018-05-19T03:09:56Z</time>
      </trkpt>
      <trkpt lat="43.350601" lon="-6.394293">
        <ele>705.606</ele>
        <time>2018-05-19T03:10:16Z</time>
      </trkpt>
      <trkpt lat="43.350427" lon="-6.394381">
        <ele>705.216</ele>
        <time>2018-05-19T03:10:36Z</time>
      </trkpt>
      <trkpt lat="43.350329" lon="-6.394483">
        <ele>705.208</ele>
        <time>2018-05-19T03:10:56Z</time>
      </trkpt>
      <trkpt lat="43.350321" lon="-6.394705">
        <ele>705.338</ele>
        <time>2018-05-19T03:11:16Z</time>
      </trkpt>
      <trkpt lat="43.350387" lon="-6.394999">
        <ele>707.841</ele>
        <time>2018-05-19T03:11:36Z</time>
      </trkpt>
      <trkpt lat="43.350460" lon="-6.395342">
        <ele>709.916</ele>
        <time>2018-05-19T03:11:56Z</time>
      </trkpt>
      <trkpt lat="43.350582" lon="-6.395764">
        <ele>712.826</ele>
        <time>2018-05-19T03:12:16Z</time>
      </trkpt>
      <trkpt lat="43.350640" lon="-6.396028">
        <ele>714.077</ele>
        <time>2018-05-19T03:12:36Z</time>
      </trkpt>
      <trkpt lat="43.350708" lon="-6.396241">
        <ele>715.556</ele>
        <time>2018-05-19T03:12:56Z</time>
      </trkpt>
      <trkpt lat="43.350773" lon="-6.396393">
        <ele>716.830</ele>
        <time>2018-05-19T03:13:16Z</time>
      </trkpt>
      <trkpt lat="43.350932" lon="-6.396751">
        <ele>719.090</ele>
        <time>2018-05-19T03:13:36Z</time>
      </trkpt>
      <trkpt lat="43.351038" lon="-6.397026">
        <ele>720.876</ele>
        <time>2018-05-19T03:13:56Z</time>
      </trkpt>
      <trkpt lat="43.351075" lon="-6.397395">
        <ele>723.090</ele>
        <time>2018-05-19T03:14:16Z</time>
      </trkpt>
      <trkpt lat="43.351093" lon="-6.397648">
        <ele>724.319</ele>
        <time>2018-05-19T03:14:36Z</time>
      </trkpt>
      <trkpt lat="43.351114" lon="-6.397960">
        <ele>726.408</ele>
        <time>2018-05-19T03:14:56Z</time>
      </trkpt>
      <trkpt lat="43.351113" lon="-6.398176">
        <ele>729.249</ele>
        <time>2018-05-19T03:15:16Z</time>
      </trkpt>
      <trkpt lat="43.351164" lon="-6.398504">
        <ele>734.142</ele>
        <time>2018-05-19T03:15:36Z</time>
      </trkpt>
      <trkpt lat="43.351229" lon="-6.398717">
        <ele>735.357</ele>
        <time>2018-05-19T03:15:56Z</time>
      </trkpt>
      <trkpt lat="43.351310" lon="-6.398879">
        <ele>736.387</ele>
        <time>2018-05-19T03:16:16Z</time>
      </trkpt>
      <trkpt lat="43.351430" lon="-6.398988">
        <ele>737.128</ele>
        <time>2018-05-19T03:16:36Z</time>
      </trkpt>
      <trkpt lat="43.351590" lon="-6.399156">
        <ele>736.547</ele>
        <time>2018-05-19T03:16:56Z</time>
      </trkpt>
      <trkpt lat="43.351606" lon="-6.399307">
        <ele>736.461</ele>
        <time>2018-05-19T03:17:16Z</time>
      </trkpt>
      <trkpt lat="43.351595" lon="-6.399499">
        <ele>736.821</ele>
        <time>2018-05-19T03:17:36Z</time>
      </trkpt>
      <trkpt lat="43.351544" lon="-6.399661">
        <ele>738.482</ele>
        <time>2018-05-19T03:17:56Z</time>
      </trkpt>
      <trkpt lat="43.351399" lon="-6.399789">
        <ele>740.443</ele>
        <time>2018-05-19T03:18:16Z</time>
      </trkpt>
      <trkpt lat="43.351136" lon="-6.399867">
        <ele>739.417</ele>
        <time>2018-05-19T03:18:36Z</time>
      </trkpt>
      <trkpt lat="43.351026" lon="-6.399998">
        <ele>741.008</ele>
        <time>2018-05-19T03:18:56Z</time>
      </trkpt>
      <trkpt lat="43.350882" lon="-6.400178">
        <ele>743.180</ele>
        <time>2018-05-19T03:19:16Z</time>
      </trkpt>
      <trkpt lat="43.350800" lon="-6.400400">
        <ele>745.763</ele>
        <time>2018-05-19T03:19:36Z</time>
      </trkpt>
      <trkpt lat="43.350724" lon="-6.400559">
        <ele>746.548</ele>
        <time>2018-05-19T03:19:56Z</time>
      </trkpt>
      <trkpt lat="43.350676" lon="-6.400700">
        <ele>747.788</ele>
        <time>2018-05-19T03:20:16Z</time>
      </trkpt>
      <trkpt lat="43.350598" lon="-6.400808">
        <ele>747.629</ele>
        <time>2018-05-19T03:20:36Z</time>
      </trkpt>
      <trkpt lat="43.350516" lon="-6.400916">
        <ele>748.048</ele>
        <time>2018-05-19T03:20:56Z</time>
      </trkpt>
      <trkpt lat="43.350415" lon="-6.400989">
        <ele>748.072</ele>
        <time>2018-05-19T03:21:16Z</time>
      </trkpt>
      <trkpt lat="43.350205" lon="-6.400968">
        <ele>745.792</ele>
        <time>2018-05-19T03:21:36Z</time>
      </trkpt>
      <trkpt lat="43.350013" lon="-6.400962">
        <ele>744.951</ele>
        <time>2018-05-19T03:21:56Z</time>
      </trkpt>
      <trkpt lat="43.349887" lon="-6.400966">
        <ele>744.701</ele>
        <time>2018-05-19T03:22:16Z</time>
      </trkpt>
      <trkpt lat="43.349733" lon="-6.400968">
        <ele>744.511</ele>
        <time>2018-05-19T03:22:36Z</time>
      </trkpt>
      <trkpt lat="43.349605" lon="-6.401000">
        <ele>744.308</ele>
        <time>2018-05-19T03:22:56Z</time>
      </trkpt>
      <trkpt lat="43.349472" lon="-6.401035">
        <ele>743.957</ele>
        <time>2018-05-19T03:23:16Z</time>
      </trkpt>
      <trkpt lat="43.349276" lon="-6.401047">
        <ele>743.530</ele>
        <time>2018-05-19T03:23:36Z</time>
      </trkpt>
      <trkpt lat="43.349151" lon="-6.401078">
        <ele>743.515</ele>
        <time>2018-05-19T03:23:56Z</time>
      </trkpt>
      <trkpt lat="43.349004" lon="-6.401125">
        <ele>743.025</ele>
        <time>2018-05-19T03:24:16Z</time>
      </trkpt>
      <trkpt lat="43.348869" lon="-6.401167">
        <ele>742.456</ele>
        <time>2018-05-19T03:24:36Z</time>
      </trkpt>
      <trkpt lat="43.348765" lon="-6.401218">
        <ele>742.085</ele>
        <time>2018-05-19T03:24:56Z</time>
      </trkpt>
      <trkpt lat="43.348698" lon="-6.401207">
        <ele>741.279</ele>
        <time>2018-05-19T03:25:16Z</time>
      </trkpt>
      <trkpt lat="43.348635" lon="-6.401216">
        <ele>740.779</ele>
        <time>2018-05-19T03:25:36Z</time>
      </trkpt>
      <trkpt lat="43.348585" lon="-6.401221">
        <ele>740.361</ele>
        <time>2018-05-19T03:25:56Z</time>
      </trkpt>
      <trkpt lat="43.348404" lon="-6.401186">
        <ele>738.221</ele>
        <time>2018-05-19T03:26:16Z</time>
      </trkpt>
      <trkpt lat="43.348337" lon="-6.401228">
        <ele>737.913</ele>
        <time>2018-05-19T03:26:36Z</time>
      </trkpt>
      <trkpt lat="43.348170" lon="-6.401299">
        <ele>736.208</ele>
        <time>2018-05-19T03:26:56Z</time>
      </trkpt>
      <trkpt lat="43.347967" lon="-6.401465">
        <ele>735.578</ele>
        <time>2018-05-19T03:27:16Z</time>
      </trkpt>
      <trkpt lat="43.347770" lon="-6.401543">
        <ele>736.161</ele>
        <time>2018-05-19T03:27:36Z</time>
      </trkpt>
      <trkpt lat="43.347592" lon="-6.401634">
        <ele>736.816</ele>
        <time>2018-05-19T03:27:56Z</time>
      </trkpt>
      <trkpt lat="43.347358" lon="-6.401846">
        <ele>736.626</ele>
        <time>2018-05-19T03:28:16Z</time>
      </trkpt>
      <trkpt lat="43.347168" lon="-6.401951">
        <ele>734.437</ele>
        <time>2018-05-19T03:28:36Z</time>
      </trkpt>
      <trkpt lat="43.346978" lon="-6.401946">
        <ele>732.446</ele>
        <time>2018-05-19T03:28:56Z</time>
      </trkpt>
      <trkpt lat="43.346708" lon="-6.401920">
        <ele>730.150</ele>
        <time>2018-05-19T03:29:16Z</time>
      </trkpt>
      <trkpt lat="43.346476" lon="-6.401800">
        <ele>727.340</ele>
        <time>2018-05-19T03:29:36Z</time>
      </trkpt>
      <trkpt lat="43.346217" lon="-6.401709">
        <ele>724.289</ele>
        <time>2018-05-19T03:29:56Z</time>
      </trkpt>
      <trkpt lat="43.345767" lon="-6.401774">
        <ele>718.706</ele>
        <time>2018-05-19T03:30:16Z</time>
      </trkpt>
      <trkpt lat="43.345581" lon="-6.401815">
        <ele>717.626</ele>
        <time>2018-05-19T03:30:36Z</time>
      </trkpt>
      <trkpt lat="43.345401" lon="-6.401752">
        <ele>716.008</ele>
        <time>2018-05-19T03:30:56Z</time>
      </trkpt>
      <trkpt lat="43.345266" lon="-6.401581">
        <ele>715.540</ele>
        <time>2018-05-19T03:31:16Z</time>
      </trkpt>
      <trkpt lat="43.345169" lon="-6.401392">
        <ele>715.853</ele>
        <time>2018-05-19T03:31:36Z</time>
      </trkpt>
      <trkpt lat="43.345124" lon="-6.401247">
        <ele>715.748</ele>
        <time>2018-05-19T03:31:56Z</time>
      </trkpt>
      <trkpt lat="43.345072" lon="-6.401280">
        <ele>715.348</ele>
        <time>2018-05-19T03:32:16Z</time>
      </trkpt>
      <trkpt lat="43.345004" lon="-6.401366">
        <ele>714.229</ele>
        <time>2018-05-19T03:32:36Z</time>
      </trkpt>
      <trkpt lat="43.344972" lon="-6.401731">
        <ele>710.078</ele>
        <time>2018-05-19T03:32:56Z</time>
      </trkpt>
      <trkpt lat="43.344967" lon="-6.401984">
        <ele>708.362</ele>
        <time>2018-05-19T03:33:16Z</time>
      </trkpt>
      <trkpt lat="43.344861" lon="-6.402535">
        <ele>707.962</ele>
        <time>2018-05-19T03:33:36Z</time>
      </trkpt>
      <trkpt lat="43.344879" lon="-6.402809">
        <ele>711.449</ele>
        <time>2018-05-19T03:33:56Z</time>
      </trkpt>
      <trkpt lat="43.344886" lon="-6.402943">
        <ele>713.602</ele>
        <time>2018-05-19T03:34:16Z</time>
      </trkpt>
      <trkpt lat="43.344787" lon="-6.403023">
        <ele>716.922</ele>
        <time>2018-05-19T03:34:36Z</time>
      </trkpt>
      <trkpt lat="43.344533" lon="-6.402915">
        <ele>720.208</ele>
        <time>2018-05-19T03:34:56Z</time>
      </trkpt>
      <trkpt lat="43.344328" lon="-6.402824">
        <ele>721.826</ele>
        <time>2018-05-19T03:35:16Z</time>
      </trkpt>
      <trkpt lat="43.344148" lon="-6.402661">
        <ele>721.689</ele>
        <time>2018-05-19T03:35:36Z</time>
      </trkpt>
      <trkpt lat="43.343965" lon="-6.402490">
        <ele>721.014</ele>
        <time>2018-05-19T03:35:56Z</time>
      </trkpt>
      <trkpt lat="43.343819" lon="-6.402328">
        <ele>720.644</ele>
        <time>2018-05-19T03:36:16Z</time>
      </trkpt>
      <trkpt lat="43.343681" lon="-6.402274">
        <ele>721.985</ele>
        <time>2018-05-19T03:36:36Z</time>
      </trkpt>
      <trkpt lat="43.343300" lon="-6.402187">
        <ele>724.924</ele>
        <time>2018-05-19T03:36:56Z</time>
      </trkpt>
      <trkpt lat="43.343011" lon="-6.402201">
        <ele>728.258</ele>
        <time>2018-05-19T03:37:16Z</time>
      </trkpt>
      <trkpt lat="43.342629" lon="-6.402096">
        <ele>729.838</ele>
        <time>2018-05-19T03:37:36Z</time>
      </trkpt>
      <trkpt lat="43.342412" lon="-6.402040">
        <ele>729.234</ele>
        <time>2018-05-19T03:37:56Z</time>
      </trkpt>
      <trkpt lat="43.342142" lon="-6.401947">
        <ele>725.955</ele>
        <time>2018-05-19T03:38:16Z</time>
      </trkpt>
      <trkpt lat="43.341842" lon="-6.401831">
        <ele>721.610</ele>
        <time>2018-05-19T03:38:36Z</time>
      </trkpt>
      <trkpt lat="43.341709" lon="-6.401779">
        <ele>720.608</ele>
        <time>2018-05-19T03:38:56Z</time>
      </trkpt>
      <trkpt lat="43.341285" lon="-6.401533">
        <ele>720.375</ele>
        <time>2018-05-19T03:39:16Z</time>
      </trkpt>
      <trkpt lat="43.341017" lon="-6.401353">
        <ele>720.088</ele>
        <time>2018-05-19T03:39:36Z</time>
      </trkpt>
      <trkpt lat="43.340809" lon="-6.401232">
        <ele>719.313</ele>
        <time>2018-05-19T03:39:56Z</time>
      </trkpt>
      <trkpt lat="43.340657" lon="-6.401104">
        <ele>717.753</ele>
        <time>2018-05-19T03:40:16Z</time>
      </trkpt>
      <trkpt lat="43.340538" lon="-6.401119">
        <ele>716.924</ele>
        <time>2018-05-19T03:40:36Z</time>
      </trkpt>
      <trkpt lat="43.340371" lon="-6.401151">
        <ele>716.053</ele>
        <time>2018-05-19T03:40:56Z</time>
      </trkpt>
      <trkpt lat="43.340291" lon="-6.401184">
        <ele>715.647</ele>
        <time>2018-05-19T03:41:16Z</time>
      </trkpt>
      <trkpt lat="43.340157" lon="-6.401259">
        <ele>715.247</ele>
        <time>2018-05-19T03:41:36Z</time>
      </trkpt>
      <trkpt lat="43.340106" lon="-6.401385">
        <ele>715.796</ele>
        <time>2018-05-19T03:41:56Z</time>
      </trkpt>
      <trkpt lat="43.339984" lon="-6.401648">
        <ele>716.831</ele>
        <time>2018-05-19T03:42:16Z</time>
      </trkpt>
      <trkpt lat="43.339932" lon="-6.401770">
        <ele>716.824</ele>
        <time>2018-05-19T03:42:36Z</time>
      </trkpt>
      <trkpt lat="43.339808" lon="-6.402025">
        <ele>717.108</ele>
        <time>2018-05-19T03:42:56Z</time>
      </trkpt>
      <trkpt lat="43.339686" lon="-6.402211">
        <ele>716.961</ele>
        <time>2018-05-19T03:43:16Z</time>
      </trkpt>
      <trkpt lat="43.339595" lon="-6.402376">
        <ele>716.384</ele>
        <time>2018-05-19T03:43:36Z</time>
      </trkpt>
      <trkpt lat="43.339520" lon="-6.402502">
        <ele>715.199</ele>
        <time>2018-05-19T03:43:56Z</time>
      </trkpt>
      <trkpt lat="43.339357" lon="-6.402700">
        <ele>714.999</ele>
        <time>2018-05-19T03:44:16Z</time>
      </trkpt>
      <trkpt lat="43.339249" lon="-6.402727">
        <ele>716.150</ele>
        <time>2018-05-19T03:44:36Z</time>
      </trkpt>
      <trkpt lat="43.339141" lon="-6.402758">
        <ele>717.799</ele>
        <time>2018-05-19T03:44:56Z</time>
      </trkpt>
      <trkpt lat="43.338935" lon="-6.402673">
        <ele>723.083</ele>
        <time>2018-05-19T03:45:16Z</time>
      </trkpt>
      <trkpt lat="43.338802" lon="-6.402584">
        <ele>725.293</ele>
        <time>2018-05-19T03:45:36Z</time>
      </trkpt>
      <trkpt lat="43.338685" lon="-6.402521">
        <ele>726.871</ele>
        <time>2018-05-19T03:45:56Z</time>
      </trkpt>
      <trkpt lat="43.338496" lon="-6.402533">
        <ele>729.441</ele>
        <time>2018-05-19T03:46:16Z</time>
      </trkpt>
      <trkpt lat="43.338365" lon="-6.402646">
        <ele>730.815</ele>
        <time>2018-05-19T03:46:36Z</time>
      </trkpt>
      <trkpt lat="43.338303" lon="-6.402733">
        <ele>731.008</ele>
        <time>2018-05-19T03:46:56Z</time>
      </trkpt>
      <trkpt lat="43.338263" lon="-6.402925">
        <ele>730.799</ele>
        <time>2018-05-19T03:47:16Z</time>
      </trkpt>
      <trkpt lat="43.338179" lon="-6.403106">
        <ele>729.632</ele>
        <time>2018-05-19T03:47:36Z</time>
      </trkpt>
      <trkpt lat="43.338118" lon="-6.403231">
        <ele>728.317</ele>
        <time>2018-05-19T03:47:56Z</time>
      </trkpt>
      <trkpt lat="43.337994" lon="-6.403529">
        <ele>726.357</ele>
        <time>2018-05-19T03:48:16Z</time>
      </trkpt>
      <trkpt lat="43.337918" lon="-6.403762">
        <ele>725.858</ele>
        <time>2018-05-19T03:48:36Z</time>
      </trkpt>
      <trkpt lat="43.337844" lon="-6.404004">
        <ele>725.137</ele>
        <time>2018-05-19T03:48:56Z</time>
      </trkpt>
      <trkpt lat="43.337798" lon="-6.404131">
        <ele>724.431</ele>
        <time>2018-05-19T03:49:16Z</time>
      </trkpt>
      <trkpt lat="43.337774" lon="-6.404259">
        <ele>723.991</ele>
        <time>2018-05-19T03:49:36Z</time>
      </trkpt>
      <trkpt lat="43.337721" lon="-6.404423">
        <ele>723.235</ele>
        <time>2018-05-19T03:49:56Z</time>
      </trkpt>
      <trkpt lat="43.337674" lon="-6.404692">
        <ele>724.086</ele>
        <time>2018-05-19T03:50:16Z</time>
      </trkpt>
      <trkpt lat="43.337639" lon="-6.404890">
        <ele>723.814</ele>
        <time>2018-05-19T03:50:36Z</time>
      </trkpt>
      <trkpt lat="43.337584" lon="-6.405183">
        <ele>723.208</ele>
        <time>2018-05-19T03:50:56Z</time>
      </trkpt>
      <trkpt lat="43.337555" lon="-6.405493">
        <ele>723.235</ele>
        <time>2018-05-19T03:51:16Z</time>
      </trkpt>
      <trkpt lat="43.337524" lon="-6.405838">
        <ele>722.698</ele>
        <time>2018-05-19T03:51:36Z</time>
      </trkpt>
      <trkpt lat="43.337489" lon="-6.406321">
        <ele>721.073</ele>
        <time>2018-05-19T03:51:56Z</time>
      </trkpt>
      <trkpt lat="43.337470" lon="-6.406598">
        <ele>720.143</ele>
        <time>2018-05-19T03:52:16Z</time>
      </trkpt>
      <trkpt lat="43.337427" lon="-6.406922">
        <ele>718.684</ele>
        <time>2018-05-19T03:52:36Z</time>
      </trkpt>
      <trkpt lat="43.337401" lon="-6.407222">
        <ele>719.893</ele>
        <time>2018-05-19T03:52:56Z</time>
      </trkpt>
      <trkpt lat="43.337366" lon="-6.407492">
        <ele>718.717</ele>
        <time>2018-05-19T03:53:16Z</time>
      </trkpt>
      <trkpt lat="43.337322" lon="-6.407862">
        <ele>716.067</ele>
        <time>2018-05-19T03:53:36Z</time>
      </trkpt>
      <trkpt lat="43.337283" lon="-6.408270">
        <ele>715.119</ele>
        <time>2018-05-19T03:53:56Z</time>
      </trkpt>
      <trkpt lat="43.337256" lon="-6.408524">
        <ele>717.109</ele>
        <time>2018-05-19T03:54:16Z</time>
      </trkpt>
      <trkpt lat="43.337236" lon="-6.408718">
        <ele>718.119</ele>
        <time>2018-05-19T03:54:36Z</time>
      </trkpt>
      <trkpt lat="43.337225" lon="-6.408948">
        <ele>717.608</ele>
        <time>2018-05-19T03:54:56Z</time>
      </trkpt>
      <trkpt lat="43.337211" lon="-6.409150">
        <ele>715.843</ele>
        <time>2018-05-19T03:55:16Z</time>
      </trkpt>
      <trkpt lat="43.337218" lon="-6.409431">
        <ele>713.026</ele>
        <time>2018-05-19T03:55:36Z</time>
      </trkpt>
      <trkpt lat="43.337231" lon="-6.409670">
        <ele>711.761</ele>
        <time>2018-05-19T03:55:56Z</time>
      </trkpt>
      <trkpt lat="43.337245" lon="-6.409921">
        <ele>712.871</ele>
        <time>2018-05-19T03:56:16Z</time>
      </trkpt>
      <trkpt lat="43.337258" lon="-6.410149">
        <ele>714.842</ele>
        <time>2018-05-19T03:56:36Z</time>
      </trkpt>
      <trkpt lat="43.337200" lon="-6.410521">
        <ele>713.021</ele>
        <time>2018-05-19T03:56:56Z</time>
      </trkpt>
      <trkpt lat="43.337112" lon="-6.410744">
        <ele>711.855</ele>
        <time>2018-05-19T03:57:16Z</time>
      </trkpt>
      <trkpt lat="43.337035" lon="-6.410813">
        <ele>709.625</ele>
        <time>2018-05-19T03:57:36Z</time>
      </trkpt>
      <trkpt lat="43.336923" lon="-6.410976">
        <ele>707.873</ele>
        <time>2018-05-19T03:57:56Z</time>
      </trkpt>
      <trkpt lat="43.336887" lon="-6.411027">
        <ele>707.485</ele>
        <time>2018-05-19T03:58:16Z</time>
      </trkpt>
      <trkpt lat="43.336791" lon="-6.411106">
        <ele>705.413</ele>
        <time>2018-05-19T03:58:36Z</time>
      </trkpt>
      <trkpt lat="43.336720" lon="-6.411246">
        <ele>703.408</ele>
        <time>2018-05-19T03:58:56Z</time>
      </trkpt>
      <trkpt lat="43.336646" lon="-6.411490">
        <ele>700.059</ele>
        <time>2018-05-19T03:59:16Z</time>
      </trkpt>
      <trkpt lat="43.336579" lon="-6.411809">
        <ele>697.662</ele>
        <time>2018-05-19T03:59:36Z</time>
      </trkpt>
      <trkpt lat="43.336554" lon="-6.412013">
        <ele>697.567</ele>
        <time>2018-05-19T03:59:56Z</time>
      </trkpt>
      <trkpt lat="43.336525" lon="-6.412283">
        <ele>697.227</ele>
        <time>2018-05-19T04:00:16Z</time>
      </trkpt>
      <trkpt lat="43.336480" lon="-6.412428">
        <ele>696.278</ele>
        <time>2018-05-19T04:00:36Z</time>
      </trkpt>
      <trkpt lat="43.336448" lon="-6.412656">
        <ele>696.347</ele>
        <time>2018-05-19T04:00:56Z</time>
      </trkpt>
      <trkpt lat="43.336335" lon="-6.412909">
        <ele>694.771</ele>
        <time>2018-05-19T04:01:16Z</time>
      </trkpt>
      <trkpt lat="43.336207" lon="-6.413143">
        <ele>692.621</ele>
        <time>2018-05-19T04:01:36Z</time>
      </trkpt>
      <trkpt lat="43.336133" lon="-6.413268">
        <ele>691.294</ele>
        <time>2018-05-19T04:01:56Z</time>
      </trkpt>
      <trkpt lat="43.336050" lon="-6.413451">
        <ele>689.357</ele>
        <time>2018-05-19T04:02:16Z</time>
      </trkpt>
      <trkpt lat="43.335982" lon="-6.413578">
        <ele>687.622</ele>
        <time>2018-05-19T04:02:36Z</time>
      </trkpt>
      <trkpt lat="43.335896" lon="-6.413850">
        <ele>687.208</ele>
        <time>2018-05-19T04:02:56Z</time>
      </trkpt>
      <trkpt lat="43.335826" lon="-6.414159">
        <ele>685.881</ele>
        <time>2018-05-19T04:03:16Z</time>
      </trkpt>
      <trkpt lat="43.335758" lon="-6.414410">
        <ele>684.434</ele>
        <time>2018-05-19T04:03:36Z</time>
      </trkpt>
      <trkpt lat="43.335691" lon="-6.414652">
        <ele>682.979</ele>
        <time>2018-05-19T04:03:56Z</time>
      </trkpt>
      <trkpt lat="43.335616" lon="-6.414811">
        <ele>681.789</ele>
        <time>2018-05-19T04:04:16Z</time>
      </trkpt>
      <trkpt lat="43.335551" lon="-6.414914">
        <ele>681.040</ele>
        <time>2018-05-19T04:04:36Z</time>
      </trkpt>
      <trkpt lat="43.335430" lon="-6.415097">
        <ele>678.979</ele>
        <time>2018-05-19T04:04:56Z</time>
      </trkpt>
      <trkpt lat="43.335201" lon="-6.415264">
        <ele>676.553</ele>
        <time>2018-05-19T04:05:16Z</time>
      </trkpt>
      <trkpt lat="43.334937" lon="-6.415500">
        <ele>672.953</ele>
        <time>2018-05-19T04:05:36Z</time>
      </trkpt>
      <trkpt lat="43.334835" lon="-6.415631">
        <ele>670.964</ele>
        <time>2018-05-19T04:05:56Z</time>
      </trkpt>
      <trkpt lat="43.334695" lon="-6.415847">
        <ele>667.406</ele>
        <time>2018-05-19T04:06:16Z</time>
      </trkpt>
      <trkpt lat="43.334588" lon="-6.416043">
        <ele>664.116</ele>
        <time>2018-05-19T04:06:36Z</time>
      </trkpt>
      <trkpt lat="43.334518" lon="-6.416121">
        <ele>663.108</ele>
        <time>2018-05-19T04:06:56Z</time>
      </trkpt>
      <trkpt lat="43.334457" lon="-6.416184">
        <ele>661.768</ele>
        <time>2018-05-19T04:07:16Z</time>
      </trkpt>
      <trkpt lat="43.334360" lon="-6.416308">
        <ele>658.941</ele>
        <time>2018-05-19T04:07:36Z</time>
      </trkpt>
      <trkpt lat="43.334229" lon="-6.416461">
        <ele>656.586</ele>
        <time>2018-05-19T04:07:56Z</time>
      </trkpt>
      <trkpt lat="43.334119" lon="-6.416606">
        <ele>655.036</ele>
        <time>2018-05-19T04:08:16Z</time>
      </trkpt>
      <trkpt lat="43.334058" lon="-6.416605">
        <ele>654.517</ele>
        <time>2018-05-19T04:08:36Z</time>
      </trkpt>
      <trkpt lat="43.334055" lon="-6.416723">
        <ele>654.256</ele>
        <time>2018-05-19T04:08:56Z</time>
      </trkpt>
      <trkpt lat="43.333944" lon="-6.416824">
        <ele>653.470</ele>
        <time>2018-05-19T04:09:16Z</time>
      </trkpt>
      <trkpt lat="43.333899" lon="-6.416837">
        <ele>653.190</ele>
        <time>2018-05-19T04:09:36Z</time>
      </trkpt>
    </trkseg>
  </trk>
</gpx>
